<?xml version="1.0" encoding="UTF-8"?>
<gpx
version="1.0"
creator="Polar ProTrainer 5 - www.polar.fi"
xmlns:xsi="http://www.w3.org/2001/XMLSchema-instance"
xmlns="http://www.topografix.com/GPX/1/0"
xsi:schemaLocation="http://www.topografix.com/GPX/1/0 http://www.topografix.com/GPX/1/0/gpx.xsd">
<time>2012-06-16T18:36:08Z</time>
<trk>
<trkseg>
<trkpt lat="48.301820000" lon="16.379705000">
<time>2012-06-16T18:36:09Z</time>
 <fix>none</fix>
 <sat>0</sat>
</trkpt>
<trkpt lat="48.301815000" lon="16.379686667">
<time>2012-06-16T18:36:10Z</time>
 <fix>none</fix>
 <sat>0</sat>
</trkpt>
<trkpt lat="48.301826667" lon="16.379665000">
<time>2012-06-16T18:36:11Z</time>
 <fix>none</fix>
 <sat>0</sat>
</trkpt>
<trkpt lat="48.301843333" lon="16.379645000">
<time>2012-06-16T18:36:12Z</time>
 <fix>none</fix>
 <sat>0</sat>
</trkpt>
<trkpt lat="48.301856667" lon="16.379608333">
<time>2012-06-16T18:36:13Z</time>
 <fix>none</fix>
 <sat>0</sat>
</trkpt>
<trkpt lat="48.301868333" lon="16.379573333">
<time>2012-06-16T18:36:14Z</time>
 <fix>none</fix>
 <sat>0</sat>
</trkpt>
<trkpt lat="48.301871667" lon="16.379526667">
<time>2012-06-16T18:36:15Z</time>
 <fix>none</fix>
 <sat>0</sat>
</trkpt>
<trkpt lat="48.301883333" lon="16.379475000">
<time>2012-06-16T18:36:16Z</time>
 <fix>none</fix>
 <sat>0</sat>
</trkpt>
<trkpt lat="48.301905000" lon="16.379423333">
<time>2012-06-16T18:36:17Z</time>
 <fix>none</fix>
 <sat>0</sat>
</trkpt>
<trkpt lat="48.301946667" lon="16.379376667">
<time>2012-06-16T18:36:18Z</time>
 <fix>none</fix>
 <sat>0</sat>
</trkpt>
<trkpt lat="48.301970000" lon="16.379325000">
<time>2012-06-16T18:36:19Z</time>
 <fix>none</fix>
 <sat>0</sat>
</trkpt>
<trkpt lat="48.302025000" lon="16.379276667">
<time>2012-06-16T18:36:20Z</time>
 <fix>none</fix>
 <sat>0</sat>
</trkpt>
<trkpt lat="48.302038333" lon="16.379205000">
<time>2012-06-16T18:36:21Z</time>
 <fix>none</fix>
 <sat>0</sat>
</trkpt>
<trkpt lat="48.302081667" lon="16.379140000">
<time>2012-06-16T18:36:22Z</time>
 <fix>none</fix>
 <sat>0</sat>
</trkpt>
<trkpt lat="48.302111667" lon="16.379075000">
<time>2012-06-16T18:36:23Z</time>
 <fix>none</fix>
 <sat>0</sat>
</trkpt>
<trkpt lat="48.302141667" lon="16.379006667">
<time>2012-06-16T18:36:24Z</time>
 <fix>none</fix>
 <sat>0</sat>
</trkpt>
<trkpt lat="48.302228333" lon="16.378945000">
<time>2012-06-16T18:36:25Z</time>
 <fix>none</fix>
 <sat>0</sat>
</trkpt>
<trkpt lat="48.302278333" lon="16.378870000">
<time>2012-06-16T18:36:26Z</time>
 <fix>none</fix>
 <sat>0</sat>
</trkpt>
<trkpt lat="48.302321667" lon="16.378790000">
<time>2012-06-16T18:36:27Z</time>
 <fix>none</fix>
 <sat>0</sat>
</trkpt>
<trkpt lat="48.302363333" lon="16.378711667">
<time>2012-06-16T18:36:28Z</time>
 <fix>none</fix>
 <sat>0</sat>
</trkpt>
<trkpt lat="48.302403333" lon="16.378628333">
<time>2012-06-16T18:36:29Z</time>
 <fix>none</fix>
 <sat>0</sat>
</trkpt>
<trkpt lat="48.302440000" lon="16.378541667">
<time>2012-06-16T18:36:30Z</time>
 <fix>none</fix>
 <sat>0</sat>
</trkpt>
<trkpt lat="48.302506667" lon="16.378470000">
<time>2012-06-16T18:36:31Z</time>
 <fix>none</fix>
 <sat>0</sat>
</trkpt>
<trkpt lat="48.302550000" lon="16.378385000">
<time>2012-06-16T18:36:32Z</time>
 <fix>none</fix>
 <sat>0</sat>
</trkpt>
<trkpt lat="48.302558333" lon="16.378286667">
<time>2012-06-16T18:36:33Z</time>
 <fix>none</fix>
 <sat>0</sat>
</trkpt>
<trkpt lat="48.302573333" lon="16.378188333">
<time>2012-06-16T18:36:34Z</time>
 <fix>none</fix>
 <sat>0</sat>
</trkpt>
<trkpt lat="48.302630000" lon="16.378108333">
<time>2012-06-16T18:36:35Z</time>
 <fix>none</fix>
 <sat>0</sat>
</trkpt>
<trkpt lat="48.302646667" lon="16.378013333">
<time>2012-06-16T18:36:36Z</time>
 <fix>none</fix>
 <sat>0</sat>
</trkpt>
<trkpt lat="48.302665000" lon="16.377920000">
<time>2012-06-16T18:36:37Z</time>
 <fix>none</fix>
 <sat>0</sat>
</trkpt>
<trkpt lat="48.302698333" lon="16.377833333">
<time>2012-06-16T18:36:38Z</time>
 <fix>none</fix>
 <sat>0</sat>
</trkpt>
<trkpt lat="48.302740000" lon="16.377750000">
<time>2012-06-16T18:36:39Z</time>
 <fix>none</fix>
 <sat>0</sat>
</trkpt>
<trkpt lat="48.302775000" lon="16.377665000">
<time>2012-06-16T18:36:40Z</time>
 <fix>none</fix>
 <sat>0</sat>
</trkpt>
<trkpt lat="48.302788333" lon="16.377566667">
<time>2012-06-16T18:36:41Z</time>
 <fix>none</fix>
 <sat>0</sat>
</trkpt>
<trkpt lat="48.302796667" lon="16.377468333">
<time>2012-06-16T18:36:42Z</time>
 <fix>none</fix>
 <sat>0</sat>
</trkpt>
<trkpt lat="48.302806667" lon="16.377370000">
<time>2012-06-16T18:36:43Z</time>
 <fix>none</fix>
 <sat>0</sat>
</trkpt>
<trkpt lat="48.302826667" lon="16.377278333">
<time>2012-06-16T18:36:44Z</time>
 <fix>none</fix>
 <sat>0</sat>
</trkpt>
<trkpt lat="48.302851667" lon="16.377195000">
<time>2012-06-16T18:36:45Z</time>
 <fix>none</fix>
 <sat>0</sat>
</trkpt>
<trkpt lat="48.302856667" lon="16.377105000">
<time>2012-06-16T18:36:46Z</time>
 <fix>none</fix>
 <sat>0</sat>
</trkpt>
<trkpt lat="48.302865000" lon="16.377018333">
<time>2012-06-16T18:36:47Z</time>
 <fix>none</fix>
 <sat>0</sat>
</trkpt>
<trkpt lat="48.302893333" lon="16.376940000">
<time>2012-06-16T18:36:48Z</time>
 <fix>none</fix>
 <sat>0</sat>
</trkpt>
<trkpt lat="48.302880000" lon="16.376846667">
<time>2012-06-16T18:36:49Z</time>
 <fix>none</fix>
 <sat>0</sat>
</trkpt>
<trkpt lat="48.302901667" lon="16.376766667">
<time>2012-06-16T18:36:50Z</time>
 <fix>none</fix>
 <sat>0</sat>
</trkpt>
<trkpt lat="48.302950000" lon="16.376698333">
<time>2012-06-16T18:36:51Z</time>
 <fix>none</fix>
 <sat>0</sat>
</trkpt>
<trkpt lat="48.303011667" lon="16.376635000">
<time>2012-06-16T18:36:52Z</time>
 <fix>none</fix>
 <sat>0</sat>
</trkpt>
<trkpt lat="48.303026667" lon="16.376555000">
<time>2012-06-16T18:36:53Z</time>
 <fix>none</fix>
 <sat>0</sat>
</trkpt>
<trkpt lat="48.303011667" lon="16.376466667">
<time>2012-06-16T18:36:54Z</time>
 <fix>none</fix>
 <sat>0</sat>
</trkpt>
<trkpt lat="48.302986667" lon="16.376375000">
<time>2012-06-16T18:36:55Z</time>
 <fix>none</fix>
 <sat>0</sat>
</trkpt>
<trkpt lat="48.302985000" lon="16.376288333">
<time>2012-06-16T18:36:56Z</time>
 <fix>none</fix>
 <sat>0</sat>
</trkpt>
<trkpt lat="48.302990000" lon="16.376211667">
<time>2012-06-16T18:36:57Z</time>
 <fix>none</fix>
 <sat>0</sat>
</trkpt>
<trkpt lat="48.302993333" lon="16.376135000">
<time>2012-06-16T18:36:58Z</time>
 <fix>none</fix>
 <sat>0</sat>
</trkpt>
<trkpt lat="48.303051667" lon="16.376088333">
<time>2012-06-16T18:36:59Z</time>
 <fix>none</fix>
 <sat>0</sat>
</trkpt>
<trkpt lat="48.303075000" lon="16.376023333">
<time>2012-06-16T18:37:00Z</time>
 <fix>none</fix>
 <sat>0</sat>
</trkpt>
<trkpt lat="48.303113333" lon="16.375966667">
<time>2012-06-16T18:37:01Z</time>
 <fix>none</fix>
 <sat>0</sat>
</trkpt>
<trkpt lat="48.303175000" lon="16.375925000">
<time>2012-06-16T18:37:02Z</time>
 <fix>none</fix>
 <sat>0</sat>
</trkpt>
<trkpt lat="48.303233333" lon="16.375883333">
<time>2012-06-16T18:37:03Z</time>
 <fix>none</fix>
 <sat>0</sat>
</trkpt>
<trkpt lat="48.303273333" lon="16.375835000">
<time>2012-06-16T18:37:04Z</time>
 <fix>none</fix>
 <sat>0</sat>
</trkpt>
<trkpt lat="48.303281667" lon="16.375780000">
<time>2012-06-16T18:37:05Z</time>
 <fix>none</fix>
 <sat>0</sat>
</trkpt>
<trkpt lat="48.303291667" lon="16.375725000">
<time>2012-06-16T18:37:06Z</time>
 <fix>none</fix>
 <sat>0</sat>
</trkpt>
<trkpt lat="48.303286667" lon="16.375671667">
<time>2012-06-16T18:37:07Z</time>
 <fix>none</fix>
 <sat>0</sat>
</trkpt>
<trkpt lat="48.303291667" lon="16.375621667">
<time>2012-06-16T18:37:08Z</time>
 <fix>none</fix>
 <sat>0</sat>
</trkpt>
<trkpt lat="48.303290000" lon="16.375571667">
<time>2012-06-16T18:37:09Z</time>
 <fix>none</fix>
 <sat>0</sat>
</trkpt>
<trkpt lat="48.303290000" lon="16.375523333">
<time>2012-06-16T18:37:10Z</time>
 <fix>none</fix>
 <sat>0</sat>
</trkpt>
<trkpt lat="48.303325000" lon="16.375486667">
<time>2012-06-16T18:37:11Z</time>
 <fix>none</fix>
 <sat>0</sat>
</trkpt>
<trkpt lat="48.303363333" lon="16.375455000">
<time>2012-06-16T18:37:12Z</time>
 <fix>none</fix>
 <sat>0</sat>
</trkpt>
<trkpt lat="48.303401667" lon="16.375423333">
<time>2012-06-16T18:37:13Z</time>
 <fix>none</fix>
 <sat>0</sat>
</trkpt>
<trkpt lat="48.303421667" lon="16.375385000">
<time>2012-06-16T18:37:14Z</time>
 <fix>none</fix>
 <sat>0</sat>
</trkpt>
<trkpt lat="48.303461667" lon="16.375356667">
<time>2012-06-16T18:37:15Z</time>
 <fix>none</fix>
 <sat>0</sat>
</trkpt>
<trkpt lat="48.303498333" lon="16.375326667">
<time>2012-06-16T18:37:16Z</time>
 <fix>none</fix>
 <sat>0</sat>
</trkpt>
<trkpt lat="48.303516667" lon="16.375288333">
<time>2012-06-16T18:37:17Z</time>
 <fix>none</fix>
 <sat>0</sat>
</trkpt>
<trkpt lat="48.303528333" lon="16.375245000">
<time>2012-06-16T18:37:18Z</time>
 <fix>none</fix>
 <sat>0</sat>
</trkpt>
<trkpt lat="48.303520000" lon="16.375195000">
<time>2012-06-16T18:37:19Z</time>
 <fix>none</fix>
 <sat>0</sat>
</trkpt>
<trkpt lat="48.303523333" lon="16.375148333">
<time>2012-06-16T18:37:20Z</time>
 <fix>none</fix>
 <sat>0</sat>
</trkpt>
<trkpt lat="48.303525000" lon="16.375098333">
<time>2012-06-16T18:37:21Z</time>
 <fix>none</fix>
 <sat>0</sat>
</trkpt>
<trkpt lat="48.303528333" lon="16.375050000">
<time>2012-06-16T18:37:22Z</time>
 <fix>none</fix>
 <sat>0</sat>
</trkpt>
<trkpt lat="48.303531667" lon="16.374998333">
<time>2012-06-16T18:37:23Z</time>
 <fix>none</fix>
 <sat>0</sat>
</trkpt>
<trkpt lat="48.303530000" lon="16.374945000">
<time>2012-06-16T18:37:24Z</time>
 <fix>none</fix>
 <sat>0</sat>
</trkpt>
<trkpt lat="48.303526667" lon="16.374893333">
<time>2012-06-16T18:37:25Z</time>
 <fix>none</fix>
 <sat>0</sat>
</trkpt>
<trkpt lat="48.303553333" lon="16.374853333">
<time>2012-06-16T18:37:26Z</time>
 <fix>none</fix>
 <sat>0</sat>
</trkpt>
<trkpt lat="48.303560000" lon="16.374806667">
<time>2012-06-16T18:37:27Z</time>
 <fix>none</fix>
 <sat>0</sat>
</trkpt>
<trkpt lat="48.303550000" lon="16.374750000">
<time>2012-06-16T18:37:28Z</time>
 <fix>none</fix>
 <sat>0</sat>
</trkpt>
<trkpt lat="48.303573333" lon="16.374698333">
<time>2012-06-16T18:37:29Z</time>
 <fix>none</fix>
 <sat>0</sat>
</trkpt>
<trkpt lat="48.303608333" lon="16.374648333">
<time>2012-06-16T18:37:30Z</time>
 <fix>none</fix>
 <sat>0</sat>
</trkpt>
<trkpt lat="48.303675000" lon="16.374606667">
<time>2012-06-16T18:37:31Z</time>
 <fix>none</fix>
 <sat>0</sat>
</trkpt>
<trkpt lat="48.303683333" lon="16.374535000">
<time>2012-06-16T18:37:32Z</time>
 <fix>none</fix>
 <sat>0</sat>
</trkpt>
<trkpt lat="48.303690000" lon="16.374463333">
<time>2012-06-16T18:37:33Z</time>
 <fix>none</fix>
 <sat>0</sat>
</trkpt>
<trkpt lat="48.303668333" lon="16.374378333">
<time>2012-06-16T18:37:34Z</time>
 <fix>none</fix>
 <sat>0</sat>
</trkpt>
<trkpt lat="48.303670000" lon="16.374298333">
<time>2012-06-16T18:37:35Z</time>
 <fix>none</fix>
 <sat>0</sat>
</trkpt>
<trkpt lat="48.303671667" lon="16.374216667">
<time>2012-06-16T18:37:36Z</time>
 <fix>none</fix>
 <sat>0</sat>
</trkpt>
<trkpt lat="48.303650000" lon="16.374125000">
<time>2012-06-16T18:37:37Z</time>
 <fix>none</fix>
 <sat>0</sat>
</trkpt>
<trkpt lat="48.303680000" lon="16.374051667">
<time>2012-06-16T18:37:38Z</time>
 <fix>none</fix>
 <sat>0</sat>
</trkpt>
<trkpt lat="48.303683333" lon="16.373966667">
<time>2012-06-16T18:37:39Z</time>
 <fix>none</fix>
 <sat>0</sat>
</trkpt>
<trkpt lat="48.303708333" lon="16.373891667">
<time>2012-06-16T18:37:40Z</time>
 <fix>none</fix>
 <sat>0</sat>
</trkpt>
<trkpt lat="48.303683333" lon="16.373790000">
<time>2012-06-16T18:37:41Z</time>
 <fix>none</fix>
 <sat>0</sat>
</trkpt>
<trkpt lat="48.303650000" lon="16.373686667">
<time>2012-06-16T18:37:42Z</time>
 <fix>none</fix>
 <sat>0</sat>
</trkpt>
<trkpt lat="48.303668333" lon="16.373603333">
<time>2012-06-16T18:37:43Z</time>
 <fix>none</fix>
 <sat>0</sat>
</trkpt>
<trkpt lat="48.303695000" lon="16.373523333">
<time>2012-06-16T18:37:44Z</time>
 <fix>none</fix>
 <sat>0</sat>
</trkpt>
<trkpt lat="48.303726667" lon="16.373445000">
<time>2012-06-16T18:37:45Z</time>
 <fix>none</fix>
 <sat>0</sat>
</trkpt>
<trkpt lat="48.303745000" lon="16.373358333">
<time>2012-06-16T18:37:46Z</time>
 <fix>none</fix>
 <sat>0</sat>
</trkpt>
<trkpt lat="48.303741667" lon="16.373260000">
<time>2012-06-16T18:37:47Z</time>
 <fix>none</fix>
 <sat>0</sat>
</trkpt>
<trkpt lat="48.303763333" lon="16.373173333">
<time>2012-06-16T18:37:48Z</time>
 <fix>none</fix>
 <sat>0</sat>
</trkpt>
<trkpt lat="48.303768333" lon="16.373078333">
<time>2012-06-16T18:37:49Z</time>
 <fix>none</fix>
 <sat>0</sat>
</trkpt>
<trkpt lat="48.303816667" lon="16.373001667">
<time>2012-06-16T18:37:50Z</time>
 <fix>none</fix>
 <sat>0</sat>
</trkpt>
<trkpt lat="48.303865000" lon="16.372928333">
<time>2012-06-16T18:37:51Z</time>
 <fix>none</fix>
 <sat>0</sat>
</trkpt>
<trkpt lat="48.303890000" lon="16.372845000">
<time>2012-06-16T18:37:52Z</time>
 <fix>none</fix>
 <sat>0</sat>
</trkpt>
<trkpt lat="48.303928333" lon="16.372768333">
<time>2012-06-16T18:37:53Z</time>
 <fix>none</fix>
 <sat>0</sat>
</trkpt>
<trkpt lat="48.303963333" lon="16.372690000">
<time>2012-06-16T18:37:54Z</time>
 <fix>none</fix>
 <sat>0</sat>
</trkpt>
<trkpt lat="48.303975000" lon="16.372603333">
<time>2012-06-16T18:37:55Z</time>
 <fix>none</fix>
 <sat>0</sat>
</trkpt>
<trkpt lat="48.304023333" lon="16.372533333">
<time>2012-06-16T18:37:56Z</time>
 <fix>none</fix>
 <sat>0</sat>
</trkpt>
<trkpt lat="48.304073333" lon="16.372465000">
<time>2012-06-16T18:37:57Z</time>
 <fix>none</fix>
 <sat>0</sat>
</trkpt>
<trkpt lat="48.304115000" lon="16.372395000">
<time>2012-06-16T18:37:58Z</time>
 <fix>none</fix>
 <sat>0</sat>
</trkpt>
<trkpt lat="48.304136667" lon="16.372318333">
<time>2012-06-16T18:37:59Z</time>
 <fix>none</fix>
 <sat>0</sat>
</trkpt>
<trkpt lat="48.304140000" lon="16.372240000">
<time>2012-06-16T18:38:00Z</time>
 <fix>none</fix>
 <sat>0</sat>
</trkpt>
<trkpt lat="48.304145000" lon="16.372160000">
<time>2012-06-16T18:38:01Z</time>
 <fix>none</fix>
 <sat>0</sat>
</trkpt>
<trkpt lat="48.304150000" lon="16.372090000">
<time>2012-06-16T18:38:02Z</time>
 <fix>none</fix>
 <sat>0</sat>
</trkpt>
<trkpt lat="48.304165000" lon="16.372025000">
<time>2012-06-16T18:38:03Z</time>
 <fix>none</fix>
 <sat>0</sat>
</trkpt>
<trkpt lat="48.304176667" lon="16.371963333">
<time>2012-06-16T18:38:04Z</time>
 <fix>none</fix>
 <sat>0</sat>
</trkpt>
<trkpt lat="48.304176667" lon="16.371905000">
<time>2012-06-16T18:38:05Z</time>
 <fix>none</fix>
 <sat>0</sat>
</trkpt>
<trkpt lat="48.304196667" lon="16.371848333">
<time>2012-06-16T18:38:06Z</time>
 <fix>none</fix>
 <sat>0</sat>
</trkpt>
<trkpt lat="48.304213333" lon="16.371808333">
<time>2012-06-16T18:38:07Z</time>
 <fix>none</fix>
 <sat>0</sat>
</trkpt>
<trkpt lat="48.304243333" lon="16.371778333">
<time>2012-06-16T18:38:08Z</time>
 <fix>none</fix>
 <sat>0</sat>
</trkpt>
<trkpt lat="48.304240000" lon="16.371731667">
<time>2012-06-16T18:38:09Z</time>
 <fix>none</fix>
 <sat>0</sat>
</trkpt>
<trkpt lat="48.304266667" lon="16.371700000">
<time>2012-06-16T18:38:10Z</time>
 <fix>none</fix>
 <sat>0</sat>
</trkpt>
<trkpt lat="48.304281667" lon="16.371670000">
<time>2012-06-16T18:38:11Z</time>
 <fix>none</fix>
 <sat>0</sat>
</trkpt>
<trkpt lat="48.304275000" lon="16.371641667">
<time>2012-06-16T18:38:12Z</time>
 <fix>none</fix>
 <sat>0</sat>
</trkpt>
<trkpt lat="48.304286667" lon="16.371623333">
<time>2012-06-16T18:38:13Z</time>
 <fix>none</fix>
 <sat>0</sat>
</trkpt>
<trkpt lat="48.304295000" lon="16.371601667">
<time>2012-06-16T18:38:14Z</time>
 <fix>none</fix>
 <sat>0</sat>
</trkpt>
<trkpt lat="48.304310000" lon="16.371576667">
<time>2012-06-16T18:38:15Z</time>
 <fix>none</fix>
 <sat>0</sat>
</trkpt>
<trkpt lat="48.304326667" lon="16.371548333">
<time>2012-06-16T18:38:16Z</time>
 <fix>none</fix>
 <sat>0</sat>
</trkpt>
<trkpt lat="48.304330000" lon="16.371515000">
<time>2012-06-16T18:38:17Z</time>
 <fix>none</fix>
 <sat>0</sat>
</trkpt>
<trkpt lat="48.304318333" lon="16.371471667">
<time>2012-06-16T18:38:18Z</time>
 <fix>none</fix>
 <sat>0</sat>
</trkpt>
<trkpt lat="48.304318333" lon="16.371428333">
<time>2012-06-16T18:38:19Z</time>
 <fix>none</fix>
 <sat>0</sat>
</trkpt>
<trkpt lat="48.304313333" lon="16.371381667">
<time>2012-06-16T18:38:20Z</time>
 <fix>none</fix>
 <sat>0</sat>
</trkpt>
<trkpt lat="48.304316667" lon="16.371335000">
<time>2012-06-16T18:38:21Z</time>
 <fix>none</fix>
 <sat>0</sat>
</trkpt>
<trkpt lat="48.304310000" lon="16.371288333">
<time>2012-06-16T18:38:22Z</time>
 <fix>none</fix>
 <sat>0</sat>
</trkpt>
<trkpt lat="48.304335000" lon="16.371250000">
<time>2012-06-16T18:38:23Z</time>
 <fix>none</fix>
 <sat>0</sat>
</trkpt>
<trkpt lat="48.304343333" lon="16.371210000">
<time>2012-06-16T18:38:24Z</time>
 <fix>none</fix>
 <sat>0</sat>
</trkpt>
<trkpt lat="48.304333333" lon="16.371160000">
<time>2012-06-16T18:38:25Z</time>
 <fix>none</fix>
 <sat>0</sat>
</trkpt>
<trkpt lat="48.304323333" lon="16.371111667">
<time>2012-06-16T18:38:26Z</time>
 <fix>none</fix>
 <sat>0</sat>
</trkpt>
<trkpt lat="48.304300000" lon="16.371060000">
<time>2012-06-16T18:38:27Z</time>
 <fix>none</fix>
 <sat>0</sat>
</trkpt>
<trkpt lat="48.304301667" lon="16.371013333">
<time>2012-06-16T18:38:28Z</time>
 <fix>none</fix>
 <sat>0</sat>
</trkpt>
<trkpt lat="48.304316667" lon="16.370973333">
<time>2012-06-16T18:38:29Z</time>
 <fix>none</fix>
 <sat>0</sat>
</trkpt>
<trkpt lat="48.304335000" lon="16.370933333">
<time>2012-06-16T18:38:30Z</time>
 <fix>none</fix>
 <sat>0</sat>
</trkpt>
<trkpt lat="48.304353333" lon="16.370898333">
<time>2012-06-16T18:38:31Z</time>
 <fix>none</fix>
 <sat>0</sat>
</trkpt>
<trkpt lat="48.304368333" lon="16.370863333">
<time>2012-06-16T18:38:32Z</time>
 <fix>none</fix>
 <sat>0</sat>
</trkpt>
<trkpt lat="48.304385000" lon="16.370828333">
<time>2012-06-16T18:38:33Z</time>
 <fix>none</fix>
 <sat>0</sat>
</trkpt>
<trkpt lat="48.304401667" lon="16.370793333">
<time>2012-06-16T18:38:34Z</time>
 <fix>none</fix>
 <sat>0</sat>
</trkpt>
<trkpt lat="48.304411667" lon="16.370758333">
<time>2012-06-16T18:38:35Z</time>
 <fix>none</fix>
 <sat>0</sat>
</trkpt>
<trkpt lat="48.304433333" lon="16.370731667">
<time>2012-06-16T18:38:36Z</time>
 <fix>none</fix>
 <sat>0</sat>
</trkpt>
<trkpt lat="48.304450000" lon="16.370705000">
<time>2012-06-16T18:38:37Z</time>
 <fix>none</fix>
 <sat>0</sat>
</trkpt>
<trkpt lat="48.304455000" lon="16.370673333">
<time>2012-06-16T18:38:38Z</time>
 <fix>none</fix>
 <sat>0</sat>
</trkpt>
<trkpt lat="48.304473333" lon="16.370645000">
<time>2012-06-16T18:38:39Z</time>
 <fix>none</fix>
 <sat>0</sat>
</trkpt>
<trkpt lat="48.304465000" lon="16.370601667">
<time>2012-06-16T18:38:40Z</time>
 <fix>none</fix>
 <sat>0</sat>
</trkpt>
<trkpt lat="48.304460000" lon="16.370558333">
<time>2012-06-16T18:38:41Z</time>
 <fix>none</fix>
 <sat>0</sat>
</trkpt>
<trkpt lat="48.304480000" lon="16.370523333">
<time>2012-06-16T18:38:42Z</time>
 <fix>none</fix>
 <sat>0</sat>
</trkpt>
<trkpt lat="48.304488333" lon="16.370485000">
<time>2012-06-16T18:38:43Z</time>
 <fix>none</fix>
 <sat>0</sat>
</trkpt>
<trkpt lat="48.304510000" lon="16.370451667">
<time>2012-06-16T18:38:44Z</time>
 <fix>none</fix>
 <sat>0</sat>
</trkpt>
<trkpt lat="48.304530000" lon="16.370411667">
<time>2012-06-16T18:38:45Z</time>
 <fix>none</fix>
 <sat>0</sat>
</trkpt>
<trkpt lat="48.304541667" lon="16.370363333">
<time>2012-06-16T18:38:46Z</time>
 <fix>none</fix>
 <sat>0</sat>
</trkpt>
<trkpt lat="48.304565000" lon="16.370316667">
<time>2012-06-16T18:38:47Z</time>
 <fix>none</fix>
 <sat>0</sat>
</trkpt>
<trkpt lat="48.304601667" lon="16.370280000">
<time>2012-06-16T18:38:48Z</time>
 <fix>none</fix>
 <sat>0</sat>
</trkpt>
<trkpt lat="48.304623333" lon="16.370230000">
<time>2012-06-16T18:38:49Z</time>
 <fix>none</fix>
 <sat>0</sat>
</trkpt>
<trkpt lat="48.304636667" lon="16.370176667">
<time>2012-06-16T18:38:50Z</time>
 <fix>none</fix>
 <sat>0</sat>
</trkpt>
<trkpt lat="48.304653333" lon="16.370118333">
<time>2012-06-16T18:38:51Z</time>
 <fix>none</fix>
 <sat>0</sat>
</trkpt>
<trkpt lat="48.304683333" lon="16.370066667">
<time>2012-06-16T18:38:52Z</time>
 <fix>none</fix>
 <sat>0</sat>
</trkpt>
<trkpt lat="48.304713333" lon="16.370015000">
<time>2012-06-16T18:38:53Z</time>
 <fix>none</fix>
 <sat>0</sat>
</trkpt>
<trkpt lat="48.304728333" lon="16.369958333">
<time>2012-06-16T18:38:54Z</time>
 <fix>none</fix>
 <sat>0</sat>
</trkpt>
<trkpt lat="48.304750000" lon="16.369903333">
<time>2012-06-16T18:38:55Z</time>
 <fix>none</fix>
 <sat>0</sat>
</trkpt>
<trkpt lat="48.304771667" lon="16.369850000">
<time>2012-06-16T18:38:56Z</time>
 <fix>none</fix>
 <sat>0</sat>
</trkpt>
<trkpt lat="48.304785000" lon="16.369790000">
<time>2012-06-16T18:38:57Z</time>
 <fix>none</fix>
 <sat>0</sat>
</trkpt>
<trkpt lat="48.304763333" lon="16.369711667">
<time>2012-06-16T18:38:58Z</time>
 <fix>none</fix>
 <sat>0</sat>
</trkpt>
<trkpt lat="48.304740000" lon="16.369636667">
<time>2012-06-16T18:38:59Z</time>
 <fix>none</fix>
 <sat>0</sat>
</trkpt>
<trkpt lat="48.304728333" lon="16.369563333">
<time>2012-06-16T18:39:00Z</time>
 <fix>none</fix>
 <sat>0</sat>
</trkpt>
<trkpt lat="48.304741667" lon="16.369498333">
<time>2012-06-16T18:39:01Z</time>
 <fix>none</fix>
 <sat>0</sat>
</trkpt>
<trkpt lat="48.304693333" lon="16.369438333">
<time>2012-06-16T18:39:02Z</time>
 <fix>none</fix>
 <sat>0</sat>
</trkpt>
<trkpt lat="48.304666667" lon="16.369391667">
<time>2012-06-16T18:39:03Z</time>
 <fix>none</fix>
 <sat>0</sat>
</trkpt>
<trkpt lat="48.304663333" lon="16.369365000">
<time>2012-06-16T18:39:04Z</time>
 <fix>none</fix>
 <sat>0</sat>
</trkpt>
<trkpt lat="48.304678333" lon="16.369353333">
<time>2012-06-16T18:39:05Z</time>
 <fix>none</fix>
 <sat>0</sat>
</trkpt>
<trkpt lat="48.304703333" lon="16.369348333">
<time>2012-06-16T18:39:06Z</time>
 <fix>none</fix>
 <sat>0</sat>
</trkpt>
<trkpt lat="48.304753333" lon="16.369353333">
<time>2012-06-16T18:39:07Z</time>
 <fix>none</fix>
 <sat>0</sat>
</trkpt>
<trkpt lat="48.304803333" lon="16.369358333">
<time>2012-06-16T18:39:08Z</time>
 <fix>none</fix>
 <sat>0</sat>
</trkpt>
<trkpt lat="48.304810000" lon="16.369363333">
<time>2012-06-16T18:39:09Z</time>
 <fix>none</fix>
 <sat>0</sat>
</trkpt>
<trkpt lat="48.304818333" lon="16.369355000">
<time>2012-06-16T18:39:10Z</time>
 <fix>none</fix>
 <sat>0</sat>
</trkpt>
<trkpt lat="48.304835000" lon="16.369343333">
<time>2012-06-16T18:39:11Z</time>
 <fix>none</fix>
 <sat>0</sat>
</trkpt>
<trkpt lat="48.304851667" lon="16.369335000">
<time>2012-06-16T18:39:12Z</time>
 <fix>none</fix>
 <sat>0</sat>
</trkpt>
<trkpt lat="48.304848333" lon="16.369323333">
<time>2012-06-16T18:39:13Z</time>
 <fix>none</fix>
 <sat>0</sat>
</trkpt>
<trkpt lat="48.304830000" lon="16.369308333">
<time>2012-06-16T18:39:14Z</time>
 <fix>none</fix>
 <sat>0</sat>
</trkpt>
<trkpt lat="48.304808333" lon="16.369295000">
<time>2012-06-16T18:39:15Z</time>
 <fix>none</fix>
 <sat>0</sat>
</trkpt>
<trkpt lat="48.304800000" lon="16.369280000">
<time>2012-06-16T18:39:16Z</time>
 <fix>none</fix>
 <sat>0</sat>
</trkpt>
<trkpt lat="48.304820000" lon="16.369268333">
<time>2012-06-16T18:39:17Z</time>
 <fix>none</fix>
 <sat>0</sat>
</trkpt>
<trkpt lat="48.304850000" lon="16.369260000">
<time>2012-06-16T18:39:18Z</time>
 <fix>none</fix>
 <sat>0</sat>
</trkpt>
<trkpt lat="48.304878333" lon="16.369248333">
<time>2012-06-16T18:39:19Z</time>
 <fix>none</fix>
 <sat>0</sat>
</trkpt>
<trkpt lat="48.304906667" lon="16.369236667">
<time>2012-06-16T18:39:20Z</time>
 <fix>none</fix>
 <sat>0</sat>
</trkpt>
<trkpt lat="48.304903333" lon="16.369223333">
<time>2012-06-16T18:39:21Z</time>
 <fix>none</fix>
 <sat>0</sat>
</trkpt>
<trkpt lat="48.304901667" lon="16.369210000">
<time>2012-06-16T18:39:22Z</time>
 <fix>none</fix>
 <sat>0</sat>
</trkpt>
<trkpt lat="48.304921667" lon="16.369198333">
<time>2012-06-16T18:39:23Z</time>
 <fix>none</fix>
 <sat>0</sat>
</trkpt>
<trkpt lat="48.304946667" lon="16.369181667">
<time>2012-06-16T18:39:24Z</time>
 <fix>none</fix>
 <sat>0</sat>
</trkpt>
<trkpt lat="48.304971667" lon="16.369165000">
<time>2012-06-16T18:39:25Z</time>
 <fix>none</fix>
 <sat>0</sat>
</trkpt>
<trkpt lat="48.304988333" lon="16.369141667">
<time>2012-06-16T18:39:26Z</time>
 <fix>none</fix>
 <sat>0</sat>
</trkpt>
<trkpt lat="48.305000000" lon="16.369116667">
<time>2012-06-16T18:39:27Z</time>
 <fix>none</fix>
 <sat>0</sat>
</trkpt>
<trkpt lat="48.305013333" lon="16.369090000">
<time>2012-06-16T18:39:28Z</time>
 <fix>none</fix>
 <sat>0</sat>
</trkpt>
<trkpt lat="48.305025000" lon="16.369066667">
<time>2012-06-16T18:39:29Z</time>
 <fix>none</fix>
 <sat>0</sat>
</trkpt>
<trkpt lat="48.305066667" lon="16.369038333">
<time>2012-06-16T18:39:30Z</time>
 <fix>none</fix>
 <sat>0</sat>
</trkpt>
<trkpt lat="48.305091667" lon="16.369018333">
<time>2012-06-16T18:39:31Z</time>
 <fix>none</fix>
 <sat>0</sat>
</trkpt>
<trkpt lat="48.305113333" lon="16.369000000">
<time>2012-06-16T18:39:32Z</time>
 <fix>none</fix>
 <sat>0</sat>
</trkpt>
<trkpt lat="48.305138333" lon="16.368983333">
<time>2012-06-16T18:39:33Z</time>
 <fix>none</fix>
 <sat>0</sat>
</trkpt>
<trkpt lat="48.305143333" lon="16.368961667">
<time>2012-06-16T18:39:34Z</time>
 <fix>none</fix>
 <sat>0</sat>
</trkpt>
<trkpt lat="48.305143333" lon="16.368938333">
<time>2012-06-16T18:39:35Z</time>
 <fix>none</fix>
 <sat>0</sat>
</trkpt>
<trkpt lat="48.305141667" lon="16.368905000">
<time>2012-06-16T18:39:36Z</time>
 <fix>none</fix>
 <sat>0</sat>
</trkpt>
<trkpt lat="48.305155000" lon="16.368873333">
<time>2012-06-16T18:39:37Z</time>
 <fix>none</fix>
 <sat>0</sat>
</trkpt>
<trkpt lat="48.305175000" lon="16.368841667">
<time>2012-06-16T18:39:38Z</time>
 <fix>none</fix>
 <sat>0</sat>
</trkpt>
<trkpt lat="48.305203333" lon="16.368813333">
<time>2012-06-16T18:39:39Z</time>
 <fix>none</fix>
 <sat>0</sat>
</trkpt>
<trkpt lat="48.305223333" lon="16.368793333">
<time>2012-06-16T18:39:40Z</time>
 <fix>none</fix>
 <sat>0</sat>
</trkpt>
<trkpt lat="48.305225000" lon="16.368770000">
<time>2012-06-16T18:39:41Z</time>
 <fix>none</fix>
 <sat>0</sat>
</trkpt>
<trkpt lat="48.305260000" lon="16.368748333">
<time>2012-06-16T18:39:42Z</time>
 <fix>none</fix>
 <sat>0</sat>
</trkpt>
<trkpt lat="48.305291667" lon="16.368730000">
<time>2012-06-16T18:39:43Z</time>
 <fix>none</fix>
 <sat>0</sat>
</trkpt>
<trkpt lat="48.305340000" lon="16.368710000">
<time>2012-06-16T18:39:44Z</time>
 <fix>none</fix>
 <sat>0</sat>
</trkpt>
<trkpt lat="48.305343333" lon="16.368683333">
<time>2012-06-16T18:39:45Z</time>
 <fix>none</fix>
 <sat>0</sat>
</trkpt>
<trkpt lat="48.305366667" lon="16.368666667">
<time>2012-06-16T18:39:46Z</time>
 <fix>none</fix>
 <sat>0</sat>
</trkpt>
<trkpt lat="48.305391667" lon="16.368651667">
<time>2012-06-16T18:39:47Z</time>
 <fix>none</fix>
 <sat>0</sat>
</trkpt>
<trkpt lat="48.305391667" lon="16.368640000">
<time>2012-06-16T18:39:48Z</time>
 <fix>none</fix>
 <sat>0</sat>
</trkpt>
<trkpt lat="48.305403333" lon="16.368620000">
<time>2012-06-16T18:39:49Z</time>
 <fix>none</fix>
 <sat>0</sat>
</trkpt>
<trkpt lat="48.305420000" lon="16.368598333">
<time>2012-06-16T18:39:50Z</time>
 <fix>none</fix>
 <sat>0</sat>
</trkpt>
<trkpt lat="48.305446667" lon="16.368568333">
<time>2012-06-16T18:39:51Z</time>
 <fix>none</fix>
 <sat>0</sat>
</trkpt>
<trkpt lat="48.305453333" lon="16.368531667">
<time>2012-06-16T18:39:52Z</time>
 <fix>none</fix>
 <sat>0</sat>
</trkpt>
<trkpt lat="48.305410000" lon="16.368470000">
<time>2012-06-16T18:39:53Z</time>
 <fix>none</fix>
 <sat>0</sat>
</trkpt>
<trkpt lat="48.305385000" lon="16.368415000">
<time>2012-06-16T18:39:54Z</time>
 <fix>none</fix>
 <sat>0</sat>
</trkpt>
<trkpt lat="48.305370000" lon="16.368358333">
<time>2012-06-16T18:39:55Z</time>
 <fix>none</fix>
 <sat>0</sat>
</trkpt>
<trkpt lat="48.305360000" lon="16.368306667">
<time>2012-06-16T18:39:56Z</time>
 <fix>none</fix>
 <sat>0</sat>
</trkpt>
<trkpt lat="48.305353333" lon="16.368255000">
<time>2012-06-16T18:39:57Z</time>
 <fix>none</fix>
 <sat>0</sat>
</trkpt>
<trkpt lat="48.305355000" lon="16.368211667">
<time>2012-06-16T18:39:58Z</time>
 <fix>none</fix>
 <sat>0</sat>
</trkpt>
<trkpt lat="48.305366667" lon="16.368173333">
<time>2012-06-16T18:39:59Z</time>
 <fix>none</fix>
 <sat>0</sat>
</trkpt>
<trkpt lat="48.305378333" lon="16.368136667">
<time>2012-06-16T18:40:00Z</time>
 <fix>none</fix>
 <sat>0</sat>
</trkpt>
<trkpt lat="48.305391667" lon="16.368098333">
<time>2012-06-16T18:40:01Z</time>
 <fix>none</fix>
 <sat>0</sat>
</trkpt>
<trkpt lat="48.305408333" lon="16.368063333">
<time>2012-06-16T18:40:02Z</time>
 <fix>none</fix>
 <sat>0</sat>
</trkpt>
<trkpt lat="48.305425000" lon="16.368026667">
<time>2012-06-16T18:40:03Z</time>
 <fix>none</fix>
 <sat>0</sat>
</trkpt>
<trkpt lat="48.305458333" lon="16.368001667">
<time>2012-06-16T18:40:04Z</time>
 <fix>none</fix>
 <sat>0</sat>
</trkpt>
<trkpt lat="48.305471667" lon="16.367966667">
<time>2012-06-16T18:40:05Z</time>
 <fix>none</fix>
 <sat>0</sat>
</trkpt>
<trkpt lat="48.305460000" lon="16.367923333">
<time>2012-06-16T18:40:06Z</time>
 <fix>none</fix>
 <sat>0</sat>
</trkpt>
<trkpt lat="48.305440000" lon="16.367871667">
<time>2012-06-16T18:40:07Z</time>
 <fix>none</fix>
 <sat>0</sat>
</trkpt>
<trkpt lat="48.305455000" lon="16.367833333">
<time>2012-06-16T18:40:08Z</time>
 <fix>none</fix>
 <sat>0</sat>
</trkpt>
<trkpt lat="48.305493333" lon="16.367805000">
<time>2012-06-16T18:40:09Z</time>
 <fix>none</fix>
 <sat>0</sat>
</trkpt>
<trkpt lat="48.305496667" lon="16.367761667">
<time>2012-06-16T18:40:10Z</time>
 <fix>none</fix>
 <sat>0</sat>
</trkpt>
<trkpt lat="48.305500000" lon="16.367718333">
<time>2012-06-16T18:40:11Z</time>
 <fix>none</fix>
 <sat>0</sat>
</trkpt>
<trkpt lat="48.305506667" lon="16.367675000">
<time>2012-06-16T18:40:12Z</time>
 <fix>none</fix>
 <sat>0</sat>
</trkpt>
<trkpt lat="48.305515000" lon="16.367633333">
<time>2012-06-16T18:40:13Z</time>
 <fix>none</fix>
 <sat>0</sat>
</trkpt>
<trkpt lat="48.305520000" lon="16.367590000">
<time>2012-06-16T18:40:14Z</time>
 <fix>none</fix>
 <sat>0</sat>
</trkpt>
<trkpt lat="48.305513333" lon="16.367540000">
<time>2012-06-16T18:40:15Z</time>
 <fix>none</fix>
 <sat>0</sat>
</trkpt>
<trkpt lat="48.305550000" lon="16.367510000">
<time>2012-06-16T18:40:16Z</time>
 <fix>none</fix>
 <sat>0</sat>
</trkpt>
<trkpt lat="48.305581667" lon="16.367476667">
<time>2012-06-16T18:40:17Z</time>
 <fix>none</fix>
 <sat>0</sat>
</trkpt>
<trkpt lat="48.305625000" lon="16.367451667">
<time>2012-06-16T18:40:18Z</time>
 <fix>none</fix>
 <sat>0</sat>
</trkpt>
<trkpt lat="48.305643333" lon="16.367413333">
<time>2012-06-16T18:40:19Z</time>
 <fix>none</fix>
 <sat>0</sat>
</trkpt>
<trkpt lat="48.305666667" lon="16.367378333">
<time>2012-06-16T18:40:20Z</time>
 <fix>none</fix>
 <sat>0</sat>
</trkpt>
<trkpt lat="48.305688333" lon="16.367345000">
<time>2012-06-16T18:40:21Z</time>
 <fix>none</fix>
 <sat>0</sat>
</trkpt>
<trkpt lat="48.305711667" lon="16.367311667">
<time>2012-06-16T18:40:22Z</time>
 <fix>none</fix>
 <sat>0</sat>
</trkpt>
<trkpt lat="48.305755000" lon="16.367285000">
<time>2012-06-16T18:40:23Z</time>
 <fix>none</fix>
 <sat>0</sat>
</trkpt>
<trkpt lat="48.305771667" lon="16.367246667">
<time>2012-06-16T18:40:24Z</time>
 <fix>none</fix>
 <sat>0</sat>
</trkpt>
<trkpt lat="48.305790000" lon="16.367211667">
<time>2012-06-16T18:40:25Z</time>
 <fix>none</fix>
 <sat>0</sat>
</trkpt>
<trkpt lat="48.305808333" lon="16.367176667">
<time>2012-06-16T18:40:26Z</time>
 <fix>none</fix>
 <sat>0</sat>
</trkpt>
<trkpt lat="48.305875000" lon="16.367175000">
<time>2012-06-16T18:40:27Z</time>
 <fix>none</fix>
 <sat>0</sat>
</trkpt>
<trkpt lat="48.305908333" lon="16.367166667">
<time>2012-06-16T18:40:28Z</time>
 <fix>none</fix>
 <sat>0</sat>
</trkpt>
<trkpt lat="48.305936667" lon="16.367158333">
<time>2012-06-16T18:40:29Z</time>
 <fix>none</fix>
 <sat>0</sat>
</trkpt>
<trkpt lat="48.305950000" lon="16.367140000">
<time>2012-06-16T18:40:30Z</time>
 <fix>none</fix>
 <sat>0</sat>
</trkpt>
<trkpt lat="48.305965000" lon="16.367116667">
<time>2012-06-16T18:40:31Z</time>
 <fix>none</fix>
 <sat>0</sat>
</trkpt>
<trkpt lat="48.305980000" lon="16.367091667">
<time>2012-06-16T18:40:32Z</time>
 <fix>none</fix>
 <sat>0</sat>
</trkpt>
<trkpt lat="48.306003333" lon="16.367071667">
<time>2012-06-16T18:40:33Z</time>
 <fix>none</fix>
 <sat>0</sat>
</trkpt>
<trkpt lat="48.306018333" lon="16.367055000">
<time>2012-06-16T18:40:34Z</time>
 <fix>none</fix>
 <sat>0</sat>
</trkpt>
<trkpt lat="48.306016667" lon="16.367030000">
<time>2012-06-16T18:40:35Z</time>
 <fix>none</fix>
 <sat>0</sat>
</trkpt>
<trkpt lat="48.306023333" lon="16.367010000">
<time>2012-06-16T18:40:36Z</time>
 <fix>none</fix>
 <sat>0</sat>
</trkpt>
<trkpt lat="48.306035000" lon="16.366996667">
<time>2012-06-16T18:40:37Z</time>
 <fix>none</fix>
 <sat>0</sat>
</trkpt>
<trkpt lat="48.306045000" lon="16.366986667">
<time>2012-06-16T18:40:38Z</time>
 <fix>none</fix>
 <sat>0</sat>
</trkpt>
<trkpt lat="48.306058333" lon="16.366978333">
<time>2012-06-16T18:40:39Z</time>
 <fix>none</fix>
 <sat>0</sat>
</trkpt>
<trkpt lat="48.306070000" lon="16.366970000">
<time>2012-06-16T18:40:40Z</time>
 <fix>none</fix>
 <sat>0</sat>
</trkpt>
<trkpt lat="48.306078333" lon="16.366956667">
<time>2012-06-16T18:40:41Z</time>
 <fix>none</fix>
 <sat>0</sat>
</trkpt>
<trkpt lat="48.306088333" lon="16.366945000">
<time>2012-06-16T18:40:42Z</time>
 <fix>none</fix>
 <sat>0</sat>
</trkpt>
<trkpt lat="48.306086667" lon="16.366930000">
<time>2012-06-16T18:40:43Z</time>
 <fix>none</fix>
 <sat>0</sat>
</trkpt>
<trkpt lat="48.306088333" lon="16.366911667">
<time>2012-06-16T18:40:44Z</time>
 <fix>none</fix>
 <sat>0</sat>
</trkpt>
<trkpt lat="48.306083333" lon="16.366893333">
<time>2012-06-16T18:40:45Z</time>
 <fix>none</fix>
 <sat>0</sat>
</trkpt>
<trkpt lat="48.306083333" lon="16.366871667">
<time>2012-06-16T18:40:46Z</time>
 <fix>none</fix>
 <sat>0</sat>
</trkpt>
<trkpt lat="48.306110000" lon="16.366855000">
<time>2012-06-16T18:40:47Z</time>
 <fix>none</fix>
 <sat>0</sat>
</trkpt>
<trkpt lat="48.306135000" lon="16.366831667">
<time>2012-06-16T18:40:48Z</time>
 <fix>none</fix>
 <sat>0</sat>
</trkpt>
<trkpt lat="48.306150000" lon="16.366801667">
<time>2012-06-16T18:40:49Z</time>
 <fix>none</fix>
 <sat>0</sat>
</trkpt>
<trkpt lat="48.306160000" lon="16.366765000">
<time>2012-06-16T18:40:50Z</time>
 <fix>none</fix>
 <sat>0</sat>
</trkpt>
<trkpt lat="48.306191667" lon="16.366728333">
<time>2012-06-16T18:40:51Z</time>
 <fix>none</fix>
 <sat>0</sat>
</trkpt>
<trkpt lat="48.306208333" lon="16.366693333">
<time>2012-06-16T18:40:52Z</time>
 <fix>none</fix>
 <sat>0</sat>
</trkpt>
<trkpt lat="48.306228333" lon="16.366661667">
<time>2012-06-16T18:40:53Z</time>
 <fix>none</fix>
 <sat>0</sat>
</trkpt>
<trkpt lat="48.306248333" lon="16.366625000">
<time>2012-06-16T18:40:54Z</time>
 <fix>none</fix>
 <sat>0</sat>
</trkpt>
<trkpt lat="48.306258333" lon="16.366583333">
<time>2012-06-16T18:40:55Z</time>
 <fix>none</fix>
 <sat>0</sat>
</trkpt>
<trkpt lat="48.306265000" lon="16.366538333">
<time>2012-06-16T18:40:56Z</time>
 <fix>none</fix>
 <sat>0</sat>
</trkpt>
<trkpt lat="48.306268333" lon="16.366490000">
<time>2012-06-16T18:40:57Z</time>
 <fix>none</fix>
 <sat>0</sat>
</trkpt>
<trkpt lat="48.306245000" lon="16.366431667">
<time>2012-06-16T18:40:58Z</time>
 <fix>none</fix>
 <sat>0</sat>
</trkpt>
<trkpt lat="48.306235000" lon="16.366388333">
<time>2012-06-16T18:40:59Z</time>
 <fix>none</fix>
 <sat>0</sat>
</trkpt>
<trkpt lat="48.306230000" lon="16.366353333">
<time>2012-06-16T18:41:00Z</time>
 <fix>none</fix>
 <sat>0</sat>
</trkpt>
<trkpt lat="48.306216667" lon="16.366320000">
<time>2012-06-16T18:41:01Z</time>
 <fix>none</fix>
 <sat>0</sat>
</trkpt>
<trkpt lat="48.306200000" lon="16.366290000">
<time>2012-06-16T18:41:02Z</time>
 <fix>none</fix>
 <sat>0</sat>
</trkpt>
<trkpt lat="48.306193333" lon="16.366273333">
<time>2012-06-16T18:41:03Z</time>
 <fix>none</fix>
 <sat>0</sat>
</trkpt>
<trkpt lat="48.306178333" lon="16.366260000">
<time>2012-06-16T18:41:04Z</time>
 <fix>none</fix>
 <sat>0</sat>
</trkpt>
<trkpt lat="48.306161667" lon="16.366248333">
<time>2012-06-16T18:41:05Z</time>
 <fix>none</fix>
 <sat>0</sat>
</trkpt>
<trkpt lat="48.306176667" lon="16.366250000">
<time>2012-06-16T18:41:06Z</time>
 <fix>none</fix>
 <sat>0</sat>
</trkpt>
<trkpt lat="48.306191667" lon="16.366250000">
<time>2012-06-16T18:41:07Z</time>
 <fix>none</fix>
 <sat>0</sat>
</trkpt>
<trkpt lat="48.306213333" lon="16.366245000">
<time>2012-06-16T18:41:08Z</time>
 <fix>none</fix>
 <sat>0</sat>
</trkpt>
<trkpt lat="48.306226667" lon="16.366230000">
<time>2012-06-16T18:41:09Z</time>
 <fix>none</fix>
 <sat>0</sat>
</trkpt>
<trkpt lat="48.306241667" lon="16.366215000">
<time>2012-06-16T18:41:10Z</time>
 <fix>none</fix>
 <sat>0</sat>
</trkpt>
<trkpt lat="48.306253333" lon="16.366203333">
<time>2012-06-16T18:41:11Z</time>
 <fix>none</fix>
 <sat>0</sat>
</trkpt>
<trkpt lat="48.306253333" lon="16.366190000">
<time>2012-06-16T18:41:12Z</time>
 <fix>none</fix>
 <sat>0</sat>
</trkpt>
<trkpt lat="48.306273333" lon="16.366183333">
<time>2012-06-16T18:41:13Z</time>
 <fix>none</fix>
 <sat>0</sat>
</trkpt>
<trkpt lat="48.306285000" lon="16.366181667">
<time>2012-06-16T18:41:14Z</time>
 <fix>none</fix>
 <sat>0</sat>
</trkpt>
<trkpt lat="48.306301667" lon="16.366173333">
<time>2012-06-16T18:41:15Z</time>
 <fix>none</fix>
 <sat>0</sat>
</trkpt>
<trkpt lat="48.306320000" lon="16.366165000">
<time>2012-06-16T18:41:16Z</time>
 <fix>none</fix>
 <sat>0</sat>
</trkpt>
<trkpt lat="48.306338333" lon="16.366158333">
<time>2012-06-16T18:41:17Z</time>
 <fix>none</fix>
 <sat>0</sat>
</trkpt>
<trkpt lat="48.306346667" lon="16.366146667">
<time>2012-06-16T18:41:18Z</time>
 <fix>none</fix>
 <sat>0</sat>
</trkpt>
<trkpt lat="48.306360000" lon="16.366135000">
<time>2012-06-16T18:41:19Z</time>
 <fix>none</fix>
 <sat>0</sat>
</trkpt>
<trkpt lat="48.306373333" lon="16.366123333">
<time>2012-06-16T18:41:20Z</time>
 <fix>none</fix>
 <sat>0</sat>
</trkpt>
<trkpt lat="48.306386667" lon="16.366111667">
<time>2012-06-16T18:41:21Z</time>
 <fix>none</fix>
 <sat>0</sat>
</trkpt>
<trkpt lat="48.306405000" lon="16.366095000">
<time>2012-06-16T18:41:22Z</time>
 <fix>none</fix>
 <sat>0</sat>
</trkpt>
<trkpt lat="48.306425000" lon="16.366076667">
<time>2012-06-16T18:41:23Z</time>
 <fix>none</fix>
 <sat>0</sat>
</trkpt>
<trkpt lat="48.306445000" lon="16.366058333">
<time>2012-06-16T18:41:24Z</time>
 <fix>none</fix>
 <sat>0</sat>
</trkpt>
<trkpt lat="48.306460000" lon="16.366045000">
<time>2012-06-16T18:41:25Z</time>
 <fix>none</fix>
 <sat>0</sat>
</trkpt>
<trkpt lat="48.306476667" lon="16.366031667">
<time>2012-06-16T18:41:26Z</time>
 <fix>none</fix>
 <sat>0</sat>
</trkpt>
<trkpt lat="48.306500000" lon="16.366013333">
<time>2012-06-16T18:41:27Z</time>
 <fix>none</fix>
 <sat>0</sat>
</trkpt>
<trkpt lat="48.306520000" lon="16.365995000">
<time>2012-06-16T18:41:28Z</time>
 <fix>none</fix>
 <sat>0</sat>
</trkpt>
<trkpt lat="48.306536667" lon="16.365973333">
<time>2012-06-16T18:41:29Z</time>
 <fix>none</fix>
 <sat>0</sat>
</trkpt>
<trkpt lat="48.306553333" lon="16.365941667">
<time>2012-06-16T18:41:30Z</time>
 <fix>none</fix>
 <sat>0</sat>
</trkpt>
<trkpt lat="48.306566667" lon="16.365910000">
<time>2012-06-16T18:41:31Z</time>
 <fix>none</fix>
 <sat>0</sat>
</trkpt>
<trkpt lat="48.306571667" lon="16.365881667">
<time>2012-06-16T18:41:32Z</time>
 <fix>none</fix>
 <sat>0</sat>
</trkpt>
<trkpt lat="48.306575000" lon="16.365846667">
<time>2012-06-16T18:41:33Z</time>
 <fix>none</fix>
 <sat>0</sat>
</trkpt>
<trkpt lat="48.306580000" lon="16.365810000">
<time>2012-06-16T18:41:34Z</time>
 <fix>none</fix>
 <sat>0</sat>
</trkpt>
<trkpt lat="48.306588333" lon="16.365781667">
<time>2012-06-16T18:41:35Z</time>
 <fix>none</fix>
 <sat>0</sat>
</trkpt>
<trkpt lat="48.306595000" lon="16.365755000">
<time>2012-06-16T18:41:36Z</time>
 <fix>none</fix>
 <sat>0</sat>
</trkpt>
<trkpt lat="48.306603333" lon="16.365731667">
<time>2012-06-16T18:41:37Z</time>
 <fix>none</fix>
 <sat>0</sat>
</trkpt>
<trkpt lat="48.306620000" lon="16.365708333">
<time>2012-06-16T18:41:38Z</time>
 <fix>none</fix>
 <sat>0</sat>
</trkpt>
<trkpt lat="48.306635000" lon="16.365691667">
<time>2012-06-16T18:41:39Z</time>
 <fix>none</fix>
 <sat>0</sat>
</trkpt>
<trkpt lat="48.306643333" lon="16.365653333">
<time>2012-06-16T18:41:40Z</time>
 <fix>none</fix>
 <sat>0</sat>
</trkpt>
<trkpt lat="48.306648333" lon="16.365628333">
<time>2012-06-16T18:41:41Z</time>
 <fix>none</fix>
 <sat>0</sat>
</trkpt>
<trkpt lat="48.306650000" lon="16.365596667">
<time>2012-06-16T18:41:42Z</time>
 <fix>none</fix>
 <sat>0</sat>
</trkpt>
<trkpt lat="48.306658333" lon="16.365565000">
<time>2012-06-16T18:41:43Z</time>
 <fix>none</fix>
 <sat>0</sat>
</trkpt>
<trkpt lat="48.306673333" lon="16.365531667">
<time>2012-06-16T18:41:44Z</time>
 <fix>none</fix>
 <sat>0</sat>
</trkpt>
<trkpt lat="48.306686667" lon="16.365501667">
<time>2012-06-16T18:41:45Z</time>
 <fix>none</fix>
 <sat>0</sat>
</trkpt>
<trkpt lat="48.306698333" lon="16.365470000">
<time>2012-06-16T18:41:46Z</time>
 <fix>none</fix>
 <sat>0</sat>
</trkpt>
<trkpt lat="48.306718333" lon="16.365441667">
<time>2012-06-16T18:41:47Z</time>
 <fix>none</fix>
 <sat>0</sat>
</trkpt>
<trkpt lat="48.306731667" lon="16.365408333">
<time>2012-06-16T18:41:48Z</time>
 <fix>none</fix>
 <sat>0</sat>
</trkpt>
<trkpt lat="48.306745000" lon="16.365375000">
<time>2012-06-16T18:41:49Z</time>
 <fix>none</fix>
 <sat>0</sat>
</trkpt>
<trkpt lat="48.306760000" lon="16.365333333">
<time>2012-06-16T18:41:50Z</time>
 <fix>none</fix>
 <sat>0</sat>
</trkpt>
<trkpt lat="48.306773333" lon="16.365288333">
<time>2012-06-16T18:41:51Z</time>
 <fix>none</fix>
 <sat>0</sat>
</trkpt>
<trkpt lat="48.306788333" lon="16.365245000">
<time>2012-06-16T18:41:52Z</time>
 <fix>none</fix>
 <sat>0</sat>
</trkpt>
<trkpt lat="48.306801667" lon="16.365200000">
<time>2012-06-16T18:41:53Z</time>
 <fix>none</fix>
 <sat>0</sat>
</trkpt>
<trkpt lat="48.306816667" lon="16.365155000">
<time>2012-06-16T18:41:54Z</time>
 <fix>none</fix>
 <sat>0</sat>
</trkpt>
<trkpt lat="48.306803333" lon="16.365098333">
<time>2012-06-16T18:41:55Z</time>
 <fix>none</fix>
 <sat>0</sat>
</trkpt>
<trkpt lat="48.306801667" lon="16.365048333">
<time>2012-06-16T18:41:56Z</time>
 <fix>none</fix>
 <sat>0</sat>
</trkpt>
<trkpt lat="48.306800000" lon="16.365000000">
<time>2012-06-16T18:41:57Z</time>
 <fix>none</fix>
 <sat>0</sat>
</trkpt>
<trkpt lat="48.306800000" lon="16.364956667">
<time>2012-06-16T18:41:58Z</time>
 <fix>none</fix>
 <sat>0</sat>
</trkpt>
<trkpt lat="48.306796667" lon="16.364916667">
<time>2012-06-16T18:41:59Z</time>
 <fix>none</fix>
 <sat>0</sat>
</trkpt>
<trkpt lat="48.306785000" lon="16.364878333">
<time>2012-06-16T18:42:00Z</time>
 <fix>none</fix>
 <sat>0</sat>
</trkpt>
<trkpt lat="48.306760000" lon="16.364833333">
<time>2012-06-16T18:42:01Z</time>
 <fix>none</fix>
 <sat>0</sat>
</trkpt>
<trkpt lat="48.306726667" lon="16.364793333">
<time>2012-06-16T18:42:02Z</time>
 <fix>none</fix>
 <sat>0</sat>
</trkpt>
<trkpt lat="48.306726667" lon="16.364775000">
<time>2012-06-16T18:42:03Z</time>
 <fix>none</fix>
 <sat>0</sat>
</trkpt>
<trkpt lat="48.306736667" lon="16.364763333">
<time>2012-06-16T18:42:04Z</time>
 <fix>none</fix>
 <sat>0</sat>
</trkpt>
<trkpt lat="48.306723333" lon="16.364740000">
<time>2012-06-16T18:42:05Z</time>
 <fix>none</fix>
 <sat>0</sat>
</trkpt>
<trkpt lat="48.306725000" lon="16.364726667">
<time>2012-06-16T18:42:06Z</time>
 <fix>none</fix>
 <sat>0</sat>
</trkpt>
<trkpt lat="48.306718333" lon="16.364700000">
<time>2012-06-16T18:42:07Z</time>
 <fix>none</fix>
 <sat>0</sat>
</trkpt>
<trkpt lat="48.306728333" lon="16.364686667">
<time>2012-06-16T18:42:08Z</time>
 <fix>none</fix>
 <sat>0</sat>
</trkpt>
<trkpt lat="48.306733333" lon="16.364676667">
<time>2012-06-16T18:42:09Z</time>
 <fix>none</fix>
 <sat>0</sat>
</trkpt>
<trkpt lat="48.306741667" lon="16.364676667">
<time>2012-06-16T18:42:10Z</time>
 <fix>none</fix>
 <sat>0</sat>
</trkpt>
<trkpt lat="48.306753333" lon="16.364681667">
<time>2012-06-16T18:42:11Z</time>
 <fix>none</fix>
 <sat>0</sat>
</trkpt>
<trkpt lat="48.306775000" lon="16.364681667">
<time>2012-06-16T18:42:12Z</time>
 <fix>none</fix>
 <sat>0</sat>
</trkpt>
<trkpt lat="48.306805000" lon="16.364683333">
<time>2012-06-16T18:42:13Z</time>
 <fix>none</fix>
 <sat>0</sat>
</trkpt>
<trkpt lat="48.306825000" lon="16.364678333">
<time>2012-06-16T18:42:14Z</time>
 <fix>none</fix>
 <sat>0</sat>
</trkpt>
<trkpt lat="48.306846667" lon="16.364670000">
<time>2012-06-16T18:42:15Z</time>
 <fix>none</fix>
 <sat>0</sat>
</trkpt>
<trkpt lat="48.306866667" lon="16.364655000">
<time>2012-06-16T18:42:16Z</time>
 <fix>none</fix>
 <sat>0</sat>
</trkpt>
<trkpt lat="48.306905000" lon="16.364658333">
<time>2012-06-16T18:42:17Z</time>
 <fix>none</fix>
 <sat>0</sat>
</trkpt>
<trkpt lat="48.306923333" lon="16.364648333">
<time>2012-06-16T18:42:18Z</time>
 <fix>none</fix>
 <sat>0</sat>
</trkpt>
<trkpt lat="48.306928333" lon="16.364628333">
<time>2012-06-16T18:42:19Z</time>
 <fix>none</fix>
 <sat>0</sat>
</trkpt>
<trkpt lat="48.306933333" lon="16.364608333">
<time>2012-06-16T18:42:20Z</time>
 <fix>none</fix>
 <sat>0</sat>
</trkpt>
<trkpt lat="48.306946667" lon="16.364588333">
<time>2012-06-16T18:42:21Z</time>
 <fix>none</fix>
 <sat>0</sat>
</trkpt>
<trkpt lat="48.306966667" lon="16.364568333">
<time>2012-06-16T18:42:22Z</time>
 <fix>none</fix>
 <sat>0</sat>
</trkpt>
<trkpt lat="48.306986667" lon="16.364545000">
<time>2012-06-16T18:42:23Z</time>
 <fix>none</fix>
 <sat>0</sat>
</trkpt>
<trkpt lat="48.307008333" lon="16.364521667">
<time>2012-06-16T18:42:24Z</time>
 <fix>none</fix>
 <sat>0</sat>
</trkpt>
<trkpt lat="48.307043333" lon="16.364493333">
<time>2012-06-16T18:42:25Z</time>
 <fix>none</fix>
 <sat>0</sat>
</trkpt>
<trkpt lat="48.307070000" lon="16.364461667">
<time>2012-06-16T18:42:26Z</time>
 <fix>none</fix>
 <sat>0</sat>
</trkpt>
<trkpt lat="48.307098333" lon="16.364433333">
<time>2012-06-16T18:42:27Z</time>
 <fix>none</fix>
 <sat>0</sat>
</trkpt>
<trkpt lat="48.307156667" lon="16.364418333">
<time>2012-06-16T18:42:28Z</time>
 <fix>none</fix>
 <sat>0</sat>
</trkpt>
<trkpt lat="48.307241667" lon="16.364418333">
<time>2012-06-16T18:42:29Z</time>
 <fix>none</fix>
 <sat>0</sat>
</trkpt>
<trkpt lat="48.307266667" lon="16.364378333">
<time>2012-06-16T18:42:30Z</time>
 <fix>none</fix>
 <sat>0</sat>
</trkpt>
<trkpt lat="48.307286667" lon="16.364340000">
<time>2012-06-16T18:42:31Z</time>
 <fix>none</fix>
 <sat>0</sat>
</trkpt>
<trkpt lat="48.307316667" lon="16.364301667">
<time>2012-06-16T18:42:32Z</time>
 <fix>none</fix>
 <sat>0</sat>
</trkpt>
<trkpt lat="48.307351667" lon="16.364268333">
<time>2012-06-16T18:42:33Z</time>
 <fix>none</fix>
 <sat>0</sat>
</trkpt>
<trkpt lat="48.307393333" lon="16.364238333">
<time>2012-06-16T18:42:34Z</time>
 <fix>none</fix>
 <sat>0</sat>
</trkpt>
<trkpt lat="48.307436667" lon="16.364211667">
<time>2012-06-16T18:42:35Z</time>
 <fix>none</fix>
 <sat>0</sat>
</trkpt>
<trkpt lat="48.307451667" lon="16.364173333">
<time>2012-06-16T18:42:36Z</time>
 <fix>none</fix>
 <sat>0</sat>
</trkpt>
<trkpt lat="48.307460000" lon="16.364130000">
<time>2012-06-16T18:42:37Z</time>
 <fix>none</fix>
 <sat>0</sat>
</trkpt>
<trkpt lat="48.307483333" lon="16.364095000">
<time>2012-06-16T18:42:38Z</time>
 <fix>none</fix>
 <sat>0</sat>
</trkpt>
<trkpt lat="48.307498333" lon="16.364060000">
<time>2012-06-16T18:42:39Z</time>
 <fix>none</fix>
 <sat>0</sat>
</trkpt>
<trkpt lat="48.307520000" lon="16.364025000">
<time>2012-06-16T18:42:40Z</time>
 <fix>none</fix>
 <sat>0</sat>
</trkpt>
<trkpt lat="48.307541667" lon="16.363990000">
<time>2012-06-16T18:42:41Z</time>
 <fix>none</fix>
 <sat>0</sat>
</trkpt>
<trkpt lat="48.307566667" lon="16.363963333">
<time>2012-06-16T18:42:42Z</time>
 <fix>none</fix>
 <sat>0</sat>
</trkpt>
<trkpt lat="48.307586667" lon="16.363935000">
<time>2012-06-16T18:42:43Z</time>
 <fix>none</fix>
 <sat>0</sat>
</trkpt>
<trkpt lat="48.307610000" lon="16.363910000">
<time>2012-06-16T18:42:44Z</time>
 <fix>none</fix>
 <sat>0</sat>
</trkpt>
<trkpt lat="48.307635000" lon="16.363883333">
<time>2012-06-16T18:42:45Z</time>
 <fix>none</fix>
 <sat>0</sat>
</trkpt>
<trkpt lat="48.307658333" lon="16.363865000">
<time>2012-06-16T18:42:46Z</time>
 <fix>none</fix>
 <sat>0</sat>
</trkpt>
<trkpt lat="48.307685000" lon="16.363846667">
<time>2012-06-16T18:42:47Z</time>
 <fix>none</fix>
 <sat>0</sat>
</trkpt>
<trkpt lat="48.307690000" lon="16.363820000">
<time>2012-06-16T18:42:48Z</time>
 <fix>none</fix>
 <sat>0</sat>
</trkpt>
<trkpt lat="48.307710000" lon="16.363801667">
<time>2012-06-16T18:42:49Z</time>
 <fix>none</fix>
 <sat>0</sat>
</trkpt>
<trkpt lat="48.307728333" lon="16.363778333">
<time>2012-06-16T18:42:50Z</time>
 <fix>none</fix>
 <sat>0</sat>
</trkpt>
<trkpt lat="48.307750000" lon="16.363750000">
<time>2012-06-16T18:42:51Z</time>
 <fix>none</fix>
 <sat>0</sat>
</trkpt>
<trkpt lat="48.307776667" lon="16.363726667">
<time>2012-06-16T18:42:52Z</time>
 <fix>none</fix>
 <sat>0</sat>
</trkpt>
<trkpt lat="48.307798333" lon="16.363703333">
<time>2012-06-16T18:42:53Z</time>
 <fix>none</fix>
 <sat>0</sat>
</trkpt>
<trkpt lat="48.307818333" lon="16.363675000">
<time>2012-06-16T18:42:54Z</time>
 <fix>none</fix>
 <sat>0</sat>
</trkpt>
<trkpt lat="48.307845000" lon="16.363650000">
<time>2012-06-16T18:42:55Z</time>
 <fix>none</fix>
 <sat>0</sat>
</trkpt>
<trkpt lat="48.307875000" lon="16.363623333">
<time>2012-06-16T18:42:56Z</time>
 <fix>none</fix>
 <sat>0</sat>
</trkpt>
<trkpt lat="48.307913333" lon="16.363603333">
<time>2012-06-16T18:42:57Z</time>
 <fix>none</fix>
 <sat>0</sat>
</trkpt>
<trkpt lat="48.307946667" lon="16.363576667">
<time>2012-06-16T18:42:58Z</time>
 <fix>none</fix>
 <sat>0</sat>
</trkpt>
<trkpt lat="48.307956667" lon="16.363540000">
<time>2012-06-16T18:42:59Z</time>
 <fix>none</fix>
 <sat>0</sat>
</trkpt>
<trkpt lat="48.307976667" lon="16.363501667">
<time>2012-06-16T18:43:00Z</time>
 <fix>none</fix>
 <sat>0</sat>
</trkpt>
<trkpt lat="48.307993333" lon="16.363456667">
<time>2012-06-16T18:43:01Z</time>
 <fix>none</fix>
 <sat>0</sat>
</trkpt>
<trkpt lat="48.308013333" lon="16.363413333">
<time>2012-06-16T18:43:02Z</time>
 <fix>none</fix>
 <sat>0</sat>
</trkpt>
<trkpt lat="48.308023333" lon="16.363365000">
<time>2012-06-16T18:43:03Z</time>
 <fix>none</fix>
 <sat>0</sat>
</trkpt>
<trkpt lat="48.308043333" lon="16.363318333">
<time>2012-06-16T18:43:04Z</time>
 <fix>none</fix>
 <sat>0</sat>
</trkpt>
<trkpt lat="48.308076667" lon="16.363278333">
<time>2012-06-16T18:43:05Z</time>
 <fix>none</fix>
 <sat>0</sat>
</trkpt>
<trkpt lat="48.308120000" lon="16.363241667">
<time>2012-06-16T18:43:06Z</time>
 <fix>none</fix>
 <sat>0</sat>
</trkpt>
<trkpt lat="48.308141667" lon="16.363191667">
<time>2012-06-16T18:43:07Z</time>
 <fix>none</fix>
 <sat>0</sat>
</trkpt>
<trkpt lat="48.308183333" lon="16.363148333">
<time>2012-06-16T18:43:08Z</time>
 <fix>none</fix>
 <sat>0</sat>
</trkpt>
<trkpt lat="48.308230000" lon="16.363113333">
<time>2012-06-16T18:43:09Z</time>
 <fix>none</fix>
 <sat>0</sat>
</trkpt>
<trkpt lat="48.308273333" lon="16.363076667">
<time>2012-06-16T18:43:10Z</time>
 <fix>none</fix>
 <sat>0</sat>
</trkpt>
<trkpt lat="48.308313333" lon="16.363026667">
<time>2012-06-16T18:43:11Z</time>
 <fix>none</fix>
 <sat>0</sat>
</trkpt>
<trkpt lat="48.308348333" lon="16.362976667">
<time>2012-06-16T18:43:12Z</time>
 <fix>none</fix>
 <sat>0</sat>
</trkpt>
<trkpt lat="48.308390000" lon="16.362935000">
<time>2012-06-16T18:43:13Z</time>
 <fix>none</fix>
 <sat>0</sat>
</trkpt>
<trkpt lat="48.308421667" lon="16.362883333">
<time>2012-06-16T18:43:14Z</time>
 <fix>none</fix>
 <sat>0</sat>
</trkpt>
<trkpt lat="48.308453333" lon="16.362830000">
<time>2012-06-16T18:43:15Z</time>
 <fix>none</fix>
 <sat>0</sat>
</trkpt>
<trkpt lat="48.308466667" lon="16.362771667">
<time>2012-06-16T18:43:16Z</time>
 <fix>none</fix>
 <sat>0</sat>
</trkpt>
<trkpt lat="48.308476667" lon="16.362713333">
<time>2012-06-16T18:43:17Z</time>
 <fix>none</fix>
 <sat>0</sat>
</trkpt>
<trkpt lat="48.308483333" lon="16.362655000">
<time>2012-06-16T18:43:18Z</time>
 <fix>none</fix>
 <sat>0</sat>
</trkpt>
<trkpt lat="48.308510000" lon="16.362608333">
<time>2012-06-16T18:43:19Z</time>
 <fix>none</fix>
 <sat>0</sat>
</trkpt>
<trkpt lat="48.308551667" lon="16.362568333">
<time>2012-06-16T18:43:20Z</time>
 <fix>none</fix>
 <sat>0</sat>
</trkpt>
<trkpt lat="48.308571667" lon="16.362523333">
<time>2012-06-16T18:43:21Z</time>
 <fix>none</fix>
 <sat>0</sat>
</trkpt>
<trkpt lat="48.308596667" lon="16.362483333">
<time>2012-06-16T18:43:22Z</time>
 <fix>none</fix>
 <sat>0</sat>
</trkpt>
<trkpt lat="48.308625000" lon="16.362445000">
<time>2012-06-16T18:43:23Z</time>
 <fix>none</fix>
 <sat>0</sat>
</trkpt>
<trkpt lat="48.308650000" lon="16.362408333">
<time>2012-06-16T18:43:24Z</time>
 <fix>none</fix>
 <sat>0</sat>
</trkpt>
<trkpt lat="48.308678333" lon="16.362371667">
<time>2012-06-16T18:43:25Z</time>
 <fix>none</fix>
 <sat>0</sat>
</trkpt>
<trkpt lat="48.308703333" lon="16.362338333">
<time>2012-06-16T18:43:26Z</time>
 <fix>none</fix>
 <sat>0</sat>
</trkpt>
<trkpt lat="48.308728333" lon="16.362306667">
<time>2012-06-16T18:43:27Z</time>
 <fix>none</fix>
 <sat>0</sat>
</trkpt>
<trkpt lat="48.308751667" lon="16.362275000">
<time>2012-06-16T18:43:28Z</time>
 <fix>none</fix>
 <sat>0</sat>
</trkpt>
<trkpt lat="48.308775000" lon="16.362243333">
<time>2012-06-16T18:43:29Z</time>
 <fix>none</fix>
 <sat>0</sat>
</trkpt>
<trkpt lat="48.308791667" lon="16.362215000">
<time>2012-06-16T18:43:30Z</time>
 <fix>none</fix>
 <sat>0</sat>
</trkpt>
<trkpt lat="48.308810000" lon="16.362188333">
<time>2012-06-16T18:43:31Z</time>
 <fix>none</fix>
 <sat>0</sat>
</trkpt>
<trkpt lat="48.308828333" lon="16.362160000">
<time>2012-06-16T18:43:32Z</time>
 <fix>none</fix>
 <sat>0</sat>
</trkpt>
<trkpt lat="48.308853333" lon="16.362136667">
<time>2012-06-16T18:43:33Z</time>
 <fix>none</fix>
 <sat>0</sat>
</trkpt>
<trkpt lat="48.308881667" lon="16.362115000">
<time>2012-06-16T18:43:34Z</time>
 <fix>none</fix>
 <sat>0</sat>
</trkpt>
<trkpt lat="48.308911667" lon="16.362096667">
<time>2012-06-16T18:43:35Z</time>
 <fix>none</fix>
 <sat>0</sat>
</trkpt>
<trkpt lat="48.308941667" lon="16.362076667">
<time>2012-06-16T18:43:36Z</time>
 <fix>none</fix>
 <sat>0</sat>
</trkpt>
<trkpt lat="48.308968333" lon="16.362065000">
<time>2012-06-16T18:43:37Z</time>
 <fix>none</fix>
 <sat>0</sat>
</trkpt>
<trkpt lat="48.309008333" lon="16.362073333">
<time>2012-06-16T18:43:38Z</time>
 <fix>none</fix>
 <sat>0</sat>
</trkpt>
<trkpt lat="48.309060000" lon="16.362120000">
<time>2012-06-16T18:43:39Z</time>
 <fix>none</fix>
 <sat>0</sat>
</trkpt>
<trkpt lat="48.309113333" lon="16.362166667">
<time>2012-06-16T18:43:40Z</time>
 <fix>none</fix>
 <sat>0</sat>
</trkpt>
<trkpt lat="48.309145000" lon="16.362210000">
<time>2012-06-16T18:43:41Z</time>
 <fix>none</fix>
 <sat>0</sat>
</trkpt>
<trkpt lat="48.309171667" lon="16.362250000">
<time>2012-06-16T18:43:42Z</time>
 <fix>none</fix>
 <sat>0</sat>
</trkpt>
<trkpt lat="48.309196667" lon="16.362281667">
<time>2012-06-16T18:43:43Z</time>
 <fix>none</fix>
 <sat>0</sat>
</trkpt>
<trkpt lat="48.309220000" lon="16.362316667">
<time>2012-06-16T18:43:44Z</time>
 <fix>none</fix>
 <sat>0</sat>
</trkpt>
<trkpt lat="48.309243333" lon="16.362350000">
<time>2012-06-16T18:43:45Z</time>
 <fix>none</fix>
 <sat>0</sat>
</trkpt>
<trkpt lat="48.309270000" lon="16.362385000">
<time>2012-06-16T18:43:46Z</time>
 <fix>none</fix>
 <sat>0</sat>
</trkpt>
<trkpt lat="48.309286667" lon="16.362418333">
<time>2012-06-16T18:43:47Z</time>
 <fix>none</fix>
 <sat>0</sat>
</trkpt>
<trkpt lat="48.309306667" lon="16.362448333">
<time>2012-06-16T18:43:48Z</time>
 <fix>none</fix>
 <sat>0</sat>
</trkpt>
<trkpt lat="48.309325000" lon="16.362481667">
<time>2012-06-16T18:43:49Z</time>
 <fix>none</fix>
 <sat>0</sat>
</trkpt>
<trkpt lat="48.309343333" lon="16.362515000">
<time>2012-06-16T18:43:50Z</time>
 <fix>none</fix>
 <sat>0</sat>
</trkpt>
<trkpt lat="48.309358333" lon="16.362546667">
<time>2012-06-16T18:43:51Z</time>
 <fix>none</fix>
 <sat>0</sat>
</trkpt>
<trkpt lat="48.309375000" lon="16.362578333">
<time>2012-06-16T18:43:52Z</time>
 <fix>none</fix>
 <sat>0</sat>
</trkpt>
<trkpt lat="48.309393333" lon="16.362610000">
<time>2012-06-16T18:43:53Z</time>
 <fix>none</fix>
 <sat>0</sat>
</trkpt>
<trkpt lat="48.309410000" lon="16.362641667">
<time>2012-06-16T18:43:54Z</time>
 <fix>none</fix>
 <sat>0</sat>
</trkpt>
<trkpt lat="48.309426667" lon="16.362673333">
<time>2012-06-16T18:43:55Z</time>
 <fix>none</fix>
 <sat>0</sat>
</trkpt>
<trkpt lat="48.309438333" lon="16.362708333">
<time>2012-06-16T18:43:56Z</time>
 <fix>none</fix>
 <sat>0</sat>
</trkpt>
<trkpt lat="48.309451667" lon="16.362740000">
<time>2012-06-16T18:43:57Z</time>
 <fix>none</fix>
 <sat>0</sat>
</trkpt>
<trkpt lat="48.309465000" lon="16.362773333">
<time>2012-06-16T18:43:58Z</time>
 <fix>none</fix>
 <sat>0</sat>
</trkpt>
<trkpt lat="48.309480000" lon="16.362805000">
<time>2012-06-16T18:43:59Z</time>
 <fix>none</fix>
 <sat>0</sat>
</trkpt>
<trkpt lat="48.309495000" lon="16.362835000">
<time>2012-06-16T18:44:00Z</time>
 <fix>none</fix>
 <sat>0</sat>
</trkpt>
<trkpt lat="48.309508333" lon="16.362868333">
<time>2012-06-16T18:44:01Z</time>
 <fix>none</fix>
 <sat>0</sat>
</trkpt>
<trkpt lat="48.309520000" lon="16.362900000">
<time>2012-06-16T18:44:02Z</time>
 <fix>none</fix>
 <sat>0</sat>
</trkpt>
<trkpt lat="48.309533333" lon="16.362930000">
<time>2012-06-16T18:44:03Z</time>
 <fix>none</fix>
 <sat>0</sat>
</trkpt>
<trkpt lat="48.309543333" lon="16.362963333">
<time>2012-06-16T18:44:04Z</time>
 <fix>none</fix>
 <sat>0</sat>
</trkpt>
<trkpt lat="48.309555000" lon="16.362998333">
<time>2012-06-16T18:44:05Z</time>
 <fix>none</fix>
 <sat>0</sat>
</trkpt>
<trkpt lat="48.309566667" lon="16.363033333">
<time>2012-06-16T18:44:06Z</time>
 <fix>none</fix>
 <sat>0</sat>
</trkpt>
<trkpt lat="48.309576667" lon="16.363068333">
<time>2012-06-16T18:44:07Z</time>
 <fix>none</fix>
 <sat>0</sat>
</trkpt>
<trkpt lat="48.309586667" lon="16.363105000">
<time>2012-06-16T18:44:08Z</time>
 <fix>none</fix>
 <sat>0</sat>
</trkpt>
<trkpt lat="48.309600000" lon="16.363140000">
<time>2012-06-16T18:44:09Z</time>
 <fix>none</fix>
 <sat>0</sat>
</trkpt>
<trkpt lat="48.309613333" lon="16.363180000">
<time>2012-06-16T18:44:10Z</time>
 <fix>none</fix>
 <sat>0</sat>
</trkpt>
<trkpt lat="48.309626667" lon="16.363215000">
<time>2012-06-16T18:44:11Z</time>
 <fix>none</fix>
 <sat>0</sat>
</trkpt>
<trkpt lat="48.309641667" lon="16.363253333">
<time>2012-06-16T18:44:12Z</time>
 <fix>none</fix>
 <sat>0</sat>
</trkpt>
<trkpt lat="48.309653333" lon="16.363288333">
<time>2012-06-16T18:44:13Z</time>
 <fix>none</fix>
 <sat>0</sat>
</trkpt>
<trkpt lat="48.309670000" lon="16.363318333">
<time>2012-06-16T18:44:14Z</time>
 <fix>none</fix>
 <sat>0</sat>
</trkpt>
<trkpt lat="48.309690000" lon="16.363351667">
<time>2012-06-16T18:44:15Z</time>
 <fix>none</fix>
 <sat>0</sat>
</trkpt>
<trkpt lat="48.309710000" lon="16.363386667">
<time>2012-06-16T18:44:16Z</time>
 <fix>none</fix>
 <sat>0</sat>
</trkpt>
<trkpt lat="48.309725000" lon="16.363413333">
<time>2012-06-16T18:44:17Z</time>
 <fix>none</fix>
 <sat>0</sat>
</trkpt>
<trkpt lat="48.309738333" lon="16.363441667">
<time>2012-06-16T18:44:18Z</time>
 <fix>none</fix>
 <sat>0</sat>
</trkpt>
<trkpt lat="48.309751667" lon="16.363473333">
<time>2012-06-16T18:44:19Z</time>
 <fix>none</fix>
 <sat>0</sat>
</trkpt>
<trkpt lat="48.309761667" lon="16.363501667">
<time>2012-06-16T18:44:20Z</time>
 <fix>none</fix>
 <sat>0</sat>
</trkpt>
<trkpt lat="48.309775000" lon="16.363530000">
<time>2012-06-16T18:44:21Z</time>
 <fix>none</fix>
 <sat>0</sat>
</trkpt>
<trkpt lat="48.309785000" lon="16.363555000">
<time>2012-06-16T18:44:22Z</time>
 <fix>none</fix>
 <sat>0</sat>
</trkpt>
<trkpt lat="48.309796667" lon="16.363581667">
<time>2012-06-16T18:44:23Z</time>
 <fix>none</fix>
 <sat>0</sat>
</trkpt>
<trkpt lat="48.309810000" lon="16.363606667">
<time>2012-06-16T18:44:24Z</time>
 <fix>none</fix>
 <sat>0</sat>
</trkpt>
<trkpt lat="48.309820000" lon="16.363638333">
<time>2012-06-16T18:44:25Z</time>
 <fix>none</fix>
 <sat>0</sat>
</trkpt>
<trkpt lat="48.309833333" lon="16.363670000">
<time>2012-06-16T18:44:26Z</time>
 <fix>none</fix>
 <sat>0</sat>
</trkpt>
<trkpt lat="48.309843333" lon="16.363701667">
<time>2012-06-16T18:44:27Z</time>
 <fix>none</fix>
 <sat>0</sat>
</trkpt>
<trkpt lat="48.309851667" lon="16.363733333">
<time>2012-06-16T18:44:28Z</time>
 <fix>none</fix>
 <sat>0</sat>
</trkpt>
<trkpt lat="48.309858333" lon="16.363765000">
<time>2012-06-16T18:44:29Z</time>
 <fix>none</fix>
 <sat>0</sat>
</trkpt>
<trkpt lat="48.309863333" lon="16.363796667">
<time>2012-06-16T18:44:30Z</time>
 <fix>none</fix>
 <sat>0</sat>
</trkpt>
<trkpt lat="48.309865000" lon="16.363830000">
<time>2012-06-16T18:44:31Z</time>
 <fix>none</fix>
 <sat>0</sat>
</trkpt>
<trkpt lat="48.309870000" lon="16.363863333">
<time>2012-06-16T18:44:32Z</time>
 <fix>none</fix>
 <sat>0</sat>
</trkpt>
<trkpt lat="48.309876667" lon="16.363898333">
<time>2012-06-16T18:44:33Z</time>
 <fix>none</fix>
 <sat>0</sat>
</trkpt>
<trkpt lat="48.309885000" lon="16.363935000">
<time>2012-06-16T18:44:34Z</time>
 <fix>none</fix>
 <sat>0</sat>
</trkpt>
<trkpt lat="48.309888333" lon="16.363963333">
<time>2012-06-16T18:44:35Z</time>
 <fix>none</fix>
 <sat>0</sat>
</trkpt>
<trkpt lat="48.309895000" lon="16.363998333">
<time>2012-06-16T18:44:36Z</time>
 <fix>none</fix>
 <sat>0</sat>
</trkpt>
<trkpt lat="48.309910000" lon="16.364035000">
<time>2012-06-16T18:44:37Z</time>
 <fix>none</fix>
 <sat>0</sat>
</trkpt>
<trkpt lat="48.309921667" lon="16.364073333">
<time>2012-06-16T18:44:38Z</time>
 <fix>none</fix>
 <sat>0</sat>
</trkpt>
<trkpt lat="48.309931667" lon="16.364106667">
<time>2012-06-16T18:44:39Z</time>
 <fix>none</fix>
 <sat>0</sat>
</trkpt>
<trkpt lat="48.309943333" lon="16.364141667">
<time>2012-06-16T18:44:40Z</time>
 <fix>none</fix>
 <sat>0</sat>
</trkpt>
<trkpt lat="48.309951667" lon="16.364176667">
<time>2012-06-16T18:44:41Z</time>
 <fix>none</fix>
 <sat>0</sat>
</trkpt>
<trkpt lat="48.309963333" lon="16.364210000">
<time>2012-06-16T18:44:42Z</time>
 <fix>none</fix>
 <sat>0</sat>
</trkpt>
<trkpt lat="48.309975000" lon="16.364240000">
<time>2012-06-16T18:44:43Z</time>
 <fix>none</fix>
 <sat>0</sat>
</trkpt>
<trkpt lat="48.309990000" lon="16.364278333">
<time>2012-06-16T18:44:44Z</time>
 <fix>none</fix>
 <sat>0</sat>
</trkpt>
<trkpt lat="48.310001667" lon="16.364311667">
<time>2012-06-16T18:44:45Z</time>
 <fix>none</fix>
 <sat>0</sat>
</trkpt>
<trkpt lat="48.310018333" lon="16.364343333">
<time>2012-06-16T18:44:46Z</time>
 <fix>none</fix>
 <sat>0</sat>
</trkpt>
<trkpt lat="48.310030000" lon="16.364371667">
<time>2012-06-16T18:44:47Z</time>
 <fix>none</fix>
 <sat>0</sat>
</trkpt>
<trkpt lat="48.310045000" lon="16.364395000">
<time>2012-06-16T18:44:48Z</time>
 <fix>none</fix>
 <sat>0</sat>
</trkpt>
<trkpt lat="48.310055000" lon="16.364413333">
<time>2012-06-16T18:44:49Z</time>
 <fix>none</fix>
 <sat>0</sat>
</trkpt>
<trkpt lat="48.310066667" lon="16.364426667">
<time>2012-06-16T18:44:50Z</time>
 <fix>none</fix>
 <sat>0</sat>
</trkpt>
<trkpt lat="48.310085000" lon="16.364441667">
<time>2012-06-16T18:44:51Z</time>
 <fix>none</fix>
 <sat>0</sat>
</trkpt>
<trkpt lat="48.310106667" lon="16.364453333">
<time>2012-06-16T18:44:52Z</time>
 <fix>none</fix>
 <sat>0</sat>
</trkpt>
<trkpt lat="48.310125000" lon="16.364458333">
<time>2012-06-16T18:44:53Z</time>
 <fix>none</fix>
 <sat>0</sat>
</trkpt>
<trkpt lat="48.310143333" lon="16.364465000">
<time>2012-06-16T18:44:54Z</time>
 <fix>none</fix>
 <sat>0</sat>
</trkpt>
<trkpt lat="48.310158333" lon="16.364461667">
<time>2012-06-16T18:44:55Z</time>
 <fix>none</fix>
 <sat>0</sat>
</trkpt>
<trkpt lat="48.310191667" lon="16.364453333">
<time>2012-06-16T18:44:56Z</time>
 <fix>none</fix>
 <sat>0</sat>
</trkpt>
<trkpt lat="48.310211667" lon="16.364453333">
<time>2012-06-16T18:44:57Z</time>
 <fix>none</fix>
 <sat>0</sat>
</trkpt>
<trkpt lat="48.310231667" lon="16.364455000">
<time>2012-06-16T18:44:58Z</time>
 <fix>none</fix>
 <sat>0</sat>
</trkpt>
<trkpt lat="48.310253333" lon="16.364458333">
<time>2012-06-16T18:44:59Z</time>
 <fix>none</fix>
 <sat>0</sat>
</trkpt>
<trkpt lat="48.310266667" lon="16.364453333">
<time>2012-06-16T18:45:00Z</time>
 <fix>none</fix>
 <sat>0</sat>
</trkpt>
<trkpt lat="48.310278333" lon="16.364458333">
<time>2012-06-16T18:45:01Z</time>
 <fix>none</fix>
 <sat>0</sat>
</trkpt>
<trkpt lat="48.310310000" lon="16.364465000">
<time>2012-06-16T18:45:02Z</time>
 <fix>none</fix>
 <sat>0</sat>
</trkpt>
<trkpt lat="48.310338333" lon="16.364466667">
<time>2012-06-16T18:45:03Z</time>
 <fix>none</fix>
 <sat>0</sat>
</trkpt>
<trkpt lat="48.310368333" lon="16.364470000">
<time>2012-06-16T18:45:04Z</time>
 <fix>none</fix>
 <sat>0</sat>
</trkpt>
<trkpt lat="48.310381667" lon="16.364476667">
<time>2012-06-16T18:45:05Z</time>
 <fix>none</fix>
 <sat>0</sat>
</trkpt>
<trkpt lat="48.310408333" lon="16.364481667">
<time>2012-06-16T18:45:06Z</time>
 <fix>none</fix>
 <sat>0</sat>
</trkpt>
<trkpt lat="48.310431667" lon="16.364485000">
<time>2012-06-16T18:45:07Z</time>
 <fix>none</fix>
 <sat>0</sat>
</trkpt>
<trkpt lat="48.310470000" lon="16.364486667">
<time>2012-06-16T18:45:08Z</time>
 <fix>none</fix>
 <sat>0</sat>
</trkpt>
<trkpt lat="48.310491667" lon="16.364491667">
<time>2012-06-16T18:45:09Z</time>
 <fix>none</fix>
 <sat>0</sat>
</trkpt>
<trkpt lat="48.310515000" lon="16.364498333">
<time>2012-06-16T18:45:10Z</time>
 <fix>none</fix>
 <sat>0</sat>
</trkpt>
<trkpt lat="48.310555000" lon="16.364498333">
<time>2012-06-16T18:45:11Z</time>
 <fix>none</fix>
 <sat>0</sat>
</trkpt>
<trkpt lat="48.310578333" lon="16.364505000">
<time>2012-06-16T18:45:12Z</time>
 <fix>none</fix>
 <sat>0</sat>
</trkpt>
<trkpt lat="48.310626667" lon="16.364521667">
<time>2012-06-16T18:45:13Z</time>
 <fix>none</fix>
 <sat>0</sat>
</trkpt>
<trkpt lat="48.310676667" lon="16.364538333">
<time>2012-06-16T18:45:14Z</time>
 <fix>none</fix>
 <sat>0</sat>
</trkpt>
<trkpt lat="48.310715000" lon="16.364545000">
<time>2012-06-16T18:45:15Z</time>
 <fix>none</fix>
 <sat>0</sat>
</trkpt>
<trkpt lat="48.310731667" lon="16.364545000">
<time>2012-06-16T18:45:16Z</time>
 <fix>none</fix>
 <sat>0</sat>
</trkpt>
<trkpt lat="48.310748333" lon="16.364545000">
<time>2012-06-16T18:45:17Z</time>
 <fix>none</fix>
 <sat>0</sat>
</trkpt>
<trkpt lat="48.310778333" lon="16.364548333">
<time>2012-06-16T18:45:18Z</time>
 <fix>none</fix>
 <sat>0</sat>
</trkpt>
<trkpt lat="48.310795000" lon="16.364550000">
<time>2012-06-16T18:45:19Z</time>
 <fix>none</fix>
 <sat>0</sat>
</trkpt>
<trkpt lat="48.310825000" lon="16.364555000">
<time>2012-06-16T18:45:20Z</time>
 <fix>none</fix>
 <sat>0</sat>
</trkpt>
<trkpt lat="48.310858333" lon="16.364561667">
<time>2012-06-16T18:45:21Z</time>
 <fix>none</fix>
 <sat>0</sat>
</trkpt>
<trkpt lat="48.310865000" lon="16.364555000">
<time>2012-06-16T18:45:22Z</time>
 <fix>none</fix>
 <sat>0</sat>
</trkpt>
<trkpt lat="48.310886667" lon="16.364555000">
<time>2012-06-16T18:45:23Z</time>
 <fix>none</fix>
 <sat>0</sat>
</trkpt>
<trkpt lat="48.310900000" lon="16.364546667">
<time>2012-06-16T18:45:24Z</time>
 <fix>none</fix>
 <sat>0</sat>
</trkpt>
<trkpt lat="48.310913333" lon="16.364540000">
<time>2012-06-16T18:45:25Z</time>
 <fix>none</fix>
 <sat>0</sat>
</trkpt>
<trkpt lat="48.310958333" lon="16.364545000">
<time>2012-06-16T18:45:26Z</time>
 <fix>none</fix>
 <sat>0</sat>
</trkpt>
<trkpt lat="48.310976667" lon="16.364541667">
<time>2012-06-16T18:45:27Z</time>
 <fix>none</fix>
 <sat>0</sat>
</trkpt>
<trkpt lat="48.311000000" lon="16.364533333">
<time>2012-06-16T18:45:28Z</time>
 <fix>none</fix>
 <sat>0</sat>
</trkpt>
<trkpt lat="48.311031667" lon="16.364513333">
<time>2012-06-16T18:45:29Z</time>
 <fix>none</fix>
 <sat>0</sat>
</trkpt>
<trkpt lat="48.311038333" lon="16.364505000">
<time>2012-06-16T18:45:30Z</time>
 <fix>none</fix>
 <sat>0</sat>
</trkpt>
<trkpt lat="48.311056667" lon="16.364510000">
<time>2012-06-16T18:45:31Z</time>
 <fix>none</fix>
 <sat>0</sat>
</trkpt>
<trkpt lat="48.311078333" lon="16.364513333">
<time>2012-06-16T18:45:32Z</time>
 <fix>none</fix>
 <sat>0</sat>
</trkpt>
<trkpt lat="48.311113333" lon="16.364505000">
<time>2012-06-16T18:45:33Z</time>
 <fix>none</fix>
 <sat>0</sat>
</trkpt>
<trkpt lat="48.311150000" lon="16.364493333">
<time>2012-06-16T18:45:34Z</time>
 <fix>none</fix>
 <sat>0</sat>
</trkpt>
<trkpt lat="48.311188333" lon="16.364485000">
<time>2012-06-16T18:45:35Z</time>
 <fix>none</fix>
 <sat>0</sat>
</trkpt>
<trkpt lat="48.311236667" lon="16.364470000">
<time>2012-06-16T18:45:36Z</time>
 <fix>none</fix>
 <sat>0</sat>
</trkpt>
<trkpt lat="48.311280000" lon="16.364450000">
<time>2012-06-16T18:45:37Z</time>
 <fix>none</fix>
 <sat>0</sat>
</trkpt>
<trkpt lat="48.311305000" lon="16.364433333">
<time>2012-06-16T18:45:38Z</time>
 <fix>none</fix>
 <sat>0</sat>
</trkpt>
<trkpt lat="48.311343333" lon="16.364410000">
<time>2012-06-16T18:45:39Z</time>
 <fix>none</fix>
 <sat>0</sat>
</trkpt>
<trkpt lat="48.311351667" lon="16.364395000">
<time>2012-06-16T18:45:40Z</time>
 <fix>none</fix>
 <sat>0</sat>
</trkpt>
<trkpt lat="48.311365000" lon="16.364378333">
<time>2012-06-16T18:45:41Z</time>
 <fix>none</fix>
 <sat>0</sat>
</trkpt>
<trkpt lat="48.311386667" lon="16.364365000">
<time>2012-06-16T18:45:42Z</time>
 <fix>none</fix>
 <sat>0</sat>
</trkpt>
<trkpt lat="48.311391667" lon="16.364343333">
<time>2012-06-16T18:45:43Z</time>
 <fix>none</fix>
 <sat>0</sat>
</trkpt>
<trkpt lat="48.311383333" lon="16.364335000">
<time>2012-06-16T18:45:44Z</time>
 <fix>none</fix>
 <sat>0</sat>
</trkpt>
<trkpt lat="48.311398333" lon="16.364323333">
<time>2012-06-16T18:45:45Z</time>
 <fix>none</fix>
 <sat>0</sat>
</trkpt>
<trkpt lat="48.311413333" lon="16.364306667">
<time>2012-06-16T18:45:46Z</time>
 <fix>none</fix>
 <sat>0</sat>
</trkpt>
<trkpt lat="48.311433333" lon="16.364291667">
<time>2012-06-16T18:45:47Z</time>
 <fix>none</fix>
 <sat>0</sat>
</trkpt>
<trkpt lat="48.311441667" lon="16.364275000">
<time>2012-06-16T18:45:48Z</time>
 <fix>none</fix>
 <sat>0</sat>
</trkpt>
<trkpt lat="48.311456667" lon="16.364260000">
<time>2012-06-16T18:45:49Z</time>
 <fix>none</fix>
 <sat>0</sat>
</trkpt>
<trkpt lat="48.311481667" lon="16.364245000">
<time>2012-06-16T18:45:50Z</time>
 <fix>none</fix>
 <sat>0</sat>
</trkpt>
<trkpt lat="48.311506667" lon="16.364233333">
<time>2012-06-16T18:45:51Z</time>
 <fix>none</fix>
 <sat>0</sat>
</trkpt>
<trkpt lat="48.311525000" lon="16.364220000">
<time>2012-06-16T18:45:52Z</time>
 <fix>none</fix>
 <sat>0</sat>
</trkpt>
<trkpt lat="48.311525000" lon="16.364216667">
<time>2012-06-16T18:45:53Z</time>
 <fix>none</fix>
 <sat>0</sat>
</trkpt>
<trkpt lat="48.311525000" lon="16.364206667">
<time>2012-06-16T18:45:54Z</time>
 <fix>none</fix>
 <sat>0</sat>
</trkpt>
<trkpt lat="48.311525000" lon="16.364198333">
<time>2012-06-16T18:45:55Z</time>
 <fix>none</fix>
 <sat>0</sat>
</trkpt>
<trkpt lat="48.311533333" lon="16.364185000">
<time>2012-06-16T18:45:56Z</time>
 <fix>none</fix>
 <sat>0</sat>
</trkpt>
<trkpt lat="48.311535000" lon="16.364173333">
<time>2012-06-16T18:45:57Z</time>
 <fix>none</fix>
 <sat>0</sat>
</trkpt>
<trkpt lat="48.311536667" lon="16.364168333">
<time>2012-06-16T18:45:58Z</time>
 <fix>none</fix>
 <sat>0</sat>
</trkpt>
<trkpt lat="48.311535000" lon="16.364171667">
<time>2012-06-16T18:45:59Z</time>
 <fix>none</fix>
 <sat>0</sat>
</trkpt>
<trkpt lat="48.311535000" lon="16.364176667">
<time>2012-06-16T18:46:00Z</time>
 <fix>none</fix>
 <sat>0</sat>
</trkpt>
<trkpt lat="48.311541667" lon="16.364188333">
<time>2012-06-16T18:46:01Z</time>
 <fix>none</fix>
 <sat>0</sat>
</trkpt>
<trkpt lat="48.311560000" lon="16.364200000">
<time>2012-06-16T18:46:02Z</time>
 <fix>none</fix>
 <sat>0</sat>
</trkpt>
<trkpt lat="48.311573333" lon="16.364205000">
<time>2012-06-16T18:46:03Z</time>
 <fix>none</fix>
 <sat>0</sat>
</trkpt>
<trkpt lat="48.311598333" lon="16.364205000">
<time>2012-06-16T18:46:04Z</time>
 <fix>none</fix>
 <sat>0</sat>
</trkpt>
<trkpt lat="48.311605000" lon="16.364205000">
<time>2012-06-16T18:46:05Z</time>
 <fix>none</fix>
 <sat>0</sat>
</trkpt>
<trkpt lat="48.311616667" lon="16.364205000">
<time>2012-06-16T18:46:06Z</time>
 <fix>none</fix>
 <sat>0</sat>
</trkpt>
<trkpt lat="48.311620000" lon="16.364205000">
<time>2012-06-16T18:46:07Z</time>
 <fix>none</fix>
 <sat>0</sat>
</trkpt>
<trkpt lat="48.311635000" lon="16.364205000">
<time>2012-06-16T18:46:08Z</time>
 <fix>none</fix>
 <sat>0</sat>
</trkpt>
<trkpt lat="48.311628333" lon="16.364203333">
<time>2012-06-16T18:46:09Z</time>
 <fix>none</fix>
 <sat>0</sat>
</trkpt>
<trkpt lat="48.311626667" lon="16.364203333">
<time>2012-06-16T18:46:10Z</time>
 <fix>none</fix>
 <sat>0</sat>
</trkpt>
<trkpt lat="48.311641667" lon="16.364205000">
<time>2012-06-16T18:46:11Z</time>
 <fix>none</fix>
 <sat>0</sat>
</trkpt>
<trkpt lat="48.311663333" lon="16.364211667">
<time>2012-06-16T18:46:12Z</time>
 <fix>none</fix>
 <sat>0</sat>
</trkpt>
<trkpt lat="48.311666667" lon="16.364213333">
<time>2012-06-16T18:46:13Z</time>
 <fix>none</fix>
 <sat>0</sat>
</trkpt>
<trkpt lat="48.311683333" lon="16.364211667">
<time>2012-06-16T18:46:14Z</time>
 <fix>none</fix>
 <sat>0</sat>
</trkpt>
<trkpt lat="48.311685000" lon="16.364205000">
<time>2012-06-16T18:46:15Z</time>
 <fix>none</fix>
 <sat>0</sat>
</trkpt>
<trkpt lat="48.311685000" lon="16.364205000">
<time>2012-06-16T18:46:16Z</time>
 <fix>none</fix>
 <sat>0</sat>
</trkpt>
<trkpt lat="48.311706667" lon="16.364201667">
<time>2012-06-16T18:46:17Z</time>
 <fix>none</fix>
 <sat>0</sat>
</trkpt>
<trkpt lat="48.311731667" lon="16.364200000">
<time>2012-06-16T18:46:18Z</time>
 <fix>none</fix>
 <sat>0</sat>
</trkpt>
<trkpt lat="48.311755000" lon="16.364200000">
<time>2012-06-16T18:46:19Z</time>
 <fix>none</fix>
 <sat>0</sat>
</trkpt>
<trkpt lat="48.311786667" lon="16.364196667">
<time>2012-06-16T18:46:20Z</time>
 <fix>none</fix>
 <sat>0</sat>
</trkpt>
<trkpt lat="48.311786667" lon="16.364208333">
<time>2012-06-16T18:46:21Z</time>
 <fix>none</fix>
 <sat>0</sat>
</trkpt>
<trkpt lat="48.311803333" lon="16.364216667">
<time>2012-06-16T18:46:22Z</time>
 <fix>none</fix>
 <sat>0</sat>
</trkpt>
<trkpt lat="48.311821667" lon="16.364216667">
<time>2012-06-16T18:46:23Z</time>
 <fix>none</fix>
 <sat>0</sat>
</trkpt>
<trkpt lat="48.311848333" lon="16.364221667">
<time>2012-06-16T18:46:24Z</time>
 <fix>none</fix>
 <sat>0</sat>
</trkpt>
<trkpt lat="48.311868333" lon="16.364225000">
<time>2012-06-16T18:46:25Z</time>
 <fix>none</fix>
 <sat>0</sat>
</trkpt>
<trkpt lat="48.311881667" lon="16.364221667">
<time>2012-06-16T18:46:26Z</time>
 <fix>none</fix>
 <sat>0</sat>
</trkpt>
<trkpt lat="48.311903333" lon="16.364216667">
<time>2012-06-16T18:46:27Z</time>
 <fix>none</fix>
 <sat>0</sat>
</trkpt>
<trkpt lat="48.311928333" lon="16.364208333">
<time>2012-06-16T18:46:28Z</time>
 <fix>none</fix>
 <sat>0</sat>
</trkpt>
<trkpt lat="48.311963333" lon="16.364205000">
<time>2012-06-16T18:46:29Z</time>
 <fix>none</fix>
 <sat>0</sat>
</trkpt>
<trkpt lat="48.311978333" lon="16.364216667">
<time>2012-06-16T18:46:30Z</time>
 <fix>none</fix>
 <sat>0</sat>
</trkpt>
<trkpt lat="48.311998333" lon="16.364233333">
<time>2012-06-16T18:46:31Z</time>
 <fix>none</fix>
 <sat>0</sat>
</trkpt>
<trkpt lat="48.311991667" lon="16.364248333">
<time>2012-06-16T18:46:32Z</time>
 <fix>none</fix>
 <sat>0</sat>
</trkpt>
<trkpt lat="48.312001667" lon="16.364256667">
<time>2012-06-16T18:46:33Z</time>
 <fix>none</fix>
 <sat>0</sat>
</trkpt>
<trkpt lat="48.312020000" lon="16.364256667">
<time>2012-06-16T18:46:34Z</time>
 <fix>none</fix>
 <sat>0</sat>
</trkpt>
<trkpt lat="48.312030000" lon="16.364261667">
<time>2012-06-16T18:46:35Z</time>
 <fix>none</fix>
 <sat>0</sat>
</trkpt>
<trkpt lat="48.312036667" lon="16.364273333">
<time>2012-06-16T18:46:36Z</time>
 <fix>none</fix>
 <sat>0</sat>
</trkpt>
<trkpt lat="48.312055000" lon="16.364291667">
<time>2012-06-16T18:46:37Z</time>
 <fix>none</fix>
 <sat>0</sat>
</trkpt>
<trkpt lat="48.312058333" lon="16.364303333">
<time>2012-06-16T18:46:38Z</time>
 <fix>none</fix>
 <sat>0</sat>
</trkpt>
<trkpt lat="48.312073333" lon="16.364306667">
<time>2012-06-16T18:46:39Z</time>
 <fix>none</fix>
 <sat>0</sat>
</trkpt>
<trkpt lat="48.312101667" lon="16.364308333">
<time>2012-06-16T18:46:40Z</time>
 <fix>none</fix>
 <sat>0</sat>
</trkpt>
<trkpt lat="48.312113333" lon="16.364315000">
<time>2012-06-16T18:46:41Z</time>
 <fix>none</fix>
 <sat>0</sat>
</trkpt>
<trkpt lat="48.312130000" lon="16.364326667">
<time>2012-06-16T18:46:42Z</time>
 <fix>none</fix>
 <sat>0</sat>
</trkpt>
<trkpt lat="48.312148333" lon="16.364338333">
<time>2012-06-16T18:46:43Z</time>
 <fix>none</fix>
 <sat>0</sat>
</trkpt>
<trkpt lat="48.312163333" lon="16.364343333">
<time>2012-06-16T18:46:44Z</time>
 <fix>none</fix>
 <sat>0</sat>
</trkpt>
<trkpt lat="48.312181667" lon="16.364348333">
<time>2012-06-16T18:46:45Z</time>
 <fix>none</fix>
 <sat>0</sat>
</trkpt>
<trkpt lat="48.312200000" lon="16.364355000">
<time>2012-06-16T18:46:46Z</time>
 <fix>none</fix>
 <sat>0</sat>
</trkpt>
<trkpt lat="48.312203333" lon="16.364366667">
<time>2012-06-16T18:46:47Z</time>
 <fix>none</fix>
 <sat>0</sat>
</trkpt>
<trkpt lat="48.312221667" lon="16.364376667">
<time>2012-06-16T18:46:48Z</time>
 <fix>none</fix>
 <sat>0</sat>
</trkpt>
<trkpt lat="48.312238333" lon="16.364385000">
<time>2012-06-16T18:46:49Z</time>
 <fix>none</fix>
 <sat>0</sat>
</trkpt>
<trkpt lat="48.312253333" lon="16.364395000">
<time>2012-06-16T18:46:50Z</time>
 <fix>none</fix>
 <sat>0</sat>
</trkpt>
<trkpt lat="48.312271667" lon="16.364415000">
<time>2012-06-16T18:46:51Z</time>
 <fix>none</fix>
 <sat>0</sat>
</trkpt>
<trkpt lat="48.312291667" lon="16.364423333">
<time>2012-06-16T18:46:52Z</time>
 <fix>none</fix>
 <sat>0</sat>
</trkpt>
<trkpt lat="48.312305000" lon="16.364430000">
<time>2012-06-16T18:46:53Z</time>
 <fix>none</fix>
 <sat>0</sat>
</trkpt>
<trkpt lat="48.312316667" lon="16.364435000">
<time>2012-06-16T18:46:54Z</time>
 <fix>none</fix>
 <sat>0</sat>
</trkpt>
<trkpt lat="48.312338333" lon="16.364438333">
<time>2012-06-16T18:46:55Z</time>
 <fix>none</fix>
 <sat>0</sat>
</trkpt>
<trkpt lat="48.312360000" lon="16.364441667">
<time>2012-06-16T18:46:56Z</time>
 <fix>none</fix>
 <sat>0</sat>
</trkpt>
<trkpt lat="48.312385000" lon="16.364445000">
<time>2012-06-16T18:46:57Z</time>
 <fix>none</fix>
 <sat>0</sat>
</trkpt>
<trkpt lat="48.312401667" lon="16.364456667">
<time>2012-06-16T18:46:58Z</time>
 <fix>none</fix>
 <sat>0</sat>
</trkpt>
<trkpt lat="48.312416667" lon="16.364468333">
<time>2012-06-16T18:46:59Z</time>
 <fix>none</fix>
 <sat>0</sat>
</trkpt>
<trkpt lat="48.312445000" lon="16.364470000">
<time>2012-06-16T18:47:00Z</time>
 <fix>none</fix>
 <sat>0</sat>
</trkpt>
<trkpt lat="48.312465000" lon="16.364476667">
<time>2012-06-16T18:47:01Z</time>
 <fix>none</fix>
 <sat>0</sat>
</trkpt>
<trkpt lat="48.312490000" lon="16.364481667">
<time>2012-06-16T18:47:02Z</time>
 <fix>none</fix>
 <sat>0</sat>
</trkpt>
<trkpt lat="48.312511667" lon="16.364486667">
<time>2012-06-16T18:47:03Z</time>
 <fix>none</fix>
 <sat>0</sat>
</trkpt>
<trkpt lat="48.312520000" lon="16.364496667">
<time>2012-06-16T18:47:04Z</time>
 <fix>none</fix>
 <sat>0</sat>
</trkpt>
<trkpt lat="48.312538333" lon="16.364508333">
<time>2012-06-16T18:47:05Z</time>
 <fix>none</fix>
 <sat>0</sat>
</trkpt>
<trkpt lat="48.312558333" lon="16.364521667">
<time>2012-06-16T18:47:06Z</time>
 <fix>none</fix>
 <sat>0</sat>
</trkpt>
<trkpt lat="48.312576667" lon="16.364533333">
<time>2012-06-16T18:47:07Z</time>
 <fix>none</fix>
 <sat>0</sat>
</trkpt>
<trkpt lat="48.312591667" lon="16.364545000">
<time>2012-06-16T18:47:08Z</time>
 <fix>none</fix>
 <sat>0</sat>
</trkpt>
<trkpt lat="48.312598333" lon="16.364548333">
<time>2012-06-16T18:47:09Z</time>
 <fix>none</fix>
 <sat>0</sat>
</trkpt>
<trkpt lat="48.312613333" lon="16.364548333">
<time>2012-06-16T18:47:10Z</time>
 <fix>none</fix>
 <sat>0</sat>
</trkpt>
<trkpt lat="48.312621667" lon="16.364555000">
<time>2012-06-16T18:47:11Z</time>
 <fix>none</fix>
 <sat>0</sat>
</trkpt>
<trkpt lat="48.312650000" lon="16.364550000">
<time>2012-06-16T18:47:12Z</time>
 <fix>none</fix>
 <sat>0</sat>
</trkpt>
<trkpt lat="48.312678333" lon="16.364541667">
<time>2012-06-16T18:47:13Z</time>
 <fix>none</fix>
 <sat>0</sat>
</trkpt>
<trkpt lat="48.312708333" lon="16.364533333">
<time>2012-06-16T18:47:14Z</time>
 <fix>none</fix>
 <sat>0</sat>
</trkpt>
<trkpt lat="48.312716667" lon="16.364541667">
<time>2012-06-16T18:47:15Z</time>
 <fix>none</fix>
 <sat>0</sat>
</trkpt>
<trkpt lat="48.312715000" lon="16.364548333">
<time>2012-06-16T18:47:16Z</time>
 <fix>none</fix>
 <sat>0</sat>
</trkpt>
<trkpt lat="48.312728333" lon="16.364550000">
<time>2012-06-16T18:47:17Z</time>
 <fix>none</fix>
 <sat>0</sat>
</trkpt>
<trkpt lat="48.312715000" lon="16.364556667">
<time>2012-06-16T18:47:18Z</time>
 <fix>none</fix>
 <sat>0</sat>
</trkpt>
<trkpt lat="48.312705000" lon="16.364565000">
<time>2012-06-16T18:47:19Z</time>
 <fix>none</fix>
 <sat>0</sat>
</trkpt>
<trkpt lat="48.312700000" lon="16.364571667">
<time>2012-06-16T18:47:20Z</time>
 <fix>none</fix>
 <sat>0</sat>
</trkpt>
<trkpt lat="48.312700000" lon="16.364578333">
<time>2012-06-16T18:47:21Z</time>
 <fix>none</fix>
 <sat>0</sat>
</trkpt>
<trkpt lat="48.312715000" lon="16.364591667">
<time>2012-06-16T18:47:22Z</time>
 <fix>none</fix>
 <sat>0</sat>
</trkpt>
<trkpt lat="48.312736667" lon="16.364595000">
<time>2012-06-16T18:47:23Z</time>
 <fix>none</fix>
 <sat>0</sat>
</trkpt>
<trkpt lat="48.312748333" lon="16.364605000">
<time>2012-06-16T18:47:24Z</time>
 <fix>none</fix>
 <sat>0</sat>
</trkpt>
<trkpt lat="48.312776667" lon="16.364613333">
<time>2012-06-16T18:47:25Z</time>
 <fix>none</fix>
 <sat>0</sat>
</trkpt>
<trkpt lat="48.312788333" lon="16.364613333">
<time>2012-06-16T18:47:26Z</time>
 <fix>none</fix>
 <sat>0</sat>
</trkpt>
<trkpt lat="48.312793333" lon="16.364625000">
<time>2012-06-16T18:47:27Z</time>
 <fix>none</fix>
 <sat>0</sat>
</trkpt>
<trkpt lat="48.312810000" lon="16.364636667">
<time>2012-06-16T18:47:28Z</time>
 <fix>none</fix>
 <sat>0</sat>
</trkpt>
<trkpt lat="48.312823333" lon="16.364641667">
<time>2012-06-16T18:47:29Z</time>
 <fix>none</fix>
 <sat>0</sat>
</trkpt>
<trkpt lat="48.312843333" lon="16.364646667">
<time>2012-06-16T18:47:30Z</time>
 <fix>none</fix>
 <sat>0</sat>
</trkpt>
<trkpt lat="48.312855000" lon="16.364646667">
<time>2012-06-16T18:47:31Z</time>
 <fix>none</fix>
 <sat>0</sat>
</trkpt>
<trkpt lat="48.312875000" lon="16.364653333">
<time>2012-06-16T18:47:32Z</time>
 <fix>none</fix>
 <sat>0</sat>
</trkpt>
<trkpt lat="48.312871667" lon="16.364655000">
<time>2012-06-16T18:47:33Z</time>
 <fix>none</fix>
 <sat>0</sat>
</trkpt>
<trkpt lat="48.312885000" lon="16.364663333">
<time>2012-06-16T18:47:34Z</time>
 <fix>none</fix>
 <sat>0</sat>
</trkpt>
<trkpt lat="48.312901667" lon="16.364671667">
<time>2012-06-16T18:47:35Z</time>
 <fix>none</fix>
 <sat>0</sat>
</trkpt>
<trkpt lat="48.312925000" lon="16.364683333">
<time>2012-06-16T18:47:36Z</time>
 <fix>none</fix>
 <sat>0</sat>
</trkpt>
<trkpt lat="48.312931667" lon="16.364688333">
<time>2012-06-16T18:47:37Z</time>
 <fix>none</fix>
 <sat>0</sat>
</trkpt>
<trkpt lat="48.312946667" lon="16.364695000">
<time>2012-06-16T18:47:38Z</time>
 <fix>none</fix>
 <sat>0</sat>
</trkpt>
<trkpt lat="48.312960000" lon="16.364705000">
<time>2012-06-16T18:47:39Z</time>
 <fix>none</fix>
 <sat>0</sat>
</trkpt>
<trkpt lat="48.312973333" lon="16.364715000">
<time>2012-06-16T18:47:40Z</time>
 <fix>none</fix>
 <sat>0</sat>
</trkpt>
<trkpt lat="48.312983333" lon="16.364721667">
<time>2012-06-16T18:47:41Z</time>
 <fix>none</fix>
 <sat>0</sat>
</trkpt>
<trkpt lat="48.312988333" lon="16.364723333">
<time>2012-06-16T18:47:42Z</time>
 <fix>none</fix>
 <sat>0</sat>
</trkpt>
<trkpt lat="48.312995000" lon="16.364731667">
<time>2012-06-16T18:47:43Z</time>
 <fix>none</fix>
 <sat>0</sat>
</trkpt>
<trkpt lat="48.313005000" lon="16.364743333">
<time>2012-06-16T18:47:44Z</time>
 <fix>none</fix>
 <sat>0</sat>
</trkpt>
<trkpt lat="48.313010000" lon="16.364751667">
<time>2012-06-16T18:47:45Z</time>
 <fix>none</fix>
 <sat>0</sat>
</trkpt>
<trkpt lat="48.313026667" lon="16.364770000">
<time>2012-06-16T18:47:46Z</time>
 <fix>none</fix>
 <sat>0</sat>
</trkpt>
<trkpt lat="48.313030000" lon="16.364785000">
<time>2012-06-16T18:47:47Z</time>
 <fix>none</fix>
 <sat>0</sat>
</trkpt>
<trkpt lat="48.313051667" lon="16.364793333">
<time>2012-06-16T18:47:48Z</time>
 <fix>none</fix>
 <sat>0</sat>
</trkpt>
<trkpt lat="48.313071667" lon="16.364801667">
<time>2012-06-16T18:47:49Z</time>
 <fix>none</fix>
 <sat>0</sat>
</trkpt>
<trkpt lat="48.313088333" lon="16.364813333">
<time>2012-06-16T18:47:50Z</time>
 <fix>none</fix>
 <sat>0</sat>
</trkpt>
<trkpt lat="48.313100000" lon="16.364825000">
<time>2012-06-16T18:47:51Z</time>
 <fix>none</fix>
 <sat>0</sat>
</trkpt>
<trkpt lat="48.313115000" lon="16.364838333">
<time>2012-06-16T18:47:52Z</time>
 <fix>none</fix>
 <sat>0</sat>
</trkpt>
<trkpt lat="48.313130000" lon="16.364848333">
<time>2012-06-16T18:47:53Z</time>
 <fix>none</fix>
 <sat>0</sat>
</trkpt>
<trkpt lat="48.313145000" lon="16.364861667">
<time>2012-06-16T18:47:54Z</time>
 <fix>none</fix>
 <sat>0</sat>
</trkpt>
<trkpt lat="48.313158333" lon="16.364881667">
<time>2012-06-16T18:47:55Z</time>
 <fix>none</fix>
 <sat>0</sat>
</trkpt>
<trkpt lat="48.313175000" lon="16.364895000">
<time>2012-06-16T18:47:56Z</time>
 <fix>none</fix>
 <sat>0</sat>
</trkpt>
<trkpt lat="48.313186667" lon="16.364906667">
<time>2012-06-16T18:47:57Z</time>
 <fix>none</fix>
 <sat>0</sat>
</trkpt>
<trkpt lat="48.313201667" lon="16.364918333">
<time>2012-06-16T18:47:58Z</time>
 <fix>none</fix>
 <sat>0</sat>
</trkpt>
<trkpt lat="48.313216667" lon="16.364935000">
<time>2012-06-16T18:47:59Z</time>
 <fix>none</fix>
 <sat>0</sat>
</trkpt>
<trkpt lat="48.313223333" lon="16.364953333">
<time>2012-06-16T18:48:00Z</time>
 <fix>none</fix>
 <sat>0</sat>
</trkpt>
<trkpt lat="48.313255000" lon="16.364963333">
<time>2012-06-16T18:48:01Z</time>
 <fix>none</fix>
 <sat>0</sat>
</trkpt>
<trkpt lat="48.313265000" lon="16.364983333">
<time>2012-06-16T18:48:02Z</time>
 <fix>none</fix>
 <sat>0</sat>
</trkpt>
<trkpt lat="48.313273333" lon="16.365005000">
<time>2012-06-16T18:48:03Z</time>
 <fix>none</fix>
 <sat>0</sat>
</trkpt>
<trkpt lat="48.313285000" lon="16.365026667">
<time>2012-06-16T18:48:04Z</time>
 <fix>none</fix>
 <sat>0</sat>
</trkpt>
<trkpt lat="48.313295000" lon="16.365046667">
<time>2012-06-16T18:48:05Z</time>
 <fix>none</fix>
 <sat>0</sat>
</trkpt>
<trkpt lat="48.313306667" lon="16.365070000">
<time>2012-06-16T18:48:06Z</time>
 <fix>none</fix>
 <sat>0</sat>
</trkpt>
<trkpt lat="48.313313333" lon="16.365086667">
<time>2012-06-16T18:48:07Z</time>
 <fix>none</fix>
 <sat>0</sat>
</trkpt>
<trkpt lat="48.313316667" lon="16.365098333">
<time>2012-06-16T18:48:08Z</time>
 <fix>none</fix>
 <sat>0</sat>
</trkpt>
<trkpt lat="48.313328333" lon="16.365108333">
<time>2012-06-16T18:48:09Z</time>
 <fix>none</fix>
 <sat>0</sat>
</trkpt>
<trkpt lat="48.313331667" lon="16.365121667">
<time>2012-06-16T18:48:10Z</time>
 <fix>none</fix>
 <sat>0</sat>
</trkpt>
<trkpt lat="48.313346667" lon="16.365148333">
<time>2012-06-16T18:48:11Z</time>
 <fix>none</fix>
 <sat>0</sat>
</trkpt>
<trkpt lat="48.313368333" lon="16.365158333">
<time>2012-06-16T18:48:12Z</time>
 <fix>none</fix>
 <sat>0</sat>
</trkpt>
<trkpt lat="48.313388333" lon="16.365171667">
<time>2012-06-16T18:48:13Z</time>
 <fix>none</fix>
 <sat>0</sat>
</trkpt>
<trkpt lat="48.313393333" lon="16.365195000">
<time>2012-06-16T18:48:14Z</time>
 <fix>none</fix>
 <sat>0</sat>
</trkpt>
<trkpt lat="48.313393333" lon="16.365218333">
<time>2012-06-16T18:48:15Z</time>
 <fix>none</fix>
 <sat>0</sat>
</trkpt>
<trkpt lat="48.313396667" lon="16.365236667">
<time>2012-06-16T18:48:16Z</time>
 <fix>none</fix>
 <sat>0</sat>
</trkpt>
<trkpt lat="48.313390000" lon="16.365253333">
<time>2012-06-16T18:48:17Z</time>
 <fix>none</fix>
 <sat>0</sat>
</trkpt>
<trkpt lat="48.313393333" lon="16.365281667">
<time>2012-06-16T18:48:18Z</time>
 <fix>none</fix>
 <sat>0</sat>
</trkpt>
<trkpt lat="48.313393333" lon="16.365300000">
<time>2012-06-16T18:48:19Z</time>
 <fix>none</fix>
 <sat>0</sat>
</trkpt>
<trkpt lat="48.313393333" lon="16.365326667">
<time>2012-06-16T18:48:20Z</time>
 <fix>none</fix>
 <sat>0</sat>
</trkpt>
<trkpt lat="48.313390000" lon="16.365340000">
<time>2012-06-16T18:48:21Z</time>
 <fix>none</fix>
 <sat>0</sat>
</trkpt>
<trkpt lat="48.313388333" lon="16.365343333">
<time>2012-06-16T18:48:22Z</time>
 <fix>none</fix>
 <sat>0</sat>
</trkpt>
<trkpt lat="48.313391667" lon="16.365350000">
<time>2012-06-16T18:48:23Z</time>
 <fix>none</fix>
 <sat>0</sat>
</trkpt>
<trkpt lat="48.313400000" lon="16.365350000">
<time>2012-06-16T18:48:24Z</time>
 <fix>none</fix>
 <sat>0</sat>
</trkpt>
<trkpt lat="48.313430000" lon="16.365348333">
<time>2012-06-16T18:48:25Z</time>
 <fix>none</fix>
 <sat>0</sat>
</trkpt>
<trkpt lat="48.313445000" lon="16.365363333">
<time>2012-06-16T18:48:26Z</time>
 <fix>none</fix>
 <sat>0</sat>
</trkpt>
<trkpt lat="48.313466667" lon="16.365375000">
<time>2012-06-16T18:48:27Z</time>
 <fix>none</fix>
 <sat>0</sat>
</trkpt>
<trkpt lat="48.313495000" lon="16.365395000">
<time>2012-06-16T18:48:28Z</time>
 <fix>none</fix>
 <sat>0</sat>
</trkpt>
<trkpt lat="48.313523333" lon="16.365403333">
<time>2012-06-16T18:48:29Z</time>
 <fix>none</fix>
 <sat>0</sat>
</trkpt>
<trkpt lat="48.313533333" lon="16.365408333">
<time>2012-06-16T18:48:30Z</time>
 <fix>none</fix>
 <sat>0</sat>
</trkpt>
<trkpt lat="48.313555000" lon="16.365415000">
<time>2012-06-16T18:48:31Z</time>
 <fix>none</fix>
 <sat>0</sat>
</trkpt>
<trkpt lat="48.313576667" lon="16.365423333">
<time>2012-06-16T18:48:32Z</time>
 <fix>none</fix>
 <sat>0</sat>
</trkpt>
<trkpt lat="48.313580000" lon="16.365430000">
<time>2012-06-16T18:48:33Z</time>
 <fix>none</fix>
 <sat>0</sat>
</trkpt>
<trkpt lat="48.313603333" lon="16.365436667">
<time>2012-06-16T18:48:34Z</time>
 <fix>none</fix>
 <sat>0</sat>
</trkpt>
<trkpt lat="48.313630000" lon="16.365443333">
<time>2012-06-16T18:48:35Z</time>
 <fix>none</fix>
 <sat>0</sat>
</trkpt>
<trkpt lat="48.313636667" lon="16.365458333">
<time>2012-06-16T18:48:36Z</time>
 <fix>none</fix>
 <sat>0</sat>
</trkpt>
<trkpt lat="48.313661667" lon="16.365475000">
<time>2012-06-16T18:48:37Z</time>
 <fix>none</fix>
 <sat>0</sat>
</trkpt>
<trkpt lat="48.313681667" lon="16.365490000">
<time>2012-06-16T18:48:38Z</time>
 <fix>none</fix>
 <sat>0</sat>
</trkpt>
<trkpt lat="48.313691667" lon="16.365501667">
<time>2012-06-16T18:48:39Z</time>
 <fix>none</fix>
 <sat>0</sat>
</trkpt>
<trkpt lat="48.313701667" lon="16.365515000">
<time>2012-06-16T18:48:40Z</time>
 <fix>none</fix>
 <sat>0</sat>
</trkpt>
<trkpt lat="48.313698333" lon="16.365528333">
<time>2012-06-16T18:48:41Z</time>
 <fix>none</fix>
 <sat>0</sat>
</trkpt>
<trkpt lat="48.313715000" lon="16.365541667">
<time>2012-06-16T18:48:42Z</time>
 <fix>none</fix>
 <sat>0</sat>
</trkpt>
<trkpt lat="48.313720000" lon="16.365546667">
<time>2012-06-16T18:48:43Z</time>
 <fix>none</fix>
 <sat>0</sat>
</trkpt>
<trkpt lat="48.313720000" lon="16.365565000">
<time>2012-06-16T18:48:44Z</time>
 <fix>none</fix>
 <sat>0</sat>
</trkpt>
<trkpt lat="48.313731667" lon="16.365581667">
<time>2012-06-16T18:48:45Z</time>
 <fix>none</fix>
 <sat>0</sat>
</trkpt>
<trkpt lat="48.313743333" lon="16.365596667">
<time>2012-06-16T18:48:46Z</time>
 <fix>none</fix>
 <sat>0</sat>
</trkpt>
<trkpt lat="48.313753333" lon="16.365610000">
<time>2012-06-16T18:48:47Z</time>
 <fix>none</fix>
 <sat>0</sat>
</trkpt>
<trkpt lat="48.313766667" lon="16.365621667">
<time>2012-06-16T18:48:48Z</time>
 <fix>none</fix>
 <sat>0</sat>
</trkpt>
<trkpt lat="48.313775000" lon="16.365640000">
<time>2012-06-16T18:48:49Z</time>
 <fix>none</fix>
 <sat>0</sat>
</trkpt>
<trkpt lat="48.313785000" lon="16.365661667">
<time>2012-06-16T18:48:50Z</time>
 <fix>none</fix>
 <sat>0</sat>
</trkpt>
<trkpt lat="48.313793333" lon="16.365678333">
<time>2012-06-16T18:48:51Z</time>
 <fix>none</fix>
 <sat>0</sat>
</trkpt>
<trkpt lat="48.313815000" lon="16.365691667">
<time>2012-06-16T18:48:52Z</time>
 <fix>none</fix>
 <sat>0</sat>
</trkpt>
<trkpt lat="48.313828333" lon="16.365711667">
<time>2012-06-16T18:48:53Z</time>
 <fix>none</fix>
 <sat>0</sat>
</trkpt>
<trkpt lat="48.313836667" lon="16.365725000">
<time>2012-06-16T18:48:54Z</time>
 <fix>2d</fix>
 <sat>5</sat>
</trkpt>
<trkpt lat="48.313846667" lon="16.365741667">
<time>2012-06-16T18:48:55Z</time>
 <fix>2d</fix>
 <sat>5</sat>
</trkpt>
<trkpt lat="48.313861667" lon="16.365756667">
<time>2012-06-16T18:48:56Z</time>
 <fix>2d</fix>
 <sat>5</sat>
</trkpt>
<trkpt lat="48.313871667" lon="16.365780000">
<time>2012-06-16T18:48:57Z</time>
 <fix>2d</fix>
 <sat>5</sat>
</trkpt>
<trkpt lat="48.313883333" lon="16.365803333">
<time>2012-06-16T18:48:58Z</time>
 <fix>2d</fix>
 <sat>5</sat>
</trkpt>
<trkpt lat="48.313893333" lon="16.365828333">
<time>2012-06-16T18:48:59Z</time>
 <fix>2d</fix>
 <sat>5</sat>
</trkpt>
<trkpt lat="48.313911667" lon="16.365851667">
<time>2012-06-16T18:49:00Z</time>
 <fix>2d</fix>
 <sat>5</sat>
</trkpt>
<trkpt lat="48.313920000" lon="16.365873333">
<time>2012-06-16T18:49:01Z</time>
 <fix>2d</fix>
 <sat>5</sat>
</trkpt>
<trkpt lat="48.313926667" lon="16.365898333">
<time>2012-06-16T18:49:02Z</time>
 <fix>2d</fix>
 <sat>5</sat>
</trkpt>
<trkpt lat="48.313945000" lon="16.365918333">
<time>2012-06-16T18:49:03Z</time>
 <fix>2d</fix>
 <sat>5</sat>
</trkpt>
<trkpt lat="48.313956667" lon="16.365941667">
<time>2012-06-16T18:49:04Z</time>
 <fix>2d</fix>
 <sat>5</sat>
</trkpt>
<trkpt lat="48.313971667" lon="16.365961667">
<time>2012-06-16T18:49:05Z</time>
 <fix>2d</fix>
 <sat>5</sat>
</trkpt>
<trkpt lat="48.313985000" lon="16.365980000">
<time>2012-06-16T18:49:06Z</time>
 <fix>2d</fix>
 <sat>5</sat>
</trkpt>
<trkpt lat="48.313998333" lon="16.365996667">
<time>2012-06-16T18:49:07Z</time>
 <fix>2d</fix>
 <sat>5</sat>
</trkpt>
<trkpt lat="48.314013333" lon="16.366013333">
<time>2012-06-16T18:49:08Z</time>
 <fix>2d</fix>
 <sat>5</sat>
</trkpt>
<trkpt lat="48.314021667" lon="16.366031667">
<time>2012-06-16T18:49:09Z</time>
 <fix>2d</fix>
 <sat>5</sat>
</trkpt>
<trkpt lat="48.314015000" lon="16.366060000">
<time>2012-06-16T18:49:10Z</time>
 <fix>2d</fix>
 <sat>5</sat>
</trkpt>
<trkpt lat="48.314011667" lon="16.366083333">
<time>2012-06-16T18:49:11Z</time>
 <fix>2d</fix>
 <sat>5</sat>
</trkpt>
<trkpt lat="48.314006667" lon="16.366108333">
<time>2012-06-16T18:49:12Z</time>
 <fix>2d</fix>
 <sat>5</sat>
</trkpt>
<trkpt lat="48.314000000" lon="16.366131667">
<time>2012-06-16T18:49:13Z</time>
 <fix>2d</fix>
 <sat>4</sat>
</trkpt>
<trkpt lat="48.314013333" lon="16.366143333">
<time>2012-06-16T18:49:14Z</time>
 <fix>2d</fix>
 <sat>4</sat>
</trkpt>
<trkpt lat="48.314035000" lon="16.366158333">
<time>2012-06-16T18:49:15Z</time>
 <fix>2d</fix>
 <sat>4</sat>
</trkpt>
<trkpt lat="48.314051667" lon="16.366173333">
<time>2012-06-16T18:49:16Z</time>
 <fix>2d</fix>
 <sat>4</sat>
</trkpt>
<trkpt lat="48.314065000" lon="16.366198333">
<time>2012-06-16T18:49:17Z</time>
 <fix>2d</fix>
 <sat>4</sat>
</trkpt>
<trkpt lat="48.314081667" lon="16.366220000">
<time>2012-06-16T18:49:18Z</time>
 <fix>2d</fix>
 <sat>4</sat>
</trkpt>
<trkpt lat="48.314091667" lon="16.366241667">
<time>2012-06-16T18:49:19Z</time>
 <fix>2d</fix>
 <sat>5</sat>
</trkpt>
<trkpt lat="48.314105000" lon="16.366258333">
<time>2012-06-16T18:49:20Z</time>
 <fix>2d</fix>
 <sat>5</sat>
</trkpt>
<trkpt lat="48.314126667" lon="16.366276667">
<time>2012-06-16T18:49:21Z</time>
 <fix>2d</fix>
 <sat>5</sat>
</trkpt>
<trkpt lat="48.314145000" lon="16.366290000">
<time>2012-06-16T18:49:22Z</time>
 <fix>2d</fix>
 <sat>5</sat>
</trkpt>
<trkpt lat="48.314155000" lon="16.366310000">
<time>2012-06-16T18:49:23Z</time>
 <fix>2d</fix>
 <sat>5</sat>
</trkpt>
<trkpt lat="48.314163333" lon="16.366333333">
<time>2012-06-16T18:49:24Z</time>
 <fix>2d</fix>
 <sat>5</sat>
</trkpt>
<trkpt lat="48.314173333" lon="16.366358333">
<time>2012-06-16T18:49:25Z</time>
 <fix>2d</fix>
 <sat>5</sat>
</trkpt>
<trkpt lat="48.314185000" lon="16.366385000">
<time>2012-06-16T18:49:26Z</time>
 <fix>2d</fix>
 <sat>5</sat>
</trkpt>
<trkpt lat="48.314196667" lon="16.366415000">
<time>2012-06-16T18:49:27Z</time>
 <fix>2d</fix>
 <sat>5</sat>
</trkpt>
<trkpt lat="48.314210000" lon="16.366446667">
<time>2012-06-16T18:49:28Z</time>
 <fix>2d</fix>
 <sat>5</sat>
</trkpt>
<trkpt lat="48.314220000" lon="16.366461667">
<time>2012-06-16T18:49:29Z</time>
 <fix>2d</fix>
 <sat>5</sat>
</trkpt>
<trkpt lat="48.314230000" lon="16.366471667">
<time>2012-06-16T18:49:30Z</time>
 <fix>2d</fix>
 <sat>5</sat>
</trkpt>
<trkpt lat="48.314238333" lon="16.366478333">
<time>2012-06-16T18:49:31Z</time>
 <fix>2d</fix>
 <sat>5</sat>
</trkpt>
<trkpt lat="48.314243333" lon="16.366491667">
<time>2012-06-16T18:49:32Z</time>
 <fix>2d</fix>
 <sat>5</sat>
</trkpt>
<trkpt lat="48.314261667" lon="16.366515000">
<time>2012-06-16T18:49:33Z</time>
 <fix>2d</fix>
 <sat>5</sat>
</trkpt>
<trkpt lat="48.314273333" lon="16.366535000">
<time>2012-06-16T18:49:34Z</time>
 <fix>2d</fix>
 <sat>5</sat>
</trkpt>
<trkpt lat="48.314278333" lon="16.366558333">
<time>2012-06-16T18:49:35Z</time>
 <fix>2d</fix>
 <sat>5</sat>
</trkpt>
<trkpt lat="48.314295000" lon="16.366571667">
<time>2012-06-16T18:49:36Z</time>
 <fix>2d</fix>
 <sat>5</sat>
</trkpt>
<trkpt lat="48.314308333" lon="16.366576667">
<time>2012-06-16T18:49:37Z</time>
 <fix>2d</fix>
 <sat>5</sat>
</trkpt>
<trkpt lat="48.314308333" lon="16.366590000">
<time>2012-06-16T18:49:38Z</time>
 <fix>2d</fix>
 <sat>5</sat>
</trkpt>
<trkpt lat="48.314308333" lon="16.366613333">
<time>2012-06-16T18:49:39Z</time>
 <fix>2d</fix>
 <sat>5</sat>
</trkpt>
<trkpt lat="48.314303333" lon="16.366630000">
<time>2012-06-16T18:49:40Z</time>
 <fix>2d</fix>
 <sat>5</sat>
</trkpt>
<trkpt lat="48.314306667" lon="16.366638333">
<time>2012-06-16T18:49:41Z</time>
 <fix>2d</fix>
 <sat>5</sat>
</trkpt>
<trkpt lat="48.314316667" lon="16.366648333">
<time>2012-06-16T18:49:42Z</time>
 <fix>2d</fix>
 <sat>5</sat>
</trkpt>
<trkpt lat="48.314328333" lon="16.366665000">
<time>2012-06-16T18:49:43Z</time>
 <fix>2d</fix>
 <sat>5</sat>
</trkpt>
<trkpt lat="48.314338333" lon="16.366688333">
<time>2012-06-16T18:49:44Z</time>
 <fix>2d</fix>
 <sat>5</sat>
</trkpt>
<trkpt lat="48.314348333" lon="16.366708333">
<time>2012-06-16T18:49:45Z</time>
 <fix>2d</fix>
 <sat>5</sat>
</trkpt>
<trkpt lat="48.314355000" lon="16.366733333">
<time>2012-06-16T18:49:46Z</time>
 <fix>2d</fix>
 <sat>5</sat>
</trkpt>
<trkpt lat="48.314366667" lon="16.366766667">
<time>2012-06-16T18:49:47Z</time>
 <fix>2d</fix>
 <sat>5</sat>
</trkpt>
<trkpt lat="48.314383333" lon="16.366795000">
<time>2012-06-16T18:49:48Z</time>
 <fix>2d</fix>
 <sat>5</sat>
</trkpt>
<trkpt lat="48.314398333" lon="16.366820000">
<time>2012-06-16T18:49:49Z</time>
 <fix>2d</fix>
 <sat>5</sat>
</trkpt>
<trkpt lat="48.314406667" lon="16.366846667">
<time>2012-06-16T18:49:50Z</time>
 <fix>2d</fix>
 <sat>5</sat>
</trkpt>
<trkpt lat="48.314418333" lon="16.366871667">
<time>2012-06-16T18:49:51Z</time>
 <fix>2d</fix>
 <sat>5</sat>
</trkpt>
<trkpt lat="48.314433333" lon="16.366888333">
<time>2012-06-16T18:49:52Z</time>
 <fix>2d</fix>
 <sat>5</sat>
</trkpt>
<trkpt lat="48.314448333" lon="16.366906667">
<time>2012-06-16T18:49:53Z</time>
 <fix>2d</fix>
 <sat>5</sat>
</trkpt>
<trkpt lat="48.314450000" lon="16.366930000">
<time>2012-06-16T18:49:54Z</time>
 <fix>2d</fix>
 <sat>5</sat>
</trkpt>
<trkpt lat="48.314460000" lon="16.366951667">
<time>2012-06-16T18:49:55Z</time>
 <fix>2d</fix>
 <sat>5</sat>
</trkpt>
<trkpt lat="48.314470000" lon="16.366973333">
<time>2012-06-16T18:49:56Z</time>
 <fix>2d</fix>
 <sat>5</sat>
</trkpt>
<trkpt lat="48.314481667" lon="16.366991667">
<time>2012-06-16T18:49:57Z</time>
 <fix>2d</fix>
 <sat>5</sat>
</trkpt>
<trkpt lat="48.314490000" lon="16.367010000">
<time>2012-06-16T18:49:58Z</time>
 <fix>2d</fix>
 <sat>5</sat>
</trkpt>
<trkpt lat="48.314503333" lon="16.367028333">
<time>2012-06-16T18:49:59Z</time>
 <fix>2d</fix>
 <sat>5</sat>
</trkpt>
<trkpt lat="48.314515000" lon="16.367045000">
<time>2012-06-16T18:50:00Z</time>
 <fix>2d</fix>
 <sat>5</sat>
</trkpt>
<trkpt lat="48.314525000" lon="16.367061667">
<time>2012-06-16T18:50:01Z</time>
 <fix>2d</fix>
 <sat>5</sat>
</trkpt>
<trkpt lat="48.314543333" lon="16.367083333">
<time>2012-06-16T18:50:02Z</time>
 <fix>2d</fix>
 <sat>5</sat>
</trkpt>
<trkpt lat="48.314563333" lon="16.367105000">
<time>2012-06-16T18:50:03Z</time>
 <fix>2d</fix>
 <sat>5</sat>
</trkpt>
<trkpt lat="48.314575000" lon="16.367120000">
<time>2012-06-16T18:50:04Z</time>
 <fix>2d</fix>
 <sat>5</sat>
</trkpt>
<trkpt lat="48.314588333" lon="16.367141667">
<time>2012-06-16T18:50:05Z</time>
 <fix>2d</fix>
 <sat>5</sat>
</trkpt>
<trkpt lat="48.314611667" lon="16.367165000">
<time>2012-06-16T18:50:06Z</time>
 <fix>2d</fix>
 <sat>5</sat>
</trkpt>
<trkpt lat="48.314628333" lon="16.367181667">
<time>2012-06-16T18:50:07Z</time>
 <fix>2d</fix>
 <sat>5</sat>
</trkpt>
<trkpt lat="48.314636667" lon="16.367195000">
<time>2012-06-16T18:50:08Z</time>
 <fix>2d</fix>
 <sat>5</sat>
</trkpt>
<trkpt lat="48.314660000" lon="16.367215000">
<time>2012-06-16T18:50:09Z</time>
 <fix>2d</fix>
 <sat>5</sat>
</trkpt>
<trkpt lat="48.314663333" lon="16.367233333">
<time>2012-06-16T18:50:10Z</time>
 <fix>2d</fix>
 <sat>5</sat>
</trkpt>
<trkpt lat="48.314673333" lon="16.367251667">
<time>2012-06-16T18:50:11Z</time>
 <fix>2d</fix>
 <sat>5</sat>
</trkpt>
<trkpt lat="48.314688333" lon="16.367268333">
<time>2012-06-16T18:50:12Z</time>
 <fix>2d</fix>
 <sat>5</sat>
</trkpt>
<trkpt lat="48.314715000" lon="16.367293333">
<time>2012-06-16T18:50:13Z</time>
 <fix>2d</fix>
 <sat>5</sat>
</trkpt>
<trkpt lat="48.314718333" lon="16.367321667">
<time>2012-06-16T18:50:14Z</time>
 <fix>2d</fix>
 <sat>5</sat>
</trkpt>
<trkpt lat="48.314718333" lon="16.367348333">
<time>2012-06-16T18:50:15Z</time>
 <fix>2d</fix>
 <sat>5</sat>
</trkpt>
<trkpt lat="48.314728333" lon="16.367373333">
<time>2012-06-16T18:50:16Z</time>
 <fix>2d</fix>
 <sat>5</sat>
</trkpt>
<trkpt lat="48.314741667" lon="16.367400000">
<time>2012-06-16T18:50:17Z</time>
 <fix>2d</fix>
 <sat>5</sat>
</trkpt>
<trkpt lat="48.314755000" lon="16.367428333">
<time>2012-06-16T18:50:18Z</time>
 <fix>2d</fix>
 <sat>5</sat>
</trkpt>
<trkpt lat="48.314770000" lon="16.367448333">
<time>2012-06-16T18:50:19Z</time>
 <fix>2d</fix>
 <sat>5</sat>
</trkpt>
<trkpt lat="48.314791667" lon="16.367460000">
<time>2012-06-16T18:50:20Z</time>
 <fix>2d</fix>
 <sat>5</sat>
</trkpt>
<trkpt lat="48.314801667" lon="16.367495000">
<time>2012-06-16T18:50:21Z</time>
 <fix>2d</fix>
 <sat>5</sat>
</trkpt>
<trkpt lat="48.314791667" lon="16.367528333">
<time>2012-06-16T18:50:22Z</time>
 <fix>2d</fix>
 <sat>5</sat>
</trkpt>
<trkpt lat="48.314790000" lon="16.367558333">
<time>2012-06-16T18:50:23Z</time>
 <fix>2d</fix>
 <sat>5</sat>
</trkpt>
<trkpt lat="48.314788333" lon="16.367590000">
<time>2012-06-16T18:50:24Z</time>
 <fix>2d</fix>
 <sat>5</sat>
</trkpt>
<trkpt lat="48.314786667" lon="16.367615000">
<time>2012-06-16T18:50:25Z</time>
 <fix>2d</fix>
 <sat>5</sat>
</trkpt>
<trkpt lat="48.314813333" lon="16.367626667">
<time>2012-06-16T18:50:26Z</time>
 <fix>2d</fix>
 <sat>5</sat>
</trkpt>
<trkpt lat="48.314828333" lon="16.367653333">
<time>2012-06-16T18:50:27Z</time>
 <fix>2d</fix>
 <sat>5</sat>
</trkpt>
<trkpt lat="48.314841667" lon="16.367681667">
<time>2012-06-16T18:50:28Z</time>
 <fix>2d</fix>
 <sat>5</sat>
</trkpt>
<trkpt lat="48.314838333" lon="16.367711667">
<time>2012-06-16T18:50:29Z</time>
 <fix>2d</fix>
 <sat>5</sat>
</trkpt>
<trkpt lat="48.314841667" lon="16.367723333">
<time>2012-06-16T18:50:30Z</time>
 <fix>2d</fix>
 <sat>5</sat>
</trkpt>
<trkpt lat="48.314855000" lon="16.367741667">
<time>2012-06-16T18:50:31Z</time>
 <fix>2d</fix>
 <sat>5</sat>
</trkpt>
<trkpt lat="48.314865000" lon="16.367768333">
<time>2012-06-16T18:50:32Z</time>
 <fix>2d</fix>
 <sat>5</sat>
</trkpt>
<trkpt lat="48.314880000" lon="16.367793333">
<time>2012-06-16T18:50:33Z</time>
 <fix>2d</fix>
 <sat>5</sat>
</trkpt>
<trkpt lat="48.314891667" lon="16.367816667">
<time>2012-06-16T18:50:34Z</time>
 <fix>2d</fix>
 <sat>5</sat>
</trkpt>
<trkpt lat="48.314898333" lon="16.367840000">
<time>2012-06-16T18:50:35Z</time>
 <fix>2d</fix>
 <sat>5</sat>
</trkpt>
<trkpt lat="48.314903333" lon="16.367860000">
<time>2012-06-16T18:50:36Z</time>
 <fix>2d</fix>
 <sat>5</sat>
</trkpt>
<trkpt lat="48.314911667" lon="16.367896667">
<time>2012-06-16T18:50:37Z</time>
 <fix>2d</fix>
 <sat>5</sat>
</trkpt>
<trkpt lat="48.314928333" lon="16.367918333">
<time>2012-06-16T18:50:38Z</time>
 <fix>2d</fix>
 <sat>5</sat>
</trkpt>
<trkpt lat="48.314928333" lon="16.367935000">
<time>2012-06-16T18:50:39Z</time>
 <fix>2d</fix>
 <sat>5</sat>
</trkpt>
<trkpt lat="48.314920000" lon="16.367953333">
<time>2012-06-16T18:50:40Z</time>
 <fix>2d</fix>
 <sat>5</sat>
</trkpt>
<trkpt lat="48.314916667" lon="16.367965000">
<time>2012-06-16T18:50:41Z</time>
 <fix>2d</fix>
 <sat>5</sat>
</trkpt>
<trkpt lat="48.314918333" lon="16.367983333">
<time>2012-06-16T18:50:42Z</time>
 <fix>2d</fix>
 <sat>5</sat>
</trkpt>
<trkpt lat="48.314920000" lon="16.368015000">
<time>2012-06-16T18:50:43Z</time>
 <fix>2d</fix>
 <sat>5</sat>
</trkpt>
<trkpt lat="48.314918333" lon="16.368036667">
<time>2012-06-16T18:50:44Z</time>
 <fix>2d</fix>
 <sat>5</sat>
</trkpt>
<trkpt lat="48.314918333" lon="16.368058333">
<time>2012-06-16T18:50:45Z</time>
 <fix>2d</fix>
 <sat>5</sat>
</trkpt>
<trkpt lat="48.314921667" lon="16.368076667">
<time>2012-06-16T18:50:46Z</time>
 <fix>2d</fix>
 <sat>5</sat>
</trkpt>
<trkpt lat="48.314926667" lon="16.368093333">
<time>2012-06-16T18:50:47Z</time>
 <fix>2d</fix>
 <sat>5</sat>
</trkpt>
<trkpt lat="48.314928333" lon="16.368110000">
<time>2012-06-16T18:50:48Z</time>
 <fix>2d</fix>
 <sat>5</sat>
</trkpt>
<trkpt lat="48.314935000" lon="16.368131667">
<time>2012-06-16T18:50:49Z</time>
 <fix>2d</fix>
 <sat>5</sat>
</trkpt>
<trkpt lat="48.314943333" lon="16.368151667">
<time>2012-06-16T18:50:50Z</time>
 <fix>2d</fix>
 <sat>5</sat>
</trkpt>
<trkpt lat="48.314956667" lon="16.368176667">
<time>2012-06-16T18:50:51Z</time>
 <fix>2d</fix>
 <sat>5</sat>
</trkpt>
<trkpt lat="48.314976667" lon="16.368195000">
<time>2012-06-16T18:50:52Z</time>
 <fix>2d</fix>
 <sat>5</sat>
</trkpt>
<trkpt lat="48.314978333" lon="16.368215000">
<time>2012-06-16T18:50:53Z</time>
 <fix>2d</fix>
 <sat>5</sat>
</trkpt>
<trkpt lat="48.314980000" lon="16.368236667">
<time>2012-06-16T18:50:54Z</time>
 <fix>2d</fix>
 <sat>5</sat>
</trkpt>
<trkpt lat="48.314983333" lon="16.368258333">
<time>2012-06-16T18:50:55Z</time>
 <fix>2d</fix>
 <sat>5</sat>
</trkpt>
<trkpt lat="48.314981667" lon="16.368281667">
<time>2012-06-16T18:50:56Z</time>
 <fix>2d</fix>
 <sat>5</sat>
</trkpt>
<trkpt lat="48.314971667" lon="16.368286667">
<time>2012-06-16T18:50:57Z</time>
 <fix>2d</fix>
 <sat>5</sat>
</trkpt>
<trkpt lat="48.314963333" lon="16.368286667">
<time>2012-06-16T18:50:58Z</time>
 <fix>2d</fix>
 <sat>5</sat>
</trkpt>
<trkpt lat="48.314975000" lon="16.368298333">
<time>2012-06-16T18:50:59Z</time>
 <fix>2d</fix>
 <sat>5</sat>
</trkpt>
<trkpt lat="48.314976667" lon="16.368310000">
<time>2012-06-16T18:51:00Z</time>
 <fix>2d</fix>
 <sat>5</sat>
</trkpt>
<trkpt lat="48.314983333" lon="16.368323333">
<time>2012-06-16T18:51:01Z</time>
 <fix>2d</fix>
 <sat>5</sat>
</trkpt>
<trkpt lat="48.314998333" lon="16.368341667">
<time>2012-06-16T18:51:02Z</time>
 <fix>2d</fix>
 <sat>5</sat>
</trkpt>
<trkpt lat="48.315008333" lon="16.368346667">
<time>2012-06-16T18:51:03Z</time>
 <fix>2d</fix>
 <sat>5</sat>
</trkpt>
<trkpt lat="48.315025000" lon="16.368345000">
<time>2012-06-16T18:51:04Z</time>
 <fix>2d</fix>
 <sat>5</sat>
</trkpt>
<trkpt lat="48.315033333" lon="16.368356667">
<time>2012-06-16T18:51:05Z</time>
 <fix>2d</fix>
 <sat>5</sat>
</trkpt>
<trkpt lat="48.315056667" lon="16.368363333">
<time>2012-06-16T18:51:06Z</time>
 <fix>2d</fix>
 <sat>5</sat>
</trkpt>
<trkpt lat="48.315061667" lon="16.368385000">
<time>2012-06-16T18:51:07Z</time>
 <fix>2d</fix>
 <sat>5</sat>
</trkpt>
<trkpt lat="48.315076667" lon="16.368403333">
<time>2012-06-16T18:51:08Z</time>
 <fix>2d</fix>
 <sat>5</sat>
</trkpt>
<trkpt lat="48.315085000" lon="16.368420000">
<time>2012-06-16T18:51:09Z</time>
 <fix>2d</fix>
 <sat>5</sat>
</trkpt>
<trkpt lat="48.315101667" lon="16.368430000">
<time>2012-06-16T18:51:10Z</time>
 <fix>2d</fix>
 <sat>5</sat>
</trkpt>
<trkpt lat="48.315116667" lon="16.368438333">
<time>2012-06-16T18:51:11Z</time>
 <fix>2d</fix>
 <sat>5</sat>
</trkpt>
<trkpt lat="48.315126667" lon="16.368451667">
<time>2012-06-16T18:51:12Z</time>
 <fix>2d</fix>
 <sat>5</sat>
</trkpt>
<trkpt lat="48.315135000" lon="16.368465000">
<time>2012-06-16T18:51:13Z</time>
 <fix>2d</fix>
 <sat>5</sat>
</trkpt>
<trkpt lat="48.315155000" lon="16.368488333">
<time>2012-06-16T18:51:14Z</time>
 <fix>2d</fix>
 <sat>5</sat>
</trkpt>
<trkpt lat="48.315193333" lon="16.368511667">
<time>2012-06-16T18:51:15Z</time>
 <fix>2d</fix>
 <sat>5</sat>
</trkpt>
<trkpt lat="48.315211667" lon="16.368535000">
<time>2012-06-16T18:51:16Z</time>
 <fix>2d</fix>
 <sat>5</sat>
</trkpt>
<trkpt lat="48.315215000" lon="16.368556667">
<time>2012-06-16T18:51:17Z</time>
 <fix>2d</fix>
 <sat>5</sat>
</trkpt>
<trkpt lat="48.315231667" lon="16.368583333">
<time>2012-06-16T18:51:18Z</time>
 <fix>2d</fix>
 <sat>5</sat>
</trkpt>
<trkpt lat="48.315235000" lon="16.368600000">
<time>2012-06-16T18:51:19Z</time>
 <fix>2d</fix>
 <sat>5</sat>
</trkpt>
<trkpt lat="48.315236667" lon="16.368621667">
<time>2012-06-16T18:51:20Z</time>
 <fix>2d</fix>
 <sat>5</sat>
</trkpt>
<trkpt lat="48.315233333" lon="16.368638333">
<time>2012-06-16T18:51:21Z</time>
 <fix>2d</fix>
 <sat>5</sat>
</trkpt>
<trkpt lat="48.315230000" lon="16.368656667">
<time>2012-06-16T18:51:22Z</time>
 <fix>2d</fix>
 <sat>5</sat>
</trkpt>
<trkpt lat="48.315235000" lon="16.368678333">
<time>2012-06-16T18:51:23Z</time>
 <fix>2d</fix>
 <sat>5</sat>
</trkpt>
<trkpt lat="48.315240000" lon="16.368701667">
<time>2012-06-16T18:51:24Z</time>
 <fix>2d</fix>
 <sat>5</sat>
</trkpt>
<trkpt lat="48.315243333" lon="16.368715000">
<time>2012-06-16T18:51:25Z</time>
 <fix>2d</fix>
 <sat>5</sat>
</trkpt>
<trkpt lat="48.315246667" lon="16.368736667">
<time>2012-06-16T18:51:26Z</time>
 <fix>2d</fix>
 <sat>5</sat>
</trkpt>
<trkpt lat="48.315251667" lon="16.368750000">
<time>2012-06-16T18:51:27Z</time>
 <fix>2d</fix>
 <sat>5</sat>
</trkpt>
<trkpt lat="48.315256667" lon="16.368773333">
<time>2012-06-16T18:51:28Z</time>
 <fix>2d</fix>
 <sat>5</sat>
</trkpt>
<trkpt lat="48.315263333" lon="16.368790000">
<time>2012-06-16T18:51:29Z</time>
 <fix>2d</fix>
 <sat>5</sat>
</trkpt>
<trkpt lat="48.315275000" lon="16.368813333">
<time>2012-06-16T18:51:30Z</time>
 <fix>2d</fix>
 <sat>5</sat>
</trkpt>
<trkpt lat="48.315286667" lon="16.368830000">
<time>2012-06-16T18:51:31Z</time>
 <fix>2d</fix>
 <sat>5</sat>
</trkpt>
<trkpt lat="48.315295000" lon="16.368841667">
<time>2012-06-16T18:51:32Z</time>
 <fix>2d</fix>
 <sat>5</sat>
</trkpt>
<trkpt lat="48.315321667" lon="16.368853333">
<time>2012-06-16T18:51:33Z</time>
 <fix>2d</fix>
 <sat>5</sat>
</trkpt>
<trkpt lat="48.315350000" lon="16.368876667">
<time>2012-06-16T18:51:34Z</time>
 <fix>2d</fix>
 <sat>5</sat>
</trkpt>
<trkpt lat="48.315356667" lon="16.368896667">
<time>2012-06-16T18:51:35Z</time>
 <fix>2d</fix>
 <sat>5</sat>
</trkpt>
<trkpt lat="48.315366667" lon="16.368905000">
<time>2012-06-16T18:51:36Z</time>
 <fix>2d</fix>
 <sat>5</sat>
</trkpt>
<trkpt lat="48.315375000" lon="16.368920000">
<time>2012-06-16T18:51:37Z</time>
 <fix>2d</fix>
 <sat>5</sat>
</trkpt>
<trkpt lat="48.315380000" lon="16.368938333">
<time>2012-06-16T18:51:38Z</time>
 <fix>2d</fix>
 <sat>5</sat>
</trkpt>
<trkpt lat="48.315385000" lon="16.368956667">
<time>2012-06-16T18:51:39Z</time>
 <fix>2d</fix>
 <sat>5</sat>
</trkpt>
<trkpt lat="48.315390000" lon="16.368978333">
<time>2012-06-16T18:51:40Z</time>
 <fix>2d</fix>
 <sat>5</sat>
</trkpt>
<trkpt lat="48.315400000" lon="16.369003333">
<time>2012-06-16T18:51:41Z</time>
 <fix>2d</fix>
 <sat>5</sat>
</trkpt>
<trkpt lat="48.315406667" lon="16.369018333">
<time>2012-06-16T18:51:42Z</time>
 <fix>2d</fix>
 <sat>5</sat>
</trkpt>
<trkpt lat="48.315413333" lon="16.369031667">
<time>2012-06-16T18:51:43Z</time>
 <fix>2d</fix>
 <sat>4</sat>
</trkpt>
<trkpt lat="48.315415000" lon="16.369043333">
<time>2012-06-16T18:51:44Z</time>
 <fix>2d</fix>
 <sat>4</sat>
</trkpt>
<trkpt lat="48.315418333" lon="16.369061667">
<time>2012-06-16T18:51:45Z</time>
 <fix>2d</fix>
 <sat>5</sat>
</trkpt>
<trkpt lat="48.315410000" lon="16.369083333">
<time>2012-06-16T18:51:46Z</time>
 <fix>2d</fix>
 <sat>5</sat>
</trkpt>
<trkpt lat="48.315423333" lon="16.369110000">
<time>2012-06-16T18:51:47Z</time>
 <fix>2d</fix>
 <sat>5</sat>
</trkpt>
<trkpt lat="48.315436667" lon="16.369130000">
<time>2012-06-16T18:51:48Z</time>
 <fix>2d</fix>
 <sat>5</sat>
</trkpt>
<trkpt lat="48.315446667" lon="16.369153333">
<time>2012-06-16T18:51:49Z</time>
 <fix>2d</fix>
 <sat>5</sat>
</trkpt>
<trkpt lat="48.315451667" lon="16.369176667">
<time>2012-06-16T18:51:50Z</time>
 <fix>2d</fix>
 <sat>5</sat>
</trkpt>
<trkpt lat="48.315445000" lon="16.369210000">
<time>2012-06-16T18:51:51Z</time>
 <fix>2d</fix>
 <sat>5</sat>
</trkpt>
<trkpt lat="48.315466667" lon="16.369226667">
<time>2012-06-16T18:51:52Z</time>
 <fix>2d</fix>
 <sat>5</sat>
</trkpt>
<trkpt lat="48.315490000" lon="16.369248333">
<time>2012-06-16T18:51:53Z</time>
 <fix>2d</fix>
 <sat>5</sat>
</trkpt>
<trkpt lat="48.315520000" lon="16.369268333">
<time>2012-06-16T18:51:54Z</time>
 <fix>2d</fix>
 <sat>5</sat>
</trkpt>
<trkpt lat="48.315548333" lon="16.369285000">
<time>2012-06-16T18:51:55Z</time>
 <fix>2d</fix>
 <sat>5</sat>
</trkpt>
<trkpt lat="48.315555000" lon="16.369303333">
<time>2012-06-16T18:51:56Z</time>
 <fix>2d</fix>
 <sat>5</sat>
</trkpt>
<trkpt lat="48.315560000" lon="16.369325000">
<time>2012-06-16T18:51:57Z</time>
 <fix>2d</fix>
 <sat>5</sat>
</trkpt>
<trkpt lat="48.315575000" lon="16.369346667">
<time>2012-06-16T18:51:58Z</time>
 <fix>2d</fix>
 <sat>5</sat>
</trkpt>
<trkpt lat="48.315578333" lon="16.369375000">
<time>2012-06-16T18:51:59Z</time>
 <fix>2d</fix>
 <sat>5</sat>
</trkpt>
<trkpt lat="48.315595000" lon="16.369390000">
<time>2012-06-16T18:52:00Z</time>
 <fix>2d</fix>
 <sat>5</sat>
</trkpt>
<trkpt lat="48.315618333" lon="16.369411667">
<time>2012-06-16T18:52:01Z</time>
 <fix>2d</fix>
 <sat>5</sat>
</trkpt>
<trkpt lat="48.315648333" lon="16.369430000">
<time>2012-06-16T18:52:02Z</time>
 <fix>2d</fix>
 <sat>5</sat>
</trkpt>
<trkpt lat="48.315656667" lon="16.369446667">
<time>2012-06-16T18:52:03Z</time>
 <fix>2d</fix>
 <sat>5</sat>
</trkpt>
<trkpt lat="48.315670000" lon="16.369453333">
<time>2012-06-16T18:52:04Z</time>
 <fix>2d</fix>
 <sat>5</sat>
</trkpt>
<trkpt lat="48.315685000" lon="16.369461667">
<time>2012-06-16T18:52:05Z</time>
 <fix>2d</fix>
 <sat>5</sat>
</trkpt>
<trkpt lat="48.315708333" lon="16.369475000">
<time>2012-06-16T18:52:06Z</time>
 <fix>2d</fix>
 <sat>5</sat>
</trkpt>
<trkpt lat="48.315730000" lon="16.369496667">
<time>2012-06-16T18:52:07Z</time>
 <fix>2d</fix>
 <sat>5</sat>
</trkpt>
<trkpt lat="48.315745000" lon="16.369521667">
<time>2012-06-16T18:52:08Z</time>
 <fix>2d</fix>
 <sat>5</sat>
</trkpt>
<trkpt lat="48.315746667" lon="16.369540000">
<time>2012-06-16T18:52:09Z</time>
 <fix>2d</fix>
 <sat>5</sat>
</trkpt>
<trkpt lat="48.315748333" lon="16.369560000">
<time>2012-06-16T18:52:10Z</time>
 <fix>2d</fix>
 <sat>5</sat>
</trkpt>
<trkpt lat="48.315741667" lon="16.369576667">
<time>2012-06-16T18:52:11Z</time>
 <fix>2d</fix>
 <sat>5</sat>
</trkpt>
<trkpt lat="48.315745000" lon="16.369596667">
<time>2012-06-16T18:52:12Z</time>
 <fix>2d</fix>
 <sat>5</sat>
</trkpt>
<trkpt lat="48.315760000" lon="16.369616667">
<time>2012-06-16T18:52:13Z</time>
 <fix>2d</fix>
 <sat>5</sat>
</trkpt>
<trkpt lat="48.315766667" lon="16.369630000">
<time>2012-06-16T18:52:14Z</time>
 <fix>2d</fix>
 <sat>5</sat>
</trkpt>
<trkpt lat="48.315766667" lon="16.369648333">
<time>2012-06-16T18:52:15Z</time>
 <fix>2d</fix>
 <sat>5</sat>
</trkpt>
<trkpt lat="48.315776667" lon="16.369665000">
<time>2012-06-16T18:52:16Z</time>
 <fix>2d</fix>
 <sat>5</sat>
</trkpt>
<trkpt lat="48.315800000" lon="16.369688333">
<time>2012-06-16T18:52:17Z</time>
 <fix>2d</fix>
 <sat>5</sat>
</trkpt>
<trkpt lat="48.315811667" lon="16.369705000">
<time>2012-06-16T18:52:18Z</time>
 <fix>2d</fix>
 <sat>5</sat>
</trkpt>
<trkpt lat="48.315815000" lon="16.369726667">
<time>2012-06-16T18:52:19Z</time>
 <fix>2d</fix>
 <sat>5</sat>
</trkpt>
<trkpt lat="48.315810000" lon="16.369735000">
<time>2012-06-16T18:52:20Z</time>
 <fix>2d</fix>
 <sat>5</sat>
</trkpt>
<trkpt lat="48.315810000" lon="16.369751667">
<time>2012-06-16T18:52:21Z</time>
 <fix>2d</fix>
 <sat>5</sat>
</trkpt>
<trkpt lat="48.315803333" lon="16.369770000">
<time>2012-06-16T18:52:22Z</time>
 <fix>2d</fix>
 <sat>5</sat>
</trkpt>
<trkpt lat="48.315808333" lon="16.369786667">
<time>2012-06-16T18:52:23Z</time>
 <fix>2d</fix>
 <sat>5</sat>
</trkpt>
<trkpt lat="48.315806667" lon="16.369808333">
<time>2012-06-16T18:52:24Z</time>
 <fix>2d</fix>
 <sat>5</sat>
</trkpt>
<trkpt lat="48.315800000" lon="16.369821667">
<time>2012-06-16T18:52:25Z</time>
 <fix>2d</fix>
 <sat>5</sat>
</trkpt>
<trkpt lat="48.315796667" lon="16.369845000">
<time>2012-06-16T18:52:26Z</time>
 <fix>2d</fix>
 <sat>5</sat>
</trkpt>
<trkpt lat="48.315800000" lon="16.369861667">
<time>2012-06-16T18:52:27Z</time>
 <fix>2d</fix>
 <sat>5</sat>
</trkpt>
<trkpt lat="48.315818333" lon="16.369888333">
<time>2012-06-16T18:52:28Z</time>
 <fix>2d</fix>
 <sat>5</sat>
</trkpt>
<trkpt lat="48.315835000" lon="16.369906667">
<time>2012-06-16T18:52:29Z</time>
 <fix>2d</fix>
 <sat>5</sat>
</trkpt>
<trkpt lat="48.315850000" lon="16.369928333">
<time>2012-06-16T18:52:30Z</time>
 <fix>2d</fix>
 <sat>5</sat>
</trkpt>
<trkpt lat="48.315851667" lon="16.369946667">
<time>2012-06-16T18:52:31Z</time>
 <fix>2d</fix>
 <sat>5</sat>
</trkpt>
<trkpt lat="48.315863333" lon="16.369965000">
<time>2012-06-16T18:52:32Z</time>
 <fix>2d</fix>
 <sat>5</sat>
</trkpt>
<trkpt lat="48.315860000" lon="16.369980000">
<time>2012-06-16T18:52:33Z</time>
 <fix>2d</fix>
 <sat>5</sat>
</trkpt>
<trkpt lat="48.315858333" lon="16.369996667">
<time>2012-06-16T18:52:34Z</time>
 <fix>2d</fix>
 <sat>4</sat>
</trkpt>
<trkpt lat="48.315863333" lon="16.370016667">
<time>2012-06-16T18:52:35Z</time>
 <fix>2d</fix>
 <sat>4</sat>
</trkpt>
<trkpt lat="48.315876667" lon="16.370040000">
<time>2012-06-16T18:52:36Z</time>
 <fix>2d</fix>
 <sat>4</sat>
</trkpt>
<trkpt lat="48.315890000" lon="16.370068333">
<time>2012-06-16T18:52:37Z</time>
 <fix>2d</fix>
 <sat>4</sat>
</trkpt>
<trkpt lat="48.315883333" lon="16.370090000">
<time>2012-06-16T18:52:38Z</time>
 <fix>2d</fix>
 <sat>4</sat>
</trkpt>
<trkpt lat="48.315895000" lon="16.370106667">
<time>2012-06-16T18:52:39Z</time>
 <fix>2d</fix>
 <sat>5</sat>
</trkpt>
<trkpt lat="48.315898333" lon="16.370131667">
<time>2012-06-16T18:52:40Z</time>
 <fix>2d</fix>
 <sat>5</sat>
</trkpt>
<trkpt lat="48.315908333" lon="16.370150000">
<time>2012-06-16T18:52:41Z</time>
 <fix>2d</fix>
 <sat>5</sat>
</trkpt>
<trkpt lat="48.315918333" lon="16.370176667">
<time>2012-06-16T18:52:42Z</time>
 <fix>2d</fix>
 <sat>5</sat>
</trkpt>
<trkpt lat="48.315911667" lon="16.370190000">
<time>2012-06-16T18:52:43Z</time>
 <fix>2d</fix>
 <sat>5</sat>
</trkpt>
<trkpt lat="48.315921667" lon="16.370213333">
<time>2012-06-16T18:52:44Z</time>
 <fix>2d</fix>
 <sat>5</sat>
</trkpt>
<trkpt lat="48.315925000" lon="16.370241667">
<time>2012-06-16T18:52:45Z</time>
 <fix>2d</fix>
 <sat>5</sat>
</trkpt>
<trkpt lat="48.315940000" lon="16.370265000">
<time>2012-06-16T18:52:46Z</time>
 <fix>2d</fix>
 <sat>4</sat>
</trkpt>
<trkpt lat="48.315945000" lon="16.370293333">
<time>2012-06-16T18:52:47Z</time>
 <fix>2d</fix>
 <sat>4</sat>
</trkpt>
<trkpt lat="48.315941667" lon="16.370313333">
<time>2012-06-16T18:52:48Z</time>
 <fix>2d</fix>
 <sat>4</sat>
</trkpt>
<trkpt lat="48.315950000" lon="16.370328333">
<time>2012-06-16T18:52:49Z</time>
 <fix>2d</fix>
 <sat>4</sat>
</trkpt>
<trkpt lat="48.315961667" lon="16.370356667">
<time>2012-06-16T18:52:50Z</time>
 <fix>2d</fix>
 <sat>4</sat>
</trkpt>
<trkpt lat="48.315973333" lon="16.370380000">
<time>2012-06-16T18:52:51Z</time>
 <fix>2d</fix>
 <sat>4</sat>
</trkpt>
<trkpt lat="48.315981667" lon="16.370406667">
<time>2012-06-16T18:52:52Z</time>
 <fix>2d</fix>
 <sat>5</sat>
</trkpt>
<trkpt lat="48.316005000" lon="16.370426667">
<time>2012-06-16T18:52:53Z</time>
 <fix>2d</fix>
 <sat>5</sat>
</trkpt>
<trkpt lat="48.316020000" lon="16.370453333">
<time>2012-06-16T18:52:54Z</time>
 <fix>2d</fix>
 <sat>5</sat>
</trkpt>
<trkpt lat="48.316040000" lon="16.370481667">
<time>2012-06-16T18:52:55Z</time>
 <fix>2d</fix>
 <sat>5</sat>
</trkpt>
<trkpt lat="48.316065000" lon="16.370506667">
<time>2012-06-16T18:52:56Z</time>
 <fix>2d</fix>
 <sat>5</sat>
</trkpt>
<trkpt lat="48.316068333" lon="16.370541667">
<time>2012-06-16T18:52:57Z</time>
 <fix>2d</fix>
 <sat>5</sat>
</trkpt>
<trkpt lat="48.316061667" lon="16.370563333">
<time>2012-06-16T18:52:58Z</time>
 <fix>2d</fix>
 <sat>5</sat>
</trkpt>
<trkpt lat="48.316055000" lon="16.370586667">
<time>2012-06-16T18:52:59Z</time>
 <fix>2d</fix>
 <sat>5</sat>
</trkpt>
<trkpt lat="48.316060000" lon="16.370605000">
<time>2012-06-16T18:53:00Z</time>
 <fix>2d</fix>
 <sat>5</sat>
</trkpt>
<trkpt lat="48.316063333" lon="16.370628333">
<time>2012-06-16T18:53:01Z</time>
 <fix>2d</fix>
 <sat>5</sat>
</trkpt>
<trkpt lat="48.316073333" lon="16.370655000">
<time>2012-06-16T18:53:02Z</time>
 <fix>2d</fix>
 <sat>5</sat>
</trkpt>
<trkpt lat="48.316071667" lon="16.370676667">
<time>2012-06-16T18:53:03Z</time>
 <fix>2d</fix>
 <sat>5</sat>
</trkpt>
<trkpt lat="48.316063333" lon="16.370701667">
<time>2012-06-16T18:53:04Z</time>
 <fix>2d</fix>
 <sat>5</sat>
</trkpt>
<trkpt lat="48.316060000" lon="16.370720000">
<time>2012-06-16T18:53:05Z</time>
 <fix>2d</fix>
 <sat>5</sat>
</trkpt>
<trkpt lat="48.316056667" lon="16.370748333">
<time>2012-06-16T18:53:06Z</time>
 <fix>2d</fix>
 <sat>5</sat>
</trkpt>
<trkpt lat="48.316060000" lon="16.370770000">
<time>2012-06-16T18:53:07Z</time>
 <fix>2d</fix>
 <sat>5</sat>
</trkpt>
<trkpt lat="48.316075000" lon="16.370783333">
<time>2012-06-16T18:53:08Z</time>
 <fix>2d</fix>
 <sat>5</sat>
</trkpt>
<trkpt lat="48.316098333" lon="16.370806667">
<time>2012-06-16T18:53:09Z</time>
 <fix>2d</fix>
 <sat>5</sat>
</trkpt>
<trkpt lat="48.316115000" lon="16.370823333">
<time>2012-06-16T18:53:10Z</time>
 <fix>2d</fix>
 <sat>5</sat>
</trkpt>
<trkpt lat="48.316118333" lon="16.370843333">
<time>2012-06-16T18:53:11Z</time>
 <fix>2d</fix>
 <sat>4</sat>
</trkpt>
<trkpt lat="48.316118333" lon="16.370863333">
<time>2012-06-16T18:53:12Z</time>
 <fix>2d</fix>
 <sat>4</sat>
</trkpt>
<trkpt lat="48.316123333" lon="16.370878333">
<time>2012-06-16T18:53:13Z</time>
 <fix>2d</fix>
 <sat>4</sat>
</trkpt>
<trkpt lat="48.316133333" lon="16.370896667">
<time>2012-06-16T18:53:14Z</time>
 <fix>2d</fix>
 <sat>5</sat>
</trkpt>
<trkpt lat="48.316133333" lon="16.370915000">
<time>2012-06-16T18:53:15Z</time>
 <fix>2d</fix>
 <sat>5</sat>
</trkpt>
<trkpt lat="48.316143333" lon="16.370935000">
<time>2012-06-16T18:53:16Z</time>
 <fix>2d</fix>
 <sat>5</sat>
</trkpt>
<trkpt lat="48.316145000" lon="16.370958333">
<time>2012-06-16T18:53:17Z</time>
 <fix>2d</fix>
 <sat>5</sat>
</trkpt>
<trkpt lat="48.316151667" lon="16.370978333">
<time>2012-06-16T18:53:18Z</time>
 <fix>2d</fix>
 <sat>5</sat>
</trkpt>
<trkpt lat="48.316161667" lon="16.370996667">
<time>2012-06-16T18:53:19Z</time>
 <fix>2d</fix>
 <sat>5</sat>
</trkpt>
<trkpt lat="48.316175000" lon="16.371020000">
<time>2012-06-16T18:53:20Z</time>
 <fix>2d</fix>
 <sat>5</sat>
</trkpt>
<trkpt lat="48.316181667" lon="16.371048333">
<time>2012-06-16T18:53:21Z</time>
 <fix>2d</fix>
 <sat>5</sat>
</trkpt>
<trkpt lat="48.316186667" lon="16.371075000">
<time>2012-06-16T18:53:22Z</time>
 <fix>2d</fix>
 <sat>5</sat>
</trkpt>
<trkpt lat="48.316185000" lon="16.371088333">
<time>2012-06-16T18:53:23Z</time>
 <fix>2d</fix>
 <sat>5</sat>
</trkpt>
<trkpt lat="48.316175000" lon="16.371100000">
<time>2012-06-16T18:53:24Z</time>
 <fix>2d</fix>
 <sat>5</sat>
</trkpt>
<trkpt lat="48.316166667" lon="16.371111667">
<time>2012-06-16T18:53:25Z</time>
 <fix>2d</fix>
 <sat>5</sat>
</trkpt>
<trkpt lat="48.316151667" lon="16.371146667">
<time>2012-06-16T18:53:26Z</time>
 <fix>2d</fix>
 <sat>5</sat>
</trkpt>
<trkpt lat="48.316156667" lon="16.371175000">
<time>2012-06-16T18:53:27Z</time>
 <fix>2d</fix>
 <sat>5</sat>
</trkpt>
<trkpt lat="48.316166667" lon="16.371198333">
<time>2012-06-16T18:53:28Z</time>
 <fix>2d</fix>
 <sat>5</sat>
</trkpt>
<trkpt lat="48.316161667" lon="16.371220000">
<time>2012-06-16T18:53:29Z</time>
 <fix>2d</fix>
 <sat>5</sat>
</trkpt>
<trkpt lat="48.316181667" lon="16.371243333">
<time>2012-06-16T18:53:30Z</time>
 <fix>2d</fix>
 <sat>5</sat>
</trkpt>
<trkpt lat="48.316210000" lon="16.371266667">
<time>2012-06-16T18:53:31Z</time>
 <fix>2d</fix>
 <sat>5</sat>
</trkpt>
<trkpt lat="48.316236667" lon="16.371281667">
<time>2012-06-16T18:53:32Z</time>
 <fix>2d</fix>
 <sat>5</sat>
</trkpt>
<trkpt lat="48.316245000" lon="16.371300000">
<time>2012-06-16T18:53:33Z</time>
 <fix>2d</fix>
 <sat>5</sat>
</trkpt>
<trkpt lat="48.316268333" lon="16.371313333">
<time>2012-06-16T18:53:34Z</time>
 <fix>2d</fix>
 <sat>5</sat>
</trkpt>
<trkpt lat="48.316275000" lon="16.371330000">
<time>2012-06-16T18:53:35Z</time>
 <fix>2d</fix>
 <sat>5</sat>
</trkpt>
<trkpt lat="48.316288333" lon="16.371356667">
<time>2012-06-16T18:53:36Z</time>
 <fix>2d</fix>
 <sat>5</sat>
</trkpt>
<trkpt lat="48.316293333" lon="16.371385000">
<time>2012-06-16T18:53:37Z</time>
 <fix>2d</fix>
 <sat>5</sat>
</trkpt>
<trkpt lat="48.316301667" lon="16.371405000">
<time>2012-06-16T18:53:38Z</time>
 <fix>2d</fix>
 <sat>5</sat>
</trkpt>
<trkpt lat="48.316308333" lon="16.371425000">
<time>2012-06-16T18:53:39Z</time>
 <fix>2d</fix>
 <sat>5</sat>
</trkpt>
<trkpt lat="48.316331667" lon="16.371438333">
<time>2012-06-16T18:53:40Z</time>
 <fix>2d</fix>
 <sat>5</sat>
</trkpt>
<trkpt lat="48.316343333" lon="16.371460000">
<time>2012-06-16T18:53:41Z</time>
 <fix>2d</fix>
 <sat>5</sat>
</trkpt>
<trkpt lat="48.316355000" lon="16.371480000">
<time>2012-06-16T18:53:42Z</time>
 <fix>2d</fix>
 <sat>5</sat>
</trkpt>
<trkpt lat="48.316381667" lon="16.371490000">
<time>2012-06-16T18:53:43Z</time>
 <fix>2d</fix>
 <sat>5</sat>
</trkpt>
<trkpt lat="48.316391667" lon="16.371501667">
<time>2012-06-16T18:53:44Z</time>
 <fix>2d</fix>
 <sat>5</sat>
</trkpt>
<trkpt lat="48.316388333" lon="16.371515000">
<time>2012-06-16T18:53:45Z</time>
 <fix>2d</fix>
 <sat>5</sat>
</trkpt>
<trkpt lat="48.316390000" lon="16.371531667">
<time>2012-06-16T18:53:46Z</time>
 <fix>2d</fix>
 <sat>5</sat>
</trkpt>
<trkpt lat="48.316391667" lon="16.371555000">
<time>2012-06-16T18:53:47Z</time>
 <fix>2d</fix>
 <sat>5</sat>
</trkpt>
<trkpt lat="48.316391667" lon="16.371571667">
<time>2012-06-16T18:53:48Z</time>
 <fix>2d</fix>
 <sat>5</sat>
</trkpt>
<trkpt lat="48.316386667" lon="16.371590000">
<time>2012-06-16T18:53:49Z</time>
 <fix>2d</fix>
 <sat>5</sat>
</trkpt>
<trkpt lat="48.316381667" lon="16.371606667">
<time>2012-06-16T18:53:50Z</time>
 <fix>2d</fix>
 <sat>5</sat>
</trkpt>
<trkpt lat="48.316366667" lon="16.371626667">
<time>2012-06-16T18:53:51Z</time>
 <fix>2d</fix>
 <sat>5</sat>
</trkpt>
<trkpt lat="48.316361667" lon="16.371648333">
<time>2012-06-16T18:53:52Z</time>
 <fix>2d</fix>
 <sat>5</sat>
</trkpt>
<trkpt lat="48.316356667" lon="16.371670000">
<time>2012-06-16T18:53:53Z</time>
 <fix>2d</fix>
 <sat>5</sat>
</trkpt>
<trkpt lat="48.316348333" lon="16.371693333">
<time>2012-06-16T18:53:54Z</time>
 <fix>2d</fix>
 <sat>5</sat>
</trkpt>
<trkpt lat="48.316341667" lon="16.371720000">
<time>2012-06-16T18:53:55Z</time>
 <fix>2d</fix>
 <sat>5</sat>
</trkpt>
<trkpt lat="48.316325000" lon="16.371736667">
<time>2012-06-16T18:53:56Z</time>
 <fix>2d</fix>
 <sat>5</sat>
</trkpt>
<trkpt lat="48.316330000" lon="16.371756667">
<time>2012-06-16T18:53:57Z</time>
 <fix>2d</fix>
 <sat>5</sat>
</trkpt>
<trkpt lat="48.316336667" lon="16.371776667">
<time>2012-06-16T18:53:58Z</time>
 <fix>2d</fix>
 <sat>5</sat>
</trkpt>
<trkpt lat="48.316346667" lon="16.371796667">
<time>2012-06-16T18:53:59Z</time>
 <fix>2d</fix>
 <sat>5</sat>
</trkpt>
<trkpt lat="48.316355000" lon="16.371816667">
<time>2012-06-16T18:54:00Z</time>
 <fix>2d</fix>
 <sat>5</sat>
</trkpt>
<trkpt lat="48.316365000" lon="16.371831667">
<time>2012-06-16T18:54:01Z</time>
 <fix>2d</fix>
 <sat>5</sat>
</trkpt>
<trkpt lat="48.316380000" lon="16.371843333">
<time>2012-06-16T18:54:02Z</time>
 <fix>2d</fix>
 <sat>4</sat>
</trkpt>
<trkpt lat="48.316385000" lon="16.371860000">
<time>2012-06-16T18:54:03Z</time>
 <fix>2d</fix>
 <sat>4</sat>
</trkpt>
<trkpt lat="48.316391667" lon="16.371876667">
<time>2012-06-16T18:54:04Z</time>
 <fix>2d</fix>
 <sat>4</sat>
</trkpt>
<trkpt lat="48.316400000" lon="16.371893333">
<time>2012-06-16T18:54:05Z</time>
 <fix>2d</fix>
 <sat>4</sat>
</trkpt>
<trkpt lat="48.316405000" lon="16.371906667">
<time>2012-06-16T18:54:06Z</time>
 <fix>2d</fix>
 <sat>4</sat>
</trkpt>
<trkpt lat="48.316403333" lon="16.371923333">
<time>2012-06-16T18:54:07Z</time>
 <fix>2d</fix>
 <sat>4</sat>
</trkpt>
<trkpt lat="48.316420000" lon="16.371941667">
<time>2012-06-16T18:54:08Z</time>
 <fix>2d</fix>
 <sat>4</sat>
</trkpt>
<trkpt lat="48.316438333" lon="16.371953333">
<time>2012-06-16T18:54:09Z</time>
 <fix>2d</fix>
 <sat>4</sat>
</trkpt>
<trkpt lat="48.316448333" lon="16.371975000">
<time>2012-06-16T18:54:10Z</time>
 <fix>2d</fix>
 <sat>4</sat>
</trkpt>
<trkpt lat="48.316445000" lon="16.371993333">
<time>2012-06-16T18:54:11Z</time>
 <fix>2d</fix>
 <sat>4</sat>
</trkpt>
<trkpt lat="48.316440000" lon="16.372010000">
<time>2012-06-16T18:54:12Z</time>
 <fix>2d</fix>
 <sat>4</sat>
</trkpt>
<trkpt lat="48.316446667" lon="16.372021667">
<time>2012-06-16T18:54:13Z</time>
 <fix>2d</fix>
 <sat>4</sat>
</trkpt>
<trkpt lat="48.316463333" lon="16.372043333">
<time>2012-06-16T18:54:14Z</time>
 <fix>2d</fix>
 <sat>4</sat>
</trkpt>
<trkpt lat="48.316473333" lon="16.372060000">
<time>2012-06-16T18:54:15Z</time>
 <fix>2d</fix>
 <sat>4</sat>
</trkpt>
<trkpt lat="48.316460000" lon="16.372076667">
<time>2012-06-16T18:54:16Z</time>
 <fix>2d</fix>
 <sat>4</sat>
</trkpt>
<trkpt lat="48.316466667" lon="16.372100000">
<time>2012-06-16T18:54:17Z</time>
 <fix>2d</fix>
 <sat>4</sat>
</trkpt>
<trkpt lat="48.316475000" lon="16.372115000">
<time>2012-06-16T18:54:18Z</time>
 <fix>2d</fix>
 <sat>4</sat>
</trkpt>
<trkpt lat="48.316483333" lon="16.372131667">
<time>2012-06-16T18:54:19Z</time>
 <fix>2d</fix>
 <sat>4</sat>
</trkpt>
<trkpt lat="48.316486667" lon="16.372141667">
<time>2012-06-16T18:54:20Z</time>
 <fix>2d</fix>
 <sat>4</sat>
</trkpt>
<trkpt lat="48.316493333" lon="16.372156667">
<time>2012-06-16T18:54:21Z</time>
 <fix>2d</fix>
 <sat>4</sat>
</trkpt>
<trkpt lat="48.316506667" lon="16.372168333">
<time>2012-06-16T18:54:22Z</time>
 <fix>2d</fix>
 <sat>4</sat>
</trkpt>
<trkpt lat="48.316518333" lon="16.372171667">
<time>2012-06-16T18:54:23Z</time>
 <fix>2d</fix>
 <sat>4</sat>
</trkpt>
<trkpt lat="48.316533333" lon="16.372176667">
<time>2012-06-16T18:54:24Z</time>
 <fix>2d</fix>
 <sat>4</sat>
</trkpt>
<trkpt lat="48.316558333" lon="16.372181667">
<time>2012-06-16T18:54:25Z</time>
 <fix>2d</fix>
 <sat>4</sat>
</trkpt>
<trkpt lat="48.316573333" lon="16.372200000">
<time>2012-06-16T18:54:26Z</time>
 <fix>2d</fix>
 <sat>4</sat>
</trkpt>
<trkpt lat="48.316576667" lon="16.372215000">
<time>2012-06-16T18:54:27Z</time>
 <fix>2d</fix>
 <sat>4</sat>
</trkpt>
<trkpt lat="48.316588333" lon="16.372231667">
<time>2012-06-16T18:54:28Z</time>
 <fix>2d</fix>
 <sat>4</sat>
</trkpt>
<trkpt lat="48.316613333" lon="16.372238333">
<time>2012-06-16T18:54:29Z</time>
 <fix>2d</fix>
 <sat>4</sat>
</trkpt>
<trkpt lat="48.316633333" lon="16.372250000">
<time>2012-06-16T18:54:30Z</time>
 <fix>2d</fix>
 <sat>4</sat>
</trkpt>
<trkpt lat="48.316643333" lon="16.372256667">
<time>2012-06-16T18:54:31Z</time>
 <fix>2d</fix>
 <sat>4</sat>
</trkpt>
<trkpt lat="48.316668333" lon="16.372288333">
<time>2012-06-16T18:54:32Z</time>
 <fix>2d</fix>
 <sat>4</sat>
</trkpt>
<trkpt lat="48.316693333" lon="16.372321667">
<time>2012-06-16T18:54:33Z</time>
 <fix>2d</fix>
 <sat>4</sat>
</trkpt>
<trkpt lat="48.316720000" lon="16.372355000">
<time>2012-06-16T18:54:34Z</time>
 <fix>2d</fix>
 <sat>4</sat>
</trkpt>
<trkpt lat="48.316716667" lon="16.372361667">
<time>2012-06-16T18:54:35Z</time>
 <fix>2d</fix>
 <sat>4</sat>
</trkpt>
<trkpt lat="48.316718333" lon="16.372366667">
<time>2012-06-16T18:54:36Z</time>
 <fix>2d</fix>
 <sat>4</sat>
</trkpt>
<trkpt lat="48.316721667" lon="16.372371667">
<time>2012-06-16T18:54:37Z</time>
 <fix>2d</fix>
 <sat>4</sat>
</trkpt>
<trkpt lat="48.316725000" lon="16.372376667">
<time>2012-06-16T18:54:38Z</time>
 <fix>2d</fix>
 <sat>4</sat>
</trkpt>
<trkpt lat="48.316731667" lon="16.372381667">
<time>2012-06-16T18:54:39Z</time>
 <fix>2d</fix>
 <sat>4</sat>
</trkpt>
<trkpt lat="48.316730000" lon="16.372385000">
<time>2012-06-16T18:54:40Z</time>
 <fix>2d</fix>
 <sat>4</sat>
</trkpt>
<trkpt lat="48.316723333" lon="16.372396667">
<time>2012-06-16T18:54:41Z</time>
 <fix>2d</fix>
 <sat>5</sat>
</trkpt>
<trkpt lat="48.316725000" lon="16.372405000">
<time>2012-06-16T18:54:42Z</time>
 <fix>2d</fix>
 <sat>5</sat>
</trkpt>
<trkpt lat="48.316741667" lon="16.372413333">
<time>2012-06-16T18:54:43Z</time>
 <fix>2d</fix>
 <sat>5</sat>
</trkpt>
<trkpt lat="48.316755000" lon="16.372430000">
<time>2012-06-16T18:54:44Z</time>
 <fix>2d</fix>
 <sat>5</sat>
</trkpt>
<trkpt lat="48.316766667" lon="16.372445000">
<time>2012-06-16T18:54:45Z</time>
 <fix>2d</fix>
 <sat>5</sat>
</trkpt>
<trkpt lat="48.316770000" lon="16.372453333">
<time>2012-06-16T18:54:46Z</time>
 <fix>2d</fix>
 <sat>5</sat>
</trkpt>
<trkpt lat="48.316771667" lon="16.372468333">
<time>2012-06-16T18:54:47Z</time>
 <fix>2d</fix>
 <sat>5</sat>
</trkpt>
<trkpt lat="48.316775000" lon="16.372483333">
<time>2012-06-16T18:54:48Z</time>
 <fix>2d</fix>
 <sat>5</sat>
</trkpt>
<trkpt lat="48.316783333" lon="16.372500000">
<time>2012-06-16T18:54:49Z</time>
 <fix>2d</fix>
 <sat>5</sat>
</trkpt>
<trkpt lat="48.316790000" lon="16.372516667">
<time>2012-06-16T18:54:50Z</time>
 <fix>2d</fix>
 <sat>5</sat>
</trkpt>
<trkpt lat="48.316796667" lon="16.372533333">
<time>2012-06-16T18:54:51Z</time>
 <fix>2d</fix>
 <sat>5</sat>
</trkpt>
<trkpt lat="48.316796667" lon="16.372550000">
<time>2012-06-16T18:54:52Z</time>
 <fix>2d</fix>
 <sat>5</sat>
</trkpt>
<trkpt lat="48.316798333" lon="16.372563333">
<time>2012-06-16T18:54:53Z</time>
 <fix>2d</fix>
 <sat>5</sat>
</trkpt>
<trkpt lat="48.316801667" lon="16.372566667">
<time>2012-06-16T18:54:54Z</time>
 <fix>2d</fix>
 <sat>4</sat>
</trkpt>
<trkpt lat="48.316806667" lon="16.372571667">
<time>2012-06-16T18:54:55Z</time>
 <fix>2d</fix>
 <sat>4</sat>
</trkpt>
<trkpt lat="48.316813333" lon="16.372585000">
<time>2012-06-16T18:54:56Z</time>
 <fix>2d</fix>
 <sat>4</sat>
</trkpt>
<trkpt lat="48.316818333" lon="16.372601667">
<time>2012-06-16T18:54:57Z</time>
 <fix>2d</fix>
 <sat>4</sat>
</trkpt>
<trkpt lat="48.316821667" lon="16.372623333">
<time>2012-06-16T18:54:58Z</time>
 <fix>2d</fix>
 <sat>4</sat>
</trkpt>
<trkpt lat="48.316821667" lon="16.372643333">
<time>2012-06-16T18:54:59Z</time>
 <fix>2d</fix>
 <sat>4</sat>
</trkpt>
<trkpt lat="48.316821667" lon="16.372666667">
<time>2012-06-16T18:55:00Z</time>
 <fix>2d</fix>
 <sat>4</sat>
</trkpt>
<trkpt lat="48.316823333" lon="16.372690000">
<time>2012-06-16T18:55:01Z</time>
 <fix>2d</fix>
 <sat>4</sat>
</trkpt>
<trkpt lat="48.316830000" lon="16.372715000">
<time>2012-06-16T18:55:02Z</time>
 <fix>2d</fix>
 <sat>4</sat>
</trkpt>
<trkpt lat="48.316831667" lon="16.372721667">
<time>2012-06-16T18:55:03Z</time>
 <fix>2d</fix>
 <sat>4</sat>
</trkpt>
<trkpt lat="48.316833333" lon="16.372728333">
<time>2012-06-16T18:55:04Z</time>
 <fix>2d</fix>
 <sat>4</sat>
</trkpt>
<trkpt lat="48.316838333" lon="16.372741667">
<time>2012-06-16T18:55:05Z</time>
 <fix>2d</fix>
 <sat>4</sat>
</trkpt>
<trkpt lat="48.316845000" lon="16.372758333">
<time>2012-06-16T18:55:06Z</time>
 <fix>2d</fix>
 <sat>4</sat>
</trkpt>
<trkpt lat="48.316841667" lon="16.372793333">
<time>2012-06-16T18:55:07Z</time>
 <fix>2d</fix>
 <sat>4</sat>
</trkpt>
<trkpt lat="48.316841667" lon="16.372816667">
<time>2012-06-16T18:55:08Z</time>
 <fix>2d</fix>
 <sat>4</sat>
</trkpt>
<trkpt lat="48.316845000" lon="16.372840000">
<time>2012-06-16T18:55:09Z</time>
 <fix>2d</fix>
 <sat>4</sat>
</trkpt>
<trkpt lat="48.316855000" lon="16.372856667">
<time>2012-06-16T18:55:10Z</time>
 <fix>2d</fix>
 <sat>4</sat>
</trkpt>
<trkpt lat="48.316868333" lon="16.372873333">
<time>2012-06-16T18:55:11Z</time>
 <fix>2d</fix>
 <sat>4</sat>
</trkpt>
<trkpt lat="48.316883333" lon="16.372890000">
<time>2012-06-16T18:55:12Z</time>
 <fix>2d</fix>
 <sat>4</sat>
</trkpt>
<trkpt lat="48.316885000" lon="16.372900000">
<time>2012-06-16T18:55:13Z</time>
 <fix>2d</fix>
 <sat>4</sat>
</trkpt>
<trkpt lat="48.316885000" lon="16.372908333">
<time>2012-06-16T18:55:14Z</time>
 <fix>2d</fix>
 <sat>5</sat>
</trkpt>
<trkpt lat="48.316893333" lon="16.372928333">
<time>2012-06-16T18:55:15Z</time>
 <fix>2d</fix>
 <sat>5</sat>
</trkpt>
<trkpt lat="48.316901667" lon="16.372948333">
<time>2012-06-16T18:55:16Z</time>
 <fix>2d</fix>
 <sat>5</sat>
</trkpt>
<trkpt lat="48.316921667" lon="16.372960000">
<time>2012-06-16T18:55:17Z</time>
 <fix>2d</fix>
 <sat>5</sat>
</trkpt>
<trkpt lat="48.316938333" lon="16.372970000">
<time>2012-06-16T18:55:18Z</time>
 <fix>2d</fix>
 <sat>5</sat>
</trkpt>
<trkpt lat="48.316951667" lon="16.372986667">
<time>2012-06-16T18:55:19Z</time>
 <fix>2d</fix>
 <sat>5</sat>
</trkpt>
<trkpt lat="48.316953333" lon="16.373015000">
<time>2012-06-16T18:55:20Z</time>
 <fix>2d</fix>
 <sat>5</sat>
</trkpt>
<trkpt lat="48.316958333" lon="16.373040000">
<time>2012-06-16T18:55:21Z</time>
 <fix>2d</fix>
 <sat>5</sat>
</trkpt>
<trkpt lat="48.316973333" lon="16.373058333">
<time>2012-06-16T18:55:22Z</time>
 <fix>2d</fix>
 <sat>5</sat>
</trkpt>
<trkpt lat="48.316985000" lon="16.373073333">
<time>2012-06-16T18:55:23Z</time>
 <fix>2d</fix>
 <sat>5</sat>
</trkpt>
<trkpt lat="48.316983333" lon="16.373098333">
<time>2012-06-16T18:55:24Z</time>
 <fix>2d</fix>
 <sat>5</sat>
</trkpt>
<trkpt lat="48.316985000" lon="16.373115000">
<time>2012-06-16T18:55:25Z</time>
 <fix>2d</fix>
 <sat>5</sat>
</trkpt>
<trkpt lat="48.316983333" lon="16.373128333">
<time>2012-06-16T18:55:26Z</time>
 <fix>2d</fix>
 <sat>5</sat>
</trkpt>
<trkpt lat="48.316988333" lon="16.373140000">
<time>2012-06-16T18:55:27Z</time>
 <fix>2d</fix>
 <sat>5</sat>
</trkpt>
<trkpt lat="48.316995000" lon="16.373160000">
<time>2012-06-16T18:55:28Z</time>
 <fix>2d</fix>
 <sat>5</sat>
</trkpt>
<trkpt lat="48.316995000" lon="16.373183333">
<time>2012-06-16T18:55:29Z</time>
 <fix>2d</fix>
 <sat>5</sat>
</trkpt>
<trkpt lat="48.316995000" lon="16.373208333">
<time>2012-06-16T18:55:30Z</time>
 <fix>2d</fix>
 <sat>4</sat>
</trkpt>
<trkpt lat="48.316991667" lon="16.373225000">
<time>2012-06-16T18:55:31Z</time>
 <fix>2d</fix>
 <sat>4</sat>
</trkpt>
<trkpt lat="48.316996667" lon="16.373251667">
<time>2012-06-16T18:55:32Z</time>
 <fix>2d</fix>
 <sat>4</sat>
</trkpt>
<trkpt lat="48.316991667" lon="16.373271667">
<time>2012-06-16T18:55:33Z</time>
 <fix>2d</fix>
 <sat>4</sat>
</trkpt>
<trkpt lat="48.316988333" lon="16.373295000">
<time>2012-06-16T18:55:34Z</time>
 <fix>2d</fix>
 <sat>5</sat>
</trkpt>
<trkpt lat="48.316988333" lon="16.373306667">
<time>2012-06-16T18:55:35Z</time>
 <fix>2d</fix>
 <sat>4</sat>
</trkpt>
<trkpt lat="48.316990000" lon="16.373323333">
<time>2012-06-16T18:55:36Z</time>
 <fix>2d</fix>
 <sat>4</sat>
</trkpt>
<trkpt lat="48.316990000" lon="16.373345000">
<time>2012-06-16T18:55:37Z</time>
 <fix>2d</fix>
 <sat>4</sat>
</trkpt>
<trkpt lat="48.316990000" lon="16.373363333">
<time>2012-06-16T18:55:38Z</time>
 <fix>2d</fix>
 <sat>5</sat>
</trkpt>
<trkpt lat="48.316983333" lon="16.373391667">
<time>2012-06-16T18:55:39Z</time>
 <fix>2d</fix>
 <sat>5</sat>
</trkpt>
<trkpt lat="48.316975000" lon="16.373410000">
<time>2012-06-16T18:55:40Z</time>
 <fix>2d</fix>
 <sat>5</sat>
</trkpt>
<trkpt lat="48.316971667" lon="16.373431667">
<time>2012-06-16T18:55:41Z</time>
 <fix>2d</fix>
 <sat>5</sat>
</trkpt>
<trkpt lat="48.316970000" lon="16.373453333">
<time>2012-06-16T18:55:42Z</time>
 <fix>2d</fix>
 <sat>5</sat>
</trkpt>
<trkpt lat="48.316968333" lon="16.373473333">
<time>2012-06-16T18:55:43Z</time>
 <fix>2d</fix>
 <sat>5</sat>
</trkpt>
<trkpt lat="48.316968333" lon="16.373496667">
<time>2012-06-16T18:55:44Z</time>
 <fix>2d</fix>
 <sat>5</sat>
</trkpt>
<trkpt lat="48.316978333" lon="16.373506667">
<time>2012-06-16T18:55:45Z</time>
 <fix>2d</fix>
 <sat>5</sat>
</trkpt>
<trkpt lat="48.316981667" lon="16.373520000">
<time>2012-06-16T18:55:46Z</time>
 <fix>2d</fix>
 <sat>5</sat>
</trkpt>
<trkpt lat="48.316991667" lon="16.373535000">
<time>2012-06-16T18:55:47Z</time>
 <fix>2d</fix>
 <sat>5</sat>
</trkpt>
<trkpt lat="48.317000000" lon="16.373548333">
<time>2012-06-16T18:55:48Z</time>
 <fix>2d</fix>
 <sat>5</sat>
</trkpt>
<trkpt lat="48.317011667" lon="16.373565000">
<time>2012-06-16T18:55:49Z</time>
 <fix>2d</fix>
 <sat>5</sat>
</trkpt>
<trkpt lat="48.317026667" lon="16.373581667">
<time>2012-06-16T18:55:50Z</time>
 <fix>2d</fix>
 <sat>5</sat>
</trkpt>
<trkpt lat="48.317035000" lon="16.373600000">
<time>2012-06-16T18:55:51Z</time>
 <fix>2d</fix>
 <sat>5</sat>
</trkpt>
<trkpt lat="48.317048333" lon="16.373620000">
<time>2012-06-16T18:55:52Z</time>
 <fix>2d</fix>
 <sat>5</sat>
</trkpt>
<trkpt lat="48.317058333" lon="16.373628333">
<time>2012-06-16T18:55:53Z</time>
 <fix>2d</fix>
 <sat>5</sat>
</trkpt>
<trkpt lat="48.317061667" lon="16.373640000">
<time>2012-06-16T18:55:54Z</time>
 <fix>2d</fix>
 <sat>5</sat>
</trkpt>
<trkpt lat="48.317065000" lon="16.373651667">
<time>2012-06-16T18:55:55Z</time>
 <fix>2d</fix>
 <sat>5</sat>
</trkpt>
<trkpt lat="48.317068333" lon="16.373668333">
<time>2012-06-16T18:55:56Z</time>
 <fix>2d</fix>
 <sat>5</sat>
</trkpt>
<trkpt lat="48.317071667" lon="16.373686667">
<time>2012-06-16T18:55:57Z</time>
 <fix>2d</fix>
 <sat>5</sat>
</trkpt>
<trkpt lat="48.317066667" lon="16.373701667">
<time>2012-06-16T18:55:58Z</time>
 <fix>2d</fix>
 <sat>5</sat>
</trkpt>
<trkpt lat="48.317070000" lon="16.373713333">
<time>2012-06-16T18:55:59Z</time>
 <fix>2d</fix>
 <sat>5</sat>
</trkpt>
<trkpt lat="48.317071667" lon="16.373730000">
<time>2012-06-16T18:56:00Z</time>
 <fix>2d</fix>
 <sat>5</sat>
</trkpt>
<trkpt lat="48.317066667" lon="16.373738333">
<time>2012-06-16T18:56:01Z</time>
 <fix>2d</fix>
 <sat>5</sat>
</trkpt>
<trkpt lat="48.317073333" lon="16.373758333">
<time>2012-06-16T18:56:02Z</time>
 <fix>2d</fix>
 <sat>5</sat>
</trkpt>
<trkpt lat="48.317080000" lon="16.373776667">
<time>2012-06-16T18:56:03Z</time>
 <fix>2d</fix>
 <sat>5</sat>
</trkpt>
<trkpt lat="48.317081667" lon="16.373795000">
<time>2012-06-16T18:56:04Z</time>
 <fix>2d</fix>
 <sat>5</sat>
</trkpt>
<trkpt lat="48.317078333" lon="16.373806667">
<time>2012-06-16T18:56:05Z</time>
 <fix>2d</fix>
 <sat>5</sat>
</trkpt>
<trkpt lat="48.317088333" lon="16.373816667">
<time>2012-06-16T18:56:06Z</time>
 <fix>2d</fix>
 <sat>5</sat>
</trkpt>
<trkpt lat="48.317085000" lon="16.373840000">
<time>2012-06-16T18:56:07Z</time>
 <fix>2d</fix>
 <sat>5</sat>
</trkpt>
<trkpt lat="48.317085000" lon="16.373865000">
<time>2012-06-16T18:56:08Z</time>
 <fix>2d</fix>
 <sat>4</sat>
</trkpt>
<trkpt lat="48.317088333" lon="16.373885000">
<time>2012-06-16T18:56:09Z</time>
 <fix>2d</fix>
 <sat>4</sat>
</trkpt>
<trkpt lat="48.317098333" lon="16.373898333">
<time>2012-06-16T18:56:10Z</time>
 <fix>2d</fix>
 <sat>4</sat>
</trkpt>
<trkpt lat="48.317116667" lon="16.373916667">
<time>2012-06-16T18:56:11Z</time>
 <fix>2d</fix>
 <sat>4</sat>
</trkpt>
<trkpt lat="48.317131667" lon="16.373933333">
<time>2012-06-16T18:56:12Z</time>
 <fix>2d</fix>
 <sat>4</sat>
</trkpt>
<trkpt lat="48.317148333" lon="16.373950000">
<time>2012-06-16T18:56:13Z</time>
 <fix>2d</fix>
 <sat>4</sat>
</trkpt>
<trkpt lat="48.317161667" lon="16.373960000">
<time>2012-06-16T18:56:14Z</time>
 <fix>2d</fix>
 <sat>4</sat>
</trkpt>
<trkpt lat="48.317173333" lon="16.373973333">
<time>2012-06-16T18:56:15Z</time>
 <fix>2d</fix>
 <sat>4</sat>
</trkpt>
<trkpt lat="48.317178333" lon="16.373990000">
<time>2012-06-16T18:56:16Z</time>
 <fix>2d</fix>
 <sat>4</sat>
</trkpt>
<trkpt lat="48.317175000" lon="16.374000000">
<time>2012-06-16T18:56:17Z</time>
 <fix>2d</fix>
 <sat>4</sat>
</trkpt>
<trkpt lat="48.317178333" lon="16.374018333">
<time>2012-06-16T18:56:18Z</time>
 <fix>2d</fix>
 <sat>4</sat>
</trkpt>
<trkpt lat="48.317168333" lon="16.374033333">
<time>2012-06-16T18:56:19Z</time>
 <fix>2d</fix>
 <sat>4</sat>
</trkpt>
<trkpt lat="48.317160000" lon="16.374050000">
<time>2012-06-16T18:56:20Z</time>
 <fix>2d</fix>
 <sat>4</sat>
</trkpt>
<trkpt lat="48.317163333" lon="16.374075000">
<time>2012-06-16T18:56:21Z</time>
 <fix>2d</fix>
 <sat>4</sat>
</trkpt>
<trkpt lat="48.317176667" lon="16.374100000">
<time>2012-06-16T18:56:22Z</time>
 <fix>2d</fix>
 <sat>4</sat>
</trkpt>
<trkpt lat="48.317186667" lon="16.374120000">
<time>2012-06-16T18:56:23Z</time>
 <fix>2d</fix>
 <sat>5</sat>
</trkpt>
<trkpt lat="48.317200000" lon="16.374140000">
<time>2012-06-16T18:56:24Z</time>
 <fix>2d</fix>
 <sat>4</sat>
</trkpt>
<trkpt lat="48.317208333" lon="16.374153333">
<time>2012-06-16T18:56:25Z</time>
 <fix>2d</fix>
 <sat>5</sat>
</trkpt>
<trkpt lat="48.317216667" lon="16.374170000">
<time>2012-06-16T18:56:26Z</time>
 <fix>2d</fix>
 <sat>5</sat>
</trkpt>
<trkpt lat="48.317226667" lon="16.374196667">
<time>2012-06-16T18:56:27Z</time>
 <fix>2d</fix>
 <sat>5</sat>
</trkpt>
<trkpt lat="48.317228333" lon="16.374213333">
<time>2012-06-16T18:56:28Z</time>
 <fix>2d</fix>
 <sat>5</sat>
</trkpt>
<trkpt lat="48.317235000" lon="16.374233333">
<time>2012-06-16T18:56:29Z</time>
 <fix>2d</fix>
 <sat>5</sat>
</trkpt>
<trkpt lat="48.317243333" lon="16.374251667">
<time>2012-06-16T18:56:30Z</time>
 <fix>2d</fix>
 <sat>5</sat>
</trkpt>
<trkpt lat="48.317248333" lon="16.374266667">
<time>2012-06-16T18:56:31Z</time>
 <fix>2d</fix>
 <sat>5</sat>
</trkpt>
<trkpt lat="48.317255000" lon="16.374280000">
<time>2012-06-16T18:56:32Z</time>
 <fix>2d</fix>
 <sat>5</sat>
</trkpt>
<trkpt lat="48.317256667" lon="16.374295000">
<time>2012-06-16T18:56:33Z</time>
 <fix>2d</fix>
 <sat>5</sat>
</trkpt>
<trkpt lat="48.317251667" lon="16.374316667">
<time>2012-06-16T18:56:34Z</time>
 <fix>2d</fix>
 <sat>5</sat>
</trkpt>
<trkpt lat="48.317260000" lon="16.374330000">
<time>2012-06-16T18:56:35Z</time>
 <fix>2d</fix>
 <sat>5</sat>
</trkpt>
<trkpt lat="48.317266667" lon="16.374346667">
<time>2012-06-16T18:56:36Z</time>
 <fix>2d</fix>
 <sat>5</sat>
</trkpt>
<trkpt lat="48.317276667" lon="16.374360000">
<time>2012-06-16T18:56:37Z</time>
 <fix>2d</fix>
 <sat>5</sat>
</trkpt>
<trkpt lat="48.317288333" lon="16.374376667">
<time>2012-06-16T18:56:38Z</time>
 <fix>2d</fix>
 <sat>5</sat>
</trkpt>
<trkpt lat="48.317295000" lon="16.374398333">
<time>2012-06-16T18:56:39Z</time>
 <fix>2d</fix>
 <sat>5</sat>
</trkpt>
<trkpt lat="48.317301667" lon="16.374415000">
<time>2012-06-16T18:56:40Z</time>
 <fix>2d</fix>
 <sat>5</sat>
</trkpt>
<trkpt lat="48.317313333" lon="16.374423333">
<time>2012-06-16T18:56:41Z</time>
 <fix>2d</fix>
 <sat>5</sat>
</trkpt>
<trkpt lat="48.317315000" lon="16.374433333">
<time>2012-06-16T18:56:42Z</time>
 <fix>2d</fix>
 <sat>5</sat>
</trkpt>
<trkpt lat="48.317330000" lon="16.374445000">
<time>2012-06-16T18:56:43Z</time>
 <fix>2d</fix>
 <sat>5</sat>
</trkpt>
<trkpt lat="48.317331667" lon="16.374466667">
<time>2012-06-16T18:56:44Z</time>
 <fix>2d</fix>
 <sat>5</sat>
</trkpt>
<trkpt lat="48.317333333" lon="16.374481667">
<time>2012-06-16T18:56:45Z</time>
 <fix>2d</fix>
 <sat>5</sat>
</trkpt>
<trkpt lat="48.317345000" lon="16.374493333">
<time>2012-06-16T18:56:46Z</time>
 <fix>2d</fix>
 <sat>5</sat>
</trkpt>
<trkpt lat="48.317366667" lon="16.374505000">
<time>2012-06-16T18:56:47Z</time>
 <fix>2d</fix>
 <sat>5</sat>
</trkpt>
<trkpt lat="48.317385000" lon="16.374516667">
<time>2012-06-16T18:56:48Z</time>
 <fix>2d</fix>
 <sat>5</sat>
</trkpt>
<trkpt lat="48.317386667" lon="16.374530000">
<time>2012-06-16T18:56:49Z</time>
 <fix>2d</fix>
 <sat>5</sat>
</trkpt>
<trkpt lat="48.317390000" lon="16.374545000">
<time>2012-06-16T18:56:50Z</time>
 <fix>2d</fix>
 <sat>5</sat>
</trkpt>
<trkpt lat="48.317401667" lon="16.374561667">
<time>2012-06-16T18:56:51Z</time>
 <fix>2d</fix>
 <sat>5</sat>
</trkpt>
<trkpt lat="48.317418333" lon="16.374568333">
<time>2012-06-16T18:56:52Z</time>
 <fix>2d</fix>
 <sat>5</sat>
</trkpt>
<trkpt lat="48.317426667" lon="16.374585000">
<time>2012-06-16T18:56:53Z</time>
 <fix>2d</fix>
 <sat>5</sat>
</trkpt>
<trkpt lat="48.317440000" lon="16.374606667">
<time>2012-06-16T18:56:54Z</time>
 <fix>2d</fix>
 <sat>5</sat>
</trkpt>
<trkpt lat="48.317450000" lon="16.374625000">
<time>2012-06-16T18:56:55Z</time>
 <fix>2d</fix>
 <sat>5</sat>
</trkpt>
<trkpt lat="48.317468333" lon="16.374643333">
<time>2012-06-16T18:56:56Z</time>
 <fix>2d</fix>
 <sat>5</sat>
</trkpt>
<trkpt lat="48.317483333" lon="16.374668333">
<time>2012-06-16T18:56:57Z</time>
 <fix>2d</fix>
 <sat>5</sat>
</trkpt>
<trkpt lat="48.317496667" lon="16.374691667">
<time>2012-06-16T18:56:58Z</time>
 <fix>2d</fix>
 <sat>5</sat>
</trkpt>
<trkpt lat="48.317513333" lon="16.374711667">
<time>2012-06-16T18:56:59Z</time>
 <fix>2d</fix>
 <sat>5</sat>
</trkpt>
<trkpt lat="48.317523333" lon="16.374731667">
<time>2012-06-16T18:57:00Z</time>
 <fix>2d</fix>
 <sat>5</sat>
</trkpt>
<trkpt lat="48.317530000" lon="16.374755000">
<time>2012-06-16T18:57:01Z</time>
 <fix>2d</fix>
 <sat>5</sat>
</trkpt>
<trkpt lat="48.317526667" lon="16.374771667">
<time>2012-06-16T18:57:02Z</time>
 <fix>2d</fix>
 <sat>5</sat>
</trkpt>
<trkpt lat="48.317540000" lon="16.374798333">
<time>2012-06-16T18:57:03Z</time>
 <fix>2d</fix>
 <sat>5</sat>
</trkpt>
<trkpt lat="48.317545000" lon="16.374821667">
<time>2012-06-16T18:57:04Z</time>
 <fix>2d</fix>
 <sat>5</sat>
</trkpt>
<trkpt lat="48.317538333" lon="16.374845000">
<time>2012-06-16T18:57:05Z</time>
 <fix>2d</fix>
 <sat>5</sat>
</trkpt>
<trkpt lat="48.317533333" lon="16.374861667">
<time>2012-06-16T18:57:06Z</time>
 <fix>2d</fix>
 <sat>5</sat>
</trkpt>
<trkpt lat="48.317543333" lon="16.374885000">
<time>2012-06-16T18:57:07Z</time>
 <fix>2d</fix>
 <sat>5</sat>
</trkpt>
<trkpt lat="48.317558333" lon="16.374901667">
<time>2012-06-16T18:57:08Z</time>
 <fix>2d</fix>
 <sat>5</sat>
</trkpt>
<trkpt lat="48.317566667" lon="16.374921667">
<time>2012-06-16T18:57:09Z</time>
 <fix>2d</fix>
 <sat>5</sat>
</trkpt>
<trkpt lat="48.317560000" lon="16.374945000">
<time>2012-06-16T18:57:10Z</time>
 <fix>2d</fix>
 <sat>5</sat>
</trkpt>
<trkpt lat="48.317565000" lon="16.374965000">
<time>2012-06-16T18:57:11Z</time>
 <fix>2d</fix>
 <sat>5</sat>
</trkpt>
<trkpt lat="48.317573333" lon="16.374986667">
<time>2012-06-16T18:57:12Z</time>
 <fix>2d</fix>
 <sat>5</sat>
</trkpt>
<trkpt lat="48.317571667" lon="16.375010000">
<time>2012-06-16T18:57:13Z</time>
 <fix>2d</fix>
 <sat>5</sat>
</trkpt>
<trkpt lat="48.317566667" lon="16.375031667">
<time>2012-06-16T18:57:14Z</time>
 <fix>2d</fix>
 <sat>5</sat>
</trkpt>
<trkpt lat="48.317568333" lon="16.375045000">
<time>2012-06-16T18:57:15Z</time>
 <fix>2d</fix>
 <sat>5</sat>
</trkpt>
<trkpt lat="48.317578333" lon="16.375065000">
<time>2012-06-16T18:57:16Z</time>
 <fix>2d</fix>
 <sat>5</sat>
</trkpt>
<trkpt lat="48.317588333" lon="16.375085000">
<time>2012-06-16T18:57:17Z</time>
 <fix>2d</fix>
 <sat>5</sat>
</trkpt>
<trkpt lat="48.317600000" lon="16.375108333">
<time>2012-06-16T18:57:18Z</time>
 <fix>2d</fix>
 <sat>5</sat>
</trkpt>
<trkpt lat="48.317608333" lon="16.375130000">
<time>2012-06-16T18:57:19Z</time>
 <fix>2d</fix>
 <sat>5</sat>
</trkpt>
<trkpt lat="48.317610000" lon="16.375150000">
<time>2012-06-16T18:57:20Z</time>
 <fix>2d</fix>
 <sat>5</sat>
</trkpt>
<trkpt lat="48.317618333" lon="16.375183333">
<time>2012-06-16T18:57:21Z</time>
 <fix>2d</fix>
 <sat>5</sat>
</trkpt>
<trkpt lat="48.317621667" lon="16.375198333">
<time>2012-06-16T18:57:22Z</time>
 <fix>2d</fix>
 <sat>5</sat>
</trkpt>
<trkpt lat="48.317635000" lon="16.375218333">
<time>2012-06-16T18:57:23Z</time>
 <fix>2d</fix>
 <sat>5</sat>
</trkpt>
<trkpt lat="48.317643333" lon="16.375238333">
<time>2012-06-16T18:57:24Z</time>
 <fix>2d</fix>
 <sat>5</sat>
</trkpt>
<trkpt lat="48.317641667" lon="16.375256667">
<time>2012-06-16T18:57:25Z</time>
 <fix>2d</fix>
 <sat>5</sat>
</trkpt>
<trkpt lat="48.317655000" lon="16.375273333">
<time>2012-06-16T18:57:26Z</time>
 <fix>2d</fix>
 <sat>5</sat>
</trkpt>
<trkpt lat="48.317653333" lon="16.375286667">
<time>2012-06-16T18:57:27Z</time>
 <fix>2d</fix>
 <sat>5</sat>
</trkpt>
<trkpt lat="48.317651667" lon="16.375305000">
<time>2012-06-16T18:57:28Z</time>
 <fix>2d</fix>
 <sat>5</sat>
</trkpt>
<trkpt lat="48.317660000" lon="16.375315000">
<time>2012-06-16T18:57:29Z</time>
 <fix>2d</fix>
 <sat>5</sat>
</trkpt>
<trkpt lat="48.317671667" lon="16.375336667">
<time>2012-06-16T18:57:30Z</time>
 <fix>2d</fix>
 <sat>5</sat>
</trkpt>
<trkpt lat="48.317676667" lon="16.375365000">
<time>2012-06-16T18:57:31Z</time>
 <fix>2d</fix>
 <sat>5</sat>
</trkpt>
<trkpt lat="48.317685000" lon="16.375390000">
<time>2012-06-16T18:57:32Z</time>
 <fix>2d</fix>
 <sat>5</sat>
</trkpt>
<trkpt lat="48.317686667" lon="16.375411667">
<time>2012-06-16T18:57:33Z</time>
 <fix>2d</fix>
 <sat>5</sat>
</trkpt>
<trkpt lat="48.317691667" lon="16.375423333">
<time>2012-06-16T18:57:34Z</time>
 <fix>2d</fix>
 <sat>5</sat>
</trkpt>
<trkpt lat="48.317695000" lon="16.375448333">
<time>2012-06-16T18:57:35Z</time>
 <fix>2d</fix>
 <sat>5</sat>
</trkpt>
<trkpt lat="48.317708333" lon="16.375466667">
<time>2012-06-16T18:57:36Z</time>
 <fix>2d</fix>
 <sat>5</sat>
</trkpt>
<trkpt lat="48.317725000" lon="16.375476667">
<time>2012-06-16T18:57:37Z</time>
 <fix>2d</fix>
 <sat>5</sat>
</trkpt>
<trkpt lat="48.317726667" lon="16.375491667">
<time>2012-06-16T18:57:38Z</time>
 <fix>2d</fix>
 <sat>5</sat>
</trkpt>
<trkpt lat="48.317741667" lon="16.375505000">
<time>2012-06-16T18:57:39Z</time>
 <fix>2d</fix>
 <sat>5</sat>
</trkpt>
<trkpt lat="48.317751667" lon="16.375518333">
<time>2012-06-16T18:57:40Z</time>
 <fix>2d</fix>
 <sat>5</sat>
</trkpt>
<trkpt lat="48.317753333" lon="16.375541667">
<time>2012-06-16T18:57:41Z</time>
 <fix>2d</fix>
 <sat>5</sat>
</trkpt>
<trkpt lat="48.317756667" lon="16.375568333">
<time>2012-06-16T18:57:42Z</time>
 <fix>2d</fix>
 <sat>5</sat>
</trkpt>
<trkpt lat="48.317758333" lon="16.375591667">
<time>2012-06-16T18:57:43Z</time>
 <fix>2d</fix>
 <sat>5</sat>
</trkpt>
<trkpt lat="48.317761667" lon="16.375616667">
<time>2012-06-16T18:57:44Z</time>
 <fix>2d</fix>
 <sat>5</sat>
</trkpt>
<trkpt lat="48.317761667" lon="16.375641667">
<time>2012-06-16T18:57:45Z</time>
 <fix>2d</fix>
 <sat>5</sat>
</trkpt>
<trkpt lat="48.317770000" lon="16.375656667">
<time>2012-06-16T18:57:46Z</time>
 <fix>2d</fix>
 <sat>5</sat>
</trkpt>
<trkpt lat="48.317790000" lon="16.375676667">
<time>2012-06-16T18:57:47Z</time>
 <fix>2d</fix>
 <sat>5</sat>
</trkpt>
<trkpt lat="48.317805000" lon="16.375696667">
<time>2012-06-16T18:57:48Z</time>
 <fix>2d</fix>
 <sat>5</sat>
</trkpt>
<trkpt lat="48.317811667" lon="16.375713333">
<time>2012-06-16T18:57:49Z</time>
 <fix>2d</fix>
 <sat>4</sat>
</trkpt>
<trkpt lat="48.317821667" lon="16.375728333">
<time>2012-06-16T18:57:50Z</time>
 <fix>2d</fix>
 <sat>4</sat>
</trkpt>
<trkpt lat="48.317833333" lon="16.375748333">
<time>2012-06-16T18:57:51Z</time>
 <fix>2d</fix>
 <sat>4</sat>
</trkpt>
<trkpt lat="48.317838333" lon="16.375766667">
<time>2012-06-16T18:57:52Z</time>
 <fix>2d</fix>
 <sat>4</sat>
</trkpt>
<trkpt lat="48.317846667" lon="16.375798333">
<time>2012-06-16T18:57:53Z</time>
 <fix>2d</fix>
 <sat>4</sat>
</trkpt>
<trkpt lat="48.317858333" lon="16.375810000">
<time>2012-06-16T18:57:54Z</time>
 <fix>2d</fix>
 <sat>4</sat>
</trkpt>
<trkpt lat="48.317868333" lon="16.375831667">
<time>2012-06-16T18:57:55Z</time>
 <fix>2d</fix>
 <sat>4</sat>
</trkpt>
<trkpt lat="48.317875000" lon="16.375863333">
<time>2012-06-16T18:57:56Z</time>
 <fix>2d</fix>
 <sat>4</sat>
</trkpt>
<trkpt lat="48.317881667" lon="16.375886667">
<time>2012-06-16T18:57:57Z</time>
 <fix>2d</fix>
 <sat>4</sat>
</trkpt>
<trkpt lat="48.317893333" lon="16.375915000">
<time>2012-06-16T18:57:58Z</time>
 <fix>2d</fix>
 <sat>4</sat>
</trkpt>
<trkpt lat="48.317898333" lon="16.375936667">
<time>2012-06-16T18:57:59Z</time>
 <fix>2d</fix>
 <sat>5</sat>
</trkpt>
<trkpt lat="48.317891667" lon="16.375956667">
<time>2012-06-16T18:58:00Z</time>
 <fix>2d</fix>
 <sat>5</sat>
</trkpt>
<trkpt lat="48.317888333" lon="16.375976667">
<time>2012-06-16T18:58:01Z</time>
 <fix>2d</fix>
 <sat>5</sat>
</trkpt>
<trkpt lat="48.317890000" lon="16.375990000">
<time>2012-06-16T18:58:02Z</time>
 <fix>2d</fix>
 <sat>5</sat>
</trkpt>
<trkpt lat="48.317905000" lon="16.375983333">
<time>2012-06-16T18:58:03Z</time>
 <fix>2d</fix>
 <sat>5</sat>
</trkpt>
<trkpt lat="48.317908333" lon="16.375981667">
<time>2012-06-16T18:58:04Z</time>
 <fix>2d</fix>
 <sat>4</sat>
</trkpt>
<trkpt lat="48.317890000" lon="16.375983333">
<time>2012-06-16T18:58:05Z</time>
 <fix>2d</fix>
 <sat>4</sat>
</trkpt>
<trkpt lat="48.317890000" lon="16.375973333">
<time>2012-06-16T18:58:06Z</time>
 <fix>2d</fix>
 <sat>4</sat>
</trkpt>
<trkpt lat="48.317895000" lon="16.375956667">
<time>2012-06-16T18:58:07Z</time>
 <fix>2d</fix>
 <sat>5</sat>
</trkpt>
<trkpt lat="48.317900000" lon="16.375938333">
<time>2012-06-16T18:58:08Z</time>
 <fix>2d</fix>
 <sat>5</sat>
</trkpt>
<trkpt lat="48.317906667" lon="16.375918333">
<time>2012-06-16T18:58:09Z</time>
 <fix>2d</fix>
 <sat>5</sat>
</trkpt>
<trkpt lat="48.317910000" lon="16.375896667">
<time>2012-06-16T18:58:10Z</time>
 <fix>2d</fix>
 <sat>5</sat>
</trkpt>
<trkpt lat="48.317911667" lon="16.375875000">
<time>2012-06-16T18:58:11Z</time>
 <fix>2d</fix>
 <sat>5</sat>
</trkpt>
<trkpt lat="48.317920000" lon="16.375851667">
<time>2012-06-16T18:58:12Z</time>
 <fix>2d</fix>
 <sat>5</sat>
</trkpt>
<trkpt lat="48.317921667" lon="16.375833333">
<time>2012-06-16T18:58:13Z</time>
 <fix>2d</fix>
 <sat>5</sat>
</trkpt>
<trkpt lat="48.317926667" lon="16.375815000">
<time>2012-06-16T18:58:14Z</time>
 <fix>2d</fix>
 <sat>5</sat>
</trkpt>
<trkpt lat="48.317930000" lon="16.375786667">
<time>2012-06-16T18:58:15Z</time>
 <fix>2d</fix>
 <sat>5</sat>
</trkpt>
<trkpt lat="48.317941667" lon="16.375765000">
<time>2012-06-16T18:58:16Z</time>
 <fix>2d</fix>
 <sat>5</sat>
</trkpt>
<trkpt lat="48.317955000" lon="16.375753333">
<time>2012-06-16T18:58:17Z</time>
 <fix>2d</fix>
 <sat>5</sat>
</trkpt>
<trkpt lat="48.317981667" lon="16.375740000">
<time>2012-06-16T18:58:18Z</time>
 <fix>2d</fix>
 <sat>5</sat>
</trkpt>
<trkpt lat="48.317998333" lon="16.375718333">
<time>2012-06-16T18:58:19Z</time>
 <fix>2d</fix>
 <sat>5</sat>
</trkpt>
<trkpt lat="48.318015000" lon="16.375696667">
<time>2012-06-16T18:58:20Z</time>
 <fix>2d</fix>
 <sat>5</sat>
</trkpt>
<trkpt lat="48.318045000" lon="16.375668333">
<time>2012-06-16T18:58:21Z</time>
 <fix>2d</fix>
 <sat>5</sat>
</trkpt>
<trkpt lat="48.318063333" lon="16.375650000">
<time>2012-06-16T18:58:22Z</time>
 <fix>2d</fix>
 <sat>5</sat>
</trkpt>
<trkpt lat="48.318073333" lon="16.375633333">
<time>2012-06-16T18:58:23Z</time>
 <fix>2d</fix>
 <sat>5</sat>
</trkpt>
<trkpt lat="48.318096667" lon="16.375616667">
<time>2012-06-16T18:58:24Z</time>
 <fix>2d</fix>
 <sat>5</sat>
</trkpt>
<trkpt lat="48.318115000" lon="16.375605000">
<time>2012-06-16T18:58:25Z</time>
 <fix>2d</fix>
 <sat>5</sat>
</trkpt>
<trkpt lat="48.318135000" lon="16.375590000">
<time>2012-06-16T18:58:26Z</time>
 <fix>2d</fix>
 <sat>5</sat>
</trkpt>
<trkpt lat="48.318145000" lon="16.375573333">
<time>2012-06-16T18:58:27Z</time>
 <fix>2d</fix>
 <sat>5</sat>
</trkpt>
<trkpt lat="48.318146667" lon="16.375563333">
<time>2012-06-16T18:58:28Z</time>
 <fix>2d</fix>
 <sat>5</sat>
</trkpt>
<trkpt lat="48.318161667" lon="16.375556667">
<time>2012-06-16T18:58:29Z</time>
 <fix>2d</fix>
 <sat>5</sat>
</trkpt>
<trkpt lat="48.318175000" lon="16.375550000">
<time>2012-06-16T18:58:30Z</time>
 <fix>2d</fix>
 <sat>5</sat>
</trkpt>
<trkpt lat="48.318198333" lon="16.375530000">
<time>2012-06-16T18:58:31Z</time>
 <fix>2d</fix>
 <sat>5</sat>
</trkpt>
<trkpt lat="48.318208333" lon="16.375511667">
<time>2012-06-16T18:58:32Z</time>
 <fix>2d</fix>
 <sat>5</sat>
</trkpt>
<trkpt lat="48.318215000" lon="16.375488333">
<time>2012-06-16T18:58:33Z</time>
 <fix>2d</fix>
 <sat>5</sat>
</trkpt>
<trkpt lat="48.318220000" lon="16.375470000">
<time>2012-06-16T18:58:34Z</time>
 <fix>2d</fix>
 <sat>5</sat>
</trkpt>
<trkpt lat="48.318223333" lon="16.375448333">
<time>2012-06-16T18:58:35Z</time>
 <fix>2d</fix>
 <sat>5</sat>
</trkpt>
<trkpt lat="48.318235000" lon="16.375430000">
<time>2012-06-16T18:58:36Z</time>
 <fix>2d</fix>
 <sat>5</sat>
</trkpt>
<trkpt lat="48.318246667" lon="16.375413333">
<time>2012-06-16T18:58:37Z</time>
 <fix>2d</fix>
 <sat>5</sat>
</trkpt>
<trkpt lat="48.318258333" lon="16.375388333">
<time>2012-06-16T18:58:38Z</time>
 <fix>2d</fix>
 <sat>5</sat>
</trkpt>
<trkpt lat="48.318270000" lon="16.375368333">
<time>2012-06-16T18:58:39Z</time>
 <fix>2d</fix>
 <sat>5</sat>
</trkpt>
<trkpt lat="48.318275000" lon="16.375355000">
<time>2012-06-16T18:58:40Z</time>
 <fix>2d</fix>
 <sat>5</sat>
</trkpt>
<trkpt lat="48.318285000" lon="16.375345000">
<time>2012-06-16T18:58:41Z</time>
 <fix>2d</fix>
 <sat>5</sat>
</trkpt>
<trkpt lat="48.318281667" lon="16.375343333">
<time>2012-06-16T18:58:42Z</time>
 <fix>2d</fix>
 <sat>5</sat>
</trkpt>
<trkpt lat="48.318285000" lon="16.375340000">
<time>2012-06-16T18:58:43Z</time>
 <fix>2d</fix>
 <sat>5</sat>
</trkpt>
<trkpt lat="48.318308333" lon="16.375315000">
<time>2012-06-16T18:58:44Z</time>
 <fix>2d</fix>
 <sat>5</sat>
</trkpt>
<trkpt lat="48.318331667" lon="16.375290000">
<time>2012-06-16T18:58:45Z</time>
 <fix>2d</fix>
 <sat>5</sat>
</trkpt>
<trkpt lat="48.318356667" lon="16.375265000">
<time>2012-06-16T18:58:46Z</time>
 <fix>2d</fix>
 <sat>5</sat>
</trkpt>
<trkpt lat="48.318365000" lon="16.375251667">
<time>2012-06-16T18:58:47Z</time>
 <fix>2d</fix>
 <sat>5</sat>
</trkpt>
<trkpt lat="48.318370000" lon="16.375246667">
<time>2012-06-16T18:58:48Z</time>
 <fix>2d</fix>
 <sat>5</sat>
</trkpt>
<trkpt lat="48.318373333" lon="16.375241667">
<time>2012-06-16T18:58:49Z</time>
 <fix>2d</fix>
 <sat>5</sat>
</trkpt>
<trkpt lat="48.318405000" lon="16.375205000">
<time>2012-06-16T18:58:50Z</time>
 <fix>2d</fix>
 <sat>5</sat>
</trkpt>
<trkpt lat="48.318436667" lon="16.375170000">
<time>2012-06-16T18:58:51Z</time>
 <fix>2d</fix>
 <sat>4</sat>
</trkpt>
<trkpt lat="48.318470000" lon="16.375135000">
<time>2012-06-16T18:58:52Z</time>
 <fix>2d</fix>
 <sat>4</sat>
</trkpt>
<trkpt lat="48.318465000" lon="16.375125000">
<time>2012-06-16T18:58:53Z</time>
 <fix>2d</fix>
 <sat>5</sat>
</trkpt>
<trkpt lat="48.318460000" lon="16.375115000">
<time>2012-06-16T18:58:54Z</time>
 <fix>2d</fix>
 <sat>5</sat>
</trkpt>
<trkpt lat="48.318465000" lon="16.375113333">
<time>2012-06-16T18:58:55Z</time>
 <fix>2d</fix>
 <sat>5</sat>
</trkpt>
<trkpt lat="48.318465000" lon="16.375110000">
<time>2012-06-16T18:58:56Z</time>
 <fix>2d</fix>
 <sat>5</sat>
</trkpt>
<trkpt lat="48.318463333" lon="16.375098333">
<time>2012-06-16T18:58:57Z</time>
 <fix>2d</fix>
 <sat>4</sat>
</trkpt>
<trkpt lat="48.318458333" lon="16.375085000">
<time>2012-06-16T18:58:58Z</time>
 <fix>2d</fix>
 <sat>4</sat>
</trkpt>
<trkpt lat="48.318455000" lon="16.375075000">
<time>2012-06-16T18:58:59Z</time>
 <fix>2d</fix>
 <sat>4</sat>
</trkpt>
<trkpt lat="48.318448333" lon="16.375075000">
<time>2012-06-16T18:59:00Z</time>
 <fix>2d</fix>
 <sat>4</sat>
</trkpt>
<trkpt lat="48.318441667" lon="16.375075000">
<time>2012-06-16T18:59:01Z</time>
 <fix>2d</fix>
 <sat>4</sat>
</trkpt>
<trkpt lat="48.318428333" lon="16.375068333">
<time>2012-06-16T18:59:02Z</time>
 <fix>2d</fix>
 <sat>4</sat>
</trkpt>
<trkpt lat="48.318398333" lon="16.375051667">
<time>2012-06-16T18:59:03Z</time>
 <fix>2d</fix>
 <sat>4</sat>
</trkpt>
<trkpt lat="48.318376667" lon="16.375038333">
<time>2012-06-16T18:59:04Z</time>
 <fix>2d</fix>
 <sat>4</sat>
</trkpt>
<trkpt lat="48.318368333" lon="16.375015000">
<time>2012-06-16T18:59:05Z</time>
 <fix>2d</fix>
 <sat>4</sat>
</trkpt>
<trkpt lat="48.318361667" lon="16.374991667">
<time>2012-06-16T18:59:06Z</time>
 <fix>2d</fix>
 <sat>4</sat>
</trkpt>
<trkpt lat="48.318360000" lon="16.374975000">
<time>2012-06-16T18:59:07Z</time>
 <fix>2d</fix>
 <sat>4</sat>
</trkpt>
<trkpt lat="48.318355000" lon="16.374956667">
<time>2012-06-16T18:59:08Z</time>
 <fix>2d</fix>
 <sat>4</sat>
</trkpt>
<trkpt lat="48.318323333" lon="16.374930000">
<time>2012-06-16T18:59:09Z</time>
 <fix>2d</fix>
 <sat>4</sat>
</trkpt>
<trkpt lat="48.318310000" lon="16.374905000">
<time>2012-06-16T18:59:10Z</time>
 <fix>2d</fix>
 <sat>4</sat>
</trkpt>
<trkpt lat="48.318316667" lon="16.374881667">
<time>2012-06-16T18:59:11Z</time>
 <fix>2d</fix>
 <sat>4</sat>
</trkpt>
<trkpt lat="48.318310000" lon="16.374861667">
<time>2012-06-16T18:59:12Z</time>
 <fix>2d</fix>
 <sat>4</sat>
</trkpt>
<trkpt lat="48.318308333" lon="16.374843333">
<time>2012-06-16T18:59:13Z</time>
 <fix>2d</fix>
 <sat>4</sat>
</trkpt>
<trkpt lat="48.318316667" lon="16.374813333">
<time>2012-06-16T18:59:14Z</time>
 <fix>2d</fix>
 <sat>4</sat>
</trkpt>
<trkpt lat="48.318318333" lon="16.374781667">
<time>2012-06-16T18:59:15Z</time>
 <fix>2d</fix>
 <sat>4</sat>
</trkpt>
<trkpt lat="48.318308333" lon="16.374766667">
<time>2012-06-16T18:59:16Z</time>
 <fix>2d</fix>
 <sat>4</sat>
</trkpt>
<trkpt lat="48.318305000" lon="16.374751667">
<time>2012-06-16T18:59:17Z</time>
 <fix>2d</fix>
 <sat>4</sat>
</trkpt>
<trkpt lat="48.318306667" lon="16.374738333">
<time>2012-06-16T18:59:18Z</time>
 <fix>2d</fix>
 <sat>4</sat>
</trkpt>
<trkpt lat="48.318305000" lon="16.374716667">
<time>2012-06-16T18:59:19Z</time>
 <fix>2d</fix>
 <sat>4</sat>
</trkpt>
<trkpt lat="48.318318333" lon="16.374698333">
<time>2012-06-16T18:59:20Z</time>
 <fix>2d</fix>
 <sat>4</sat>
</trkpt>
<trkpt lat="48.318325000" lon="16.374676667">
<time>2012-06-16T18:59:21Z</time>
 <fix>2d</fix>
 <sat>4</sat>
</trkpt>
<trkpt lat="48.318331667" lon="16.374663333">
<time>2012-06-16T18:59:22Z</time>
 <fix>2d</fix>
 <sat>4</sat>
</trkpt>
<trkpt lat="48.318336667" lon="16.374641667">
<time>2012-06-16T18:59:23Z</time>
 <fix>2d</fix>
 <sat>4</sat>
</trkpt>
<trkpt lat="48.318336667" lon="16.374611667">
<time>2012-06-16T18:59:24Z</time>
 <fix>2d</fix>
 <sat>4</sat>
</trkpt>
<trkpt lat="48.318333333" lon="16.374573333">
<time>2012-06-16T18:59:25Z</time>
 <fix>2d</fix>
 <sat>4</sat>
</trkpt>
<trkpt lat="48.318336667" lon="16.374521667">
<time>2012-06-16T18:59:26Z</time>
 <fix>2d</fix>
 <sat>4</sat>
</trkpt>
<trkpt lat="48.318336667" lon="16.374491667">
<time>2012-06-16T18:59:27Z</time>
 <fix>2d</fix>
 <sat>4</sat>
</trkpt>
<trkpt lat="48.318338333" lon="16.374461667">
<time>2012-06-16T18:59:28Z</time>
 <fix>2d</fix>
 <sat>4</sat>
</trkpt>
<trkpt lat="48.318340000" lon="16.374426667">
<time>2012-06-16T18:59:29Z</time>
 <fix>2d</fix>
 <sat>4</sat>
</trkpt>
<trkpt lat="48.318355000" lon="16.374391667">
<time>2012-06-16T18:59:30Z</time>
 <fix>2d</fix>
 <sat>4</sat>
</trkpt>
<trkpt lat="48.318365000" lon="16.374355000">
<time>2012-06-16T18:59:31Z</time>
 <fix>2d</fix>
 <sat>4</sat>
</trkpt>
<trkpt lat="48.318376667" lon="16.374335000">
<time>2012-06-16T18:59:32Z</time>
 <fix>2d</fix>
 <sat>4</sat>
</trkpt>
<trkpt lat="48.318391667" lon="16.374300000">
<time>2012-06-16T18:59:33Z</time>
 <fix>2d</fix>
 <sat>4</sat>
</trkpt>
<trkpt lat="48.318408333" lon="16.374273333">
<time>2012-06-16T18:59:34Z</time>
 <fix>2d</fix>
 <sat>5</sat>
</trkpt>
<trkpt lat="48.318416667" lon="16.374245000">
<time>2012-06-16T18:59:35Z</time>
 <fix>2d</fix>
 <sat>5</sat>
</trkpt>
<trkpt lat="48.318430000" lon="16.374221667">
<time>2012-06-16T18:59:36Z</time>
 <fix>2d</fix>
 <sat>4</sat>
</trkpt>
<trkpt lat="48.318451667" lon="16.374201667">
<time>2012-06-16T18:59:37Z</time>
 <fix>2d</fix>
 <sat>5</sat>
</trkpt>
<trkpt lat="48.318460000" lon="16.374180000">
<time>2012-06-16T18:59:38Z</time>
 <fix>2d</fix>
 <sat>4</sat>
</trkpt>
<trkpt lat="48.318481667" lon="16.374158333">
<time>2012-06-16T18:59:39Z</time>
 <fix>2d</fix>
 <sat>4</sat>
</trkpt>
<trkpt lat="48.318500000" lon="16.374138333">
<time>2012-06-16T18:59:40Z</time>
 <fix>2d</fix>
 <sat>5</sat>
</trkpt>
<trkpt lat="48.318516667" lon="16.374118333">
<time>2012-06-16T18:59:41Z</time>
 <fix>2d</fix>
 <sat>4</sat>
</trkpt>
<trkpt lat="48.318540000" lon="16.374101667">
<time>2012-06-16T18:59:42Z</time>
 <fix>2d</fix>
 <sat>4</sat>
</trkpt>
<trkpt lat="48.318560000" lon="16.374090000">
<time>2012-06-16T18:59:43Z</time>
 <fix>2d</fix>
 <sat>4</sat>
</trkpt>
<trkpt lat="48.318590000" lon="16.374083333">
<time>2012-06-16T18:59:44Z</time>
 <fix>2d</fix>
 <sat>4</sat>
</trkpt>
<trkpt lat="48.318610000" lon="16.374070000">
<time>2012-06-16T18:59:45Z</time>
 <fix>2d</fix>
 <sat>4</sat>
</trkpt>
<trkpt lat="48.318625000" lon="16.374050000">
<time>2012-06-16T18:59:46Z</time>
 <fix>2d</fix>
 <sat>4</sat>
</trkpt>
<trkpt lat="48.318626667" lon="16.374025000">
<time>2012-06-16T18:59:47Z</time>
 <fix>2d</fix>
 <sat>4</sat>
</trkpt>
<trkpt lat="48.318630000" lon="16.374001667">
<time>2012-06-16T18:59:48Z</time>
 <fix>2d</fix>
 <sat>4</sat>
</trkpt>
<trkpt lat="48.318626667" lon="16.373973333">
<time>2012-06-16T18:59:49Z</time>
 <fix>2d</fix>
 <sat>4</sat>
</trkpt>
<trkpt lat="48.318620000" lon="16.373945000">
<time>2012-06-16T18:59:50Z</time>
 <fix>2d</fix>
 <sat>5</sat>
</trkpt>
<trkpt lat="48.318608333" lon="16.373908333">
<time>2012-06-16T18:59:51Z</time>
 <fix>2d</fix>
 <sat>5</sat>
</trkpt>
<trkpt lat="48.318595000" lon="16.373865000">
<time>2012-06-16T18:59:52Z</time>
 <fix>2d</fix>
 <sat>4</sat>
</trkpt>
<trkpt lat="48.318565000" lon="16.373821667">
<time>2012-06-16T18:59:53Z</time>
 <fix>2d</fix>
 <sat>4</sat>
</trkpt>
<trkpt lat="48.318548333" lon="16.373771667">
<time>2012-06-16T18:59:54Z</time>
 <fix>2d</fix>
 <sat>4</sat>
</trkpt>
<trkpt lat="48.318531667" lon="16.373723333">
<time>2012-06-16T18:59:55Z</time>
 <fix>2d</fix>
 <sat>4</sat>
</trkpt>
<trkpt lat="48.318538333" lon="16.373663333">
<time>2012-06-16T18:59:56Z</time>
 <fix>2d</fix>
 <sat>4</sat>
</trkpt>
<trkpt lat="48.318550000" lon="16.373611667">
<time>2012-06-16T18:59:57Z</time>
 <fix>2d</fix>
 <sat>4</sat>
</trkpt>
<trkpt lat="48.318571667" lon="16.373568333">
<time>2012-06-16T18:59:58Z</time>
 <fix>2d</fix>
 <sat>4</sat>
</trkpt>
<trkpt lat="48.318586667" lon="16.373533333">
<time>2012-06-16T18:59:59Z</time>
 <fix>2d</fix>
 <sat>4</sat>
</trkpt>
<trkpt lat="48.318598333" lon="16.373506667">
<time>2012-06-16T19:00:00Z</time>
 <fix>2d</fix>
 <sat>4</sat>
</trkpt>
<trkpt lat="48.318610000" lon="16.373483333">
<time>2012-06-16T19:00:01Z</time>
 <fix>2d</fix>
 <sat>4</sat>
</trkpt>
<trkpt lat="48.318623333" lon="16.373460000">
<time>2012-06-16T19:00:02Z</time>
 <fix>2d</fix>
 <sat>4</sat>
</trkpt>
<trkpt lat="48.318635000" lon="16.373433333">
<time>2012-06-16T19:00:03Z</time>
 <fix>2d</fix>
 <sat>4</sat>
</trkpt>
<trkpt lat="48.318638333" lon="16.373408333">
<time>2012-06-16T19:00:04Z</time>
 <fix>2d</fix>
 <sat>4</sat>
</trkpt>
<trkpt lat="48.318640000" lon="16.373381667">
<time>2012-06-16T19:00:05Z</time>
 <fix>2d</fix>
 <sat>4</sat>
</trkpt>
<trkpt lat="48.318650000" lon="16.373351667">
<time>2012-06-16T19:00:06Z</time>
 <fix>2d</fix>
 <sat>4</sat>
</trkpt>
<trkpt lat="48.318656667" lon="16.373323333">
<time>2012-06-16T19:00:07Z</time>
 <fix>2d</fix>
 <sat>4</sat>
</trkpt>
<trkpt lat="48.318663333" lon="16.373300000">
<time>2012-06-16T19:00:08Z</time>
 <fix>2d</fix>
 <sat>4</sat>
</trkpt>
<trkpt lat="48.318673333" lon="16.373271667">
<time>2012-06-16T19:00:09Z</time>
 <fix>2d</fix>
 <sat>4</sat>
</trkpt>
<trkpt lat="48.318681667" lon="16.373243333">
<time>2012-06-16T19:00:10Z</time>
 <fix>2d</fix>
 <sat>5</sat>
</trkpt>
<trkpt lat="48.318695000" lon="16.373216667">
<time>2012-06-16T19:00:11Z</time>
 <fix>2d</fix>
 <sat>5</sat>
</trkpt>
<trkpt lat="48.318706667" lon="16.373191667">
<time>2012-06-16T19:00:12Z</time>
 <fix>2d</fix>
 <sat>5</sat>
</trkpt>
<trkpt lat="48.318711667" lon="16.373161667">
<time>2012-06-16T19:00:13Z</time>
 <fix>2d</fix>
 <sat>5</sat>
</trkpt>
<trkpt lat="48.318720000" lon="16.373133333">
<time>2012-06-16T19:00:14Z</time>
 <fix>2d</fix>
 <sat>5</sat>
</trkpt>
<trkpt lat="48.318723333" lon="16.373113333">
<time>2012-06-16T19:00:15Z</time>
 <fix>2d</fix>
 <sat>5</sat>
</trkpt>
<trkpt lat="48.318723333" lon="16.373086667">
<time>2012-06-16T19:00:16Z</time>
 <fix>2d</fix>
 <sat>5</sat>
</trkpt>
<trkpt lat="48.318726667" lon="16.373053333">
<time>2012-06-16T19:00:17Z</time>
 <fix>2d</fix>
 <sat>5</sat>
</trkpt>
<trkpt lat="48.318733333" lon="16.373030000">
<time>2012-06-16T19:00:18Z</time>
 <fix>2d</fix>
 <sat>5</sat>
</trkpt>
<trkpt lat="48.318736667" lon="16.373005000">
<time>2012-06-16T19:00:19Z</time>
 <fix>2d</fix>
 <sat>5</sat>
</trkpt>
<trkpt lat="48.318743333" lon="16.372978333">
<time>2012-06-16T19:00:20Z</time>
 <fix>2d</fix>
 <sat>5</sat>
</trkpt>
<trkpt lat="48.318746667" lon="16.372943333">
<time>2012-06-16T19:00:21Z</time>
 <fix>2d</fix>
 <sat>5</sat>
</trkpt>
<trkpt lat="48.318746667" lon="16.372915000">
<time>2012-06-16T19:00:22Z</time>
 <fix>2d</fix>
 <sat>5</sat>
</trkpt>
<trkpt lat="48.318746667" lon="16.372888333">
<time>2012-06-16T19:00:23Z</time>
 <fix>2d</fix>
 <sat>5</sat>
</trkpt>
<trkpt lat="48.318748333" lon="16.372868333">
<time>2012-06-16T19:00:24Z</time>
 <fix>2d</fix>
 <sat>5</sat>
</trkpt>
<trkpt lat="48.318753333" lon="16.372843333">
<time>2012-06-16T19:00:25Z</time>
 <fix>2d</fix>
 <sat>5</sat>
</trkpt>
<trkpt lat="48.318760000" lon="16.372813333">
<time>2012-06-16T19:00:26Z</time>
 <fix>2d</fix>
 <sat>5</sat>
</trkpt>
<trkpt lat="48.318766667" lon="16.372793333">
<time>2012-06-16T19:00:27Z</time>
 <fix>2d</fix>
 <sat>5</sat>
</trkpt>
<trkpt lat="48.318771667" lon="16.372775000">
<time>2012-06-16T19:00:28Z</time>
 <fix>2d</fix>
 <sat>4</sat>
</trkpt>
<trkpt lat="48.318781667" lon="16.372753333">
<time>2012-06-16T19:00:29Z</time>
 <fix>2d</fix>
 <sat>5</sat>
</trkpt>
<trkpt lat="48.318786667" lon="16.372730000">
<time>2012-06-16T19:00:30Z</time>
 <fix>2d</fix>
 <sat>5</sat>
</trkpt>
<trkpt lat="48.318788333" lon="16.372710000">
<time>2012-06-16T19:00:31Z</time>
 <fix>2d</fix>
 <sat>5</sat>
</trkpt>
<trkpt lat="48.318793333" lon="16.372686667">
<time>2012-06-16T19:00:32Z</time>
 <fix>2d</fix>
 <sat>5</sat>
</trkpt>
<trkpt lat="48.318798333" lon="16.372673333">
<time>2012-06-16T19:00:33Z</time>
 <fix>2d</fix>
 <sat>5</sat>
</trkpt>
<trkpt lat="48.318803333" lon="16.372660000">
<time>2012-06-16T19:00:34Z</time>
 <fix>2d</fix>
 <sat>5</sat>
</trkpt>
<trkpt lat="48.318805000" lon="16.372648333">
<time>2012-06-16T19:00:35Z</time>
 <fix>2d</fix>
 <sat>5</sat>
</trkpt>
<trkpt lat="48.318810000" lon="16.372631667">
<time>2012-06-16T19:00:36Z</time>
 <fix>2d</fix>
 <sat>5</sat>
</trkpt>
<trkpt lat="48.318818333" lon="16.372611667">
<time>2012-06-16T19:00:37Z</time>
 <fix>2d</fix>
 <sat>5</sat>
</trkpt>
<trkpt lat="48.318826667" lon="16.372590000">
<time>2012-06-16T19:00:38Z</time>
 <fix>2d</fix>
 <sat>5</sat>
</trkpt>
<trkpt lat="48.318835000" lon="16.372573333">
<time>2012-06-16T19:00:39Z</time>
 <fix>2d</fix>
 <sat>5</sat>
</trkpt>
<trkpt lat="48.318846667" lon="16.372556667">
<time>2012-06-16T19:00:40Z</time>
 <fix>2d</fix>
 <sat>5</sat>
</trkpt>
<trkpt lat="48.318865000" lon="16.372546667">
<time>2012-06-16T19:00:41Z</time>
 <fix>2d</fix>
 <sat>5</sat>
</trkpt>
<trkpt lat="48.318883333" lon="16.372531667">
<time>2012-06-16T19:00:42Z</time>
 <fix>2d</fix>
 <sat>4</sat>
</trkpt>
<trkpt lat="48.318895000" lon="16.372511667">
<time>2012-06-16T19:00:43Z</time>
 <fix>2d</fix>
 <sat>4</sat>
</trkpt>
<trkpt lat="48.318901667" lon="16.372488333">
<time>2012-06-16T19:00:44Z</time>
 <fix>2d</fix>
 <sat>4</sat>
</trkpt>
<trkpt lat="48.318908333" lon="16.372453333">
<time>2012-06-16T19:00:45Z</time>
 <fix>2d</fix>
 <sat>4</sat>
</trkpt>
<trkpt lat="48.318916667" lon="16.372423333">
<time>2012-06-16T19:00:46Z</time>
 <fix>2d</fix>
 <sat>5</sat>
</trkpt>
<trkpt lat="48.318928333" lon="16.372400000">
<time>2012-06-16T19:00:47Z</time>
 <fix>2d</fix>
 <sat>5</sat>
</trkpt>
<trkpt lat="48.318941667" lon="16.372378333">
<time>2012-06-16T19:00:48Z</time>
 <fix>2d</fix>
 <sat>5</sat>
</trkpt>
<trkpt lat="48.318956667" lon="16.372366667">
<time>2012-06-16T19:00:49Z</time>
 <fix>2d</fix>
 <sat>5</sat>
</trkpt>
<trkpt lat="48.318971667" lon="16.372350000">
<time>2012-06-16T19:00:50Z</time>
 <fix>2d</fix>
 <sat>5</sat>
</trkpt>
<trkpt lat="48.318981667" lon="16.372326667">
<time>2012-06-16T19:00:51Z</time>
 <fix>2d</fix>
 <sat>5</sat>
</trkpt>
<trkpt lat="48.318993333" lon="16.372313333">
<time>2012-06-16T19:00:52Z</time>
 <fix>2d</fix>
 <sat>5</sat>
</trkpt>
<trkpt lat="48.319005000" lon="16.372301667">
<time>2012-06-16T19:00:53Z</time>
 <fix>2d</fix>
 <sat>5</sat>
</trkpt>
<trkpt lat="48.319018333" lon="16.372291667">
<time>2012-06-16T19:00:54Z</time>
 <fix>2d</fix>
 <sat>5</sat>
</trkpt>
<trkpt lat="48.319028333" lon="16.372278333">
<time>2012-06-16T19:00:55Z</time>
 <fix>2d</fix>
 <sat>5</sat>
</trkpt>
<trkpt lat="48.319040000" lon="16.372263333">
<time>2012-06-16T19:00:56Z</time>
 <fix>2d</fix>
 <sat>5</sat>
</trkpt>
<trkpt lat="48.319051667" lon="16.372240000">
<time>2012-06-16T19:00:57Z</time>
 <fix>2d</fix>
 <sat>5</sat>
</trkpt>
<trkpt lat="48.319063333" lon="16.372228333">
<time>2012-06-16T19:00:58Z</time>
 <fix>2d</fix>
 <sat>5</sat>
</trkpt>
<trkpt lat="48.319076667" lon="16.372220000">
<time>2012-06-16T19:00:59Z</time>
 <fix>2d</fix>
 <sat>5</sat>
</trkpt>
<trkpt lat="48.319086667" lon="16.372211667">
<time>2012-06-16T19:01:00Z</time>
 <fix>2d</fix>
 <sat>5</sat>
</trkpt>
<trkpt lat="48.319095000" lon="16.372198333">
<time>2012-06-16T19:01:01Z</time>
 <fix>2d</fix>
 <sat>5</sat>
</trkpt>
<trkpt lat="48.319105000" lon="16.372191667">
<time>2012-06-16T19:01:02Z</time>
 <fix>2d</fix>
 <sat>5</sat>
</trkpt>
<trkpt lat="48.319115000" lon="16.372183333">
<time>2012-06-16T19:01:03Z</time>
 <fix>2d</fix>
 <sat>5</sat>
</trkpt>
<trkpt lat="48.319133333" lon="16.372175000">
<time>2012-06-16T19:01:04Z</time>
 <fix>2d</fix>
 <sat>5</sat>
</trkpt>
<trkpt lat="48.319146667" lon="16.372160000">
<time>2012-06-16T19:01:05Z</time>
 <fix>2d</fix>
 <sat>5</sat>
</trkpt>
<trkpt lat="48.319156667" lon="16.372148333">
<time>2012-06-16T19:01:06Z</time>
 <fix>2d</fix>
 <sat>5</sat>
</trkpt>
<trkpt lat="48.319170000" lon="16.372136667">
<time>2012-06-16T19:01:07Z</time>
 <fix>2d</fix>
 <sat>5</sat>
</trkpt>
<trkpt lat="48.319188333" lon="16.372125000">
<time>2012-06-16T19:01:08Z</time>
 <fix>2d</fix>
 <sat>5</sat>
</trkpt>
<trkpt lat="48.319196667" lon="16.372116667">
<time>2012-06-16T19:01:09Z</time>
 <fix>2d</fix>
 <sat>5</sat>
</trkpt>
<trkpt lat="48.319208333" lon="16.372108333">
<time>2012-06-16T19:01:10Z</time>
 <fix>2d</fix>
 <sat>5</sat>
</trkpt>
<trkpt lat="48.319218333" lon="16.372100000">
<time>2012-06-16T19:01:11Z</time>
 <fix>2d</fix>
 <sat>5</sat>
</trkpt>
<trkpt lat="48.319228333" lon="16.372091667">
<time>2012-06-16T19:01:12Z</time>
 <fix>2d</fix>
 <sat>5</sat>
</trkpt>
<trkpt lat="48.319238333" lon="16.372083333">
<time>2012-06-16T19:01:13Z</time>
 <fix>2d</fix>
 <sat>5</sat>
</trkpt>
<trkpt lat="48.319251667" lon="16.372073333">
<time>2012-06-16T19:01:14Z</time>
 <fix>2d</fix>
 <sat>5</sat>
</trkpt>
<trkpt lat="48.319261667" lon="16.372066667">
<time>2012-06-16T19:01:15Z</time>
 <fix>2d</fix>
 <sat>5</sat>
</trkpt>
<trkpt lat="48.319275000" lon="16.372050000">
<time>2012-06-16T19:01:16Z</time>
 <fix>2d</fix>
 <sat>5</sat>
</trkpt>
<trkpt lat="48.319286667" lon="16.372030000">
<time>2012-06-16T19:01:17Z</time>
 <fix>2d</fix>
 <sat>5</sat>
</trkpt>
<trkpt lat="48.319300000" lon="16.372013333">
<time>2012-06-16T19:01:18Z</time>
 <fix>2d</fix>
 <sat>5</sat>
</trkpt>
<trkpt lat="48.319313333" lon="16.372003333">
<time>2012-06-16T19:01:19Z</time>
 <fix>2d</fix>
 <sat>5</sat>
</trkpt>
<trkpt lat="48.319325000" lon="16.371986667">
<time>2012-06-16T19:01:20Z</time>
 <fix>2d</fix>
 <sat>5</sat>
</trkpt>
<trkpt lat="48.319335000" lon="16.371975000">
<time>2012-06-16T19:01:21Z</time>
 <fix>2d</fix>
 <sat>5</sat>
</trkpt>
<trkpt lat="48.319345000" lon="16.371958333">
<time>2012-06-16T19:01:22Z</time>
 <fix>2d</fix>
 <sat>5</sat>
</trkpt>
<trkpt lat="48.319355000" lon="16.371941667">
<time>2012-06-16T19:01:23Z</time>
 <fix>2d</fix>
 <sat>5</sat>
</trkpt>
<trkpt lat="48.319366667" lon="16.371930000">
<time>2012-06-16T19:01:24Z</time>
 <fix>2d</fix>
 <sat>5</sat>
</trkpt>
<trkpt lat="48.319378333" lon="16.371921667">
<time>2012-06-16T19:01:25Z</time>
 <fix>2d</fix>
 <sat>5</sat>
</trkpt>
<trkpt lat="48.319388333" lon="16.371911667">
<time>2012-06-16T19:01:26Z</time>
 <fix>2d</fix>
 <sat>5</sat>
</trkpt>
<trkpt lat="48.319401667" lon="16.371900000">
<time>2012-06-16T19:01:27Z</time>
 <fix>2d</fix>
 <sat>5</sat>
</trkpt>
<trkpt lat="48.319411667" lon="16.371891667">
<time>2012-06-16T19:01:28Z</time>
 <fix>2d</fix>
 <sat>5</sat>
</trkpt>
<trkpt lat="48.319420000" lon="16.371881667">
<time>2012-06-16T19:01:29Z</time>
 <fix>2d</fix>
 <sat>5</sat>
</trkpt>
<trkpt lat="48.319428333" lon="16.371871667">
<time>2012-06-16T19:01:30Z</time>
 <fix>2d</fix>
 <sat>5</sat>
</trkpt>
<trkpt lat="48.319440000" lon="16.371863333">
<time>2012-06-16T19:01:31Z</time>
 <fix>2d</fix>
 <sat>5</sat>
</trkpt>
<trkpt lat="48.319446667" lon="16.371855000">
<time>2012-06-16T19:01:32Z</time>
 <fix>2d</fix>
 <sat>5</sat>
</trkpt>
<trkpt lat="48.319453333" lon="16.371846667">
<time>2012-06-16T19:01:33Z</time>
 <fix>2d</fix>
 <sat>5</sat>
</trkpt>
<trkpt lat="48.319465000" lon="16.371835000">
<time>2012-06-16T19:01:34Z</time>
 <fix>2d</fix>
 <sat>5</sat>
</trkpt>
<trkpt lat="48.319476667" lon="16.371825000">
<time>2012-06-16T19:01:35Z</time>
 <fix>2d</fix>
 <sat>5</sat>
</trkpt>
<trkpt lat="48.319486667" lon="16.371813333">
<time>2012-06-16T19:01:36Z</time>
 <fix>2d</fix>
 <sat>5</sat>
</trkpt>
<trkpt lat="48.319498333" lon="16.371803333">
<time>2012-06-16T19:01:37Z</time>
 <fix>2d</fix>
 <sat>5</sat>
</trkpt>
<trkpt lat="48.319505000" lon="16.371790000">
<time>2012-06-16T19:01:38Z</time>
 <fix>2d</fix>
 <sat>5</sat>
</trkpt>
<trkpt lat="48.319511667" lon="16.371768333">
<time>2012-06-16T19:01:39Z</time>
 <fix>2d</fix>
 <sat>5</sat>
</trkpt>
<trkpt lat="48.319521667" lon="16.371760000">
<time>2012-06-16T19:01:40Z</time>
 <fix>2d</fix>
 <sat>5</sat>
</trkpt>
<trkpt lat="48.319533333" lon="16.371748333">
<time>2012-06-16T19:01:41Z</time>
 <fix>2d</fix>
 <sat>5</sat>
</trkpt>
<trkpt lat="48.319548333" lon="16.371733333">
<time>2012-06-16T19:01:42Z</time>
 <fix>2d</fix>
 <sat>5</sat>
</trkpt>
<trkpt lat="48.319558333" lon="16.371710000">
<time>2012-06-16T19:01:43Z</time>
 <fix>2d</fix>
 <sat>5</sat>
</trkpt>
<trkpt lat="48.319570000" lon="16.371691667">
<time>2012-06-16T19:01:44Z</time>
 <fix>2d</fix>
 <sat>5</sat>
</trkpt>
<trkpt lat="48.319576667" lon="16.371681667">
<time>2012-06-16T19:01:45Z</time>
 <fix>2d</fix>
 <sat>5</sat>
</trkpt>
<trkpt lat="48.319585000" lon="16.371675000">
<time>2012-06-16T19:01:46Z</time>
 <fix>2d</fix>
 <sat>5</sat>
</trkpt>
<trkpt lat="48.319598333" lon="16.371665000">
<time>2012-06-16T19:01:47Z</time>
 <fix>2d</fix>
 <sat>5</sat>
</trkpt>
<trkpt lat="48.319606667" lon="16.371663333">
<time>2012-06-16T19:01:48Z</time>
 <fix>2d</fix>
 <sat>5</sat>
</trkpt>
<trkpt lat="48.319615000" lon="16.371656667">
<time>2012-06-16T19:01:49Z</time>
 <fix>2d</fix>
 <sat>5</sat>
</trkpt>
<trkpt lat="48.319623333" lon="16.371646667">
<time>2012-06-16T19:01:50Z</time>
 <fix>2d</fix>
 <sat>5</sat>
</trkpt>
<trkpt lat="48.319633333" lon="16.371640000">
<time>2012-06-16T19:01:51Z</time>
 <fix>2d</fix>
 <sat>5</sat>
</trkpt>
<trkpt lat="48.319640000" lon="16.371628333">
<time>2012-06-16T19:01:52Z</time>
 <fix>2d</fix>
 <sat>5</sat>
</trkpt>
<trkpt lat="48.319646667" lon="16.371610000">
<time>2012-06-16T19:01:53Z</time>
 <fix>2d</fix>
 <sat>5</sat>
</trkpt>
<trkpt lat="48.319656667" lon="16.371605000">
<time>2012-06-16T19:01:54Z</time>
 <fix>2d</fix>
 <sat>5</sat>
</trkpt>
<trkpt lat="48.319668333" lon="16.371590000">
<time>2012-06-16T19:01:55Z</time>
 <fix>2d</fix>
 <sat>5</sat>
</trkpt>
<trkpt lat="48.319678333" lon="16.371583333">
<time>2012-06-16T19:01:56Z</time>
 <fix>2d</fix>
 <sat>5</sat>
</trkpt>
<trkpt lat="48.319691667" lon="16.371575000">
<time>2012-06-16T19:01:57Z</time>
 <fix>2d</fix>
 <sat>5</sat>
</trkpt>
<trkpt lat="48.319703333" lon="16.371563333">
<time>2012-06-16T19:01:58Z</time>
 <fix>2d</fix>
 <sat>5</sat>
</trkpt>
<trkpt lat="48.319716667" lon="16.371551667">
<time>2012-06-16T19:01:59Z</time>
 <fix>2d</fix>
 <sat>5</sat>
</trkpt>
<trkpt lat="48.319730000" lon="16.371541667">
<time>2012-06-16T19:02:00Z</time>
 <fix>2d</fix>
 <sat>5</sat>
</trkpt>
<trkpt lat="48.319740000" lon="16.371535000">
<time>2012-06-16T19:02:01Z</time>
 <fix>2d</fix>
 <sat>5</sat>
</trkpt>
<trkpt lat="48.319748333" lon="16.371525000">
<time>2012-06-16T19:02:02Z</time>
 <fix>2d</fix>
 <sat>5</sat>
</trkpt>
<trkpt lat="48.319755000" lon="16.371515000">
<time>2012-06-16T19:02:03Z</time>
 <fix>2d</fix>
 <sat>5</sat>
</trkpt>
<trkpt lat="48.319763333" lon="16.371498333">
<time>2012-06-16T19:02:04Z</time>
 <fix>2d</fix>
 <sat>5</sat>
</trkpt>
<trkpt lat="48.319776667" lon="16.371488333">
<time>2012-06-16T19:02:05Z</time>
 <fix>2d</fix>
 <sat>5</sat>
</trkpt>
<trkpt lat="48.319785000" lon="16.371475000">
<time>2012-06-16T19:02:06Z</time>
 <fix>2d</fix>
 <sat>5</sat>
</trkpt>
<trkpt lat="48.319795000" lon="16.371466667">
<time>2012-06-16T19:02:07Z</time>
 <fix>2d</fix>
 <sat>5</sat>
</trkpt>
<trkpt lat="48.319806667" lon="16.371456667">
<time>2012-06-16T19:02:08Z</time>
 <fix>2d</fix>
 <sat>5</sat>
</trkpt>
<trkpt lat="48.319816667" lon="16.371436667">
<time>2012-06-16T19:02:09Z</time>
 <fix>2d</fix>
 <sat>5</sat>
</trkpt>
<trkpt lat="48.319828333" lon="16.371410000">
<time>2012-06-16T19:02:10Z</time>
 <fix>2d</fix>
 <sat>5</sat>
</trkpt>
<trkpt lat="48.319838333" lon="16.371388333">
<time>2012-06-16T19:02:11Z</time>
 <fix>2d</fix>
 <sat>5</sat>
</trkpt>
<trkpt lat="48.319848333" lon="16.371373333">
<time>2012-06-16T19:02:12Z</time>
 <fix>2d</fix>
 <sat>5</sat>
</trkpt>
<trkpt lat="48.319860000" lon="16.371353333">
<time>2012-06-16T19:02:13Z</time>
 <fix>2d</fix>
 <sat>5</sat>
</trkpt>
<trkpt lat="48.319871667" lon="16.371336667">
<time>2012-06-16T19:02:14Z</time>
 <fix>2d</fix>
 <sat>5</sat>
</trkpt>
<trkpt lat="48.319881667" lon="16.371328333">
<time>2012-06-16T19:02:15Z</time>
 <fix>2d</fix>
 <sat>5</sat>
</trkpt>
<trkpt lat="48.319893333" lon="16.371321667">
<time>2012-06-16T19:02:16Z</time>
 <fix>2d</fix>
 <sat>5</sat>
</trkpt>
<trkpt lat="48.319906667" lon="16.371313333">
<time>2012-06-16T19:02:17Z</time>
 <fix>2d</fix>
 <sat>5</sat>
</trkpt>
<trkpt lat="48.319916667" lon="16.371306667">
<time>2012-06-16T19:02:18Z</time>
 <fix>2d</fix>
 <sat>5</sat>
</trkpt>
<trkpt lat="48.319926667" lon="16.371295000">
<time>2012-06-16T19:02:19Z</time>
 <fix>2d</fix>
 <sat>5</sat>
</trkpt>
<trkpt lat="48.319936667" lon="16.371285000">
<time>2012-06-16T19:02:20Z</time>
 <fix>2d</fix>
 <sat>5</sat>
</trkpt>
<trkpt lat="48.319955000" lon="16.371276667">
<time>2012-06-16T19:02:21Z</time>
 <fix>2d</fix>
 <sat>5</sat>
</trkpt>
<trkpt lat="48.319968333" lon="16.371265000">
<time>2012-06-16T19:02:22Z</time>
 <fix>2d</fix>
 <sat>5</sat>
</trkpt>
<trkpt lat="48.319975000" lon="16.371250000">
<time>2012-06-16T19:02:23Z</time>
 <fix>2d</fix>
 <sat>5</sat>
</trkpt>
<trkpt lat="48.319983333" lon="16.371236667">
<time>2012-06-16T19:02:24Z</time>
 <fix>2d</fix>
 <sat>5</sat>
</trkpt>
<trkpt lat="48.319991667" lon="16.371225000">
<time>2012-06-16T19:02:25Z</time>
 <fix>2d</fix>
 <sat>5</sat>
</trkpt>
<trkpt lat="48.320003333" lon="16.371213333">
<time>2012-06-16T19:02:26Z</time>
 <fix>2d</fix>
 <sat>5</sat>
</trkpt>
<trkpt lat="48.320015000" lon="16.371198333">
<time>2012-06-16T19:02:27Z</time>
 <fix>2d</fix>
 <sat>5</sat>
</trkpt>
<trkpt lat="48.320020000" lon="16.371186667">
<time>2012-06-16T19:02:28Z</time>
 <fix>2d</fix>
 <sat>5</sat>
</trkpt>
<trkpt lat="48.320033333" lon="16.371175000">
<time>2012-06-16T19:02:29Z</time>
 <fix>2d</fix>
 <sat>5</sat>
</trkpt>
<trkpt lat="48.320038333" lon="16.371156667">
<time>2012-06-16T19:02:30Z</time>
 <fix>2d</fix>
 <sat>5</sat>
</trkpt>
<trkpt lat="48.320043333" lon="16.371140000">
<time>2012-06-16T19:02:31Z</time>
 <fix>2d</fix>
 <sat>5</sat>
</trkpt>
<trkpt lat="48.320048333" lon="16.371131667">
<time>2012-06-16T19:02:32Z</time>
 <fix>2d</fix>
 <sat>5</sat>
</trkpt>
<trkpt lat="48.320063333" lon="16.371115000">
<time>2012-06-16T19:02:33Z</time>
 <fix>2d</fix>
 <sat>5</sat>
</trkpt>
<trkpt lat="48.320075000" lon="16.371096667">
<time>2012-06-16T19:02:34Z</time>
 <fix>2d</fix>
 <sat>5</sat>
</trkpt>
<trkpt lat="48.320088333" lon="16.371076667">
<time>2012-06-16T19:02:35Z</time>
 <fix>2d</fix>
 <sat>5</sat>
</trkpt>
<trkpt lat="48.320090000" lon="16.371056667">
<time>2012-06-16T19:02:36Z</time>
 <fix>2d</fix>
 <sat>5</sat>
</trkpt>
<trkpt lat="48.320093333" lon="16.371033333">
<time>2012-06-16T19:02:37Z</time>
 <fix>2d</fix>
 <sat>5</sat>
</trkpt>
<trkpt lat="48.320101667" lon="16.371013333">
<time>2012-06-16T19:02:38Z</time>
 <fix>2d</fix>
 <sat>5</sat>
</trkpt>
<trkpt lat="48.320110000" lon="16.371001667">
<time>2012-06-16T19:02:39Z</time>
 <fix>2d</fix>
 <sat>5</sat>
</trkpt>
<trkpt lat="48.320118333" lon="16.370988333">
<time>2012-06-16T19:02:40Z</time>
 <fix>2d</fix>
 <sat>5</sat>
</trkpt>
<trkpt lat="48.320131667" lon="16.370976667">
<time>2012-06-16T19:02:41Z</time>
 <fix>2d</fix>
 <sat>5</sat>
</trkpt>
<trkpt lat="48.320141667" lon="16.370961667">
<time>2012-06-16T19:02:42Z</time>
 <fix>2d</fix>
 <sat>5</sat>
</trkpt>
<trkpt lat="48.320145000" lon="16.370945000">
<time>2012-06-16T19:02:43Z</time>
 <fix>2d</fix>
 <sat>5</sat>
</trkpt>
<trkpt lat="48.320151667" lon="16.370935000">
<time>2012-06-16T19:02:44Z</time>
 <fix>2d</fix>
 <sat>5</sat>
</trkpt>
<trkpt lat="48.320151667" lon="16.370925000">
<time>2012-06-16T19:02:45Z</time>
 <fix>2d</fix>
 <sat>5</sat>
</trkpt>
<trkpt lat="48.320161667" lon="16.370908333">
<time>2012-06-16T19:02:46Z</time>
 <fix>2d</fix>
 <sat>5</sat>
</trkpt>
<trkpt lat="48.320166667" lon="16.370886667">
<time>2012-06-16T19:02:47Z</time>
 <fix>2d</fix>
 <sat>5</sat>
</trkpt>
<trkpt lat="48.320171667" lon="16.370863333">
<time>2012-06-16T19:02:48Z</time>
 <fix>2d</fix>
 <sat>5</sat>
</trkpt>
<trkpt lat="48.320176667" lon="16.370845000">
<time>2012-06-16T19:02:49Z</time>
 <fix>2d</fix>
 <sat>5</sat>
</trkpt>
<trkpt lat="48.320180000" lon="16.370821667">
<time>2012-06-16T19:02:50Z</time>
 <fix>2d</fix>
 <sat>5</sat>
</trkpt>
<trkpt lat="48.320176667" lon="16.370800000">
<time>2012-06-16T19:02:51Z</time>
 <fix>2d</fix>
 <sat>5</sat>
</trkpt>
<trkpt lat="48.320176667" lon="16.370776667">
<time>2012-06-16T19:02:52Z</time>
 <fix>2d</fix>
 <sat>5</sat>
</trkpt>
<trkpt lat="48.320180000" lon="16.370755000">
<time>2012-06-16T19:02:53Z</time>
 <fix>2d</fix>
 <sat>5</sat>
</trkpt>
<trkpt lat="48.320185000" lon="16.370736667">
<time>2012-06-16T19:02:54Z</time>
 <fix>2d</fix>
 <sat>5</sat>
</trkpt>
<trkpt lat="48.320190000" lon="16.370720000">
<time>2012-06-16T19:02:55Z</time>
 <fix>2d</fix>
 <sat>5</sat>
</trkpt>
<trkpt lat="48.320200000" lon="16.370696667">
<time>2012-06-16T19:02:56Z</time>
 <fix>2d</fix>
 <sat>5</sat>
</trkpt>
<trkpt lat="48.320208333" lon="16.370676667">
<time>2012-06-16T19:02:57Z</time>
 <fix>2d</fix>
 <sat>5</sat>
</trkpt>
<trkpt lat="48.320213333" lon="16.370650000">
<time>2012-06-16T19:02:58Z</time>
 <fix>2d</fix>
 <sat>5</sat>
</trkpt>
<trkpt lat="48.320218333" lon="16.370628333">
<time>2012-06-16T19:02:59Z</time>
 <fix>2d</fix>
 <sat>5</sat>
</trkpt>
<trkpt lat="48.320223333" lon="16.370608333">
<time>2012-06-16T19:03:00Z</time>
 <fix>2d</fix>
 <sat>5</sat>
</trkpt>
<trkpt lat="48.320230000" lon="16.370586667">
<time>2012-06-16T19:03:01Z</time>
 <fix>2d</fix>
 <sat>5</sat>
</trkpt>
<trkpt lat="48.320233333" lon="16.370563333">
<time>2012-06-16T19:03:02Z</time>
 <fix>2d</fix>
 <sat>5</sat>
</trkpt>
<trkpt lat="48.320245000" lon="16.370545000">
<time>2012-06-16T19:03:03Z</time>
 <fix>2d</fix>
 <sat>5</sat>
</trkpt>
<trkpt lat="48.320258333" lon="16.370523333">
<time>2012-06-16T19:03:04Z</time>
 <fix>2d</fix>
 <sat>5</sat>
</trkpt>
<trkpt lat="48.320263333" lon="16.370501667">
<time>2012-06-16T19:03:05Z</time>
 <fix>2d</fix>
 <sat>5</sat>
</trkpt>
<trkpt lat="48.320271667" lon="16.370471667">
<time>2012-06-16T19:03:06Z</time>
 <fix>2d</fix>
 <sat>5</sat>
</trkpt>
<trkpt lat="48.320285000" lon="16.370438333">
<time>2012-06-16T19:03:07Z</time>
 <fix>2d</fix>
 <sat>5</sat>
</trkpt>
<trkpt lat="48.320298333" lon="16.370403333">
<time>2012-06-16T19:03:08Z</time>
 <fix>2d</fix>
 <sat>5</sat>
</trkpt>
<trkpt lat="48.320306667" lon="16.370373333">
<time>2012-06-16T19:03:09Z</time>
 <fix>2d</fix>
 <sat>5</sat>
</trkpt>
<trkpt lat="48.320311667" lon="16.370340000">
<time>2012-06-16T19:03:10Z</time>
 <fix>2d</fix>
 <sat>5</sat>
</trkpt>
<trkpt lat="48.320321667" lon="16.370308333">
<time>2012-06-16T19:03:11Z</time>
 <fix>2d</fix>
 <sat>5</sat>
</trkpt>
<trkpt lat="48.320330000" lon="16.370280000">
<time>2012-06-16T19:03:12Z</time>
 <fix>2d</fix>
 <sat>5</sat>
</trkpt>
<trkpt lat="48.320338333" lon="16.370250000">
<time>2012-06-16T19:03:13Z</time>
 <fix>2d</fix>
 <sat>5</sat>
</trkpt>
<trkpt lat="48.320353333" lon="16.370228333">
<time>2012-06-16T19:03:14Z</time>
 <fix>2d</fix>
 <sat>4</sat>
</trkpt>
<trkpt lat="48.320360000" lon="16.370195000">
<time>2012-06-16T19:03:15Z</time>
 <fix>2d</fix>
 <sat>5</sat>
</trkpt>
<trkpt lat="48.320370000" lon="16.370166667">
<time>2012-06-16T19:03:16Z</time>
 <fix>2d</fix>
 <sat>5</sat>
</trkpt>
<trkpt lat="48.320368333" lon="16.370136667">
<time>2012-06-16T19:03:17Z</time>
 <fix>2d</fix>
 <sat>5</sat>
</trkpt>
<trkpt lat="48.320378333" lon="16.370103333">
<time>2012-06-16T19:03:18Z</time>
 <fix>2d</fix>
 <sat>5</sat>
</trkpt>
<trkpt lat="48.320388333" lon="16.370068333">
<time>2012-06-16T19:03:19Z</time>
 <fix>2d</fix>
 <sat>5</sat>
</trkpt>
<trkpt lat="48.320398333" lon="16.370033333">
<time>2012-06-16T19:03:20Z</time>
 <fix>2d</fix>
 <sat>5</sat>
</trkpt>
<trkpt lat="48.320408333" lon="16.369986667">
<time>2012-06-16T19:03:21Z</time>
 <fix>2d</fix>
 <sat>5</sat>
</trkpt>
<trkpt lat="48.320420000" lon="16.369946667">
<time>2012-06-16T19:03:22Z</time>
 <fix>2d</fix>
 <sat>5</sat>
</trkpt>
<trkpt lat="48.320433333" lon="16.369913333">
<time>2012-06-16T19:03:23Z</time>
 <fix>2d</fix>
 <sat>5</sat>
</trkpt>
<trkpt lat="48.320450000" lon="16.369881667">
<time>2012-06-16T19:03:24Z</time>
 <fix>2d</fix>
 <sat>5</sat>
</trkpt>
<trkpt lat="48.320456667" lon="16.369855000">
<time>2012-06-16T19:03:25Z</time>
 <fix>2d</fix>
 <sat>5</sat>
</trkpt>
<trkpt lat="48.320473333" lon="16.369825000">
<time>2012-06-16T19:03:26Z</time>
 <fix>2d</fix>
 <sat>5</sat>
</trkpt>
<trkpt lat="48.320491667" lon="16.369796667">
<time>2012-06-16T19:03:27Z</time>
 <fix>2d</fix>
 <sat>5</sat>
</trkpt>
<trkpt lat="48.320496667" lon="16.369773333">
<time>2012-06-16T19:03:28Z</time>
 <fix>2d</fix>
 <sat>5</sat>
</trkpt>
<trkpt lat="48.320513333" lon="16.369743333">
<time>2012-06-16T19:03:29Z</time>
 <fix>2d</fix>
 <sat>5</sat>
</trkpt>
<trkpt lat="48.320525000" lon="16.369710000">
<time>2012-06-16T19:03:30Z</time>
 <fix>2d</fix>
 <sat>5</sat>
</trkpt>
<trkpt lat="48.320535000" lon="16.369676667">
<time>2012-06-16T19:03:31Z</time>
 <fix>2d</fix>
 <sat>5</sat>
</trkpt>
<trkpt lat="48.320548333" lon="16.369646667">
<time>2012-06-16T19:03:32Z</time>
 <fix>2d</fix>
 <sat>5</sat>
</trkpt>
<trkpt lat="48.320556667" lon="16.369611667">
<time>2012-06-16T19:03:33Z</time>
 <fix>2d</fix>
 <sat>5</sat>
</trkpt>
<trkpt lat="48.320566667" lon="16.369578333">
<time>2012-06-16T19:03:34Z</time>
 <fix>2d</fix>
 <sat>5</sat>
</trkpt>
<trkpt lat="48.320571667" lon="16.369531667">
<time>2012-06-16T19:03:35Z</time>
 <fix>2d</fix>
 <sat>5</sat>
</trkpt>
<trkpt lat="48.320588333" lon="16.369481667">
<time>2012-06-16T19:03:36Z</time>
 <fix>2d</fix>
 <sat>5</sat>
</trkpt>
<trkpt lat="48.320606667" lon="16.369435000">
<time>2012-06-16T19:03:37Z</time>
 <fix>2d</fix>
 <sat>5</sat>
</trkpt>
<trkpt lat="48.320625000" lon="16.369390000">
<time>2012-06-16T19:03:38Z</time>
 <fix>2d</fix>
 <sat>5</sat>
</trkpt>
<trkpt lat="48.320651667" lon="16.369343333">
<time>2012-06-16T19:03:39Z</time>
 <fix>2d</fix>
 <sat>5</sat>
</trkpt>
<trkpt lat="48.320666667" lon="16.369306667">
<time>2012-06-16T19:03:40Z</time>
 <fix>2d</fix>
 <sat>5</sat>
</trkpt>
<trkpt lat="48.320681667" lon="16.369255000">
<time>2012-06-16T19:03:41Z</time>
 <fix>2d</fix>
 <sat>5</sat>
</trkpt>
<trkpt lat="48.320686667" lon="16.369203333">
<time>2012-06-16T19:03:42Z</time>
 <fix>2d</fix>
 <sat>5</sat>
</trkpt>
<trkpt lat="48.320698333" lon="16.369158333">
<time>2012-06-16T19:03:43Z</time>
 <fix>2d</fix>
 <sat>5</sat>
</trkpt>
<trkpt lat="48.320718333" lon="16.369141667">
<time>2012-06-16T19:03:44Z</time>
 <fix>2d</fix>
 <sat>5</sat>
</trkpt>
<trkpt lat="48.320730000" lon="16.369121667">
<time>2012-06-16T19:03:45Z</time>
 <fix>2d</fix>
 <sat>5</sat>
</trkpt>
<trkpt lat="48.320753333" lon="16.369113333">
<time>2012-06-16T19:03:46Z</time>
 <fix>2d</fix>
 <sat>5</sat>
</trkpt>
<trkpt lat="48.320781667" lon="16.369128333">
<time>2012-06-16T19:03:47Z</time>
 <fix>2d</fix>
 <sat>5</sat>
</trkpt>
<trkpt lat="48.320810000" lon="16.369146667">
<time>2012-06-16T19:03:48Z</time>
 <fix>2d</fix>
 <sat>5</sat>
</trkpt>
<trkpt lat="48.320800000" lon="16.369188333">
<time>2012-06-16T19:03:49Z</time>
 <fix>2d</fix>
 <sat>5</sat>
</trkpt>
<trkpt lat="48.320796667" lon="16.369220000">
<time>2012-06-16T19:03:50Z</time>
 <fix>2d</fix>
 <sat>5</sat>
</trkpt>
<trkpt lat="48.320791667" lon="16.369263333">
<time>2012-06-16T19:03:51Z</time>
 <fix>2d</fix>
 <sat>5</sat>
</trkpt>
<trkpt lat="48.320770000" lon="16.369300000">
<time>2012-06-16T19:03:52Z</time>
 <fix>2d</fix>
 <sat>5</sat>
</trkpt>
<trkpt lat="48.320761667" lon="16.369331667">
<time>2012-06-16T19:03:53Z</time>
 <fix>2d</fix>
 <sat>5</sat>
</trkpt>
<trkpt lat="48.320753333" lon="16.369363333">
<time>2012-06-16T19:03:54Z</time>
 <fix>2d</fix>
 <sat>5</sat>
</trkpt>
<trkpt lat="48.320751667" lon="16.369400000">
<time>2012-06-16T19:03:55Z</time>
 <fix>2d</fix>
 <sat>5</sat>
</trkpt>
<trkpt lat="48.320763333" lon="16.369430000">
<time>2012-06-16T19:03:56Z</time>
 <fix>2d</fix>
 <sat>5</sat>
</trkpt>
<trkpt lat="48.320776667" lon="16.369458333">
<time>2012-06-16T19:03:57Z</time>
 <fix>2d</fix>
 <sat>5</sat>
</trkpt>
<trkpt lat="48.320785000" lon="16.369498333">
<time>2012-06-16T19:03:58Z</time>
 <fix>2d</fix>
 <sat>5</sat>
</trkpt>
<trkpt lat="48.320788333" lon="16.369538333">
<time>2012-06-16T19:03:59Z</time>
 <fix>2d</fix>
 <sat>5</sat>
</trkpt>
<trkpt lat="48.320783333" lon="16.369556667">
<time>2012-06-16T19:04:00Z</time>
 <fix>2d</fix>
 <sat>5</sat>
</trkpt>
<trkpt lat="48.320791667" lon="16.369583333">
<time>2012-06-16T19:04:01Z</time>
 <fix>2d</fix>
 <sat>5</sat>
</trkpt>
<trkpt lat="48.320806667" lon="16.369630000">
<time>2012-06-16T19:04:02Z</time>
 <fix>2d</fix>
 <sat>5</sat>
</trkpt>
<trkpt lat="48.320813333" lon="16.369668333">
<time>2012-06-16T19:04:03Z</time>
 <fix>2d</fix>
 <sat>5</sat>
</trkpt>
<trkpt lat="48.320806667" lon="16.369705000">
<time>2012-06-16T19:04:04Z</time>
 <fix>2d</fix>
 <sat>5</sat>
</trkpt>
<trkpt lat="48.320785000" lon="16.369751667">
<time>2012-06-16T19:04:05Z</time>
 <fix>2d</fix>
 <sat>5</sat>
</trkpt>
<trkpt lat="48.320773333" lon="16.369795000">
<time>2012-06-16T19:04:06Z</time>
 <fix>2d</fix>
 <sat>5</sat>
</trkpt>
<trkpt lat="48.320756667" lon="16.369826667">
<time>2012-06-16T19:04:07Z</time>
 <fix>2d</fix>
 <sat>5</sat>
</trkpt>
<trkpt lat="48.320753333" lon="16.369866667">
<time>2012-06-16T19:04:08Z</time>
 <fix>2d</fix>
 <sat>5</sat>
</trkpt>
<trkpt lat="48.320753333" lon="16.369901667">
<time>2012-06-16T19:04:09Z</time>
 <fix>2d</fix>
 <sat>5</sat>
</trkpt>
<trkpt lat="48.320751667" lon="16.369935000">
<time>2012-06-16T19:04:10Z</time>
 <fix>2d</fix>
 <sat>5</sat>
</trkpt>
<trkpt lat="48.320741667" lon="16.369983333">
<time>2012-06-16T19:04:11Z</time>
 <fix>2d</fix>
 <sat>5</sat>
</trkpt>
<trkpt lat="48.320731667" lon="16.370016667">
<time>2012-06-16T19:04:12Z</time>
 <fix>2d</fix>
 <sat>5</sat>
</trkpt>
<trkpt lat="48.320723333" lon="16.370051667">
<time>2012-06-16T19:04:13Z</time>
 <fix>2d</fix>
 <sat>5</sat>
</trkpt>
<trkpt lat="48.320718333" lon="16.370083333">
<time>2012-06-16T19:04:14Z</time>
 <fix>2d</fix>
 <sat>5</sat>
</trkpt>
<trkpt lat="48.320716667" lon="16.370123333">
<time>2012-06-16T19:04:15Z</time>
 <fix>2d</fix>
 <sat>5</sat>
</trkpt>
<trkpt lat="48.320710000" lon="16.370155000">
<time>2012-06-16T19:04:16Z</time>
 <fix>2d</fix>
 <sat>5</sat>
</trkpt>
<trkpt lat="48.320716667" lon="16.370190000">
<time>2012-06-16T19:04:17Z</time>
 <fix>2d</fix>
 <sat>5</sat>
</trkpt>
<trkpt lat="48.320723333" lon="16.370218333">
<time>2012-06-16T19:04:18Z</time>
 <fix>2d</fix>
 <sat>5</sat>
</trkpt>
<trkpt lat="48.320708333" lon="16.370250000">
<time>2012-06-16T19:04:19Z</time>
 <fix>2d</fix>
 <sat>5</sat>
</trkpt>
<trkpt lat="48.320691667" lon="16.370293333">
<time>2012-06-16T19:04:20Z</time>
 <fix>2d</fix>
 <sat>5</sat>
</trkpt>
<trkpt lat="48.320676667" lon="16.370340000">
<time>2012-06-16T19:04:21Z</time>
 <fix>2d</fix>
 <sat>5</sat>
</trkpt>
<trkpt lat="48.320666667" lon="16.370368333">
<time>2012-06-16T19:04:22Z</time>
 <fix>2d</fix>
 <sat>5</sat>
</trkpt>
<trkpt lat="48.320663333" lon="16.370400000">
<time>2012-06-16T19:04:23Z</time>
 <fix>2d</fix>
 <sat>5</sat>
</trkpt>
<trkpt lat="48.320653333" lon="16.370431667">
<time>2012-06-16T19:04:24Z</time>
 <fix>2d</fix>
 <sat>5</sat>
</trkpt>
<trkpt lat="48.320643333" lon="16.370470000">
<time>2012-06-16T19:04:25Z</time>
 <fix>2d</fix>
 <sat>5</sat>
</trkpt>
<trkpt lat="48.320646667" lon="16.370500000">
<time>2012-06-16T19:04:26Z</time>
 <fix>2d</fix>
 <sat>5</sat>
</trkpt>
<trkpt lat="48.320648333" lon="16.370506667">
<time>2012-06-16T19:04:27Z</time>
 <fix>2d</fix>
 <sat>5</sat>
</trkpt>
<trkpt lat="48.320651667" lon="16.370530000">
<time>2012-06-16T19:04:28Z</time>
 <fix>2d</fix>
 <sat>5</sat>
</trkpt>
<trkpt lat="48.320646667" lon="16.370570000">
<time>2012-06-16T19:04:29Z</time>
 <fix>2d</fix>
 <sat>5</sat>
</trkpt>
<trkpt lat="48.320643333" lon="16.370620000">
<time>2012-06-16T19:04:30Z</time>
 <fix>2d</fix>
 <sat>5</sat>
</trkpt>
<trkpt lat="48.320626667" lon="16.370668333">
<time>2012-06-16T19:04:31Z</time>
 <fix>2d</fix>
 <sat>5</sat>
</trkpt>
<trkpt lat="48.320623333" lon="16.370706667">
<time>2012-06-16T19:04:32Z</time>
 <fix>2d</fix>
 <sat>5</sat>
</trkpt>
<trkpt lat="48.320615000" lon="16.370743333">
<time>2012-06-16T19:04:33Z</time>
 <fix>2d</fix>
 <sat>5</sat>
</trkpt>
<trkpt lat="48.320605000" lon="16.370778333">
<time>2012-06-16T19:04:34Z</time>
 <fix>2d</fix>
 <sat>5</sat>
</trkpt>
<trkpt lat="48.320588333" lon="16.370830000">
<time>2012-06-16T19:04:35Z</time>
 <fix>2d</fix>
 <sat>5</sat>
</trkpt>
<trkpt lat="48.320571667" lon="16.370873333">
<time>2012-06-16T19:04:36Z</time>
 <fix>2d</fix>
 <sat>5</sat>
</trkpt>
<trkpt lat="48.320558333" lon="16.370918333">
<time>2012-06-16T19:04:37Z</time>
 <fix>2d</fix>
 <sat>5</sat>
</trkpt>
<trkpt lat="48.320555000" lon="16.370958333">
<time>2012-06-16T19:04:38Z</time>
 <fix>2d</fix>
 <sat>5</sat>
</trkpt>
<trkpt lat="48.320535000" lon="16.371008333">
<time>2012-06-16T19:04:39Z</time>
 <fix>2d</fix>
 <sat>5</sat>
</trkpt>
<trkpt lat="48.320515000" lon="16.371063333">
<time>2012-06-16T19:04:40Z</time>
 <fix>2d</fix>
 <sat>5</sat>
</trkpt>
<trkpt lat="48.320491667" lon="16.371123333">
<time>2012-06-16T19:04:41Z</time>
 <fix>2d</fix>
 <sat>5</sat>
</trkpt>
<trkpt lat="48.320470000" lon="16.371196667">
<time>2012-06-16T19:04:42Z</time>
 <fix>2d</fix>
 <sat>5</sat>
</trkpt>
<trkpt lat="48.320451667" lon="16.371273333">
<time>2012-06-16T19:04:43Z</time>
 <fix>2d</fix>
 <sat>5</sat>
</trkpt>
<trkpt lat="48.320433333" lon="16.371345000">
<time>2012-06-16T19:04:44Z</time>
 <fix>2d</fix>
 <sat>5</sat>
</trkpt>
<trkpt lat="48.320425000" lon="16.371388333">
<time>2012-06-16T19:04:45Z</time>
 <fix>2d</fix>
 <sat>5</sat>
</trkpt>
<trkpt lat="48.320418333" lon="16.371435000">
<time>2012-06-16T19:04:46Z</time>
 <fix>2d</fix>
 <sat>5</sat>
</trkpt>
<trkpt lat="48.320410000" lon="16.371480000">
<time>2012-06-16T19:04:47Z</time>
 <fix>2d</fix>
 <sat>5</sat>
</trkpt>
<trkpt lat="48.320405000" lon="16.371526667">
<time>2012-06-16T19:04:48Z</time>
 <fix>2d</fix>
 <sat>5</sat>
</trkpt>
<trkpt lat="48.320390000" lon="16.371563333">
<time>2012-06-16T19:04:49Z</time>
 <fix>2d</fix>
 <sat>5</sat>
</trkpt>
<trkpt lat="48.320386667" lon="16.371610000">
<time>2012-06-16T19:04:50Z</time>
 <fix>2d</fix>
 <sat>5</sat>
</trkpt>
<trkpt lat="48.320373333" lon="16.371665000">
<time>2012-06-16T19:04:51Z</time>
 <fix>2d</fix>
 <sat>5</sat>
</trkpt>
<trkpt lat="48.320365000" lon="16.371740000">
<time>2012-06-16T19:04:52Z</time>
 <fix>2d</fix>
 <sat>5</sat>
</trkpt>
<trkpt lat="48.320346667" lon="16.371818333">
<time>2012-06-16T19:04:53Z</time>
 <fix>2d</fix>
 <sat>5</sat>
</trkpt>
<trkpt lat="48.320338333" lon="16.371876667">
<time>2012-06-16T19:04:54Z</time>
 <fix>2d</fix>
 <sat>5</sat>
</trkpt>
<trkpt lat="48.320335000" lon="16.371935000">
<time>2012-06-16T19:04:55Z</time>
 <fix>2d</fix>
 <sat>5</sat>
</trkpt>
<trkpt lat="48.320328333" lon="16.371993333">
<time>2012-06-16T19:04:56Z</time>
 <fix>2d</fix>
 <sat>5</sat>
</trkpt>
<trkpt lat="48.320318333" lon="16.372060000">
<time>2012-06-16T19:04:57Z</time>
 <fix>2d</fix>
 <sat>5</sat>
</trkpt>
<trkpt lat="48.320310000" lon="16.372130000">
<time>2012-06-16T19:04:58Z</time>
 <fix>2d</fix>
 <sat>5</sat>
</trkpt>
<trkpt lat="48.320313333" lon="16.372191667">
<time>2012-06-16T19:04:59Z</time>
 <fix>2d</fix>
 <sat>5</sat>
</trkpt>
<trkpt lat="48.320295000" lon="16.372273333">
<time>2012-06-16T19:05:00Z</time>
 <fix>2d</fix>
 <sat>5</sat>
</trkpt>
<trkpt lat="48.320275000" lon="16.372353333">
<time>2012-06-16T19:05:01Z</time>
 <fix>2d</fix>
 <sat>5</sat>
</trkpt>
<trkpt lat="48.320258333" lon="16.372418333">
<time>2012-06-16T19:05:02Z</time>
 <fix>2d</fix>
 <sat>5</sat>
</trkpt>
<trkpt lat="48.320243333" lon="16.372468333">
<time>2012-06-16T19:05:03Z</time>
 <fix>2d</fix>
 <sat>5</sat>
</trkpt>
<trkpt lat="48.320220000" lon="16.372528333">
<time>2012-06-16T19:05:04Z</time>
 <fix>2d</fix>
 <sat>5</sat>
</trkpt>
<trkpt lat="48.320198333" lon="16.372598333">
<time>2012-06-16T19:05:05Z</time>
 <fix>2d</fix>
 <sat>5</sat>
</trkpt>
<trkpt lat="48.320176667" lon="16.372678333">
<time>2012-06-16T19:05:06Z</time>
 <fix>2d</fix>
 <sat>5</sat>
</trkpt>
<trkpt lat="48.320143333" lon="16.372773333">
<time>2012-06-16T19:05:07Z</time>
 <fix>2d</fix>
 <sat>5</sat>
</trkpt>
<trkpt lat="48.320121667" lon="16.372866667">
<time>2012-06-16T19:05:08Z</time>
 <fix>2d</fix>
 <sat>5</sat>
</trkpt>
<trkpt lat="48.320091667" lon="16.372955000">
<time>2012-06-16T19:05:09Z</time>
 <fix>2d</fix>
 <sat>5</sat>
</trkpt>
<trkpt lat="48.320061667" lon="16.373045000">
<time>2012-06-16T19:05:10Z</time>
 <fix>2d</fix>
 <sat>5</sat>
</trkpt>
<trkpt lat="48.320035000" lon="16.373125000">
<time>2012-06-16T19:05:11Z</time>
 <fix>2d</fix>
 <sat>5</sat>
</trkpt>
<trkpt lat="48.320015000" lon="16.373208333">
<time>2012-06-16T19:05:12Z</time>
 <fix>2d</fix>
 <sat>5</sat>
</trkpt>
<trkpt lat="48.320000000" lon="16.373273333">
<time>2012-06-16T19:05:13Z</time>
 <fix>2d</fix>
 <sat>5</sat>
</trkpt>
<trkpt lat="48.319986667" lon="16.373338333">
<time>2012-06-16T19:05:14Z</time>
 <fix>2d</fix>
 <sat>5</sat>
</trkpt>
<trkpt lat="48.319965000" lon="16.373396667">
<time>2012-06-16T19:05:15Z</time>
 <fix>2d</fix>
 <sat>5</sat>
</trkpt>
<trkpt lat="48.319985000" lon="16.373505000">
<time>2012-06-16T19:05:16Z</time>
 <fix>2d</fix>
 <sat>5</sat>
</trkpt>
<trkpt lat="48.319950000" lon="16.373611667">
<time>2012-06-16T19:05:17Z</time>
 <fix>2d</fix>
 <sat>5</sat>
</trkpt>
<trkpt lat="48.319923333" lon="16.373696667">
<time>2012-06-16T19:05:18Z</time>
 <fix>2d</fix>
 <sat>5</sat>
</trkpt>
<trkpt lat="48.319885000" lon="16.373801667">
<time>2012-06-16T19:05:19Z</time>
 <fix>2d</fix>
 <sat>5</sat>
</trkpt>
<trkpt lat="48.319841667" lon="16.373900000">
<time>2012-06-16T19:05:20Z</time>
 <fix>2d</fix>
 <sat>5</sat>
</trkpt>
<trkpt lat="48.319795000" lon="16.374000000">
<time>2012-06-16T19:05:21Z</time>
 <fix>2d</fix>
 <sat>5</sat>
</trkpt>
<trkpt lat="48.319770000" lon="16.374086667">
<time>2012-06-16T19:05:22Z</time>
 <fix>2d</fix>
 <sat>5</sat>
</trkpt>
<trkpt lat="48.319743333" lon="16.374175000">
<time>2012-06-16T19:05:23Z</time>
 <fix>2d</fix>
 <sat>5</sat>
</trkpt>
<trkpt lat="48.319716667" lon="16.374261667">
<time>2012-06-16T19:05:24Z</time>
 <fix>2d</fix>
 <sat>5</sat>
</trkpt>
<trkpt lat="48.319681667" lon="16.374363333">
<time>2012-06-16T19:05:25Z</time>
 <fix>2d</fix>
 <sat>5</sat>
</trkpt>
<trkpt lat="48.319653333" lon="16.374438333">
<time>2012-06-16T19:05:26Z</time>
 <fix>2d</fix>
 <sat>5</sat>
</trkpt>
<trkpt lat="48.319611667" lon="16.374498333">
<time>2012-06-16T19:05:27Z</time>
 <fix>2d</fix>
 <sat>5</sat>
</trkpt>
<trkpt lat="48.319568333" lon="16.374573333">
<time>2012-06-16T19:05:28Z</time>
 <fix>2d</fix>
 <sat>5</sat>
</trkpt>
<trkpt lat="48.319541667" lon="16.374663333">
<time>2012-06-16T19:05:29Z</time>
 <fix>2d</fix>
 <sat>5</sat>
</trkpt>
<trkpt lat="48.319515000" lon="16.374751667">
<time>2012-06-16T19:05:30Z</time>
 <fix>2d</fix>
 <sat>5</sat>
</trkpt>
<trkpt lat="48.319478333" lon="16.374850000">
<time>2012-06-16T19:05:31Z</time>
 <fix>2d</fix>
 <sat>5</sat>
</trkpt>
<trkpt lat="48.319441667" lon="16.374953333">
<time>2012-06-16T19:05:32Z</time>
 <fix>2d</fix>
 <sat>5</sat>
</trkpt>
<trkpt lat="48.319403333" lon="16.375040000">
<time>2012-06-16T19:05:33Z</time>
 <fix>2d</fix>
 <sat>5</sat>
</trkpt>
<trkpt lat="48.319360000" lon="16.375131667">
<time>2012-06-16T19:05:34Z</time>
 <fix>2d</fix>
 <sat>5</sat>
</trkpt>
<trkpt lat="48.319313333" lon="16.375261667">
<time>2012-06-16T19:05:35Z</time>
 <fix>2d</fix>
 <sat>5</sat>
</trkpt>
<trkpt lat="48.319273333" lon="16.375360000">
<time>2012-06-16T19:05:36Z</time>
 <fix>2d</fix>
 <sat>5</sat>
</trkpt>
<trkpt lat="48.319230000" lon="16.375465000">
<time>2012-06-16T19:05:37Z</time>
 <fix>2d</fix>
 <sat>5</sat>
</trkpt>
<trkpt lat="48.319208333" lon="16.375556667">
<time>2012-06-16T19:05:38Z</time>
 <fix>2d</fix>
 <sat>5</sat>
</trkpt>
<trkpt lat="48.319178333" lon="16.375685000">
<time>2012-06-16T19:05:39Z</time>
 <fix>2d</fix>
 <sat>5</sat>
</trkpt>
<trkpt lat="48.319170000" lon="16.375771667">
<time>2012-06-16T19:05:40Z</time>
 <fix>2d</fix>
 <sat>5</sat>
</trkpt>
<trkpt lat="48.319163333" lon="16.375858333">
<time>2012-06-16T19:05:41Z</time>
 <fix>2d</fix>
 <sat>5</sat>
</trkpt>
<trkpt lat="48.319145000" lon="16.375953333">
<time>2012-06-16T19:05:42Z</time>
 <fix>2d</fix>
 <sat>5</sat>
</trkpt>
<trkpt lat="48.319135000" lon="16.376048333">
<time>2012-06-16T19:05:43Z</time>
 <fix>2d</fix>
 <sat>5</sat>
</trkpt>
<trkpt lat="48.319105000" lon="16.376135000">
<time>2012-06-16T19:05:44Z</time>
 <fix>2d</fix>
 <sat>5</sat>
</trkpt>
<trkpt lat="48.319085000" lon="16.376203333">
<time>2012-06-16T19:05:45Z</time>
 <fix>2d</fix>
 <sat>5</sat>
</trkpt>
<trkpt lat="48.319051667" lon="16.376295000">
<time>2012-06-16T19:05:46Z</time>
 <fix>2d</fix>
 <sat>5</sat>
</trkpt>
<trkpt lat="48.319035000" lon="16.376391667">
<time>2012-06-16T19:05:47Z</time>
 <fix>2d</fix>
 <sat>5</sat>
</trkpt>
<trkpt lat="48.319008333" lon="16.376485000">
<time>2012-06-16T19:05:48Z</time>
 <fix>2d</fix>
 <sat>5</sat>
</trkpt>
<trkpt lat="48.318966667" lon="16.376623333">
<time>2012-06-16T19:05:49Z</time>
 <fix>2d</fix>
 <sat>5</sat>
</trkpt>
<trkpt lat="48.318926667" lon="16.376741667">
<time>2012-06-16T19:05:50Z</time>
 <fix>2d</fix>
 <sat>5</sat>
</trkpt>
<trkpt lat="48.318901667" lon="16.376870000">
<time>2012-06-16T19:05:51Z</time>
 <fix>2d</fix>
 <sat>5</sat>
</trkpt>
<trkpt lat="48.318880000" lon="16.376986667">
<time>2012-06-16T19:05:52Z</time>
 <fix>2d</fix>
 <sat>5</sat>
</trkpt>
<trkpt lat="48.318866667" lon="16.377073333">
<time>2012-06-16T19:05:53Z</time>
 <fix>2d</fix>
 <sat>5</sat>
</trkpt>
<trkpt lat="48.318855000" lon="16.377160000">
<time>2012-06-16T19:05:54Z</time>
 <fix>2d</fix>
 <sat>5</sat>
</trkpt>
<trkpt lat="48.318831667" lon="16.377240000">
<time>2012-06-16T19:05:55Z</time>
 <fix>2d</fix>
 <sat>5</sat>
</trkpt>
<trkpt lat="48.318791667" lon="16.377298333">
<time>2012-06-16T19:05:56Z</time>
 <fix>2d</fix>
 <sat>5</sat>
</trkpt>
<trkpt lat="48.318766667" lon="16.377383333">
<time>2012-06-16T19:05:57Z</time>
 <fix>2d</fix>
 <sat>5</sat>
</trkpt>
<trkpt lat="48.318720000" lon="16.377526667">
<time>2012-06-16T19:05:58Z</time>
 <fix>2d</fix>
 <sat>5</sat>
</trkpt>
<trkpt lat="48.318680000" lon="16.377641667">
<time>2012-06-16T19:05:59Z</time>
 <fix>2d</fix>
 <sat>5</sat>
</trkpt>
<trkpt lat="48.318655000" lon="16.377758333">
<time>2012-06-16T19:06:00Z</time>
 <fix>2d</fix>
 <sat>5</sat>
</trkpt>
<trkpt lat="48.318610000" lon="16.377876667">
<time>2012-06-16T19:06:01Z</time>
 <fix>2d</fix>
 <sat>5</sat>
</trkpt>
<trkpt lat="48.318543333" lon="16.378030000">
<time>2012-06-16T19:06:02Z</time>
 <fix>2d</fix>
 <sat>5</sat>
</trkpt>
<trkpt lat="48.318483333" lon="16.378166667">
<time>2012-06-16T19:06:03Z</time>
 <fix>2d</fix>
 <sat>5</sat>
</trkpt>
<trkpt lat="48.318430000" lon="16.378230000">
<time>2012-06-16T19:06:04Z</time>
 <fix>2d</fix>
 <sat>5</sat>
</trkpt>
<trkpt lat="48.318380000" lon="16.378270000">
<time>2012-06-16T19:06:05Z</time>
 <fix>2d</fix>
 <sat>5</sat>
</trkpt>
<trkpt lat="48.318345000" lon="16.378288333">
<time>2012-06-16T19:06:06Z</time>
 <fix>2d</fix>
 <sat>5</sat>
</trkpt>
<trkpt lat="48.318303333" lon="16.378300000">
<time>2012-06-16T19:06:07Z</time>
 <fix>2d</fix>
 <sat>5</sat>
</trkpt>
<trkpt lat="48.318261667" lon="16.378311667">
<time>2012-06-16T19:06:08Z</time>
 <fix>2d</fix>
 <sat>5</sat>
</trkpt>
<trkpt lat="48.318216667" lon="16.378333333">
<time>2012-06-16T19:06:09Z</time>
 <fix>2d</fix>
 <sat>5</sat>
</trkpt>
<trkpt lat="48.318176667" lon="16.378343333">
<time>2012-06-16T19:06:10Z</time>
 <fix>2d</fix>
 <sat>5</sat>
</trkpt>
<trkpt lat="48.318138333" lon="16.378355000">
<time>2012-06-16T19:06:11Z</time>
 <fix>2d</fix>
 <sat>5</sat>
</trkpt>
<trkpt lat="48.318098333" lon="16.378368333">
<time>2012-06-16T19:06:12Z</time>
 <fix>2d</fix>
 <sat>5</sat>
</trkpt>
<trkpt lat="48.318060000" lon="16.378386667">
<time>2012-06-16T19:06:13Z</time>
 <fix>2d</fix>
 <sat>5</sat>
</trkpt>
<trkpt lat="48.318023333" lon="16.378403333">
<time>2012-06-16T19:06:14Z</time>
 <fix>2d</fix>
 <sat>5</sat>
</trkpt>
<trkpt lat="48.317990000" lon="16.378420000">
<time>2012-06-16T19:06:15Z</time>
 <fix>2d</fix>
 <sat>5</sat>
</trkpt>
<trkpt lat="48.317973333" lon="16.378426667">
<time>2012-06-16T19:06:16Z</time>
 <fix>2d</fix>
 <sat>5</sat>
</trkpt>
<trkpt lat="48.317941667" lon="16.378443333">
<time>2012-06-16T19:06:17Z</time>
 <fix>2d</fix>
 <sat>5</sat>
</trkpt>
<trkpt lat="48.317915000" lon="16.378448333">
<time>2012-06-16T19:06:18Z</time>
 <fix>2d</fix>
 <sat>5</sat>
</trkpt>
<trkpt lat="48.317890000" lon="16.378450000">
<time>2012-06-16T19:06:19Z</time>
 <fix>2d</fix>
 <sat>5</sat>
</trkpt>
<trkpt lat="48.317866667" lon="16.378458333">
<time>2012-06-16T19:06:20Z</time>
 <fix>2d</fix>
 <sat>5</sat>
</trkpt>
<trkpt lat="48.317853333" lon="16.378470000">
<time>2012-06-16T19:06:21Z</time>
 <fix>2d</fix>
 <sat>5</sat>
</trkpt>
<trkpt lat="48.317828333" lon="16.378488333">
<time>2012-06-16T19:06:22Z</time>
 <fix>2d</fix>
 <sat>5</sat>
</trkpt>
<trkpt lat="48.317795000" lon="16.378496667">
<time>2012-06-16T19:06:23Z</time>
 <fix>2d</fix>
 <sat>5</sat>
</trkpt>
<trkpt lat="48.317768333" lon="16.378506667">
<time>2012-06-16T19:06:24Z</time>
 <fix>2d</fix>
 <sat>5</sat>
</trkpt>
<trkpt lat="48.317756667" lon="16.378525000">
<time>2012-06-16T19:06:25Z</time>
 <fix>2d</fix>
 <sat>5</sat>
</trkpt>
<trkpt lat="48.317726667" lon="16.378548333">
<time>2012-06-16T19:06:26Z</time>
 <fix>2d</fix>
 <sat>5</sat>
</trkpt>
<trkpt lat="48.317701667" lon="16.378568333">
<time>2012-06-16T19:06:27Z</time>
 <fix>2d</fix>
 <sat>5</sat>
</trkpt>
<trkpt lat="48.317683333" lon="16.378588333">
<time>2012-06-16T19:06:28Z</time>
 <fix>2d</fix>
 <sat>5</sat>
</trkpt>
<trkpt lat="48.317663333" lon="16.378623333">
<time>2012-06-16T19:06:29Z</time>
 <fix>2d</fix>
 <sat>5</sat>
</trkpt>
<trkpt lat="48.317633333" lon="16.378673333">
<time>2012-06-16T19:06:30Z</time>
 <fix>2d</fix>
 <sat>5</sat>
</trkpt>
<trkpt lat="48.317613333" lon="16.378715000">
<time>2012-06-16T19:06:31Z</time>
 <fix>2d</fix>
 <sat>5</sat>
</trkpt>
<trkpt lat="48.317595000" lon="16.378741667">
<time>2012-06-16T19:06:32Z</time>
 <fix>2d</fix>
 <sat>5</sat>
</trkpt>
<trkpt lat="48.317580000" lon="16.378751667">
<time>2012-06-16T19:06:33Z</time>
 <fix>2d</fix>
 <sat>5</sat>
</trkpt>
<trkpt lat="48.317565000" lon="16.378763333">
<time>2012-06-16T19:06:34Z</time>
 <fix>2d</fix>
 <sat>5</sat>
</trkpt>
<trkpt lat="48.317540000" lon="16.378788333">
<time>2012-06-16T19:06:35Z</time>
 <fix>2d</fix>
 <sat>5</sat>
</trkpt>
<trkpt lat="48.317505000" lon="16.378818333">
<time>2012-06-16T19:06:36Z</time>
 <fix>2d</fix>
 <sat>5</sat>
</trkpt>
<trkpt lat="48.317481667" lon="16.378845000">
<time>2012-06-16T19:06:37Z</time>
 <fix>2d</fix>
 <sat>5</sat>
</trkpt>
<trkpt lat="48.317460000" lon="16.378858333">
<time>2012-06-16T19:06:38Z</time>
 <fix>2d</fix>
 <sat>5</sat>
</trkpt>
<trkpt lat="48.317431667" lon="16.378875000">
<time>2012-06-16T19:06:39Z</time>
 <fix>2d</fix>
 <sat>5</sat>
</trkpt>
<trkpt lat="48.317410000" lon="16.378881667">
<time>2012-06-16T19:06:40Z</time>
 <fix>2d</fix>
 <sat>5</sat>
</trkpt>
<trkpt lat="48.317393333" lon="16.378888333">
<time>2012-06-16T19:06:41Z</time>
 <fix>2d</fix>
 <sat>5</sat>
</trkpt>
<trkpt lat="48.317366667" lon="16.378905000">
<time>2012-06-16T19:06:42Z</time>
 <fix>2d</fix>
 <sat>5</sat>
</trkpt>
<trkpt lat="48.317353333" lon="16.378908333">
<time>2012-06-16T19:06:43Z</time>
 <fix>2d</fix>
 <sat>5</sat>
</trkpt>
<trkpt lat="48.317335000" lon="16.378921667">
<time>2012-06-16T19:06:44Z</time>
 <fix>2d</fix>
 <sat>5</sat>
</trkpt>
<trkpt lat="48.317311667" lon="16.378921667">
<time>2012-06-16T19:06:45Z</time>
 <fix>2d</fix>
 <sat>5</sat>
</trkpt>
<trkpt lat="48.317291667" lon="16.378921667">
<time>2012-06-16T19:06:46Z</time>
 <fix>2d</fix>
 <sat>4</sat>
</trkpt>
<trkpt lat="48.317273333" lon="16.378921667">
<time>2012-06-16T19:06:47Z</time>
 <fix>2d</fix>
 <sat>5</sat>
</trkpt>
<trkpt lat="48.317251667" lon="16.378916667">
<time>2012-06-16T19:06:48Z</time>
 <fix>2d</fix>
 <sat>5</sat>
</trkpt>
<trkpt lat="48.317228333" lon="16.378921667">
<time>2012-06-16T19:06:49Z</time>
 <fix>2d</fix>
 <sat>5</sat>
</trkpt>
<trkpt lat="48.317198333" lon="16.378928333">
<time>2012-06-16T19:06:50Z</time>
 <fix>2d</fix>
 <sat>5</sat>
</trkpt>
<trkpt lat="48.317178333" lon="16.378936667">
<time>2012-06-16T19:06:51Z</time>
 <fix>2d</fix>
 <sat>5</sat>
</trkpt>
<trkpt lat="48.317173333" lon="16.378936667">
<time>2012-06-16T19:06:52Z</time>
 <fix>2d</fix>
 <sat>5</sat>
</trkpt>
<trkpt lat="48.317170000" lon="16.378938333">
<time>2012-06-16T19:06:53Z</time>
 <fix>2d</fix>
 <sat>5</sat>
</trkpt>
<trkpt lat="48.317146667" lon="16.378956667">
<time>2012-06-16T19:06:54Z</time>
 <fix>2d</fix>
 <sat>5</sat>
</trkpt>
<trkpt lat="48.317125000" lon="16.378975000">
<time>2012-06-16T19:06:55Z</time>
 <fix>2d</fix>
 <sat>5</sat>
</trkpt>
<trkpt lat="48.317101667" lon="16.378995000">
<time>2012-06-16T19:06:56Z</time>
 <fix>2d</fix>
 <sat>5</sat>
</trkpt>
<trkpt lat="48.317101667" lon="16.378996667">
<time>2012-06-16T19:06:57Z</time>
 <fix>2d</fix>
 <sat>5</sat>
</trkpt>
<trkpt lat="48.317095000" lon="16.379000000">
<time>2012-06-16T19:06:58Z</time>
 <fix>2d</fix>
 <sat>5</sat>
</trkpt>
<trkpt lat="48.317075000" lon="16.379006667">
<time>2012-06-16T19:06:59Z</time>
 <fix>2d</fix>
 <sat>5</sat>
</trkpt>
<trkpt lat="48.317055000" lon="16.379003333">
<time>2012-06-16T19:07:00Z</time>
 <fix>2d</fix>
 <sat>5</sat>
</trkpt>
<trkpt lat="48.317040000" lon="16.378995000">
<time>2012-06-16T19:07:01Z</time>
 <fix>2d</fix>
 <sat>5</sat>
</trkpt>
<trkpt lat="48.317026667" lon="16.378985000">
<time>2012-06-16T19:07:02Z</time>
 <fix>2d</fix>
 <sat>5</sat>
</trkpt>
<trkpt lat="48.317008333" lon="16.378980000">
<time>2012-06-16T19:07:03Z</time>
 <fix>2d</fix>
 <sat>5</sat>
</trkpt>
<trkpt lat="48.316991667" lon="16.378980000">
<time>2012-06-16T19:07:04Z</time>
 <fix>2d</fix>
 <sat>5</sat>
</trkpt>
<trkpt lat="48.316978333" lon="16.378980000">
<time>2012-06-16T19:07:05Z</time>
 <fix>2d</fix>
 <sat>5</sat>
</trkpt>
<trkpt lat="48.316958333" lon="16.378980000">
<time>2012-06-16T19:07:06Z</time>
 <fix>2d</fix>
 <sat>5</sat>
</trkpt>
<trkpt lat="48.316946667" lon="16.378988333">
<time>2012-06-16T19:07:07Z</time>
 <fix>2d</fix>
 <sat>5</sat>
</trkpt>
<trkpt lat="48.316935000" lon="16.378991667">
<time>2012-06-16T19:07:08Z</time>
 <fix>2d</fix>
 <sat>5</sat>
</trkpt>
<trkpt lat="48.316915000" lon="16.379001667">
<time>2012-06-16T19:07:09Z</time>
 <fix>2d</fix>
 <sat>5</sat>
</trkpt>
<trkpt lat="48.316898333" lon="16.379011667">
<time>2012-06-16T19:07:10Z</time>
 <fix>2d</fix>
 <sat>5</sat>
</trkpt>
<trkpt lat="48.316885000" lon="16.379011667">
<time>2012-06-16T19:07:11Z</time>
 <fix>2d</fix>
 <sat>5</sat>
</trkpt>
<trkpt lat="48.316866667" lon="16.379015000">
<time>2012-06-16T19:07:12Z</time>
 <fix>2d</fix>
 <sat>5</sat>
</trkpt>
<trkpt lat="48.316846667" lon="16.379031667">
<time>2012-06-16T19:07:13Z</time>
 <fix>2d</fix>
 <sat>5</sat>
</trkpt>
<trkpt lat="48.316833333" lon="16.379046667">
<time>2012-06-16T19:07:14Z</time>
 <fix>2d</fix>
 <sat>5</sat>
</trkpt>
<trkpt lat="48.316815000" lon="16.379065000">
<time>2012-06-16T19:07:15Z</time>
 <fix>2d</fix>
 <sat>5</sat>
</trkpt>
<trkpt lat="48.316798333" lon="16.379081667">
<time>2012-06-16T19:07:16Z</time>
 <fix>2d</fix>
 <sat>5</sat>
</trkpt>
<trkpt lat="48.316783333" lon="16.379100000">
<time>2012-06-16T19:07:17Z</time>
 <fix>2d</fix>
 <sat>5</sat>
</trkpt>
<trkpt lat="48.316781667" lon="16.379121667">
<time>2012-06-16T19:07:18Z</time>
 <fix>2d</fix>
 <sat>5</sat>
</trkpt>
<trkpt lat="48.316783333" lon="16.379128333">
<time>2012-06-16T19:07:19Z</time>
 <fix>2d</fix>
 <sat>5</sat>
</trkpt>
<trkpt lat="48.316786667" lon="16.379135000">
<time>2012-06-16T19:07:20Z</time>
 <fix>2d</fix>
 <sat>5</sat>
</trkpt>
<trkpt lat="48.316801667" lon="16.379156667">
<time>2012-06-16T19:07:21Z</time>
 <fix>2d</fix>
 <sat>5</sat>
</trkpt>
<trkpt lat="48.316821667" lon="16.379180000">
<time>2012-06-16T19:07:22Z</time>
 <fix>2d</fix>
 <sat>5</sat>
</trkpt>
<trkpt lat="48.316841667" lon="16.379205000">
<time>2012-06-16T19:07:23Z</time>
 <fix>2d</fix>
 <sat>5</sat>
</trkpt>
<trkpt lat="48.316856667" lon="16.379235000">
<time>2012-06-16T19:07:24Z</time>
 <fix>2d</fix>
 <sat>5</sat>
</trkpt>
<trkpt lat="48.316870000" lon="16.379265000">
<time>2012-06-16T19:07:25Z</time>
 <fix>2d</fix>
 <sat>5</sat>
</trkpt>
<trkpt lat="48.316891667" lon="16.379303333">
<time>2012-06-16T19:07:26Z</time>
 <fix>2d</fix>
 <sat>5</sat>
</trkpt>
<trkpt lat="48.316903333" lon="16.379330000">
<time>2012-06-16T19:07:27Z</time>
 <fix>2d</fix>
 <sat>5</sat>
</trkpt>
<trkpt lat="48.316913333" lon="16.379351667">
<time>2012-06-16T19:07:28Z</time>
 <fix>2d</fix>
 <sat>5</sat>
</trkpt>
<trkpt lat="48.316923333" lon="16.379371667">
<time>2012-06-16T19:07:29Z</time>
 <fix>2d</fix>
 <sat>5</sat>
</trkpt>
<trkpt lat="48.316935000" lon="16.379406667">
<time>2012-06-16T19:07:30Z</time>
 <fix>2d</fix>
 <sat>5</sat>
</trkpt>
<trkpt lat="48.316953333" lon="16.379440000">
<time>2012-06-16T19:07:31Z</time>
 <fix>2d</fix>
 <sat>5</sat>
</trkpt>
<trkpt lat="48.316968333" lon="16.379475000">
<time>2012-06-16T19:07:32Z</time>
 <fix>2d</fix>
 <sat>5</sat>
</trkpt>
<trkpt lat="48.316980000" lon="16.379510000">
<time>2012-06-16T19:07:33Z</time>
 <fix>2d</fix>
 <sat>5</sat>
</trkpt>
<trkpt lat="48.316993333" lon="16.379545000">
<time>2012-06-16T19:07:34Z</time>
 <fix>2d</fix>
 <sat>5</sat>
</trkpt>
<trkpt lat="48.317005000" lon="16.379585000">
<time>2012-06-16T19:07:35Z</time>
 <fix>2d</fix>
 <sat>5</sat>
</trkpt>
<trkpt lat="48.317023333" lon="16.379608333">
<time>2012-06-16T19:07:36Z</time>
 <fix>2d</fix>
 <sat>5</sat>
</trkpt>
<trkpt lat="48.317050000" lon="16.379635000">
<time>2012-06-16T19:07:37Z</time>
 <fix>2d</fix>
 <sat>5</sat>
</trkpt>
<trkpt lat="48.317073333" lon="16.379660000">
<time>2012-06-16T19:07:38Z</time>
 <fix>2d</fix>
 <sat>5</sat>
</trkpt>
<trkpt lat="48.317091667" lon="16.379685000">
<time>2012-06-16T19:07:39Z</time>
 <fix>2d</fix>
 <sat>5</sat>
</trkpt>
<trkpt lat="48.317095000" lon="16.379716667">
<time>2012-06-16T19:07:40Z</time>
 <fix>2d</fix>
 <sat>5</sat>
</trkpt>
<trkpt lat="48.317108333" lon="16.379750000">
<time>2012-06-16T19:07:41Z</time>
 <fix>2d</fix>
 <sat>5</sat>
</trkpt>
<trkpt lat="48.317106667" lon="16.379780000">
<time>2012-06-16T19:07:42Z</time>
 <fix>2d</fix>
 <sat>5</sat>
</trkpt>
<trkpt lat="48.317105000" lon="16.379810000">
<time>2012-06-16T19:07:43Z</time>
 <fix>2d</fix>
 <sat>5</sat>
</trkpt>
<trkpt lat="48.317110000" lon="16.379843333">
<time>2012-06-16T19:07:44Z</time>
 <fix>2d</fix>
 <sat>5</sat>
</trkpt>
<trkpt lat="48.317118333" lon="16.379878333">
<time>2012-06-16T19:07:45Z</time>
 <fix>2d</fix>
 <sat>5</sat>
</trkpt>
<trkpt lat="48.317130000" lon="16.379911667">
<time>2012-06-16T19:07:46Z</time>
 <fix>2d</fix>
 <sat>5</sat>
</trkpt>
<trkpt lat="48.317141667" lon="16.379936667">
<time>2012-06-16T19:07:47Z</time>
 <fix>2d</fix>
 <sat>5</sat>
</trkpt>
<trkpt lat="48.317153333" lon="16.379958333">
<time>2012-06-16T19:07:48Z</time>
 <fix>2d</fix>
 <sat>5</sat>
</trkpt>
<trkpt lat="48.317168333" lon="16.379981667">
<time>2012-06-16T19:07:49Z</time>
 <fix>2d</fix>
 <sat>5</sat>
</trkpt>
<trkpt lat="48.317180000" lon="16.380011667">
<time>2012-06-16T19:07:50Z</time>
 <fix>2d</fix>
 <sat>5</sat>
</trkpt>
<trkpt lat="48.317190000" lon="16.380036667">
<time>2012-06-16T19:07:51Z</time>
 <fix>2d</fix>
 <sat>5</sat>
</trkpt>
<trkpt lat="48.317193333" lon="16.380061667">
<time>2012-06-16T19:07:52Z</time>
 <fix>2d</fix>
 <sat>5</sat>
</trkpt>
<trkpt lat="48.317200000" lon="16.380095000">
<time>2012-06-16T19:07:53Z</time>
 <fix>2d</fix>
 <sat>5</sat>
</trkpt>
<trkpt lat="48.317201667" lon="16.380115000">
<time>2012-06-16T19:07:54Z</time>
 <fix>2d</fix>
 <sat>5</sat>
</trkpt>
<trkpt lat="48.317211667" lon="16.380131667">
<time>2012-06-16T19:07:55Z</time>
 <fix>2d</fix>
 <sat>5</sat>
</trkpt>
<trkpt lat="48.317218333" lon="16.380158333">
<time>2012-06-16T19:07:56Z</time>
 <fix>2d</fix>
 <sat>5</sat>
</trkpt>
<trkpt lat="48.317223333" lon="16.380186667">
<time>2012-06-16T19:07:57Z</time>
 <fix>2d</fix>
 <sat>5</sat>
</trkpt>
<trkpt lat="48.317233333" lon="16.380218333">
<time>2012-06-16T19:07:58Z</time>
 <fix>2d</fix>
 <sat>5</sat>
</trkpt>
<trkpt lat="48.317243333" lon="16.380241667">
<time>2012-06-16T19:07:59Z</time>
 <fix>2d</fix>
 <sat>5</sat>
</trkpt>
<trkpt lat="48.317258333" lon="16.380258333">
<time>2012-06-16T19:08:00Z</time>
 <fix>2d</fix>
 <sat>5</sat>
</trkpt>
<trkpt lat="48.317280000" lon="16.380281667">
<time>2012-06-16T19:08:01Z</time>
 <fix>2d</fix>
 <sat>5</sat>
</trkpt>
<trkpt lat="48.317290000" lon="16.380308333">
<time>2012-06-16T19:08:02Z</time>
 <fix>2d</fix>
 <sat>5</sat>
</trkpt>
<trkpt lat="48.317303333" lon="16.380336667">
<time>2012-06-16T19:08:03Z</time>
 <fix>2d</fix>
 <sat>5</sat>
</trkpt>
<trkpt lat="48.317311667" lon="16.380361667">
<time>2012-06-16T19:08:04Z</time>
 <fix>2d</fix>
 <sat>5</sat>
</trkpt>
<trkpt lat="48.317313333" lon="16.380390000">
<time>2012-06-16T19:08:05Z</time>
 <fix>2d</fix>
 <sat>5</sat>
</trkpt>
<trkpt lat="48.317320000" lon="16.380411667">
<time>2012-06-16T19:08:06Z</time>
 <fix>2d</fix>
 <sat>5</sat>
</trkpt>
<trkpt lat="48.317320000" lon="16.380428333">
<time>2012-06-16T19:08:07Z</time>
 <fix>2d</fix>
 <sat>5</sat>
</trkpt>
<trkpt lat="48.317326667" lon="16.380460000">
<time>2012-06-16T19:08:08Z</time>
 <fix>2d</fix>
 <sat>5</sat>
</trkpt>
<trkpt lat="48.317338333" lon="16.380488333">
<time>2012-06-16T19:08:09Z</time>
 <fix>2d</fix>
 <sat>5</sat>
</trkpt>
<trkpt lat="48.317351667" lon="16.380516667">
<time>2012-06-16T19:08:10Z</time>
 <fix>2d</fix>
 <sat>5</sat>
</trkpt>
<trkpt lat="48.317366667" lon="16.380546667">
<time>2012-06-16T19:08:11Z</time>
 <fix>2d</fix>
 <sat>5</sat>
</trkpt>
<trkpt lat="48.317383333" lon="16.380575000">
<time>2012-06-16T19:08:12Z</time>
 <fix>2d</fix>
 <sat>5</sat>
</trkpt>
<trkpt lat="48.317388333" lon="16.380603333">
<time>2012-06-16T19:08:13Z</time>
 <fix>2d</fix>
 <sat>5</sat>
</trkpt>
<trkpt lat="48.317395000" lon="16.380625000">
<time>2012-06-16T19:08:14Z</time>
 <fix>2d</fix>
 <sat>5</sat>
</trkpt>
<trkpt lat="48.317403333" lon="16.380648333">
<time>2012-06-16T19:08:15Z</time>
 <fix>2d</fix>
 <sat>5</sat>
</trkpt>
<trkpt lat="48.317421667" lon="16.380683333">
<time>2012-06-16T19:08:16Z</time>
 <fix>2d</fix>
 <sat>5</sat>
</trkpt>
<trkpt lat="48.317436667" lon="16.380720000">
<time>2012-06-16T19:08:17Z</time>
 <fix>2d</fix>
 <sat>5</sat>
</trkpt>
<trkpt lat="48.317448333" lon="16.380743333">
<time>2012-06-16T19:08:18Z</time>
 <fix>2d</fix>
 <sat>5</sat>
</trkpt>
<trkpt lat="48.317461667" lon="16.380776667">
<time>2012-06-16T19:08:19Z</time>
 <fix>2d</fix>
 <sat>5</sat>
</trkpt>
<trkpt lat="48.317470000" lon="16.380811667">
<time>2012-06-16T19:08:20Z</time>
 <fix>2d</fix>
 <sat>5</sat>
</trkpt>
<trkpt lat="48.317483333" lon="16.380835000">
<time>2012-06-16T19:08:21Z</time>
 <fix>2d</fix>
 <sat>5</sat>
</trkpt>
<trkpt lat="48.317483333" lon="16.380858333">
<time>2012-06-16T19:08:22Z</time>
 <fix>2d</fix>
 <sat>5</sat>
</trkpt>
<trkpt lat="48.317495000" lon="16.380895000">
<time>2012-06-16T19:08:23Z</time>
 <fix>2d</fix>
 <sat>5</sat>
</trkpt>
<trkpt lat="48.317505000" lon="16.380926667">
<time>2012-06-16T19:08:24Z</time>
 <fix>2d</fix>
 <sat>5</sat>
</trkpt>
<trkpt lat="48.317515000" lon="16.380961667">
<time>2012-06-16T19:08:25Z</time>
 <fix>2d</fix>
 <sat>5</sat>
</trkpt>
<trkpt lat="48.317526667" lon="16.381000000">
<time>2012-06-16T19:08:26Z</time>
 <fix>2d</fix>
 <sat>5</sat>
</trkpt>
<trkpt lat="48.317541667" lon="16.381035000">
<time>2012-06-16T19:08:27Z</time>
 <fix>2d</fix>
 <sat>5</sat>
</trkpt>
<trkpt lat="48.317555000" lon="16.381065000">
<time>2012-06-16T19:08:28Z</time>
 <fix>2d</fix>
 <sat>5</sat>
</trkpt>
<trkpt lat="48.317571667" lon="16.381091667">
<time>2012-06-16T19:08:29Z</time>
 <fix>2d</fix>
 <sat>5</sat>
</trkpt>
<trkpt lat="48.317581667" lon="16.381126667">
<time>2012-06-16T19:08:30Z</time>
 <fix>2d</fix>
 <sat>5</sat>
</trkpt>
<trkpt lat="48.317595000" lon="16.381163333">
<time>2012-06-16T19:08:31Z</time>
 <fix>2d</fix>
 <sat>5</sat>
</trkpt>
<trkpt lat="48.317600000" lon="16.381190000">
<time>2012-06-16T19:08:32Z</time>
 <fix>2d</fix>
 <sat>5</sat>
</trkpt>
<trkpt lat="48.317606667" lon="16.381225000">
<time>2012-06-16T19:08:33Z</time>
 <fix>2d</fix>
 <sat>5</sat>
</trkpt>
<trkpt lat="48.317615000" lon="16.381266667">
<time>2012-06-16T19:08:34Z</time>
 <fix>2d</fix>
 <sat>5</sat>
</trkpt>
<trkpt lat="48.317625000" lon="16.381310000">
<time>2012-06-16T19:08:35Z</time>
 <fix>2d</fix>
 <sat>5</sat>
</trkpt>
<trkpt lat="48.317638333" lon="16.381363333">
<time>2012-06-16T19:08:36Z</time>
 <fix>2d</fix>
 <sat>5</sat>
</trkpt>
<trkpt lat="48.317651667" lon="16.381416667">
<time>2012-06-16T19:08:37Z</time>
 <fix>2d</fix>
 <sat>5</sat>
</trkpt>
<trkpt lat="48.317668333" lon="16.381460000">
<time>2012-06-16T19:08:38Z</time>
 <fix>2d</fix>
 <sat>5</sat>
</trkpt>
<trkpt lat="48.317671667" lon="16.381491667">
<time>2012-06-16T19:08:39Z</time>
 <fix>2d</fix>
 <sat>5</sat>
</trkpt>
<trkpt lat="48.317678333" lon="16.381526667">
<time>2012-06-16T19:08:40Z</time>
 <fix>2d</fix>
 <sat>5</sat>
</trkpt>
<trkpt lat="48.317681667" lon="16.381570000">
<time>2012-06-16T19:08:41Z</time>
 <fix>2d</fix>
 <sat>5</sat>
</trkpt>
<trkpt lat="48.317686667" lon="16.381606667">
<time>2012-06-16T19:08:42Z</time>
 <fix>2d</fix>
 <sat>5</sat>
</trkpt>
<trkpt lat="48.317713333" lon="16.381641667">
<time>2012-06-16T19:08:43Z</time>
 <fix>2d</fix>
 <sat>5</sat>
</trkpt>
<trkpt lat="48.317730000" lon="16.381675000">
<time>2012-06-16T19:08:44Z</time>
 <fix>2d</fix>
 <sat>5</sat>
</trkpt>
<trkpt lat="48.317746667" lon="16.381705000">
<time>2012-06-16T19:08:45Z</time>
 <fix>2d</fix>
 <sat>5</sat>
</trkpt>
<trkpt lat="48.317770000" lon="16.381721667">
<time>2012-06-16T19:08:46Z</time>
 <fix>2d</fix>
 <sat>5</sat>
</trkpt>
<trkpt lat="48.317780000" lon="16.381745000">
<time>2012-06-16T19:08:47Z</time>
 <fix>2d</fix>
 <sat>5</sat>
</trkpt>
<trkpt lat="48.317790000" lon="16.381783333">
<time>2012-06-16T19:08:48Z</time>
 <fix>2d</fix>
 <sat>5</sat>
</trkpt>
<trkpt lat="48.317801667" lon="16.381813333">
<time>2012-06-16T19:08:49Z</time>
 <fix>2d</fix>
 <sat>5</sat>
</trkpt>
<trkpt lat="48.317816667" lon="16.381848333">
<time>2012-06-16T19:08:50Z</time>
 <fix>2d</fix>
 <sat>5</sat>
</trkpt>
<trkpt lat="48.317835000" lon="16.381888333">
<time>2012-06-16T19:08:51Z</time>
 <fix>2d</fix>
 <sat>5</sat>
</trkpt>
<trkpt lat="48.317843333" lon="16.381923333">
<time>2012-06-16T19:08:52Z</time>
 <fix>2d</fix>
 <sat>5</sat>
</trkpt>
<trkpt lat="48.317860000" lon="16.381970000">
<time>2012-06-16T19:08:53Z</time>
 <fix>2d</fix>
 <sat>5</sat>
</trkpt>
<trkpt lat="48.317863333" lon="16.382021667">
<time>2012-06-16T19:08:54Z</time>
 <fix>2d</fix>
 <sat>5</sat>
</trkpt>
<trkpt lat="48.317865000" lon="16.382066667">
<time>2012-06-16T19:08:55Z</time>
 <fix>2d</fix>
 <sat>5</sat>
</trkpt>
<trkpt lat="48.317883333" lon="16.382123333">
<time>2012-06-16T19:08:56Z</time>
 <fix>2d</fix>
 <sat>5</sat>
</trkpt>
<trkpt lat="48.317900000" lon="16.382200000">
<time>2012-06-16T19:08:57Z</time>
 <fix>2d</fix>
 <sat>5</sat>
</trkpt>
<trkpt lat="48.317923333" lon="16.382271667">
<time>2012-06-16T19:08:58Z</time>
 <fix>2d</fix>
 <sat>5</sat>
</trkpt>
<trkpt lat="48.317935000" lon="16.382326667">
<time>2012-06-16T19:08:59Z</time>
 <fix>2d</fix>
 <sat>5</sat>
</trkpt>
<trkpt lat="48.317965000" lon="16.382375000">
<time>2012-06-16T19:09:00Z</time>
 <fix>2d</fix>
 <sat>5</sat>
</trkpt>
<trkpt lat="48.317975000" lon="16.382411667">
<time>2012-06-16T19:09:01Z</time>
 <fix>2d</fix>
 <sat>5</sat>
</trkpt>
<trkpt lat="48.317986667" lon="16.382448333">
<time>2012-06-16T19:09:02Z</time>
 <fix>2d</fix>
 <sat>5</sat>
</trkpt>
<trkpt lat="48.317991667" lon="16.382500000">
<time>2012-06-16T19:09:03Z</time>
 <fix>2d</fix>
 <sat>5</sat>
</trkpt>
<trkpt lat="48.318008333" lon="16.382551667">
<time>2012-06-16T19:09:04Z</time>
 <fix>2d</fix>
 <sat>5</sat>
</trkpt>
<trkpt lat="48.318006667" lon="16.382615000">
<time>2012-06-16T19:09:05Z</time>
 <fix>2d</fix>
 <sat>5</sat>
</trkpt>
<trkpt lat="48.318006667" lon="16.382678333">
<time>2012-06-16T19:09:06Z</time>
 <fix>2d</fix>
 <sat>5</sat>
</trkpt>
<trkpt lat="48.318006667" lon="16.382730000">
<time>2012-06-16T19:09:07Z</time>
 <fix>2d</fix>
 <sat>5</sat>
</trkpt>
<trkpt lat="48.318006667" lon="16.382785000">
<time>2012-06-16T19:09:08Z</time>
 <fix>2d</fix>
 <sat>5</sat>
</trkpt>
<trkpt lat="48.318010000" lon="16.382826667">
<time>2012-06-16T19:09:09Z</time>
 <fix>2d</fix>
 <sat>5</sat>
</trkpt>
<trkpt lat="48.318015000" lon="16.382860000">
<time>2012-06-16T19:09:10Z</time>
 <fix>2d</fix>
 <sat>5</sat>
</trkpt>
<trkpt lat="48.318023333" lon="16.382888333">
<time>2012-06-16T19:09:11Z</time>
 <fix>2d</fix>
 <sat>5</sat>
</trkpt>
<trkpt lat="48.318028333" lon="16.382915000">
<time>2012-06-16T19:09:12Z</time>
 <fix>2d</fix>
 <sat>5</sat>
</trkpt>
<trkpt lat="48.318025000" lon="16.382943333">
<time>2012-06-16T19:09:13Z</time>
 <fix>2d</fix>
 <sat>5</sat>
</trkpt>
<trkpt lat="48.318025000" lon="16.382966667">
<time>2012-06-16T19:09:14Z</time>
 <fix>2d</fix>
 <sat>5</sat>
</trkpt>
<trkpt lat="48.318031667" lon="16.382993333">
<time>2012-06-16T19:09:15Z</time>
 <fix>2d</fix>
 <sat>5</sat>
</trkpt>
<trkpt lat="48.318036667" lon="16.383023333">
<time>2012-06-16T19:09:16Z</time>
 <fix>2d</fix>
 <sat>5</sat>
</trkpt>
<trkpt lat="48.318038333" lon="16.383050000">
<time>2012-06-16T19:09:17Z</time>
 <fix>2d</fix>
 <sat>5</sat>
</trkpt>
<trkpt lat="48.318045000" lon="16.383093333">
<time>2012-06-16T19:09:18Z</time>
 <fix>2d</fix>
 <sat>5</sat>
</trkpt>
<trkpt lat="48.318053333" lon="16.383125000">
<time>2012-06-16T19:09:19Z</time>
 <fix>2d</fix>
 <sat>5</sat>
</trkpt>
<trkpt lat="48.318061667" lon="16.383170000">
<time>2012-06-16T19:09:20Z</time>
 <fix>2d</fix>
 <sat>5</sat>
</trkpt>
<trkpt lat="48.318078333" lon="16.383205000">
<time>2012-06-16T19:09:21Z</time>
 <fix>2d</fix>
 <sat>5</sat>
</trkpt>
<trkpt lat="48.318090000" lon="16.383236667">
<time>2012-06-16T19:09:22Z</time>
 <fix>2d</fix>
 <sat>5</sat>
</trkpt>
<trkpt lat="48.318101667" lon="16.383281667">
<time>2012-06-16T19:09:23Z</time>
 <fix>2d</fix>
 <sat>5</sat>
</trkpt>
<trkpt lat="48.318101667" lon="16.383321667">
<time>2012-06-16T19:09:24Z</time>
 <fix>2d</fix>
 <sat>5</sat>
</trkpt>
<trkpt lat="48.318106667" lon="16.383370000">
<time>2012-06-16T19:09:25Z</time>
 <fix>2d</fix>
 <sat>5</sat>
</trkpt>
<trkpt lat="48.318118333" lon="16.383403333">
<time>2012-06-16T19:09:26Z</time>
 <fix>2d</fix>
 <sat>5</sat>
</trkpt>
<trkpt lat="48.318131667" lon="16.383460000">
<time>2012-06-16T19:09:27Z</time>
 <fix>2d</fix>
 <sat>5</sat>
</trkpt>
<trkpt lat="48.318158333" lon="16.383518333">
<time>2012-06-16T19:09:28Z</time>
 <fix>2d</fix>
 <sat>5</sat>
</trkpt>
<trkpt lat="48.318185000" lon="16.383576667">
<time>2012-06-16T19:09:29Z</time>
 <fix>2d</fix>
 <sat>5</sat>
</trkpt>
<trkpt lat="48.318206667" lon="16.383638333">
<time>2012-06-16T19:09:30Z</time>
 <fix>2d</fix>
 <sat>5</sat>
</trkpt>
<trkpt lat="48.318231667" lon="16.383700000">
<time>2012-06-16T19:09:31Z</time>
 <fix>2d</fix>
 <sat>5</sat>
</trkpt>
<trkpt lat="48.318258333" lon="16.383761667">
<time>2012-06-16T19:09:32Z</time>
 <fix>2d</fix>
 <sat>5</sat>
</trkpt>
<trkpt lat="48.318283333" lon="16.383828333">
<time>2012-06-16T19:09:33Z</time>
 <fix>2d</fix>
 <sat>5</sat>
</trkpt>
<trkpt lat="48.318303333" lon="16.383893333">
<time>2012-06-16T19:09:34Z</time>
 <fix>2d</fix>
 <sat>5</sat>
</trkpt>
<trkpt lat="48.318313333" lon="16.383965000">
<time>2012-06-16T19:09:35Z</time>
 <fix>2d</fix>
 <sat>5</sat>
</trkpt>
<trkpt lat="48.318325000" lon="16.384026667">
<time>2012-06-16T19:09:36Z</time>
 <fix>2d</fix>
 <sat>5</sat>
</trkpt>
<trkpt lat="48.318355000" lon="16.384070000">
<time>2012-06-16T19:09:37Z</time>
 <fix>2d</fix>
 <sat>5</sat>
</trkpt>
<trkpt lat="48.318376667" lon="16.384118333">
<time>2012-06-16T19:09:38Z</time>
 <fix>2d</fix>
 <sat>5</sat>
</trkpt>
<trkpt lat="48.318410000" lon="16.384175000">
<time>2012-06-16T19:09:39Z</time>
 <fix>2d</fix>
 <sat>5</sat>
</trkpt>
<trkpt lat="48.318438333" lon="16.384250000">
<time>2012-06-16T19:09:40Z</time>
 <fix>2d</fix>
 <sat>5</sat>
</trkpt>
<trkpt lat="48.318463333" lon="16.384325000">
<time>2012-06-16T19:09:41Z</time>
 <fix>2d</fix>
 <sat>5</sat>
</trkpt>
<trkpt lat="48.318488333" lon="16.384391667">
<time>2012-06-16T19:09:42Z</time>
 <fix>2d</fix>
 <sat>5</sat>
</trkpt>
<trkpt lat="48.318521667" lon="16.384446667">
<time>2012-06-16T19:09:43Z</time>
 <fix>2d</fix>
 <sat>5</sat>
</trkpt>
<trkpt lat="48.318555000" lon="16.384515000">
<time>2012-06-16T19:09:44Z</time>
 <fix>2d</fix>
 <sat>5</sat>
</trkpt>
<trkpt lat="48.318583333" lon="16.384590000">
<time>2012-06-16T19:09:45Z</time>
 <fix>2d</fix>
 <sat>5</sat>
</trkpt>
<trkpt lat="48.318615000" lon="16.384656667">
<time>2012-06-16T19:09:46Z</time>
 <fix>2d</fix>
 <sat>5</sat>
</trkpt>
<trkpt lat="48.318648333" lon="16.384715000">
<time>2012-06-16T19:09:47Z</time>
 <fix>2d</fix>
 <sat>5</sat>
</trkpt>
<trkpt lat="48.318673333" lon="16.384760000">
<time>2012-06-16T19:09:48Z</time>
 <fix>2d</fix>
 <sat>5</sat>
</trkpt>
<trkpt lat="48.318696667" lon="16.384815000">
<time>2012-06-16T19:09:49Z</time>
 <fix>2d</fix>
 <sat>5</sat>
</trkpt>
<trkpt lat="48.318725000" lon="16.384870000">
<time>2012-06-16T19:09:50Z</time>
 <fix>2d</fix>
 <sat>5</sat>
</trkpt>
<trkpt lat="48.318748333" lon="16.384925000">
<time>2012-06-16T19:09:51Z</time>
 <fix>2d</fix>
 <sat>5</sat>
</trkpt>
<trkpt lat="48.318765000" lon="16.384985000">
<time>2012-06-16T19:09:52Z</time>
 <fix>2d</fix>
 <sat>5</sat>
</trkpt>
<trkpt lat="48.318788333" lon="16.385028333">
<time>2012-06-16T19:09:53Z</time>
 <fix>2d</fix>
 <sat>5</sat>
</trkpt>
<trkpt lat="48.318810000" lon="16.385090000">
<time>2012-06-16T19:09:54Z</time>
 <fix>2d</fix>
 <sat>5</sat>
</trkpt>
<trkpt lat="48.318833333" lon="16.385155000">
<time>2012-06-16T19:09:55Z</time>
 <fix>2d</fix>
 <sat>5</sat>
</trkpt>
<trkpt lat="48.318861667" lon="16.385211667">
<time>2012-06-16T19:09:56Z</time>
 <fix>2d</fix>
 <sat>5</sat>
</trkpt>
<trkpt lat="48.318873333" lon="16.385268333">
<time>2012-06-16T19:09:57Z</time>
 <fix>2d</fix>
 <sat>5</sat>
</trkpt>
<trkpt lat="48.318886667" lon="16.385326667">
<time>2012-06-16T19:09:58Z</time>
 <fix>2d</fix>
 <sat>5</sat>
</trkpt>
<trkpt lat="48.318908333" lon="16.385380000">
<time>2012-06-16T19:09:59Z</time>
 <fix>2d</fix>
 <sat>5</sat>
</trkpt>
<trkpt lat="48.318936667" lon="16.385435000">
<time>2012-06-16T19:10:00Z</time>
 <fix>2d</fix>
 <sat>5</sat>
</trkpt>
<trkpt lat="48.318958333" lon="16.385481667">
<time>2012-06-16T19:10:01Z</time>
 <fix>2d</fix>
 <sat>5</sat>
</trkpt>
<trkpt lat="48.318966667" lon="16.385533333">
<time>2012-06-16T19:10:02Z</time>
 <fix>2d</fix>
 <sat>5</sat>
</trkpt>
<trkpt lat="48.318980000" lon="16.385581667">
<time>2012-06-16T19:10:03Z</time>
 <fix>2d</fix>
 <sat>5</sat>
</trkpt>
<trkpt lat="48.318993333" lon="16.385626667">
<time>2012-06-16T19:10:04Z</time>
 <fix>2d</fix>
 <sat>5</sat>
</trkpt>
<trkpt lat="48.319011667" lon="16.385678333">
<time>2012-06-16T19:10:05Z</time>
 <fix>2d</fix>
 <sat>5</sat>
</trkpt>
<trkpt lat="48.319028333" lon="16.385725000">
<time>2012-06-16T19:10:06Z</time>
 <fix>2d</fix>
 <sat>5</sat>
</trkpt>
<trkpt lat="48.319040000" lon="16.385770000">
<time>2012-06-16T19:10:07Z</time>
 <fix>2d</fix>
 <sat>5</sat>
</trkpt>
<trkpt lat="48.319058333" lon="16.385816667">
<time>2012-06-16T19:10:08Z</time>
 <fix>2d</fix>
 <sat>5</sat>
</trkpt>
<trkpt lat="48.319080000" lon="16.385868333">
<time>2012-06-16T19:10:09Z</time>
 <fix>2d</fix>
 <sat>5</sat>
</trkpt>
<trkpt lat="48.319103333" lon="16.385935000">
<time>2012-06-16T19:10:10Z</time>
 <fix>2d</fix>
 <sat>5</sat>
</trkpt>
<trkpt lat="48.319123333" lon="16.385990000">
<time>2012-06-16T19:10:11Z</time>
 <fix>2d</fix>
 <sat>5</sat>
</trkpt>
<trkpt lat="48.319138333" lon="16.386041667">
<time>2012-06-16T19:10:12Z</time>
 <fix>2d</fix>
 <sat>5</sat>
</trkpt>
<trkpt lat="48.319145000" lon="16.386088333">
<time>2012-06-16T19:10:13Z</time>
 <fix>2d</fix>
 <sat>5</sat>
</trkpt>
<trkpt lat="48.319155000" lon="16.386155000">
<time>2012-06-16T19:10:14Z</time>
 <fix>2d</fix>
 <sat>5</sat>
</trkpt>
<trkpt lat="48.319158333" lon="16.386220000">
<time>2012-06-16T19:10:15Z</time>
 <fix>2d</fix>
 <sat>5</sat>
</trkpt>
<trkpt lat="48.319170000" lon="16.386276667">
<time>2012-06-16T19:10:16Z</time>
 <fix>2d</fix>
 <sat>5</sat>
</trkpt>
<trkpt lat="48.319181667" lon="16.386335000">
<time>2012-06-16T19:10:17Z</time>
 <fix>2d</fix>
 <sat>5</sat>
</trkpt>
<trkpt lat="48.319176667" lon="16.386405000">
<time>2012-06-16T19:10:18Z</time>
 <fix>2d</fix>
 <sat>5</sat>
</trkpt>
<trkpt lat="48.319176667" lon="16.386473333">
<time>2012-06-16T19:10:19Z</time>
 <fix>2d</fix>
 <sat>5</sat>
</trkpt>
<trkpt lat="48.319161667" lon="16.386525000">
<time>2012-06-16T19:10:20Z</time>
 <fix>2d</fix>
 <sat>5</sat>
</trkpt>
<trkpt lat="48.319151667" lon="16.386571667">
<time>2012-06-16T19:10:21Z</time>
 <fix>2d</fix>
 <sat>5</sat>
</trkpt>
<trkpt lat="48.319141667" lon="16.386616667">
<time>2012-06-16T19:10:22Z</time>
 <fix>2d</fix>
 <sat>5</sat>
</trkpt>
<trkpt lat="48.319118333" lon="16.386678333">
<time>2012-06-16T19:10:23Z</time>
 <fix>2d</fix>
 <sat>5</sat>
</trkpt>
<trkpt lat="48.319091667" lon="16.386755000">
<time>2012-06-16T19:10:24Z</time>
 <fix>2d</fix>
 <sat>5</sat>
</trkpt>
<trkpt lat="48.319078333" lon="16.386826667">
<time>2012-06-16T19:10:25Z</time>
 <fix>2d</fix>
 <sat>5</sat>
</trkpt>
<trkpt lat="48.319063333" lon="16.386898333">
<time>2012-06-16T19:10:26Z</time>
 <fix>2d</fix>
 <sat>5</sat>
</trkpt>
<trkpt lat="48.319045000" lon="16.386975000">
<time>2012-06-16T19:10:27Z</time>
 <fix>2d</fix>
 <sat>5</sat>
</trkpt>
<trkpt lat="48.319028333" lon="16.387041667">
<time>2012-06-16T19:10:28Z</time>
 <fix>2d</fix>
 <sat>5</sat>
</trkpt>
<trkpt lat="48.319016667" lon="16.387101667">
<time>2012-06-16T19:10:29Z</time>
 <fix>2d</fix>
 <sat>5</sat>
</trkpt>
<trkpt lat="48.318993333" lon="16.387173333">
<time>2012-06-16T19:10:30Z</time>
 <fix>2d</fix>
 <sat>5</sat>
</trkpt>
<trkpt lat="48.318978333" lon="16.387240000">
<time>2012-06-16T19:10:31Z</time>
 <fix>2d</fix>
 <sat>5</sat>
</trkpt>
<trkpt lat="48.318960000" lon="16.387315000">
<time>2012-06-16T19:10:32Z</time>
 <fix>2d</fix>
 <sat>5</sat>
</trkpt>
<trkpt lat="48.318945000" lon="16.387400000">
<time>2012-06-16T19:10:33Z</time>
 <fix>2d</fix>
 <sat>5</sat>
</trkpt>
<trkpt lat="48.318941667" lon="16.387468333">
<time>2012-06-16T19:10:34Z</time>
 <fix>2d</fix>
 <sat>5</sat>
</trkpt>
<trkpt lat="48.318945000" lon="16.387536667">
<time>2012-06-16T19:10:35Z</time>
 <fix>2d</fix>
 <sat>5</sat>
</trkpt>
<trkpt lat="48.318938333" lon="16.387606667">
<time>2012-06-16T19:10:36Z</time>
 <fix>2d</fix>
 <sat>5</sat>
</trkpt>
<trkpt lat="48.318936667" lon="16.387671667">
<time>2012-06-16T19:10:37Z</time>
 <fix>2d</fix>
 <sat>5</sat>
</trkpt>
<trkpt lat="48.318938333" lon="16.387716667">
<time>2012-06-16T19:10:38Z</time>
 <fix>2d</fix>
 <sat>5</sat>
</trkpt>
<trkpt lat="48.318935000" lon="16.387770000">
<time>2012-06-16T19:10:39Z</time>
 <fix>2d</fix>
 <sat>5</sat>
</trkpt>
<trkpt lat="48.318931667" lon="16.387828333">
<time>2012-06-16T19:10:40Z</time>
 <fix>2d</fix>
 <sat>5</sat>
</trkpt>
<trkpt lat="48.318938333" lon="16.387880000">
<time>2012-06-16T19:10:41Z</time>
 <fix>2d</fix>
 <sat>5</sat>
</trkpt>
<trkpt lat="48.318945000" lon="16.387943333">
<time>2012-06-16T19:10:42Z</time>
 <fix>2d</fix>
 <sat>5</sat>
</trkpt>
<trkpt lat="48.318948333" lon="16.387998333">
<time>2012-06-16T19:10:43Z</time>
 <fix>2d</fix>
 <sat>5</sat>
</trkpt>
<trkpt lat="48.318951667" lon="16.388055000">
<time>2012-06-16T19:10:44Z</time>
 <fix>2d</fix>
 <sat>5</sat>
</trkpt>
<trkpt lat="48.318951667" lon="16.388110000">
<time>2012-06-16T19:10:45Z</time>
 <fix>2d</fix>
 <sat>5</sat>
</trkpt>
<trkpt lat="48.318951667" lon="16.388166667">
<time>2012-06-16T19:10:46Z</time>
 <fix>2d</fix>
 <sat>5</sat>
</trkpt>
<trkpt lat="48.318958333" lon="16.388278333">
<time>2012-06-16T19:10:47Z</time>
 <fix>2d</fix>
 <sat>5</sat>
</trkpt>
<trkpt lat="48.318965000" lon="16.388390000">
<time>2012-06-16T19:10:48Z</time>
 <fix>2d</fix>
 <sat>5</sat>
</trkpt>
<trkpt lat="48.318978333" lon="16.388530000">
<time>2012-06-16T19:10:49Z</time>
 <fix>2d</fix>
 <sat>5</sat>
</trkpt>
<trkpt lat="48.319010000" lon="16.388666667">
<time>2012-06-16T19:10:50Z</time>
 <fix>2d</fix>
 <sat>5</sat>
</trkpt>
<trkpt lat="48.319028333" lon="16.388806667">
<time>2012-06-16T19:10:51Z</time>
 <fix>2d</fix>
 <sat>5</sat>
</trkpt>
<trkpt lat="48.319030000" lon="16.388918333">
<time>2012-06-16T19:10:52Z</time>
 <fix>2d</fix>
 <sat>5</sat>
</trkpt>
<trkpt lat="48.319035000" lon="16.389030000">
<time>2012-06-16T19:10:53Z</time>
 <fix>2d</fix>
 <sat>5</sat>
</trkpt>
<trkpt lat="48.319028333" lon="16.389110000">
<time>2012-06-16T19:10:54Z</time>
 <fix>2d</fix>
 <sat>5</sat>
</trkpt>
<trkpt lat="48.319028333" lon="16.389181667">
<time>2012-06-16T19:10:55Z</time>
 <fix>2d</fix>
 <sat>5</sat>
</trkpt>
<trkpt lat="48.319026667" lon="16.389250000">
<time>2012-06-16T19:10:56Z</time>
 <fix>2d</fix>
 <sat>5</sat>
</trkpt>
<trkpt lat="48.319028333" lon="16.389288333">
<time>2012-06-16T19:10:57Z</time>
 <fix>2d</fix>
 <sat>5</sat>
</trkpt>
<trkpt lat="48.319028333" lon="16.389306667">
<time>2012-06-16T19:10:58Z</time>
 <fix>2d</fix>
 <sat>5</sat>
</trkpt>
<trkpt lat="48.319036667" lon="16.389308333">
<time>2012-06-16T19:10:59Z</time>
 <fix>2d</fix>
 <sat>5</sat>
</trkpt>
<trkpt lat="48.319050000" lon="16.389320000">
<time>2012-06-16T19:11:00Z</time>
 <fix>2d</fix>
 <sat>5</sat>
</trkpt>
<trkpt lat="48.319065000" lon="16.389320000">
<time>2012-06-16T19:11:01Z</time>
 <fix>2d</fix>
 <sat>5</sat>
</trkpt>
<trkpt lat="48.319085000" lon="16.389336667">
<time>2012-06-16T19:11:02Z</time>
 <fix>2d</fix>
 <sat>5</sat>
</trkpt>
<trkpt lat="48.319113333" lon="16.389340000">
<time>2012-06-16T19:11:03Z</time>
 <fix>2d</fix>
 <sat>5</sat>
</trkpt>
<trkpt lat="48.319138333" lon="16.389348333">
<time>2012-06-16T19:11:04Z</time>
 <fix>2d</fix>
 <sat>5</sat>
</trkpt>
<trkpt lat="48.319166667" lon="16.389348333">
<time>2012-06-16T19:11:05Z</time>
 <fix>2d</fix>
 <sat>5</sat>
</trkpt>
<trkpt lat="48.319190000" lon="16.389356667">
<time>2012-06-16T19:11:06Z</time>
 <fix>2d</fix>
 <sat>5</sat>
</trkpt>
<trkpt lat="48.319210000" lon="16.389360000">
<time>2012-06-16T19:11:07Z</time>
 <fix>2d</fix>
 <sat>5</sat>
</trkpt>
<trkpt lat="48.319233333" lon="16.389360000">
<time>2012-06-16T19:11:08Z</time>
 <fix>2d</fix>
 <sat>5</sat>
</trkpt>
<trkpt lat="48.319256667" lon="16.389371667">
<time>2012-06-16T19:11:09Z</time>
 <fix>2d</fix>
 <sat>5</sat>
</trkpt>
<trkpt lat="48.319280000" lon="16.389376667">
<time>2012-06-16T19:11:10Z</time>
 <fix>2d</fix>
 <sat>5</sat>
</trkpt>
<trkpt lat="48.319290000" lon="16.389386667">
<time>2012-06-16T19:11:11Z</time>
 <fix>2d</fix>
 <sat>5</sat>
</trkpt>
<trkpt lat="48.319296667" lon="16.389396667">
<time>2012-06-16T19:11:12Z</time>
 <fix>2d</fix>
 <sat>5</sat>
</trkpt>
<trkpt lat="48.319321667" lon="16.389401667">
<time>2012-06-16T19:11:13Z</time>
 <fix>2d</fix>
 <sat>5</sat>
</trkpt>
<trkpt lat="48.319350000" lon="16.389406667">
<time>2012-06-16T19:11:14Z</time>
 <fix>2d</fix>
 <sat>5</sat>
</trkpt>
<trkpt lat="48.319376667" lon="16.389411667">
<time>2012-06-16T19:11:15Z</time>
 <fix>2d</fix>
 <sat>5</sat>
</trkpt>
<trkpt lat="48.319388333" lon="16.389411667">
<time>2012-06-16T19:11:16Z</time>
 <fix>2d</fix>
 <sat>5</sat>
</trkpt>
<trkpt lat="48.319400000" lon="16.389405000">
<time>2012-06-16T19:11:17Z</time>
 <fix>2d</fix>
 <sat>5</sat>
</trkpt>
<trkpt lat="48.319408333" lon="16.389410000">
<time>2012-06-16T19:11:18Z</time>
 <fix>2d</fix>
 <sat>5</sat>
</trkpt>
<trkpt lat="48.319420000" lon="16.389411667">
<time>2012-06-16T19:11:19Z</time>
 <fix>2d</fix>
 <sat>5</sat>
</trkpt>
<trkpt lat="48.319428333" lon="16.389416667">
<time>2012-06-16T19:11:20Z</time>
 <fix>2d</fix>
 <sat>5</sat>
</trkpt>
<trkpt lat="48.319438333" lon="16.389423333">
<time>2012-06-16T19:11:21Z</time>
 <fix>2d</fix>
 <sat>5</sat>
</trkpt>
<trkpt lat="48.319443333" lon="16.389433333">
<time>2012-06-16T19:11:22Z</time>
 <fix>2d</fix>
 <sat>5</sat>
</trkpt>
<trkpt lat="48.319450000" lon="16.389438333">
<time>2012-06-16T19:11:23Z</time>
 <fix>2d</fix>
 <sat>4</sat>
</trkpt>
<trkpt lat="48.319458333" lon="16.389445000">
<time>2012-06-16T19:11:24Z</time>
 <fix>2d</fix>
 <sat>4</sat>
</trkpt>
<trkpt lat="48.319473333" lon="16.389456667">
<time>2012-06-16T19:11:25Z</time>
 <fix>2d</fix>
 <sat>4</sat>
</trkpt>
<trkpt lat="48.319491667" lon="16.389463333">
<time>2012-06-16T19:11:26Z</time>
 <fix>2d</fix>
 <sat>4</sat>
</trkpt>
<trkpt lat="48.319505000" lon="16.389475000">
<time>2012-06-16T19:11:27Z</time>
 <fix>2d</fix>
 <sat>4</sat>
</trkpt>
<trkpt lat="48.319513333" lon="16.389486667">
<time>2012-06-16T19:11:28Z</time>
 <fix>2d</fix>
 <sat>4</sat>
</trkpt>
<trkpt lat="48.319530000" lon="16.389490000">
<time>2012-06-16T19:11:29Z</time>
 <fix>2d</fix>
 <sat>4</sat>
</trkpt>
<trkpt lat="48.319550000" lon="16.389496667">
<time>2012-06-16T19:11:30Z</time>
 <fix>2d</fix>
 <sat>4</sat>
</trkpt>
<trkpt lat="48.319560000" lon="16.389513333">
<time>2012-06-16T19:11:31Z</time>
 <fix>2d</fix>
 <sat>4</sat>
</trkpt>
<trkpt lat="48.319570000" lon="16.389525000">
<time>2012-06-16T19:11:32Z</time>
 <fix>2d</fix>
 <sat>5</sat>
</trkpt>
<trkpt lat="48.319581667" lon="16.389538333">
<time>2012-06-16T19:11:33Z</time>
 <fix>2d</fix>
 <sat>5</sat>
</trkpt>
<trkpt lat="48.319593333" lon="16.389553333">
<time>2012-06-16T19:11:34Z</time>
 <fix>2d</fix>
 <sat>5</sat>
</trkpt>
<trkpt lat="48.319601667" lon="16.389566667">
<time>2012-06-16T19:11:35Z</time>
 <fix>2d</fix>
 <sat>5</sat>
</trkpt>
<trkpt lat="48.319611667" lon="16.389591667">
<time>2012-06-16T19:11:36Z</time>
 <fix>2d</fix>
 <sat>5</sat>
</trkpt>
<trkpt lat="48.319620000" lon="16.389616667">
<time>2012-06-16T19:11:37Z</time>
 <fix>2d</fix>
 <sat>5</sat>
</trkpt>
<trkpt lat="48.319635000" lon="16.389628333">
<time>2012-06-16T19:11:38Z</time>
 <fix>2d</fix>
 <sat>5</sat>
</trkpt>
<trkpt lat="48.319643333" lon="16.389636667">
<time>2012-06-16T19:11:39Z</time>
 <fix>2d</fix>
 <sat>5</sat>
</trkpt>
<trkpt lat="48.319650000" lon="16.389636667">
<time>2012-06-16T19:11:40Z</time>
 <fix>2d</fix>
 <sat>5</sat>
</trkpt>
<trkpt lat="48.319658333" lon="16.389640000">
<time>2012-06-16T19:11:41Z</time>
 <fix>2d</fix>
 <sat>5</sat>
</trkpt>
<trkpt lat="48.319668333" lon="16.389641667">
<time>2012-06-16T19:11:42Z</time>
 <fix>2d</fix>
 <sat>5</sat>
</trkpt>
<trkpt lat="48.319688333" lon="16.389648333">
<time>2012-06-16T19:11:43Z</time>
 <fix>2d</fix>
 <sat>5</sat>
</trkpt>
<trkpt lat="48.319701667" lon="16.389648333">
<time>2012-06-16T19:11:44Z</time>
 <fix>2d</fix>
 <sat>4</sat>
</trkpt>
<trkpt lat="48.319710000" lon="16.389658333">
<time>2012-06-16T19:11:45Z</time>
 <fix>2d</fix>
 <sat>4</sat>
</trkpt>
<trkpt lat="48.319725000" lon="16.389670000">
<time>2012-06-16T19:11:46Z</time>
 <fix>2d</fix>
 <sat>4</sat>
</trkpt>
<trkpt lat="48.319740000" lon="16.389680000">
<time>2012-06-16T19:11:47Z</time>
 <fix>2d</fix>
 <sat>4</sat>
</trkpt>
<trkpt lat="48.319760000" lon="16.389691667">
<time>2012-06-16T19:11:48Z</time>
 <fix>2d</fix>
 <sat>4</sat>
</trkpt>
<trkpt lat="48.319781667" lon="16.389700000">
<time>2012-06-16T19:11:49Z</time>
 <fix>2d</fix>
 <sat>4</sat>
</trkpt>
<trkpt lat="48.319795000" lon="16.389700000">
<time>2012-06-16T19:11:50Z</time>
 <fix>2d</fix>
 <sat>4</sat>
</trkpt>
<trkpt lat="48.319810000" lon="16.389700000">
<time>2012-06-16T19:11:51Z</time>
 <fix>2d</fix>
 <sat>4</sat>
</trkpt>
<trkpt lat="48.319830000" lon="16.389711667">
<time>2012-06-16T19:11:52Z</time>
 <fix>2d</fix>
 <sat>4</sat>
</trkpt>
<trkpt lat="48.319845000" lon="16.389726667">
<time>2012-06-16T19:11:53Z</time>
 <fix>2d</fix>
 <sat>4</sat>
</trkpt>
<trkpt lat="48.319860000" lon="16.389738333">
<time>2012-06-16T19:11:54Z</time>
 <fix>2d</fix>
 <sat>4</sat>
</trkpt>
<trkpt lat="48.319871667" lon="16.389743333">
<time>2012-06-16T19:11:55Z</time>
 <fix>2d</fix>
 <sat>4</sat>
</trkpt>
<trkpt lat="48.319885000" lon="16.389751667">
<time>2012-06-16T19:11:56Z</time>
 <fix>2d</fix>
 <sat>4</sat>
</trkpt>
<trkpt lat="48.319901667" lon="16.389751667">
<time>2012-06-16T19:11:57Z</time>
 <fix>2d</fix>
 <sat>4</sat>
</trkpt>
<trkpt lat="48.319925000" lon="16.389745000">
<time>2012-06-16T19:11:58Z</time>
 <fix>2d</fix>
 <sat>4</sat>
</trkpt>
<trkpt lat="48.319950000" lon="16.389735000">
<time>2012-06-16T19:11:59Z</time>
 <fix>2d</fix>
 <sat>4</sat>
</trkpt>
<trkpt lat="48.319971667" lon="16.389740000">
<time>2012-06-16T19:12:00Z</time>
 <fix>2d</fix>
 <sat>4</sat>
</trkpt>
<trkpt lat="48.319996667" lon="16.389751667">
<time>2012-06-16T19:12:01Z</time>
 <fix>2d</fix>
 <sat>4</sat>
</trkpt>
<trkpt lat="48.320023333" lon="16.389763333">
<time>2012-06-16T19:12:02Z</time>
 <fix>2d</fix>
 <sat>4</sat>
</trkpt>
<trkpt lat="48.320041667" lon="16.389778333">
<time>2012-06-16T19:12:03Z</time>
 <fix>2d</fix>
 <sat>4</sat>
</trkpt>
<trkpt lat="48.320063333" lon="16.389801667">
<time>2012-06-16T19:12:04Z</time>
 <fix>2d</fix>
 <sat>4</sat>
</trkpt>
<trkpt lat="48.320081667" lon="16.389823333">
<time>2012-06-16T19:12:05Z</time>
 <fix>2d</fix>
 <sat>5</sat>
</trkpt>
<trkpt lat="48.320101667" lon="16.389831667">
<time>2012-06-16T19:12:06Z</time>
 <fix>2d</fix>
 <sat>5</sat>
</trkpt>
<trkpt lat="48.320118333" lon="16.389846667">
<time>2012-06-16T19:12:07Z</time>
 <fix>2d</fix>
 <sat>5</sat>
</trkpt>
<trkpt lat="48.320135000" lon="16.389860000">
<time>2012-06-16T19:12:08Z</time>
 <fix>2d</fix>
 <sat>5</sat>
</trkpt>
<trkpt lat="48.320148333" lon="16.389871667">
<time>2012-06-16T19:12:09Z</time>
 <fix>2d</fix>
 <sat>5</sat>
</trkpt>
<trkpt lat="48.320175000" lon="16.389870000">
<time>2012-06-16T19:12:10Z</time>
 <fix>2d</fix>
 <sat>5</sat>
</trkpt>
<trkpt lat="48.320203333" lon="16.389866667">
<time>2012-06-16T19:12:11Z</time>
 <fix>2d</fix>
 <sat>4</sat>
</trkpt>
<trkpt lat="48.320228333" lon="16.389871667">
<time>2012-06-16T19:12:12Z</time>
 <fix>2d</fix>
 <sat>5</sat>
</trkpt>
<trkpt lat="48.320255000" lon="16.389876667">
<time>2012-06-16T19:12:13Z</time>
 <fix>2d</fix>
 <sat>5</sat>
</trkpt>
<trkpt lat="48.320288333" lon="16.389890000">
<time>2012-06-16T19:12:14Z</time>
 <fix>2d</fix>
 <sat>4</sat>
</trkpt>
<trkpt lat="48.320315000" lon="16.389906667">
<time>2012-06-16T19:12:15Z</time>
 <fix>2d</fix>
 <sat>5</sat>
</trkpt>
<trkpt lat="48.320333333" lon="16.389906667">
<time>2012-06-16T19:12:16Z</time>
 <fix>2d</fix>
 <sat>5</sat>
</trkpt>
<trkpt lat="48.320338333" lon="16.389906667">
<time>2012-06-16T19:12:17Z</time>
 <fix>2d</fix>
 <sat>5</sat>
</trkpt>
<trkpt lat="48.320350000" lon="16.389915000">
<time>2012-06-16T19:12:18Z</time>
 <fix>2d</fix>
 <sat>5</sat>
</trkpt>
<trkpt lat="48.320361667" lon="16.389920000">
<time>2012-06-16T19:12:19Z</time>
 <fix>2d</fix>
 <sat>5</sat>
</trkpt>
<trkpt lat="48.320375000" lon="16.389926667">
<time>2012-06-16T19:12:20Z</time>
 <fix>2d</fix>
 <sat>5</sat>
</trkpt>
<trkpt lat="48.320360000" lon="16.389941667">
<time>2012-06-16T19:12:21Z</time>
 <fix>2d</fix>
 <sat>5</sat>
</trkpt>
<trkpt lat="48.320345000" lon="16.389960000">
<time>2012-06-16T19:12:22Z</time>
 <fix>2d</fix>
 <sat>5</sat>
</trkpt>
<trkpt lat="48.320331667" lon="16.389976667">
<time>2012-06-16T19:12:23Z</time>
 <fix>2d</fix>
 <sat>5</sat>
</trkpt>
<trkpt lat="48.320335000" lon="16.389970000">
<time>2012-06-16T19:12:24Z</time>
 <fix>2d</fix>
 <sat>4</sat>
</trkpt>
<trkpt lat="48.320338333" lon="16.389961667">
<time>2012-06-16T19:12:25Z</time>
 <fix>2d</fix>
 <sat>5</sat>
</trkpt>
<trkpt lat="48.320340000" lon="16.389951667">
<time>2012-06-16T19:12:26Z</time>
 <fix>2d</fix>
 <sat>5</sat>
</trkpt>
<trkpt lat="48.320341667" lon="16.389945000">
<time>2012-06-16T19:12:27Z</time>
 <fix>2d</fix>
 <sat>5</sat>
</trkpt>
<trkpt lat="48.320343333" lon="16.389930000">
<time>2012-06-16T19:12:28Z</time>
 <fix>2d</fix>
 <sat>5</sat>
</trkpt>
<trkpt lat="48.320346667" lon="16.389913333">
<time>2012-06-16T19:12:29Z</time>
 <fix>2d</fix>
 <sat>5</sat>
</trkpt>
<trkpt lat="48.320351667" lon="16.389895000">
<time>2012-06-16T19:12:30Z</time>
 <fix>2d</fix>
 <sat>5</sat>
</trkpt>
<trkpt lat="48.320353333" lon="16.389875000">
<time>2012-06-16T19:12:31Z</time>
 <fix>2d</fix>
 <sat>5</sat>
</trkpt>
<trkpt lat="48.320358333" lon="16.389853333">
<time>2012-06-16T19:12:32Z</time>
 <fix>2d</fix>
 <sat>5</sat>
</trkpt>
<trkpt lat="48.320363333" lon="16.389835000">
<time>2012-06-16T19:12:33Z</time>
 <fix>2d</fix>
 <sat>6</sat>
</trkpt>
<trkpt lat="48.320368333" lon="16.389813333">
<time>2012-06-16T19:12:34Z</time>
 <fix>2d</fix>
 <sat>6</sat>
</trkpt>
<trkpt lat="48.320371667" lon="16.389791667">
<time>2012-06-16T19:12:35Z</time>
 <fix>2d</fix>
 <sat>6</sat>
</trkpt>
<trkpt lat="48.320373333" lon="16.389766667">
<time>2012-06-16T19:12:36Z</time>
 <fix>2d</fix>
 <sat>6</sat>
</trkpt>
<trkpt lat="48.320375000" lon="16.389745000">
<time>2012-06-16T19:12:37Z</time>
 <fix>2d</fix>
 <sat>6</sat>
</trkpt>
<trkpt lat="48.320375000" lon="16.389721667">
<time>2012-06-16T19:12:38Z</time>
 <fix>2d</fix>
 <sat>6</sat>
</trkpt>
<trkpt lat="48.320371667" lon="16.389696667">
<time>2012-06-16T19:12:39Z</time>
 <fix>2d</fix>
 <sat>6</sat>
</trkpt>
<trkpt lat="48.320371667" lon="16.389675000">
<time>2012-06-16T19:12:40Z</time>
 <fix>2d</fix>
 <sat>6</sat>
</trkpt>
<trkpt lat="48.320365000" lon="16.389648333">
<time>2012-06-16T19:12:41Z</time>
 <fix>2d</fix>
 <sat>6</sat>
</trkpt>
<trkpt lat="48.320361667" lon="16.389621667">
<time>2012-06-16T19:12:42Z</time>
 <fix>2d</fix>
 <sat>6</sat>
</trkpt>
<trkpt lat="48.320355000" lon="16.389598333">
<time>2012-06-16T19:12:43Z</time>
 <fix>2d</fix>
 <sat>6</sat>
</trkpt>
<trkpt lat="48.320353333" lon="16.389573333">
<time>2012-06-16T19:12:44Z</time>
 <fix>2d</fix>
 <sat>6</sat>
</trkpt>
<trkpt lat="48.320350000" lon="16.389550000">
<time>2012-06-16T19:12:45Z</time>
 <fix>2d</fix>
 <sat>6</sat>
</trkpt>
<trkpt lat="48.320351667" lon="16.389526667">
<time>2012-06-16T19:12:46Z</time>
 <fix>2d</fix>
 <sat>6</sat>
</trkpt>
<trkpt lat="48.320355000" lon="16.389510000">
<time>2012-06-16T19:12:47Z</time>
 <fix>2d</fix>
 <sat>6</sat>
</trkpt>
<trkpt lat="48.320356667" lon="16.389490000">
<time>2012-06-16T19:12:48Z</time>
 <fix>2d</fix>
 <sat>6</sat>
</trkpt>
<trkpt lat="48.320355000" lon="16.389463333">
<time>2012-06-16T19:12:49Z</time>
 <fix>2d</fix>
 <sat>6</sat>
</trkpt>
<trkpt lat="48.320353333" lon="16.389438333">
<time>2012-06-16T19:12:50Z</time>
 <fix>2d</fix>
 <sat>6</sat>
</trkpt>
<trkpt lat="48.320348333" lon="16.389410000">
<time>2012-06-16T19:12:51Z</time>
 <fix>2d</fix>
 <sat>6</sat>
</trkpt>
<trkpt lat="48.320343333" lon="16.389383333">
<time>2012-06-16T19:12:52Z</time>
 <fix>2d</fix>
 <sat>6</sat>
</trkpt>
<trkpt lat="48.320343333" lon="16.389353333">
<time>2012-06-16T19:12:53Z</time>
 <fix>2d</fix>
 <sat>6</sat>
</trkpt>
<trkpt lat="48.320346667" lon="16.389320000">
<time>2012-06-16T19:12:54Z</time>
 <fix>2d</fix>
 <sat>6</sat>
</trkpt>
<trkpt lat="48.320343333" lon="16.389296667">
<time>2012-06-16T19:12:55Z</time>
 <fix>2d</fix>
 <sat>6</sat>
</trkpt>
<trkpt lat="48.320341667" lon="16.389273333">
<time>2012-06-16T19:12:56Z</time>
 <fix>2d</fix>
 <sat>6</sat>
</trkpt>
<trkpt lat="48.320341667" lon="16.389248333">
<time>2012-06-16T19:12:57Z</time>
 <fix>2d</fix>
 <sat>6</sat>
</trkpt>
<trkpt lat="48.320346667" lon="16.389226667">
<time>2012-06-16T19:12:58Z</time>
 <fix>2d</fix>
 <sat>6</sat>
</trkpt>
<trkpt lat="48.320346667" lon="16.389208333">
<time>2012-06-16T19:12:59Z</time>
 <fix>2d</fix>
 <sat>6</sat>
</trkpt>
<trkpt lat="48.320343333" lon="16.389191667">
<time>2012-06-16T19:13:00Z</time>
 <fix>2d</fix>
 <sat>6</sat>
</trkpt>
<trkpt lat="48.320346667" lon="16.389161667">
<time>2012-06-16T19:13:01Z</time>
 <fix>2d</fix>
 <sat>6</sat>
</trkpt>
<trkpt lat="48.320343333" lon="16.389135000">
<time>2012-06-16T19:13:02Z</time>
 <fix>2d</fix>
 <sat>6</sat>
</trkpt>
<trkpt lat="48.320346667" lon="16.389115000">
<time>2012-06-16T19:13:03Z</time>
 <fix>2d</fix>
 <sat>6</sat>
</trkpt>
<trkpt lat="48.320351667" lon="16.389095000">
<time>2012-06-16T19:13:04Z</time>
 <fix>2d</fix>
 <sat>6</sat>
</trkpt>
<trkpt lat="48.320353333" lon="16.389071667">
<time>2012-06-16T19:13:05Z</time>
 <fix>2d</fix>
 <sat>6</sat>
</trkpt>
<trkpt lat="48.320355000" lon="16.389048333">
<time>2012-06-16T19:13:06Z</time>
 <fix>2d</fix>
 <sat>6</sat>
</trkpt>
<trkpt lat="48.320356667" lon="16.389025000">
<time>2012-06-16T19:13:07Z</time>
 <fix>2d</fix>
 <sat>6</sat>
</trkpt>
<trkpt lat="48.320361667" lon="16.389008333">
<time>2012-06-16T19:13:08Z</time>
 <fix>2d</fix>
 <sat>6</sat>
</trkpt>
<trkpt lat="48.320361667" lon="16.388996667">
<time>2012-06-16T19:13:09Z</time>
 <fix>2d</fix>
 <sat>6</sat>
</trkpt>
<trkpt lat="48.320360000" lon="16.388985000">
<time>2012-06-16T19:13:10Z</time>
 <fix>2d</fix>
 <sat>6</sat>
</trkpt>
<trkpt lat="48.320360000" lon="16.388965000">
<time>2012-06-16T19:13:11Z</time>
 <fix>2d</fix>
 <sat>6</sat>
</trkpt>
<trkpt lat="48.320365000" lon="16.388938333">
<time>2012-06-16T19:13:12Z</time>
 <fix>2d</fix>
 <sat>6</sat>
</trkpt>
<trkpt lat="48.320370000" lon="16.388916667">
<time>2012-06-16T19:13:13Z</time>
 <fix>2d</fix>
 <sat>6</sat>
</trkpt>
<trkpt lat="48.320378333" lon="16.388896667">
<time>2012-06-16T19:13:14Z</time>
 <fix>2d</fix>
 <sat>6</sat>
</trkpt>
<trkpt lat="48.320386667" lon="16.388880000">
<time>2012-06-16T19:13:15Z</time>
 <fix>2d</fix>
 <sat>6</sat>
</trkpt>
<trkpt lat="48.320386667" lon="16.388856667">
<time>2012-06-16T19:13:16Z</time>
 <fix>2d</fix>
 <sat>6</sat>
</trkpt>
<trkpt lat="48.320386667" lon="16.388835000">
<time>2012-06-16T19:13:17Z</time>
 <fix>2d</fix>
 <sat>6</sat>
</trkpt>
<trkpt lat="48.320383333" lon="16.388821667">
<time>2012-06-16T19:13:18Z</time>
 <fix>2d</fix>
 <sat>6</sat>
</trkpt>
<trkpt lat="48.320386667" lon="16.388803333">
<time>2012-06-16T19:13:19Z</time>
 <fix>2d</fix>
 <sat>6</sat>
</trkpt>
<trkpt lat="48.320391667" lon="16.388783333">
<time>2012-06-16T19:13:20Z</time>
 <fix>2d</fix>
 <sat>6</sat>
</trkpt>
<trkpt lat="48.320398333" lon="16.388763333">
<time>2012-06-16T19:13:21Z</time>
 <fix>2d</fix>
 <sat>6</sat>
</trkpt>
<trkpt lat="48.320396667" lon="16.388750000">
<time>2012-06-16T19:13:22Z</time>
 <fix>2d</fix>
 <sat>6</sat>
</trkpt>
<trkpt lat="48.320401667" lon="16.388736667">
<time>2012-06-16T19:13:23Z</time>
 <fix>2d</fix>
 <sat>6</sat>
</trkpt>
<trkpt lat="48.320411667" lon="16.388720000">
<time>2012-06-16T19:13:24Z</time>
 <fix>2d</fix>
 <sat>6</sat>
</trkpt>
<trkpt lat="48.320415000" lon="16.388701667">
<time>2012-06-16T19:13:25Z</time>
 <fix>2d</fix>
 <sat>6</sat>
</trkpt>
<trkpt lat="48.320410000" lon="16.388686667">
<time>2012-06-16T19:13:26Z</time>
 <fix>2d</fix>
 <sat>6</sat>
</trkpt>
<trkpt lat="48.320408333" lon="16.388658333">
<time>2012-06-16T19:13:27Z</time>
 <fix>2d</fix>
 <sat>6</sat>
</trkpt>
<trkpt lat="48.320406667" lon="16.388631667">
<time>2012-06-16T19:13:28Z</time>
 <fix>2d</fix>
 <sat>6</sat>
</trkpt>
<trkpt lat="48.320405000" lon="16.388613333">
<time>2012-06-16T19:13:29Z</time>
 <fix>2d</fix>
 <sat>6</sat>
</trkpt>
<trkpt lat="48.320406667" lon="16.388588333">
<time>2012-06-16T19:13:30Z</time>
 <fix>2d</fix>
 <sat>6</sat>
</trkpt>
<trkpt lat="48.320411667" lon="16.388561667">
<time>2012-06-16T19:13:31Z</time>
 <fix>2d</fix>
 <sat>6</sat>
</trkpt>
<trkpt lat="48.320418333" lon="16.388530000">
<time>2012-06-16T19:13:32Z</time>
 <fix>2d</fix>
 <sat>6</sat>
</trkpt>
<trkpt lat="48.320413333" lon="16.388510000">
<time>2012-06-16T19:13:33Z</time>
 <fix>2d</fix>
 <sat>6</sat>
</trkpt>
<trkpt lat="48.320411667" lon="16.388486667">
<time>2012-06-16T19:13:34Z</time>
 <fix>2d</fix>
 <sat>6</sat>
</trkpt>
<trkpt lat="48.320411667" lon="16.388466667">
<time>2012-06-16T19:13:35Z</time>
 <fix>2d</fix>
 <sat>6</sat>
</trkpt>
<trkpt lat="48.320410000" lon="16.388446667">
<time>2012-06-16T19:13:36Z</time>
 <fix>2d</fix>
 <sat>6</sat>
</trkpt>
<trkpt lat="48.320410000" lon="16.388421667">
<time>2012-06-16T19:13:37Z</time>
 <fix>2d</fix>
 <sat>6</sat>
</trkpt>
<trkpt lat="48.320410000" lon="16.388398333">
<time>2012-06-16T19:13:38Z</time>
 <fix>2d</fix>
 <sat>6</sat>
</trkpt>
<trkpt lat="48.320408333" lon="16.388385000">
<time>2012-06-16T19:13:39Z</time>
 <fix>2d</fix>
 <sat>6</sat>
</trkpt>
<trkpt lat="48.320401667" lon="16.388368333">
<time>2012-06-16T19:13:40Z</time>
 <fix>2d</fix>
 <sat>6</sat>
</trkpt>
<trkpt lat="48.320396667" lon="16.388355000">
<time>2012-06-16T19:13:41Z</time>
 <fix>2d</fix>
 <sat>6</sat>
</trkpt>
<trkpt lat="48.320396667" lon="16.388335000">
<time>2012-06-16T19:13:42Z</time>
 <fix>2d</fix>
 <sat>6</sat>
</trkpt>
<trkpt lat="48.320396667" lon="16.388316667">
<time>2012-06-16T19:13:43Z</time>
 <fix>2d</fix>
 <sat>6</sat>
</trkpt>
<trkpt lat="48.320398333" lon="16.388300000">
<time>2012-06-16T19:13:44Z</time>
 <fix>2d</fix>
 <sat>6</sat>
</trkpt>
<trkpt lat="48.320405000" lon="16.388280000">
<time>2012-06-16T19:13:45Z</time>
 <fix>2d</fix>
 <sat>6</sat>
</trkpt>
<trkpt lat="48.320411667" lon="16.388260000">
<time>2012-06-16T19:13:46Z</time>
 <fix>2d</fix>
 <sat>6</sat>
</trkpt>
<trkpt lat="48.320413333" lon="16.388241667">
<time>2012-06-16T19:13:47Z</time>
 <fix>2d</fix>
 <sat>6</sat>
</trkpt>
<trkpt lat="48.320418333" lon="16.388230000">
<time>2012-06-16T19:13:48Z</time>
 <fix>2d</fix>
 <sat>6</sat>
</trkpt>
<trkpt lat="48.320416667" lon="16.388213333">
<time>2012-06-16T19:13:49Z</time>
 <fix>2d</fix>
 <sat>6</sat>
</trkpt>
<trkpt lat="48.320418333" lon="16.388185000">
<time>2012-06-16T19:13:50Z</time>
 <fix>2d</fix>
 <sat>6</sat>
</trkpt>
<trkpt lat="48.320420000" lon="16.388165000">
<time>2012-06-16T19:13:51Z</time>
 <fix>2d</fix>
 <sat>6</sat>
</trkpt>
<trkpt lat="48.320421667" lon="16.388148333">
<time>2012-06-16T19:13:52Z</time>
 <fix>2d</fix>
 <sat>6</sat>
</trkpt>
<trkpt lat="48.320425000" lon="16.388126667">
<time>2012-06-16T19:13:53Z</time>
 <fix>2d</fix>
 <sat>6</sat>
</trkpt>
<trkpt lat="48.320416667" lon="16.388096667">
<time>2012-06-16T19:13:54Z</time>
 <fix>2d</fix>
 <sat>6</sat>
</trkpt>
<trkpt lat="48.320413333" lon="16.388068333">
<time>2012-06-16T19:13:55Z</time>
 <fix>2d</fix>
 <sat>6</sat>
</trkpt>
<trkpt lat="48.320418333" lon="16.388040000">
<time>2012-06-16T19:13:56Z</time>
 <fix>2d</fix>
 <sat>6</sat>
</trkpt>
<trkpt lat="48.320423333" lon="16.388020000">
<time>2012-06-16T19:13:57Z</time>
 <fix>2d</fix>
 <sat>6</sat>
</trkpt>
<trkpt lat="48.320423333" lon="16.387998333">
<time>2012-06-16T19:13:58Z</time>
 <fix>2d</fix>
 <sat>6</sat>
</trkpt>
<trkpt lat="48.320426667" lon="16.387986667">
<time>2012-06-16T19:13:59Z</time>
 <fix>2d</fix>
 <sat>6</sat>
</trkpt>
<trkpt lat="48.320428333" lon="16.387971667">
<time>2012-06-16T19:14:00Z</time>
 <fix>2d</fix>
 <sat>6</sat>
</trkpt>
<trkpt lat="48.320430000" lon="16.387956667">
<time>2012-06-16T19:14:01Z</time>
 <fix>2d</fix>
 <sat>6</sat>
</trkpt>
<trkpt lat="48.320430000" lon="16.387936667">
<time>2012-06-16T19:14:02Z</time>
 <fix>2d</fix>
 <sat>6</sat>
</trkpt>
<trkpt lat="48.320435000" lon="16.387913333">
<time>2012-06-16T19:14:03Z</time>
 <fix>2d</fix>
 <sat>6</sat>
</trkpt>
<trkpt lat="48.320440000" lon="16.387893333">
<time>2012-06-16T19:14:04Z</time>
 <fix>2d</fix>
 <sat>6</sat>
</trkpt>
<trkpt lat="48.320445000" lon="16.387871667">
<time>2012-06-16T19:14:05Z</time>
 <fix>2d</fix>
 <sat>6</sat>
</trkpt>
<trkpt lat="48.320450000" lon="16.387845000">
<time>2012-06-16T19:14:06Z</time>
 <fix>2d</fix>
 <sat>6</sat>
</trkpt>
<trkpt lat="48.320455000" lon="16.387821667">
<time>2012-06-16T19:14:07Z</time>
 <fix>2d</fix>
 <sat>6</sat>
</trkpt>
<trkpt lat="48.320458333" lon="16.387798333">
<time>2012-06-16T19:14:08Z</time>
 <fix>2d</fix>
 <sat>6</sat>
</trkpt>
<trkpt lat="48.320456667" lon="16.387775000">
<time>2012-06-16T19:14:09Z</time>
 <fix>2d</fix>
 <sat>6</sat>
</trkpt>
<trkpt lat="48.320450000" lon="16.387763333">
<time>2012-06-16T19:14:10Z</time>
 <fix>2d</fix>
 <sat>6</sat>
</trkpt>
<trkpt lat="48.320450000" lon="16.387741667">
<time>2012-06-16T19:14:11Z</time>
 <fix>2d</fix>
 <sat>6</sat>
</trkpt>
<trkpt lat="48.320455000" lon="16.387723333">
<time>2012-06-16T19:14:12Z</time>
 <fix>2d</fix>
 <sat>6</sat>
</trkpt>
<trkpt lat="48.320458333" lon="16.387701667">
<time>2012-06-16T19:14:13Z</time>
 <fix>2d</fix>
 <sat>6</sat>
</trkpt>
<trkpt lat="48.320463333" lon="16.387681667">
<time>2012-06-16T19:14:14Z</time>
 <fix>2d</fix>
 <sat>6</sat>
</trkpt>
<trkpt lat="48.320463333" lon="16.387658333">
<time>2012-06-16T19:14:15Z</time>
 <fix>2d</fix>
 <sat>6</sat>
</trkpt>
<trkpt lat="48.320458333" lon="16.387638333">
<time>2012-06-16T19:14:16Z</time>
 <fix>2d</fix>
 <sat>6</sat>
</trkpt>
<trkpt lat="48.320455000" lon="16.387615000">
<time>2012-06-16T19:14:17Z</time>
 <fix>2d</fix>
 <sat>6</sat>
</trkpt>
<trkpt lat="48.320456667" lon="16.387591667">
<time>2012-06-16T19:14:18Z</time>
 <fix>2d</fix>
 <sat>6</sat>
</trkpt>
<trkpt lat="48.320458333" lon="16.387566667">
<time>2012-06-16T19:14:19Z</time>
 <fix>2d</fix>
 <sat>6</sat>
</trkpt>
<trkpt lat="48.320461667" lon="16.387548333">
<time>2012-06-16T19:14:20Z</time>
 <fix>2d</fix>
 <sat>6</sat>
</trkpt>
<trkpt lat="48.320466667" lon="16.387526667">
<time>2012-06-16T19:14:21Z</time>
 <fix>2d</fix>
 <sat>6</sat>
</trkpt>
<trkpt lat="48.320461667" lon="16.387505000">
<time>2012-06-16T19:14:22Z</time>
 <fix>2d</fix>
 <sat>6</sat>
</trkpt>
<trkpt lat="48.320466667" lon="16.387486667">
<time>2012-06-16T19:14:23Z</time>
 <fix>2d</fix>
 <sat>6</sat>
</trkpt>
<trkpt lat="48.320465000" lon="16.387470000">
<time>2012-06-16T19:14:24Z</time>
 <fix>2d</fix>
 <sat>6</sat>
</trkpt>
<trkpt lat="48.320458333" lon="16.387463333">
<time>2012-06-16T19:14:25Z</time>
 <fix>2d</fix>
 <sat>6</sat>
</trkpt>
<trkpt lat="48.320455000" lon="16.387441667">
<time>2012-06-16T19:14:26Z</time>
 <fix>2d</fix>
 <sat>6</sat>
</trkpt>
<trkpt lat="48.320455000" lon="16.387423333">
<time>2012-06-16T19:14:27Z</time>
 <fix>2d</fix>
 <sat>6</sat>
</trkpt>
<trkpt lat="48.320456667" lon="16.387401667">
<time>2012-06-16T19:14:28Z</time>
 <fix>2d</fix>
 <sat>6</sat>
</trkpt>
<trkpt lat="48.320451667" lon="16.387390000">
<time>2012-06-16T19:14:29Z</time>
 <fix>2d</fix>
 <sat>6</sat>
</trkpt>
<trkpt lat="48.320445000" lon="16.387375000">
<time>2012-06-16T19:14:30Z</time>
 <fix>2d</fix>
 <sat>6</sat>
</trkpt>
<trkpt lat="48.320441667" lon="16.387355000">
<time>2012-06-16T19:14:31Z</time>
 <fix>2d</fix>
 <sat>6</sat>
</trkpt>
<trkpt lat="48.320441667" lon="16.387335000">
<time>2012-06-16T19:14:32Z</time>
 <fix>2d</fix>
 <sat>6</sat>
</trkpt>
<trkpt lat="48.320445000" lon="16.387315000">
<time>2012-06-16T19:14:33Z</time>
 <fix>2d</fix>
 <sat>6</sat>
</trkpt>
<trkpt lat="48.320448333" lon="16.387296667">
<time>2012-06-16T19:14:34Z</time>
 <fix>2d</fix>
 <sat>6</sat>
</trkpt>
<trkpt lat="48.320453333" lon="16.387266667">
<time>2012-06-16T19:14:35Z</time>
 <fix>2d</fix>
 <sat>6</sat>
</trkpt>
<trkpt lat="48.320458333" lon="16.387248333">
<time>2012-06-16T19:14:36Z</time>
 <fix>2d</fix>
 <sat>6</sat>
</trkpt>
<trkpt lat="48.320463333" lon="16.387226667">
<time>2012-06-16T19:14:37Z</time>
 <fix>2d</fix>
 <sat>6</sat>
</trkpt>
<trkpt lat="48.320466667" lon="16.387208333">
<time>2012-06-16T19:14:38Z</time>
 <fix>2d</fix>
 <sat>6</sat>
</trkpt>
<trkpt lat="48.320470000" lon="16.387188333">
<time>2012-06-16T19:14:39Z</time>
 <fix>2d</fix>
 <sat>6</sat>
</trkpt>
<trkpt lat="48.320471667" lon="16.387175000">
<time>2012-06-16T19:14:40Z</time>
 <fix>2d</fix>
 <sat>6</sat>
</trkpt>
<trkpt lat="48.320473333" lon="16.387160000">
<time>2012-06-16T19:14:41Z</time>
 <fix>2d</fix>
 <sat>6</sat>
</trkpt>
<trkpt lat="48.320476667" lon="16.387135000">
<time>2012-06-16T19:14:42Z</time>
 <fix>2d</fix>
 <sat>6</sat>
</trkpt>
<trkpt lat="48.320480000" lon="16.387116667">
<time>2012-06-16T19:14:43Z</time>
 <fix>2d</fix>
 <sat>6</sat>
</trkpt>
<trkpt lat="48.320480000" lon="16.387100000">
<time>2012-06-16T19:14:44Z</time>
 <fix>2d</fix>
 <sat>6</sat>
</trkpt>
<trkpt lat="48.320476667" lon="16.387081667">
<time>2012-06-16T19:14:45Z</time>
 <fix>2d</fix>
 <sat>6</sat>
</trkpt>
<trkpt lat="48.320476667" lon="16.387065000">
<time>2012-06-16T19:14:46Z</time>
 <fix>2d</fix>
 <sat>6</sat>
</trkpt>
<trkpt lat="48.320485000" lon="16.387046667">
<time>2012-06-16T19:14:47Z</time>
 <fix>2d</fix>
 <sat>6</sat>
</trkpt>
<trkpt lat="48.320488333" lon="16.387030000">
<time>2012-06-16T19:14:48Z</time>
 <fix>2d</fix>
 <sat>6</sat>
</trkpt>
<trkpt lat="48.320493333" lon="16.387010000">
<time>2012-06-16T19:14:49Z</time>
 <fix>2d</fix>
 <sat>6</sat>
</trkpt>
<trkpt lat="48.320496667" lon="16.386991667">
<time>2012-06-16T19:14:50Z</time>
 <fix>2d</fix>
 <sat>6</sat>
</trkpt>
<trkpt lat="48.320496667" lon="16.386975000">
<time>2012-06-16T19:14:51Z</time>
 <fix>2d</fix>
 <sat>6</sat>
</trkpt>
<trkpt lat="48.320500000" lon="16.386955000">
<time>2012-06-16T19:14:52Z</time>
 <fix>2d</fix>
 <sat>6</sat>
</trkpt>
<trkpt lat="48.320503333" lon="16.386935000">
<time>2012-06-16T19:14:53Z</time>
 <fix>2d</fix>
 <sat>6</sat>
</trkpt>
<trkpt lat="48.320505000" lon="16.386918333">
<time>2012-06-16T19:14:54Z</time>
 <fix>2d</fix>
 <sat>6</sat>
</trkpt>
<trkpt lat="48.320506667" lon="16.386900000">
<time>2012-06-16T19:14:55Z</time>
 <fix>2d</fix>
 <sat>6</sat>
</trkpt>
<trkpt lat="48.320501667" lon="16.386886667">
<time>2012-06-16T19:14:56Z</time>
 <fix>2d</fix>
 <sat>6</sat>
</trkpt>
<trkpt lat="48.320501667" lon="16.386868333">
<time>2012-06-16T19:14:57Z</time>
 <fix>2d</fix>
 <sat>6</sat>
</trkpt>
<trkpt lat="48.320505000" lon="16.386846667">
<time>2012-06-16T19:14:58Z</time>
 <fix>2d</fix>
 <sat>6</sat>
</trkpt>
<trkpt lat="48.320508333" lon="16.386825000">
<time>2012-06-16T19:14:59Z</time>
 <fix>2d</fix>
 <sat>6</sat>
</trkpt>
<trkpt lat="48.320508333" lon="16.386801667">
<time>2012-06-16T19:15:00Z</time>
 <fix>2d</fix>
 <sat>6</sat>
</trkpt>
<trkpt lat="48.320511667" lon="16.386795000">
<time>2012-06-16T19:15:01Z</time>
 <fix>2d</fix>
 <sat>6</sat>
</trkpt>
<trkpt lat="48.320510000" lon="16.386778333">
<time>2012-06-16T19:15:02Z</time>
 <fix>2d</fix>
 <sat>6</sat>
</trkpt>
<trkpt lat="48.320513333" lon="16.386760000">
<time>2012-06-16T19:15:03Z</time>
 <fix>2d</fix>
 <sat>6</sat>
</trkpt>
<trkpt lat="48.320515000" lon="16.386741667">
<time>2012-06-16T19:15:04Z</time>
 <fix>2d</fix>
 <sat>6</sat>
</trkpt>
<trkpt lat="48.320513333" lon="16.386725000">
<time>2012-06-16T19:15:05Z</time>
 <fix>2d</fix>
 <sat>6</sat>
</trkpt>
<trkpt lat="48.320511667" lon="16.386710000">
<time>2012-06-16T19:15:06Z</time>
 <fix>2d</fix>
 <sat>6</sat>
</trkpt>
<trkpt lat="48.320513333" lon="16.386691667">
<time>2012-06-16T19:15:07Z</time>
 <fix>2d</fix>
 <sat>6</sat>
</trkpt>
<trkpt lat="48.320515000" lon="16.386673333">
<time>2012-06-16T19:15:08Z</time>
 <fix>2d</fix>
 <sat>6</sat>
</trkpt>
<trkpt lat="48.320515000" lon="16.386655000">
<time>2012-06-16T19:15:09Z</time>
 <fix>2d</fix>
 <sat>6</sat>
</trkpt>
<trkpt lat="48.320515000" lon="16.386638333">
<time>2012-06-16T19:15:10Z</time>
 <fix>2d</fix>
 <sat>6</sat>
</trkpt>
<trkpt lat="48.320513333" lon="16.386623333">
<time>2012-06-16T19:15:11Z</time>
 <fix>2d</fix>
 <sat>6</sat>
</trkpt>
<trkpt lat="48.320513333" lon="16.386606667">
<time>2012-06-16T19:15:12Z</time>
 <fix>2d</fix>
 <sat>6</sat>
</trkpt>
<trkpt lat="48.320513333" lon="16.386590000">
<time>2012-06-16T19:15:13Z</time>
 <fix>2d</fix>
 <sat>6</sat>
</trkpt>
<trkpt lat="48.320511667" lon="16.386575000">
<time>2012-06-16T19:15:14Z</time>
 <fix>2d</fix>
 <sat>6</sat>
</trkpt>
<trkpt lat="48.320511667" lon="16.386553333">
<time>2012-06-16T19:15:15Z</time>
 <fix>2d</fix>
 <sat>6</sat>
</trkpt>
<trkpt lat="48.320510000" lon="16.386536667">
<time>2012-06-16T19:15:16Z</time>
 <fix>2d</fix>
 <sat>6</sat>
</trkpt>
<trkpt lat="48.320508333" lon="16.386516667">
<time>2012-06-16T19:15:17Z</time>
 <fix>2d</fix>
 <sat>6</sat>
</trkpt>
<trkpt lat="48.320510000" lon="16.386495000">
<time>2012-06-16T19:15:18Z</time>
 <fix>2d</fix>
 <sat>6</sat>
</trkpt>
<trkpt lat="48.320506667" lon="16.386480000">
<time>2012-06-16T19:15:19Z</time>
 <fix>2d</fix>
 <sat>6</sat>
</trkpt>
<trkpt lat="48.320500000" lon="16.386476667">
<time>2012-06-16T19:15:20Z</time>
 <fix>2d</fix>
 <sat>6</sat>
</trkpt>
<trkpt lat="48.320496667" lon="16.386473333">
<time>2012-06-16T19:15:21Z</time>
 <fix>2d</fix>
 <sat>6</sat>
</trkpt>
<trkpt lat="48.320500000" lon="16.386451667">
<time>2012-06-16T19:15:22Z</time>
 <fix>2d</fix>
 <sat>6</sat>
</trkpt>
<trkpt lat="48.320500000" lon="16.386433333">
<time>2012-06-16T19:15:23Z</time>
 <fix>2d</fix>
 <sat>6</sat>
</trkpt>
<trkpt lat="48.320500000" lon="16.386408333">
<time>2012-06-16T19:15:24Z</time>
 <fix>2d</fix>
 <sat>6</sat>
</trkpt>
<trkpt lat="48.320498333" lon="16.386380000">
<time>2012-06-16T19:15:25Z</time>
 <fix>2d</fix>
 <sat>6</sat>
</trkpt>
<trkpt lat="48.320503333" lon="16.386353333">
<time>2012-06-16T19:15:26Z</time>
 <fix>2d</fix>
 <sat>6</sat>
</trkpt>
<trkpt lat="48.320500000" lon="16.386335000">
<time>2012-06-16T19:15:27Z</time>
 <fix>2d</fix>
 <sat>6</sat>
</trkpt>
<trkpt lat="48.320493333" lon="16.386323333">
<time>2012-06-16T19:15:28Z</time>
 <fix>2d</fix>
 <sat>6</sat>
</trkpt>
<trkpt lat="48.320488333" lon="16.386310000">
<time>2012-06-16T19:15:29Z</time>
 <fix>2d</fix>
 <sat>6</sat>
</trkpt>
<trkpt lat="48.320493333" lon="16.386278333">
<time>2012-06-16T19:15:30Z</time>
 <fix>2d</fix>
 <sat>6</sat>
</trkpt>
<trkpt lat="48.320491667" lon="16.386256667">
<time>2012-06-16T19:15:31Z</time>
 <fix>2d</fix>
 <sat>6</sat>
</trkpt>
<trkpt lat="48.320491667" lon="16.386235000">
<time>2012-06-16T19:15:32Z</time>
 <fix>2d</fix>
 <sat>6</sat>
</trkpt>
<trkpt lat="48.320491667" lon="16.386208333">
<time>2012-06-16T19:15:33Z</time>
 <fix>2d</fix>
 <sat>6</sat>
</trkpt>
<trkpt lat="48.320488333" lon="16.386176667">
<time>2012-06-16T19:15:34Z</time>
 <fix>2d</fix>
 <sat>6</sat>
</trkpt>
<trkpt lat="48.320490000" lon="16.386148333">
<time>2012-06-16T19:15:35Z</time>
 <fix>2d</fix>
 <sat>6</sat>
</trkpt>
<trkpt lat="48.320491667" lon="16.386120000">
<time>2012-06-16T19:15:36Z</time>
 <fix>2d</fix>
 <sat>6</sat>
</trkpt>
<trkpt lat="48.320491667" lon="16.386088333">
<time>2012-06-16T19:15:37Z</time>
 <fix>2d</fix>
 <sat>6</sat>
</trkpt>
<trkpt lat="48.320488333" lon="16.386070000">
<time>2012-06-16T19:15:38Z</time>
 <fix>2d</fix>
 <sat>6</sat>
</trkpt>
<trkpt lat="48.320488333" lon="16.386048333">
<time>2012-06-16T19:15:39Z</time>
 <fix>2d</fix>
 <sat>6</sat>
</trkpt>
<trkpt lat="48.320496667" lon="16.386020000">
<time>2012-06-16T19:15:40Z</time>
 <fix>2d</fix>
 <sat>6</sat>
</trkpt>
<trkpt lat="48.320500000" lon="16.386001667">
<time>2012-06-16T19:15:41Z</time>
 <fix>2d</fix>
 <sat>6</sat>
</trkpt>
<trkpt lat="48.320500000" lon="16.385985000">
<time>2012-06-16T19:15:42Z</time>
 <fix>2d</fix>
 <sat>6</sat>
</trkpt>
<trkpt lat="48.320501667" lon="16.385966667">
<time>2012-06-16T19:15:43Z</time>
 <fix>2d</fix>
 <sat>6</sat>
</trkpt>
<trkpt lat="48.320501667" lon="16.385946667">
<time>2012-06-16T19:15:44Z</time>
 <fix>2d</fix>
 <sat>6</sat>
</trkpt>
<trkpt lat="48.320496667" lon="16.385930000">
<time>2012-06-16T19:15:45Z</time>
 <fix>2d</fix>
 <sat>6</sat>
</trkpt>
<trkpt lat="48.320496667" lon="16.385903333">
<time>2012-06-16T19:15:46Z</time>
 <fix>2d</fix>
 <sat>6</sat>
</trkpt>
<trkpt lat="48.320496667" lon="16.385878333">
<time>2012-06-16T19:15:47Z</time>
 <fix>2d</fix>
 <sat>6</sat>
</trkpt>
<trkpt lat="48.320496667" lon="16.385851667">
<time>2012-06-16T19:15:48Z</time>
 <fix>2d</fix>
 <sat>6</sat>
</trkpt>
<trkpt lat="48.320496667" lon="16.385826667">
<time>2012-06-16T19:15:49Z</time>
 <fix>2d</fix>
 <sat>6</sat>
</trkpt>
<trkpt lat="48.320501667" lon="16.385795000">
<time>2012-06-16T19:15:50Z</time>
 <fix>2d</fix>
 <sat>6</sat>
</trkpt>
<trkpt lat="48.320501667" lon="16.385771667">
<time>2012-06-16T19:15:51Z</time>
 <fix>2d</fix>
 <sat>6</sat>
</trkpt>
<trkpt lat="48.320498333" lon="16.385751667">
<time>2012-06-16T19:15:52Z</time>
 <fix>2d</fix>
 <sat>6</sat>
</trkpt>
<trkpt lat="48.320495000" lon="16.385728333">
<time>2012-06-16T19:15:53Z</time>
 <fix>2d</fix>
 <sat>6</sat>
</trkpt>
<trkpt lat="48.320493333" lon="16.385701667">
<time>2012-06-16T19:15:54Z</time>
 <fix>2d</fix>
 <sat>6</sat>
</trkpt>
<trkpt lat="48.320493333" lon="16.385673333">
<time>2012-06-16T19:15:55Z</time>
 <fix>2d</fix>
 <sat>6</sat>
</trkpt>
<trkpt lat="48.320500000" lon="16.385656667">
<time>2012-06-16T19:15:56Z</time>
 <fix>2d</fix>
 <sat>6</sat>
</trkpt>
<trkpt lat="48.320501667" lon="16.385633333">
<time>2012-06-16T19:15:57Z</time>
 <fix>2d</fix>
 <sat>6</sat>
</trkpt>
<trkpt lat="48.320498333" lon="16.385610000">
<time>2012-06-16T19:15:58Z</time>
 <fix>2d</fix>
 <sat>6</sat>
</trkpt>
<trkpt lat="48.320496667" lon="16.385586667">
<time>2012-06-16T19:15:59Z</time>
 <fix>2d</fix>
 <sat>6</sat>
</trkpt>
<trkpt lat="48.320495000" lon="16.385563333">
<time>2012-06-16T19:16:00Z</time>
 <fix>2d</fix>
 <sat>6</sat>
</trkpt>
<trkpt lat="48.320495000" lon="16.385535000">
<time>2012-06-16T19:16:01Z</time>
 <fix>2d</fix>
 <sat>6</sat>
</trkpt>
<trkpt lat="48.320491667" lon="16.385515000">
<time>2012-06-16T19:16:02Z</time>
 <fix>2d</fix>
 <sat>6</sat>
</trkpt>
<trkpt lat="48.320488333" lon="16.385493333">
<time>2012-06-16T19:16:03Z</time>
 <fix>2d</fix>
 <sat>6</sat>
</trkpt>
<trkpt lat="48.320491667" lon="16.385476667">
<time>2012-06-16T19:16:04Z</time>
 <fix>2d</fix>
 <sat>6</sat>
</trkpt>
<trkpt lat="48.320496667" lon="16.385465000">
<time>2012-06-16T19:16:05Z</time>
 <fix>2d</fix>
 <sat>6</sat>
</trkpt>
<trkpt lat="48.320500000" lon="16.385446667">
<time>2012-06-16T19:16:06Z</time>
 <fix>2d</fix>
 <sat>6</sat>
</trkpt>
<trkpt lat="48.320501667" lon="16.385411667">
<time>2012-06-16T19:16:07Z</time>
 <fix>2d</fix>
 <sat>6</sat>
</trkpt>
<trkpt lat="48.320506667" lon="16.385380000">
<time>2012-06-16T19:16:08Z</time>
 <fix>2d</fix>
 <sat>6</sat>
</trkpt>
<trkpt lat="48.320510000" lon="16.385361667">
<time>2012-06-16T19:16:09Z</time>
 <fix>2d</fix>
 <sat>6</sat>
</trkpt>
<trkpt lat="48.320505000" lon="16.385345000">
<time>2012-06-16T19:16:10Z</time>
 <fix>2d</fix>
 <sat>6</sat>
</trkpt>
<trkpt lat="48.320505000" lon="16.385320000">
<time>2012-06-16T19:16:11Z</time>
 <fix>2d</fix>
 <sat>6</sat>
</trkpt>
<trkpt lat="48.320505000" lon="16.385293333">
<time>2012-06-16T19:16:12Z</time>
 <fix>2d</fix>
 <sat>6</sat>
</trkpt>
<trkpt lat="48.320503333" lon="16.385275000">
<time>2012-06-16T19:16:13Z</time>
 <fix>2d</fix>
 <sat>6</sat>
</trkpt>
<trkpt lat="48.320503333" lon="16.385250000">
<time>2012-06-16T19:16:14Z</time>
 <fix>2d</fix>
 <sat>6</sat>
</trkpt>
<trkpt lat="48.320505000" lon="16.385230000">
<time>2012-06-16T19:16:15Z</time>
 <fix>2d</fix>
 <sat>6</sat>
</trkpt>
<trkpt lat="48.320506667" lon="16.385206667">
<time>2012-06-16T19:16:16Z</time>
 <fix>2d</fix>
 <sat>6</sat>
</trkpt>
<trkpt lat="48.320510000" lon="16.385188333">
<time>2012-06-16T19:16:17Z</time>
 <fix>2d</fix>
 <sat>6</sat>
</trkpt>
<trkpt lat="48.320511667" lon="16.385158333">
<time>2012-06-16T19:16:18Z</time>
 <fix>2d</fix>
 <sat>6</sat>
</trkpt>
<trkpt lat="48.320511667" lon="16.385131667">
<time>2012-06-16T19:16:19Z</time>
 <fix>2d</fix>
 <sat>6</sat>
</trkpt>
<trkpt lat="48.320513333" lon="16.385103333">
<time>2012-06-16T19:16:20Z</time>
 <fix>2d</fix>
 <sat>6</sat>
</trkpt>
<trkpt lat="48.320513333" lon="16.385076667">
<time>2012-06-16T19:16:21Z</time>
 <fix>2d</fix>
 <sat>6</sat>
</trkpt>
<trkpt lat="48.320511667" lon="16.385050000">
<time>2012-06-16T19:16:22Z</time>
 <fix>2d</fix>
 <sat>6</sat>
</trkpt>
<trkpt lat="48.320511667" lon="16.385021667">
<time>2012-06-16T19:16:23Z</time>
 <fix>2d</fix>
 <sat>6</sat>
</trkpt>
<trkpt lat="48.320511667" lon="16.384998333">
<time>2012-06-16T19:16:24Z</time>
 <fix>2d</fix>
 <sat>6</sat>
</trkpt>
<trkpt lat="48.320511667" lon="16.384975000">
<time>2012-06-16T19:16:25Z</time>
 <fix>2d</fix>
 <sat>6</sat>
</trkpt>
<trkpt lat="48.320511667" lon="16.384950000">
<time>2012-06-16T19:16:26Z</time>
 <fix>2d</fix>
 <sat>6</sat>
</trkpt>
<trkpt lat="48.320513333" lon="16.384918333">
<time>2012-06-16T19:16:27Z</time>
 <fix>2d</fix>
 <sat>6</sat>
</trkpt>
<trkpt lat="48.320510000" lon="16.384905000">
<time>2012-06-16T19:16:28Z</time>
 <fix>2d</fix>
 <sat>6</sat>
</trkpt>
<trkpt lat="48.320508333" lon="16.384886667">
<time>2012-06-16T19:16:29Z</time>
 <fix>2d</fix>
 <sat>6</sat>
</trkpt>
<trkpt lat="48.320508333" lon="16.384865000">
<time>2012-06-16T19:16:30Z</time>
 <fix>2d</fix>
 <sat>6</sat>
</trkpt>
<trkpt lat="48.320505000" lon="16.384841667">
<time>2012-06-16T19:16:31Z</time>
 <fix>2d</fix>
 <sat>6</sat>
</trkpt>
<trkpt lat="48.320503333" lon="16.384813333">
<time>2012-06-16T19:16:32Z</time>
 <fix>2d</fix>
 <sat>6</sat>
</trkpt>
<trkpt lat="48.320503333" lon="16.384786667">
<time>2012-06-16T19:16:33Z</time>
 <fix>2d</fix>
 <sat>6</sat>
</trkpt>
<trkpt lat="48.320505000" lon="16.384761667">
<time>2012-06-16T19:16:34Z</time>
 <fix>2d</fix>
 <sat>6</sat>
</trkpt>
<trkpt lat="48.320505000" lon="16.384740000">
<time>2012-06-16T19:16:35Z</time>
 <fix>2d</fix>
 <sat>6</sat>
</trkpt>
<trkpt lat="48.320505000" lon="16.384720000">
<time>2012-06-16T19:16:36Z</time>
 <fix>2d</fix>
 <sat>6</sat>
</trkpt>
<trkpt lat="48.320510000" lon="16.384688333">
<time>2012-06-16T19:16:37Z</time>
 <fix>2d</fix>
 <sat>6</sat>
</trkpt>
<trkpt lat="48.320510000" lon="16.384656667">
<time>2012-06-16T19:16:38Z</time>
 <fix>2d</fix>
 <sat>6</sat>
</trkpt>
<trkpt lat="48.320506667" lon="16.384633333">
<time>2012-06-16T19:16:39Z</time>
 <fix>2d</fix>
 <sat>6</sat>
</trkpt>
<trkpt lat="48.320508333" lon="16.384613333">
<time>2012-06-16T19:16:40Z</time>
 <fix>2d</fix>
 <sat>6</sat>
</trkpt>
<trkpt lat="48.320513333" lon="16.384590000">
<time>2012-06-16T19:16:41Z</time>
 <fix>2d</fix>
 <sat>6</sat>
</trkpt>
<trkpt lat="48.320515000" lon="16.384561667">
<time>2012-06-16T19:16:42Z</time>
 <fix>2d</fix>
 <sat>6</sat>
</trkpt>
<trkpt lat="48.320516667" lon="16.384526667">
<time>2012-06-16T19:16:43Z</time>
 <fix>2d</fix>
 <sat>6</sat>
</trkpt>
<trkpt lat="48.320516667" lon="16.384491667">
<time>2012-06-16T19:16:44Z</time>
 <fix>2d</fix>
 <sat>6</sat>
</trkpt>
<trkpt lat="48.320515000" lon="16.384470000">
<time>2012-06-16T19:16:45Z</time>
 <fix>2d</fix>
 <sat>6</sat>
</trkpt>
<trkpt lat="48.320516667" lon="16.384443333">
<time>2012-06-16T19:16:46Z</time>
 <fix>2d</fix>
 <sat>6</sat>
</trkpt>
<trkpt lat="48.320516667" lon="16.384426667">
<time>2012-06-16T19:16:47Z</time>
 <fix>2d</fix>
 <sat>6</sat>
</trkpt>
<trkpt lat="48.320513333" lon="16.384400000">
<time>2012-06-16T19:16:48Z</time>
 <fix>2d</fix>
 <sat>6</sat>
</trkpt>
<trkpt lat="48.320505000" lon="16.384381667">
<time>2012-06-16T19:16:49Z</time>
 <fix>2d</fix>
 <sat>6</sat>
</trkpt>
<trkpt lat="48.320500000" lon="16.384343333">
<time>2012-06-16T19:16:50Z</time>
 <fix>2d</fix>
 <sat>6</sat>
</trkpt>
<trkpt lat="48.320501667" lon="16.384301667">
<time>2012-06-16T19:16:51Z</time>
 <fix>2d</fix>
 <sat>6</sat>
</trkpt>
<trkpt lat="48.320506667" lon="16.384281667">
<time>2012-06-16T19:16:52Z</time>
 <fix>2d</fix>
 <sat>6</sat>
</trkpt>
<trkpt lat="48.320508333" lon="16.384253333">
<time>2012-06-16T19:16:53Z</time>
 <fix>2d</fix>
 <sat>6</sat>
</trkpt>
<trkpt lat="48.320511667" lon="16.384225000">
<time>2012-06-16T19:16:54Z</time>
 <fix>2d</fix>
 <sat>6</sat>
</trkpt>
<trkpt lat="48.320516667" lon="16.384208333">
<time>2012-06-16T19:16:55Z</time>
 <fix>2d</fix>
 <sat>6</sat>
</trkpt>
<trkpt lat="48.320520000" lon="16.384185000">
<time>2012-06-16T19:16:56Z</time>
 <fix>2d</fix>
 <sat>6</sat>
</trkpt>
<trkpt lat="48.320525000" lon="16.384163333">
<time>2012-06-16T19:16:57Z</time>
 <fix>2d</fix>
 <sat>6</sat>
</trkpt>
<trkpt lat="48.320523333" lon="16.384138333">
<time>2012-06-16T19:16:58Z</time>
 <fix>2d</fix>
 <sat>6</sat>
</trkpt>
<trkpt lat="48.320520000" lon="16.384110000">
<time>2012-06-16T19:16:59Z</time>
 <fix>2d</fix>
 <sat>6</sat>
</trkpt>
<trkpt lat="48.320520000" lon="16.384080000">
<time>2012-06-16T19:17:00Z</time>
 <fix>2d</fix>
 <sat>6</sat>
</trkpt>
<trkpt lat="48.320523333" lon="16.384053333">
<time>2012-06-16T19:17:01Z</time>
 <fix>2d</fix>
 <sat>6</sat>
</trkpt>
<trkpt lat="48.320526667" lon="16.384025000">
<time>2012-06-16T19:17:02Z</time>
 <fix>2d</fix>
 <sat>6</sat>
</trkpt>
<trkpt lat="48.320528333" lon="16.383988333">
<time>2012-06-16T19:17:03Z</time>
 <fix>2d</fix>
 <sat>6</sat>
</trkpt>
<trkpt lat="48.320528333" lon="16.383956667">
<time>2012-06-16T19:17:04Z</time>
 <fix>2d</fix>
 <sat>6</sat>
</trkpt>
<trkpt lat="48.320533333" lon="16.383921667">
<time>2012-06-16T19:17:05Z</time>
 <fix>2d</fix>
 <sat>6</sat>
</trkpt>
<trkpt lat="48.320528333" lon="16.383890000">
<time>2012-06-16T19:17:06Z</time>
 <fix>2d</fix>
 <sat>6</sat>
</trkpt>
<trkpt lat="48.320526667" lon="16.383856667">
<time>2012-06-16T19:17:07Z</time>
 <fix>2d</fix>
 <sat>5</sat>
</trkpt>
<trkpt lat="48.320523333" lon="16.383825000">
<time>2012-06-16T19:17:08Z</time>
 <fix>2d</fix>
 <sat>6</sat>
</trkpt>
<trkpt lat="48.320520000" lon="16.383798333">
<time>2012-06-16T19:17:09Z</time>
 <fix>2d</fix>
 <sat>6</sat>
</trkpt>
<trkpt lat="48.320516667" lon="16.383775000">
<time>2012-06-16T19:17:10Z</time>
 <fix>2d</fix>
 <sat>6</sat>
</trkpt>
<trkpt lat="48.320525000" lon="16.383755000">
<time>2012-06-16T19:17:11Z</time>
 <fix>2d</fix>
 <sat>6</sat>
</trkpt>
<trkpt lat="48.320535000" lon="16.383730000">
<time>2012-06-16T19:17:12Z</time>
 <fix>2d</fix>
 <sat>6</sat>
</trkpt>
<trkpt lat="48.320536667" lon="16.383698333">
<time>2012-06-16T19:17:13Z</time>
 <fix>2d</fix>
 <sat>6</sat>
</trkpt>
<trkpt lat="48.320538333" lon="16.383666667">
<time>2012-06-16T19:17:14Z</time>
 <fix>2d</fix>
 <sat>6</sat>
</trkpt>
<trkpt lat="48.320533333" lon="16.383638333">
<time>2012-06-16T19:17:15Z</time>
 <fix>2d</fix>
 <sat>6</sat>
</trkpt>
<trkpt lat="48.320528333" lon="16.383610000">
<time>2012-06-16T19:17:16Z</time>
 <fix>2d</fix>
 <sat>6</sat>
</trkpt>
<trkpt lat="48.320528333" lon="16.383588333">
<time>2012-06-16T19:17:17Z</time>
 <fix>2d</fix>
 <sat>6</sat>
</trkpt>
<trkpt lat="48.320525000" lon="16.383565000">
<time>2012-06-16T19:17:18Z</time>
 <fix>2d</fix>
 <sat>6</sat>
</trkpt>
<trkpt lat="48.320523333" lon="16.383541667">
<time>2012-06-16T19:17:19Z</time>
 <fix>2d</fix>
 <sat>6</sat>
</trkpt>
<trkpt lat="48.320513333" lon="16.383518333">
<time>2012-06-16T19:17:20Z</time>
 <fix>2d</fix>
 <sat>6</sat>
</trkpt>
<trkpt lat="48.320510000" lon="16.383495000">
<time>2012-06-16T19:17:21Z</time>
 <fix>2d</fix>
 <sat>6</sat>
</trkpt>
<trkpt lat="48.320506667" lon="16.383471667">
<time>2012-06-16T19:17:22Z</time>
 <fix>2d</fix>
 <sat>6</sat>
</trkpt>
<trkpt lat="48.320511667" lon="16.383443333">
<time>2012-06-16T19:17:23Z</time>
 <fix>2d</fix>
 <sat>6</sat>
</trkpt>
<trkpt lat="48.320513333" lon="16.383423333">
<time>2012-06-16T19:17:24Z</time>
 <fix>2d</fix>
 <sat>6</sat>
</trkpt>
<trkpt lat="48.320511667" lon="16.383403333">
<time>2012-06-16T19:17:25Z</time>
 <fix>2d</fix>
 <sat>6</sat>
</trkpt>
<trkpt lat="48.320515000" lon="16.383383333">
<time>2012-06-16T19:17:26Z</time>
 <fix>2d</fix>
 <sat>6</sat>
</trkpt>
<trkpt lat="48.320516667" lon="16.383363333">
<time>2012-06-16T19:17:27Z</time>
 <fix>2d</fix>
 <sat>6</sat>
</trkpt>
<trkpt lat="48.320520000" lon="16.383346667">
<time>2012-06-16T19:17:28Z</time>
 <fix>2d</fix>
 <sat>6</sat>
</trkpt>
<trkpt lat="48.320523333" lon="16.383326667">
<time>2012-06-16T19:17:29Z</time>
 <fix>2d</fix>
 <sat>6</sat>
</trkpt>
<trkpt lat="48.320528333" lon="16.383300000">
<time>2012-06-16T19:17:30Z</time>
 <fix>2d</fix>
 <sat>6</sat>
</trkpt>
<trkpt lat="48.320528333" lon="16.383265000">
<time>2012-06-16T19:17:31Z</time>
 <fix>2d</fix>
 <sat>6</sat>
</trkpt>
<trkpt lat="48.320533333" lon="16.383228333">
<time>2012-06-16T19:17:32Z</time>
 <fix>2d</fix>
 <sat>6</sat>
</trkpt>
<trkpt lat="48.320538333" lon="16.383193333">
<time>2012-06-16T19:17:33Z</time>
 <fix>2d</fix>
 <sat>6</sat>
</trkpt>
<trkpt lat="48.320541667" lon="16.383171667">
<time>2012-06-16T19:17:34Z</time>
 <fix>2d</fix>
 <sat>6</sat>
</trkpt>
<trkpt lat="48.320538333" lon="16.383136667">
<time>2012-06-16T19:17:35Z</time>
 <fix>2d</fix>
 <sat>6</sat>
</trkpt>
<trkpt lat="48.320533333" lon="16.383113333">
<time>2012-06-16T19:17:36Z</time>
 <fix>2d</fix>
 <sat>6</sat>
</trkpt>
<trkpt lat="48.320535000" lon="16.383086667">
<time>2012-06-16T19:17:37Z</time>
 <fix>2d</fix>
 <sat>6</sat>
</trkpt>
<trkpt lat="48.320528333" lon="16.383063333">
<time>2012-06-16T19:17:38Z</time>
 <fix>2d</fix>
 <sat>6</sat>
</trkpt>
<trkpt lat="48.320523333" lon="16.383026667">
<time>2012-06-16T19:17:39Z</time>
 <fix>2d</fix>
 <sat>6</sat>
</trkpt>
<trkpt lat="48.320520000" lon="16.383000000">
<time>2012-06-16T19:17:40Z</time>
 <fix>2d</fix>
 <sat>6</sat>
</trkpt>
<trkpt lat="48.320516667" lon="16.382971667">
<time>2012-06-16T19:17:41Z</time>
 <fix>2d</fix>
 <sat>6</sat>
</trkpt>
<trkpt lat="48.320515000" lon="16.382943333">
<time>2012-06-16T19:17:42Z</time>
 <fix>2d</fix>
 <sat>6</sat>
</trkpt>
<trkpt lat="48.320516667" lon="16.382905000">
<time>2012-06-16T19:17:43Z</time>
 <fix>2d</fix>
 <sat>6</sat>
</trkpt>
<trkpt lat="48.320516667" lon="16.382873333">
<time>2012-06-16T19:17:44Z</time>
 <fix>2d</fix>
 <sat>6</sat>
</trkpt>
<trkpt lat="48.320520000" lon="16.382840000">
<time>2012-06-16T19:17:45Z</time>
 <fix>2d</fix>
 <sat>6</sat>
</trkpt>
<trkpt lat="48.320525000" lon="16.382805000">
<time>2012-06-16T19:17:46Z</time>
 <fix>2d</fix>
 <sat>6</sat>
</trkpt>
<trkpt lat="48.320520000" lon="16.382776667">
<time>2012-06-16T19:17:47Z</time>
 <fix>2d</fix>
 <sat>6</sat>
</trkpt>
<trkpt lat="48.320516667" lon="16.382750000">
<time>2012-06-16T19:17:48Z</time>
 <fix>2d</fix>
 <sat>6</sat>
</trkpt>
<trkpt lat="48.320516667" lon="16.382723333">
<time>2012-06-16T19:17:49Z</time>
 <fix>2d</fix>
 <sat>6</sat>
</trkpt>
<trkpt lat="48.320516667" lon="16.382701667">
<time>2012-06-16T19:17:50Z</time>
 <fix>2d</fix>
 <sat>6</sat>
</trkpt>
<trkpt lat="48.320516667" lon="16.382686667">
<time>2012-06-16T19:17:51Z</time>
 <fix>2d</fix>
 <sat>6</sat>
</trkpt>
<trkpt lat="48.320526667" lon="16.382666667">
<time>2012-06-16T19:17:52Z</time>
 <fix>2d</fix>
 <sat>6</sat>
</trkpt>
<trkpt lat="48.320533333" lon="16.382650000">
<time>2012-06-16T19:17:53Z</time>
 <fix>2d</fix>
 <sat>6</sat>
</trkpt>
<trkpt lat="48.320536667" lon="16.382630000">
<time>2012-06-16T19:17:54Z</time>
 <fix>2d</fix>
 <sat>6</sat>
</trkpt>
<trkpt lat="48.320538333" lon="16.382603333">
<time>2012-06-16T19:17:55Z</time>
 <fix>2d</fix>
 <sat>6</sat>
</trkpt>
<trkpt lat="48.320540000" lon="16.382585000">
<time>2012-06-16T19:17:56Z</time>
 <fix>2d</fix>
 <sat>6</sat>
</trkpt>
<trkpt lat="48.320540000" lon="16.382560000">
<time>2012-06-16T19:17:57Z</time>
 <fix>2d</fix>
 <sat>6</sat>
</trkpt>
<trkpt lat="48.320541667" lon="16.382526667">
<time>2012-06-16T19:17:58Z</time>
 <fix>2d</fix>
 <sat>6</sat>
</trkpt>
<trkpt lat="48.320545000" lon="16.382500000">
<time>2012-06-16T19:17:59Z</time>
 <fix>2d</fix>
 <sat>6</sat>
</trkpt>
<trkpt lat="48.320548333" lon="16.382480000">
<time>2012-06-16T19:18:00Z</time>
 <fix>2d</fix>
 <sat>6</sat>
</trkpt>
<trkpt lat="48.320551667" lon="16.382456667">
<time>2012-06-16T19:18:01Z</time>
 <fix>2d</fix>
 <sat>6</sat>
</trkpt>
<trkpt lat="48.320548333" lon="16.382435000">
<time>2012-06-16T19:18:02Z</time>
 <fix>2d</fix>
 <sat>6</sat>
</trkpt>
<trkpt lat="48.320550000" lon="16.382413333">
<time>2012-06-16T19:18:03Z</time>
 <fix>2d</fix>
 <sat>6</sat>
</trkpt>
<trkpt lat="48.320553333" lon="16.382378333">
<time>2012-06-16T19:18:04Z</time>
 <fix>2d</fix>
 <sat>6</sat>
</trkpt>
<trkpt lat="48.320553333" lon="16.382360000">
<time>2012-06-16T19:18:05Z</time>
 <fix>2d</fix>
 <sat>6</sat>
</trkpt>
<trkpt lat="48.320555000" lon="16.382335000">
<time>2012-06-16T19:18:06Z</time>
 <fix>2d</fix>
 <sat>6</sat>
</trkpt>
<trkpt lat="48.320555000" lon="16.382310000">
<time>2012-06-16T19:18:07Z</time>
 <fix>2d</fix>
 <sat>6</sat>
</trkpt>
<trkpt lat="48.320551667" lon="16.382285000">
<time>2012-06-16T19:18:08Z</time>
 <fix>2d</fix>
 <sat>6</sat>
</trkpt>
<trkpt lat="48.320558333" lon="16.382263333">
<time>2012-06-16T19:18:09Z</time>
 <fix>2d</fix>
 <sat>6</sat>
</trkpt>
<trkpt lat="48.320560000" lon="16.382243333">
<time>2012-06-16T19:18:10Z</time>
 <fix>2d</fix>
 <sat>6</sat>
</trkpt>
<trkpt lat="48.320561667" lon="16.382218333">
<time>2012-06-16T19:18:11Z</time>
 <fix>2d</fix>
 <sat>6</sat>
</trkpt>
<trkpt lat="48.320563333" lon="16.382195000">
<time>2012-06-16T19:18:12Z</time>
 <fix>2d</fix>
 <sat>6</sat>
</trkpt>
<trkpt lat="48.320563333" lon="16.382170000">
<time>2012-06-16T19:18:13Z</time>
 <fix>2d</fix>
 <sat>6</sat>
</trkpt>
<trkpt lat="48.320563333" lon="16.382145000">
<time>2012-06-16T19:18:14Z</time>
 <fix>2d</fix>
 <sat>6</sat>
</trkpt>
<trkpt lat="48.320563333" lon="16.382120000">
<time>2012-06-16T19:18:15Z</time>
 <fix>2d</fix>
 <sat>6</sat>
</trkpt>
<trkpt lat="48.320563333" lon="16.382090000">
<time>2012-06-16T19:18:16Z</time>
 <fix>2d</fix>
 <sat>6</sat>
</trkpt>
<trkpt lat="48.320560000" lon="16.382060000">
<time>2012-06-16T19:18:17Z</time>
 <fix>2d</fix>
 <sat>6</sat>
</trkpt>
<trkpt lat="48.320563333" lon="16.382026667">
<time>2012-06-16T19:18:18Z</time>
 <fix>2d</fix>
 <sat>6</sat>
</trkpt>
<trkpt lat="48.320568333" lon="16.381998333">
<time>2012-06-16T19:18:19Z</time>
 <fix>2d</fix>
 <sat>6</sat>
</trkpt>
<trkpt lat="48.320571667" lon="16.381970000">
<time>2012-06-16T19:18:20Z</time>
 <fix>2d</fix>
 <sat>6</sat>
</trkpt>
<trkpt lat="48.320568333" lon="16.381943333">
<time>2012-06-16T19:18:21Z</time>
 <fix>2d</fix>
 <sat>6</sat>
</trkpt>
<trkpt lat="48.320568333" lon="16.381906667">
<time>2012-06-16T19:18:22Z</time>
 <fix>2d</fix>
 <sat>6</sat>
</trkpt>
<trkpt lat="48.320571667" lon="16.381881667">
<time>2012-06-16T19:18:23Z</time>
 <fix>2d</fix>
 <sat>6</sat>
</trkpt>
<trkpt lat="48.320583333" lon="16.381860000">
<time>2012-06-16T19:18:24Z</time>
 <fix>2d</fix>
 <sat>6</sat>
</trkpt>
<trkpt lat="48.320588333" lon="16.381836667">
<time>2012-06-16T19:18:25Z</time>
 <fix>2d</fix>
 <sat>6</sat>
</trkpt>
<trkpt lat="48.320598333" lon="16.381811667">
<time>2012-06-16T19:18:26Z</time>
 <fix>2d</fix>
 <sat>6</sat>
</trkpt>
<trkpt lat="48.320606667" lon="16.381785000">
<time>2012-06-16T19:18:27Z</time>
 <fix>2d</fix>
 <sat>6</sat>
</trkpt>
<trkpt lat="48.320620000" lon="16.381761667">
<time>2012-06-16T19:18:28Z</time>
 <fix>2d</fix>
 <sat>6</sat>
</trkpt>
<trkpt lat="48.320630000" lon="16.381738333">
<time>2012-06-16T19:18:29Z</time>
 <fix>2d</fix>
 <sat>6</sat>
</trkpt>
<trkpt lat="48.320638333" lon="16.381720000">
<time>2012-06-16T19:18:30Z</time>
 <fix>2d</fix>
 <sat>6</sat>
</trkpt>
<trkpt lat="48.320643333" lon="16.381698333">
<time>2012-06-16T19:18:31Z</time>
 <fix>2d</fix>
 <sat>6</sat>
</trkpt>
<trkpt lat="48.320650000" lon="16.381681667">
<time>2012-06-16T19:18:32Z</time>
 <fix>2d</fix>
 <sat>6</sat>
</trkpt>
<trkpt lat="48.320655000" lon="16.381665000">
<time>2012-06-16T19:18:33Z</time>
 <fix>2d</fix>
 <sat>6</sat>
</trkpt>
<trkpt lat="48.320668333" lon="16.381645000">
<time>2012-06-16T19:18:34Z</time>
 <fix>2d</fix>
 <sat>6</sat>
</trkpt>
<trkpt lat="48.320673333" lon="16.381626667">
<time>2012-06-16T19:18:35Z</time>
 <fix>2d</fix>
 <sat>6</sat>
</trkpt>
<trkpt lat="48.320681667" lon="16.381603333">
<time>2012-06-16T19:18:36Z</time>
 <fix>2d</fix>
 <sat>6</sat>
</trkpt>
<trkpt lat="48.320686667" lon="16.381581667">
<time>2012-06-16T19:18:37Z</time>
 <fix>2d</fix>
 <sat>6</sat>
</trkpt>
<trkpt lat="48.320686667" lon="16.381558333">
<time>2012-06-16T19:18:38Z</time>
 <fix>2d</fix>
 <sat>6</sat>
</trkpt>
<trkpt lat="48.320690000" lon="16.381536667">
<time>2012-06-16T19:18:39Z</time>
 <fix>2d</fix>
 <sat>6</sat>
</trkpt>
<trkpt lat="48.320690000" lon="16.381520000">
<time>2012-06-16T19:18:40Z</time>
 <fix>2d</fix>
 <sat>6</sat>
</trkpt>
<trkpt lat="48.320693333" lon="16.381496667">
<time>2012-06-16T19:18:41Z</time>
 <fix>2d</fix>
 <sat>6</sat>
</trkpt>
<trkpt lat="48.320705000" lon="16.381461667">
<time>2012-06-16T19:18:42Z</time>
 <fix>2d</fix>
 <sat>6</sat>
</trkpt>
<trkpt lat="48.320716667" lon="16.381438333">
<time>2012-06-16T19:18:43Z</time>
 <fix>2d</fix>
 <sat>6</sat>
</trkpt>
<trkpt lat="48.320726667" lon="16.381413333">
<time>2012-06-16T19:18:44Z</time>
 <fix>2d</fix>
 <sat>6</sat>
</trkpt>
<trkpt lat="48.320731667" lon="16.381393333">
<time>2012-06-16T19:18:45Z</time>
 <fix>2d</fix>
 <sat>6</sat>
</trkpt>
<trkpt lat="48.320735000" lon="16.381368333">
<time>2012-06-16T19:18:46Z</time>
 <fix>2d</fix>
 <sat>6</sat>
</trkpt>
<trkpt lat="48.320738333" lon="16.381341667">
<time>2012-06-16T19:18:47Z</time>
 <fix>2d</fix>
 <sat>6</sat>
</trkpt>
<trkpt lat="48.320753333" lon="16.381318333">
<time>2012-06-16T19:18:48Z</time>
 <fix>2d</fix>
 <sat>6</sat>
</trkpt>
<trkpt lat="48.320761667" lon="16.381288333">
<time>2012-06-16T19:18:49Z</time>
 <fix>2d</fix>
 <sat>6</sat>
</trkpt>
<trkpt lat="48.320761667" lon="16.381250000">
<time>2012-06-16T19:18:50Z</time>
 <fix>2d</fix>
 <sat>6</sat>
</trkpt>
<trkpt lat="48.320765000" lon="16.381230000">
<time>2012-06-16T19:18:51Z</time>
 <fix>2d</fix>
 <sat>6</sat>
</trkpt>
<trkpt lat="48.320771667" lon="16.381211667">
<time>2012-06-16T19:18:52Z</time>
 <fix>2d</fix>
 <sat>6</sat>
</trkpt>
<trkpt lat="48.320778333" lon="16.381195000">
<time>2012-06-16T19:18:53Z</time>
 <fix>2d</fix>
 <sat>6</sat>
</trkpt>
<trkpt lat="48.320788333" lon="16.381180000">
<time>2012-06-16T19:18:54Z</time>
 <fix>2d</fix>
 <sat>6</sat>
</trkpt>
<trkpt lat="48.320793333" lon="16.381161667">
<time>2012-06-16T19:18:55Z</time>
 <fix>2d</fix>
 <sat>6</sat>
</trkpt>
<trkpt lat="48.320800000" lon="16.381131667">
<time>2012-06-16T19:18:56Z</time>
 <fix>2d</fix>
 <sat>6</sat>
</trkpt>
<trkpt lat="48.320806667" lon="16.381103333">
<time>2012-06-16T19:18:57Z</time>
 <fix>2d</fix>
 <sat>6</sat>
</trkpt>
<trkpt lat="48.320821667" lon="16.381080000">
<time>2012-06-16T19:18:58Z</time>
 <fix>2d</fix>
 <sat>6</sat>
</trkpt>
<trkpt lat="48.320831667" lon="16.381056667">
<time>2012-06-16T19:18:59Z</time>
 <fix>2d</fix>
 <sat>6</sat>
</trkpt>
<trkpt lat="48.320836667" lon="16.381028333">
<time>2012-06-16T19:19:00Z</time>
 <fix>2d</fix>
 <sat>6</sat>
</trkpt>
<trkpt lat="48.320850000" lon="16.381005000">
<time>2012-06-16T19:19:01Z</time>
 <fix>2d</fix>
 <sat>6</sat>
</trkpt>
<trkpt lat="48.320855000" lon="16.380973333">
<time>2012-06-16T19:19:02Z</time>
 <fix>2d</fix>
 <sat>6</sat>
</trkpt>
<trkpt lat="48.320863333" lon="16.380938333">
<time>2012-06-16T19:19:03Z</time>
 <fix>2d</fix>
 <sat>6</sat>
</trkpt>
<trkpt lat="48.320871667" lon="16.380908333">
<time>2012-06-16T19:19:04Z</time>
 <fix>2d</fix>
 <sat>6</sat>
</trkpt>
<trkpt lat="48.320880000" lon="16.380878333">
<time>2012-06-16T19:19:05Z</time>
 <fix>2d</fix>
 <sat>6</sat>
</trkpt>
<trkpt lat="48.320890000" lon="16.380850000">
<time>2012-06-16T19:19:06Z</time>
 <fix>2d</fix>
 <sat>6</sat>
</trkpt>
<trkpt lat="48.320898333" lon="16.380808333">
<time>2012-06-16T19:19:07Z</time>
 <fix>2d</fix>
 <sat>6</sat>
</trkpt>
<trkpt lat="48.320900000" lon="16.380775000">
<time>2012-06-16T19:19:08Z</time>
 <fix>2d</fix>
 <sat>6</sat>
</trkpt>
<trkpt lat="48.320906667" lon="16.380745000">
<time>2012-06-16T19:19:09Z</time>
 <fix>2d</fix>
 <sat>6</sat>
</trkpt>
<trkpt lat="48.320910000" lon="16.380730000">
<time>2012-06-16T19:19:10Z</time>
 <fix>2d</fix>
 <sat>6</sat>
</trkpt>
<trkpt lat="48.320923333" lon="16.380708333">
<time>2012-06-16T19:19:11Z</time>
 <fix>2d</fix>
 <sat>6</sat>
</trkpt>
<trkpt lat="48.320935000" lon="16.380693333">
<time>2012-06-16T19:19:12Z</time>
 <fix>2d</fix>
 <sat>6</sat>
</trkpt>
<trkpt lat="48.320948333" lon="16.380676667">
<time>2012-06-16T19:19:13Z</time>
 <fix>2d</fix>
 <sat>6</sat>
</trkpt>
<trkpt lat="48.320961667" lon="16.380661667">
<time>2012-06-16T19:19:14Z</time>
 <fix>2d</fix>
 <sat>6</sat>
</trkpt>
<trkpt lat="48.320960000" lon="16.380650000">
<time>2012-06-16T19:19:15Z</time>
 <fix>2d</fix>
 <sat>6</sat>
</trkpt>
<trkpt lat="48.320960000" lon="16.380638333">
<time>2012-06-16T19:19:16Z</time>
 <fix>2d</fix>
 <sat>6</sat>
</trkpt>
<trkpt lat="48.320958333" lon="16.380633333">
<time>2012-06-16T19:19:17Z</time>
 <fix>2d</fix>
 <sat>6</sat>
</trkpt>
<trkpt lat="48.320965000" lon="16.380626667">
<time>2012-06-16T19:19:18Z</time>
 <fix>2d</fix>
 <sat>6</sat>
</trkpt>
<trkpt lat="48.320963333" lon="16.380608333">
<time>2012-06-16T19:19:19Z</time>
 <fix>2d</fix>
 <sat>6</sat>
</trkpt>
<trkpt lat="48.320966667" lon="16.380581667">
<time>2012-06-16T19:19:20Z</time>
 <fix>2d</fix>
 <sat>6</sat>
</trkpt>
<trkpt lat="48.320973333" lon="16.380546667">
<time>2012-06-16T19:19:21Z</time>
 <fix>2d</fix>
 <sat>6</sat>
</trkpt>
<trkpt lat="48.320988333" lon="16.380515000">
<time>2012-06-16T19:19:22Z</time>
 <fix>2d</fix>
 <sat>6</sat>
</trkpt>
<trkpt lat="48.320998333" lon="16.380480000">
<time>2012-06-16T19:19:23Z</time>
 <fix>2d</fix>
 <sat>6</sat>
</trkpt>
<trkpt lat="48.320998333" lon="16.380443333">
<time>2012-06-16T19:19:24Z</time>
 <fix>2d</fix>
 <sat>6</sat>
</trkpt>
<trkpt lat="48.320996667" lon="16.380418333">
<time>2012-06-16T19:19:25Z</time>
 <fix>2d</fix>
 <sat>6</sat>
</trkpt>
<trkpt lat="48.321005000" lon="16.380390000">
<time>2012-06-16T19:19:26Z</time>
 <fix>2d</fix>
 <sat>6</sat>
</trkpt>
<trkpt lat="48.321020000" lon="16.380356667">
<time>2012-06-16T19:19:27Z</time>
 <fix>2d</fix>
 <sat>6</sat>
</trkpt>
<trkpt lat="48.321026667" lon="16.380325000">
<time>2012-06-16T19:19:28Z</time>
 <fix>2d</fix>
 <sat>6</sat>
</trkpt>
<trkpt lat="48.321031667" lon="16.380285000">
<time>2012-06-16T19:19:29Z</time>
 <fix>2d</fix>
 <sat>6</sat>
</trkpt>
<trkpt lat="48.321038333" lon="16.380245000">
<time>2012-06-16T19:19:30Z</time>
 <fix>2d</fix>
 <sat>6</sat>
</trkpt>
<trkpt lat="48.321045000" lon="16.380206667">
<time>2012-06-16T19:19:31Z</time>
 <fix>2d</fix>
 <sat>6</sat>
</trkpt>
<trkpt lat="48.321061667" lon="16.380165000">
<time>2012-06-16T19:19:32Z</time>
 <fix>2d</fix>
 <sat>6</sat>
</trkpt>
<trkpt lat="48.321073333" lon="16.380138333">
<time>2012-06-16T19:19:33Z</time>
 <fix>2d</fix>
 <sat>6</sat>
</trkpt>
<trkpt lat="48.321085000" lon="16.380108333">
<time>2012-06-16T19:19:34Z</time>
 <fix>2d</fix>
 <sat>6</sat>
</trkpt>
<trkpt lat="48.321110000" lon="16.380080000">
<time>2012-06-16T19:19:35Z</time>
 <fix>2d</fix>
 <sat>6</sat>
</trkpt>
<trkpt lat="48.321131667" lon="16.380051667">
<time>2012-06-16T19:19:36Z</time>
 <fix>2d</fix>
 <sat>6</sat>
</trkpt>
<trkpt lat="48.321138333" lon="16.380015000">
<time>2012-06-16T19:19:37Z</time>
 <fix>2d</fix>
 <sat>6</sat>
</trkpt>
<trkpt lat="48.321148333" lon="16.379976667">
<time>2012-06-16T19:19:38Z</time>
 <fix>2d</fix>
 <sat>6</sat>
</trkpt>
<trkpt lat="48.321158333" lon="16.379945000">
<time>2012-06-16T19:19:39Z</time>
 <fix>2d</fix>
 <sat>6</sat>
</trkpt>
<trkpt lat="48.321160000" lon="16.379906667">
<time>2012-06-16T19:19:40Z</time>
 <fix>2d</fix>
 <sat>6</sat>
</trkpt>
<trkpt lat="48.321163333" lon="16.379873333">
<time>2012-06-16T19:19:41Z</time>
 <fix>2d</fix>
 <sat>6</sat>
</trkpt>
<trkpt lat="48.321173333" lon="16.379835000">
<time>2012-06-16T19:19:42Z</time>
 <fix>2d</fix>
 <sat>6</sat>
</trkpt>
<trkpt lat="48.321181667" lon="16.379808333">
<time>2012-06-16T19:19:43Z</time>
 <fix>2d</fix>
 <sat>6</sat>
</trkpt>
<trkpt lat="48.321185000" lon="16.379780000">
<time>2012-06-16T19:19:44Z</time>
 <fix>2d</fix>
 <sat>6</sat>
</trkpt>
<trkpt lat="48.321195000" lon="16.379755000">
<time>2012-06-16T19:19:45Z</time>
 <fix>2d</fix>
 <sat>6</sat>
</trkpt>
<trkpt lat="48.321206667" lon="16.379728333">
<time>2012-06-16T19:19:46Z</time>
 <fix>2d</fix>
 <sat>6</sat>
</trkpt>
<trkpt lat="48.321221667" lon="16.379708333">
<time>2012-06-16T19:19:47Z</time>
 <fix>2d</fix>
 <sat>6</sat>
</trkpt>
<trkpt lat="48.321231667" lon="16.379685000">
<time>2012-06-16T19:19:48Z</time>
 <fix>2d</fix>
 <sat>6</sat>
</trkpt>
<trkpt lat="48.321238333" lon="16.379668333">
<time>2012-06-16T19:19:49Z</time>
 <fix>2d</fix>
 <sat>6</sat>
</trkpt>
<trkpt lat="48.321251667" lon="16.379633333">
<time>2012-06-16T19:19:50Z</time>
 <fix>2d</fix>
 <sat>6</sat>
</trkpt>
<trkpt lat="48.321265000" lon="16.379611667">
<time>2012-06-16T19:19:51Z</time>
 <fix>2d</fix>
 <sat>6</sat>
</trkpt>
<trkpt lat="48.321281667" lon="16.379588333">
<time>2012-06-16T19:19:52Z</time>
 <fix>2d</fix>
 <sat>6</sat>
</trkpt>
<trkpt lat="48.321300000" lon="16.379573333">
<time>2012-06-16T19:19:53Z</time>
 <fix>2d</fix>
 <sat>6</sat>
</trkpt>
<trkpt lat="48.321315000" lon="16.379568333">
<time>2012-06-16T19:19:54Z</time>
 <fix>2d</fix>
 <sat>6</sat>
</trkpt>
<trkpt lat="48.321335000" lon="16.379548333">
<time>2012-06-16T19:19:55Z</time>
 <fix>2d</fix>
 <sat>6</sat>
</trkpt>
<trkpt lat="48.321351667" lon="16.379533333">
<time>2012-06-16T19:19:56Z</time>
 <fix>2d</fix>
 <sat>6</sat>
</trkpt>
<trkpt lat="48.321368333" lon="16.379518333">
<time>2012-06-16T19:19:57Z</time>
 <fix>2d</fix>
 <sat>6</sat>
</trkpt>
<trkpt lat="48.321376667" lon="16.379501667">
<time>2012-06-16T19:19:58Z</time>
 <fix>2d</fix>
 <sat>6</sat>
</trkpt>
<trkpt lat="48.321385000" lon="16.379490000">
<time>2012-06-16T19:19:59Z</time>
 <fix>2d</fix>
 <sat>6</sat>
</trkpt>
<trkpt lat="48.321393333" lon="16.379481667">
<time>2012-06-16T19:20:00Z</time>
 <fix>2d</fix>
 <sat>6</sat>
</trkpt>
<trkpt lat="48.321403333" lon="16.379473333">
<time>2012-06-16T19:20:01Z</time>
 <fix>2d</fix>
 <sat>6</sat>
</trkpt>
<trkpt lat="48.321416667" lon="16.379470000">
<time>2012-06-16T19:20:02Z</time>
 <fix>2d</fix>
 <sat>6</sat>
</trkpt>
<trkpt lat="48.321446667" lon="16.379445000">
<time>2012-06-16T19:20:03Z</time>
 <fix>2d</fix>
 <sat>6</sat>
</trkpt>
<trkpt lat="48.321486667" lon="16.379428333">
<time>2012-06-16T19:20:04Z</time>
 <fix>2d</fix>
 <sat>6</sat>
</trkpt>
<trkpt lat="48.321535000" lon="16.379411667">
<time>2012-06-16T19:20:05Z</time>
 <fix>2d</fix>
 <sat>6</sat>
</trkpt>
<trkpt lat="48.321576667" lon="16.379398333">
<time>2012-06-16T19:20:06Z</time>
 <fix>2d</fix>
 <sat>6</sat>
</trkpt>
<trkpt lat="48.321616667" lon="16.379393333">
<time>2012-06-16T19:20:07Z</time>
 <fix>2d</fix>
 <sat>6</sat>
</trkpt>
<trkpt lat="48.321656667" lon="16.379356667">
<time>2012-06-16T19:20:08Z</time>
 <fix>2d</fix>
 <sat>6</sat>
</trkpt>
<trkpt lat="48.321696667" lon="16.379320000">
<time>2012-06-16T19:20:09Z</time>
 <fix>2d</fix>
 <sat>6</sat>
</trkpt>
<trkpt lat="48.321733333" lon="16.379280000">
<time>2012-06-16T19:20:10Z</time>
 <fix>2d</fix>
 <sat>6</sat>
</trkpt>
<trkpt lat="48.321775000" lon="16.379225000">
<time>2012-06-16T19:20:11Z</time>
 <fix>2d</fix>
 <sat>6</sat>
</trkpt>
<trkpt lat="48.321818333" lon="16.379178333">
<time>2012-06-16T19:20:12Z</time>
 <fix>2d</fix>
 <sat>6</sat>
</trkpt>
<trkpt lat="48.321865000" lon="16.379123333">
<time>2012-06-16T19:20:13Z</time>
 <fix>2d</fix>
 <sat>6</sat>
</trkpt>
<trkpt lat="48.321903333" lon="16.379083333">
<time>2012-06-16T19:20:14Z</time>
 <fix>2d</fix>
 <sat>6</sat>
</trkpt>
<trkpt lat="48.321943333" lon="16.379026667">
<time>2012-06-16T19:20:15Z</time>
 <fix>2d</fix>
 <sat>6</sat>
</trkpt>
<trkpt lat="48.321986667" lon="16.378990000">
<time>2012-06-16T19:20:16Z</time>
 <fix>2d</fix>
 <sat>6</sat>
</trkpt>
<trkpt lat="48.322028333" lon="16.378933333">
<time>2012-06-16T19:20:17Z</time>
 <fix>2d</fix>
 <sat>6</sat>
</trkpt>
<trkpt lat="48.322060000" lon="16.378888333">
<time>2012-06-16T19:20:18Z</time>
 <fix>2d</fix>
 <sat>6</sat>
</trkpt>
<trkpt lat="48.322086667" lon="16.378856667">
<time>2012-06-16T19:20:19Z</time>
 <fix>2d</fix>
 <sat>6</sat>
</trkpt>
<trkpt lat="48.322123333" lon="16.378821667">
<time>2012-06-16T19:20:20Z</time>
 <fix>2d</fix>
 <sat>6</sat>
</trkpt>
<trkpt lat="48.322170000" lon="16.378766667">
<time>2012-06-16T19:20:21Z</time>
 <fix>2d</fix>
 <sat>6</sat>
</trkpt>
<trkpt lat="48.322216667" lon="16.378720000">
<time>2012-06-16T19:20:22Z</time>
 <fix>2d</fix>
 <sat>6</sat>
</trkpt>
<trkpt lat="48.322256667" lon="16.378681667">
<time>2012-06-16T19:20:23Z</time>
 <fix>2d</fix>
 <sat>6</sat>
</trkpt>
<trkpt lat="48.322298333" lon="16.378643333">
<time>2012-06-16T19:20:24Z</time>
 <fix>2d</fix>
 <sat>6</sat>
</trkpt>
<trkpt lat="48.322326667" lon="16.378608333">
<time>2012-06-16T19:20:25Z</time>
 <fix>2d</fix>
 <sat>6</sat>
</trkpt>
<trkpt lat="48.322356667" lon="16.378553333">
<time>2012-06-16T19:20:26Z</time>
 <fix>2d</fix>
 <sat>6</sat>
</trkpt>
<trkpt lat="48.322383333" lon="16.378506667">
<time>2012-06-16T19:20:27Z</time>
 <fix>2d</fix>
 <sat>6</sat>
</trkpt>
<trkpt lat="48.322411667" lon="16.378415000">
<time>2012-06-16T19:20:28Z</time>
 <fix>2d</fix>
 <sat>6</sat>
</trkpt>
<trkpt lat="48.322445000" lon="16.378328333">
<time>2012-06-16T19:20:29Z</time>
 <fix>2d</fix>
 <sat>6</sat>
</trkpt>
<trkpt lat="48.322498333" lon="16.378206667">
<time>2012-06-16T19:20:30Z</time>
 <fix>2d</fix>
 <sat>6</sat>
</trkpt>
<trkpt lat="48.322553333" lon="16.378085000">
<time>2012-06-16T19:20:31Z</time>
 <fix>2d</fix>
 <sat>6</sat>
</trkpt>
<trkpt lat="48.322616667" lon="16.378011667">
<time>2012-06-16T19:20:32Z</time>
 <fix>2d</fix>
 <sat>6</sat>
</trkpt>
<trkpt lat="48.322663333" lon="16.377995000">
<time>2012-06-16T19:20:33Z</time>
 <fix>2d</fix>
 <sat>6</sat>
</trkpt>
<trkpt lat="48.322710000" lon="16.377971667">
<time>2012-06-16T19:20:34Z</time>
 <fix>2d</fix>
 <sat>6</sat>
</trkpt>
<trkpt lat="48.322765000" lon="16.377931667">
<time>2012-06-16T19:20:35Z</time>
 <fix>2d</fix>
 <sat>6</sat>
</trkpt>
<trkpt lat="48.322818333" lon="16.377908333">
<time>2012-06-16T19:20:36Z</time>
 <fix>2d</fix>
 <sat>6</sat>
</trkpt>
<trkpt lat="48.322886667" lon="16.377873333">
<time>2012-06-16T19:20:37Z</time>
 <fix>2d</fix>
 <sat>6</sat>
</trkpt>
<trkpt lat="48.322936667" lon="16.377833333">
<time>2012-06-16T19:20:38Z</time>
 <fix>2d</fix>
 <sat>6</sat>
</trkpt>
<trkpt lat="48.322981667" lon="16.377793333">
<time>2012-06-16T19:20:39Z</time>
 <fix>2d</fix>
 <sat>6</sat>
</trkpt>
<trkpt lat="48.323056667" lon="16.377805000">
<time>2012-06-16T19:20:40Z</time>
 <fix>2d</fix>
 <sat>6</sat>
</trkpt>
<trkpt lat="48.323126667" lon="16.377741667">
<time>2012-06-16T19:20:41Z</time>
 <fix>2d</fix>
 <sat>6</sat>
</trkpt>
<trkpt lat="48.323176667" lon="16.377698333">
<time>2012-06-16T19:20:42Z</time>
 <fix>2d</fix>
 <sat>6</sat>
</trkpt>
<trkpt lat="48.323228333" lon="16.377666667">
<time>2012-06-16T19:20:43Z</time>
 <fix>2d</fix>
 <sat>6</sat>
</trkpt>
<trkpt lat="48.323301667" lon="16.377643333">
<time>2012-06-16T19:20:44Z</time>
 <fix>2d</fix>
 <sat>6</sat>
</trkpt>
<trkpt lat="48.323363333" lon="16.377575000">
<time>2012-06-16T19:20:45Z</time>
 <fix>2d</fix>
 <sat>6</sat>
</trkpt>
<trkpt lat="48.323421667" lon="16.377535000">
<time>2012-06-16T19:20:46Z</time>
 <fix>2d</fix>
 <sat>6</sat>
</trkpt>
<trkpt lat="48.323481667" lon="16.377516667">
<time>2012-06-16T19:20:47Z</time>
 <fix>2d</fix>
 <sat>6</sat>
</trkpt>
<trkpt lat="48.323578333" lon="16.377496667">
<time>2012-06-16T19:20:48Z</time>
 <fix>2d</fix>
 <sat>6</sat>
</trkpt>
<trkpt lat="48.323651667" lon="16.377481667">
<time>2012-06-16T19:20:49Z</time>
 <fix>2d</fix>
 <sat>6</sat>
</trkpt>
<trkpt lat="48.323776667" lon="16.377425000">
<time>2012-06-16T19:20:50Z</time>
 <fix>2d</fix>
 <sat>6</sat>
</trkpt>
<trkpt lat="48.323841667" lon="16.377428333">
<time>2012-06-16T19:20:51Z</time>
 <fix>2d</fix>
 <sat>6</sat>
</trkpt>
<trkpt lat="48.323906667" lon="16.377430000">
<time>2012-06-16T19:20:52Z</time>
 <fix>2d</fix>
 <sat>6</sat>
</trkpt>
<trkpt lat="48.323980000" lon="16.377386667">
<time>2012-06-16T19:20:53Z</time>
 <fix>2d</fix>
 <sat>6</sat>
</trkpt>
<trkpt lat="48.324036667" lon="16.377360000">
<time>2012-06-16T19:20:54Z</time>
 <fix>2d</fix>
 <sat>6</sat>
</trkpt>
<trkpt lat="48.324103333" lon="16.377315000">
<time>2012-06-16T19:20:55Z</time>
 <fix>2d</fix>
 <sat>6</sat>
</trkpt>
<trkpt lat="48.324163333" lon="16.377260000">
<time>2012-06-16T19:20:56Z</time>
 <fix>2d</fix>
 <sat>6</sat>
</trkpt>
<trkpt lat="48.324228333" lon="16.377183333">
<time>2012-06-16T19:20:57Z</time>
 <fix>2d</fix>
 <sat>6</sat>
</trkpt>
<trkpt lat="48.324308333" lon="16.377151667">
<time>2012-06-16T19:20:58Z</time>
 <fix>2d</fix>
 <sat>6</sat>
</trkpt>
<trkpt lat="48.324396667" lon="16.377143333">
<time>2012-06-16T19:20:59Z</time>
 <fix>2d</fix>
 <sat>6</sat>
</trkpt>
<trkpt lat="48.324476667" lon="16.377151667">
<time>2012-06-16T19:21:00Z</time>
 <fix>2d</fix>
 <sat>6</sat>
</trkpt>
<trkpt lat="48.324543333" lon="16.377143333">
<time>2012-06-16T19:21:01Z</time>
 <fix>2d</fix>
 <sat>6</sat>
</trkpt>
<trkpt lat="48.324603333" lon="16.377101667">
<time>2012-06-16T19:21:02Z</time>
 <fix>2d</fix>
 <sat>6</sat>
</trkpt>
<trkpt lat="48.324693333" lon="16.377065000">
<time>2012-06-16T19:21:03Z</time>
 <fix>2d</fix>
 <sat>6</sat>
</trkpt>
<trkpt lat="48.324798333" lon="16.377073333">
<time>2012-06-16T19:21:04Z</time>
 <fix>2d</fix>
 <sat>6</sat>
</trkpt>
<trkpt lat="48.324878333" lon="16.377026667">
<time>2012-06-16T19:21:05Z</time>
 <fix>2d</fix>
 <sat>6</sat>
</trkpt>
<trkpt lat="48.324968333" lon="16.377005000">
<time>2012-06-16T19:21:06Z</time>
 <fix>2d</fix>
 <sat>6</sat>
</trkpt>
<trkpt lat="48.325031667" lon="16.377003333">
<time>2012-06-16T19:21:07Z</time>
 <fix>2d</fix>
 <sat>6</sat>
</trkpt>
<trkpt lat="48.325095000" lon="16.377013333">
<time>2012-06-16T19:21:08Z</time>
 <fix>2d</fix>
 <sat>6</sat>
</trkpt>
<trkpt lat="48.325153333" lon="16.377036667">
<time>2012-06-16T19:21:09Z</time>
 <fix>2d</fix>
 <sat>6</sat>
</trkpt>
<trkpt lat="48.325201667" lon="16.377050000">
<time>2012-06-16T19:21:10Z</time>
 <fix>2d</fix>
 <sat>6</sat>
</trkpt>
<trkpt lat="48.325248333" lon="16.377066667">
<time>2012-06-16T19:21:11Z</time>
 <fix>2d</fix>
 <sat>6</sat>
</trkpt>
<trkpt lat="48.325300000" lon="16.377108333">
<time>2012-06-16T19:21:12Z</time>
 <fix>2d</fix>
 <sat>6</sat>
</trkpt>
<trkpt lat="48.325355000" lon="16.377140000">
<time>2012-06-16T19:21:13Z</time>
 <fix>2d</fix>
 <sat>6</sat>
</trkpt>
<trkpt lat="48.325405000" lon="16.377186667">
<time>2012-06-16T19:21:14Z</time>
 <fix>2d</fix>
 <sat>6</sat>
</trkpt>
<trkpt lat="48.325451667" lon="16.377238333">
<time>2012-06-16T19:21:15Z</time>
 <fix>2d</fix>
 <sat>6</sat>
</trkpt>
<trkpt lat="48.325520000" lon="16.377355000">
<time>2012-06-16T19:21:16Z</time>
 <fix>2d</fix>
 <sat>6</sat>
</trkpt>
<trkpt lat="48.325578333" lon="16.377413333">
<time>2012-06-16T19:21:17Z</time>
 <fix>2d</fix>
 <sat>6</sat>
</trkpt>
<trkpt lat="48.325618333" lon="16.377453333">
<time>2012-06-16T19:21:18Z</time>
 <fix>2d</fix>
 <sat>6</sat>
</trkpt>
<trkpt lat="48.325671667" lon="16.377480000">
<time>2012-06-16T19:21:19Z</time>
 <fix>2d</fix>
 <sat>6</sat>
</trkpt>
<trkpt lat="48.325726667" lon="16.377505000">
<time>2012-06-16T19:21:20Z</time>
 <fix>2d</fix>
 <sat>6</sat>
</trkpt>
<trkpt lat="48.325793333" lon="16.377500000">
<time>2012-06-16T19:21:21Z</time>
 <fix>2d</fix>
 <sat>6</sat>
</trkpt>
<trkpt lat="48.325865000" lon="16.377476667">
<time>2012-06-16T19:21:22Z</time>
 <fix>2d</fix>
 <sat>6</sat>
</trkpt>
<trkpt lat="48.325963333" lon="16.377481667">
<time>2012-06-16T19:21:23Z</time>
 <fix>2d</fix>
 <sat>6</sat>
</trkpt>
<trkpt lat="48.326038333" lon="16.377481667">
<time>2012-06-16T19:21:24Z</time>
 <fix>2d</fix>
 <sat>6</sat>
</trkpt>
<trkpt lat="48.326111667" lon="16.377461667">
<time>2012-06-16T19:21:25Z</time>
 <fix>2d</fix>
 <sat>6</sat>
</trkpt>
<trkpt lat="48.326170000" lon="16.377436667">
<time>2012-06-16T19:21:26Z</time>
 <fix>2d</fix>
 <sat>6</sat>
</trkpt>
<trkpt lat="48.326220000" lon="16.377378333">
<time>2012-06-16T19:21:27Z</time>
 <fix>2d</fix>
 <sat>6</sat>
</trkpt>
<trkpt lat="48.326301667" lon="16.377353333">
<time>2012-06-16T19:21:28Z</time>
 <fix>2d</fix>
 <sat>6</sat>
</trkpt>
<trkpt lat="48.326361667" lon="16.377280000">
<time>2012-06-16T19:21:29Z</time>
 <fix>2d</fix>
 <sat>6</sat>
</trkpt>
<trkpt lat="48.326445000" lon="16.377218333">
<time>2012-06-16T19:21:30Z</time>
 <fix>2d</fix>
 <sat>6</sat>
</trkpt>
<trkpt lat="48.326498333" lon="16.377125000">
<time>2012-06-16T19:21:31Z</time>
 <fix>2d</fix>
 <sat>6</sat>
</trkpt>
<trkpt lat="48.326541667" lon="16.377050000">
<time>2012-06-16T19:21:32Z</time>
 <fix>2d</fix>
 <sat>6</sat>
</trkpt>
<trkpt lat="48.326573333" lon="16.376986667">
<time>2012-06-16T19:21:33Z</time>
 <fix>2d</fix>
 <sat>6</sat>
</trkpt>
<trkpt lat="48.326641667" lon="16.376938333">
<time>2012-06-16T19:21:34Z</time>
 <fix>2d</fix>
 <sat>6</sat>
</trkpt>
<trkpt lat="48.326688333" lon="16.376825000">
<time>2012-06-16T19:21:35Z</time>
 <fix>2d</fix>
 <sat>6</sat>
</trkpt>
<trkpt lat="48.326753333" lon="16.376713333">
<time>2012-06-16T19:21:36Z</time>
 <fix>2d</fix>
 <sat>6</sat>
</trkpt>
<trkpt lat="48.326806667" lon="16.376650000">
<time>2012-06-16T19:21:37Z</time>
 <fix>2d</fix>
 <sat>6</sat>
</trkpt>
<trkpt lat="48.326848333" lon="16.376571667">
<time>2012-06-16T19:21:38Z</time>
 <fix>2d</fix>
 <sat>6</sat>
</trkpt>
<trkpt lat="48.326881667" lon="16.376495000">
<time>2012-06-16T19:21:39Z</time>
 <fix>2d</fix>
 <sat>6</sat>
</trkpt>
<trkpt lat="48.326913333" lon="16.376415000">
<time>2012-06-16T19:21:40Z</time>
 <fix>2d</fix>
 <sat>6</sat>
</trkpt>
<trkpt lat="48.326948333" lon="16.376341667">
<time>2012-06-16T19:21:41Z</time>
 <fix>2d</fix>
 <sat>6</sat>
</trkpt>
<trkpt lat="48.326976667" lon="16.376260000">
<time>2012-06-16T19:21:42Z</time>
 <fix>2d</fix>
 <sat>6</sat>
</trkpt>
<trkpt lat="48.327043333" lon="16.376203333">
<time>2012-06-16T19:21:43Z</time>
 <fix>2d</fix>
 <sat>6</sat>
</trkpt>
<trkpt lat="48.327111667" lon="16.376146667">
<time>2012-06-16T19:21:44Z</time>
 <fix>2d</fix>
 <sat>6</sat>
</trkpt>
<trkpt lat="48.327181667" lon="16.376100000">
<time>2012-06-16T19:21:45Z</time>
 <fix>2d</fix>
 <sat>6</sat>
</trkpt>
<trkpt lat="48.327245000" lon="16.376071667">
<time>2012-06-16T19:21:46Z</time>
 <fix>2d</fix>
 <sat>6</sat>
</trkpt>
<trkpt lat="48.327328333" lon="16.376105000">
<time>2012-06-16T19:21:47Z</time>
 <fix>2d</fix>
 <sat>6</sat>
</trkpt>
<trkpt lat="48.327400000" lon="16.376083333">
<time>2012-06-16T19:21:48Z</time>
 <fix>2d</fix>
 <sat>6</sat>
</trkpt>
<trkpt lat="48.327450000" lon="16.376071667">
<time>2012-06-16T19:21:49Z</time>
 <fix>2d</fix>
 <sat>6</sat>
</trkpt>
<trkpt lat="48.327503333" lon="16.376060000">
<time>2012-06-16T19:21:50Z</time>
 <fix>2d</fix>
 <sat>6</sat>
</trkpt>
<trkpt lat="48.327565000" lon="16.376045000">
<time>2012-06-16T19:21:51Z</time>
 <fix>2d</fix>
 <sat>6</sat>
</trkpt>
<trkpt lat="48.327648333" lon="16.376045000">
<time>2012-06-16T19:21:52Z</time>
 <fix>2d</fix>
 <sat>6</sat>
</trkpt>
<trkpt lat="48.327741667" lon="16.376048333">
<time>2012-06-16T19:21:53Z</time>
 <fix>2d</fix>
 <sat>6</sat>
</trkpt>
<trkpt lat="48.327823333" lon="16.376040000">
<time>2012-06-16T19:21:54Z</time>
 <fix>2d</fix>
 <sat>6</sat>
</trkpt>
<trkpt lat="48.327908333" lon="16.376033333">
<time>2012-06-16T19:21:55Z</time>
 <fix>2d</fix>
 <sat>6</sat>
</trkpt>
<trkpt lat="48.328016667" lon="16.376008333">
<time>2012-06-16T19:21:56Z</time>
 <fix>2d</fix>
 <sat>6</sat>
</trkpt>
<trkpt lat="48.328078333" lon="16.375980000">
<time>2012-06-16T19:21:57Z</time>
 <fix>2d</fix>
 <sat>6</sat>
</trkpt>
<trkpt lat="48.328140000" lon="16.375953333">
<time>2012-06-16T19:21:58Z</time>
 <fix>2d</fix>
 <sat>6</sat>
</trkpt>
<trkpt lat="48.328193333" lon="16.375921667">
<time>2012-06-16T19:21:59Z</time>
 <fix>2d</fix>
 <sat>6</sat>
</trkpt>
<trkpt lat="48.328241667" lon="16.375870000">
<time>2012-06-16T19:22:00Z</time>
 <fix>2d</fix>
 <sat>6</sat>
</trkpt>
<trkpt lat="48.328283333" lon="16.375823333">
<time>2012-06-16T19:22:01Z</time>
 <fix>2d</fix>
 <sat>6</sat>
</trkpt>
<trkpt lat="48.328331667" lon="16.375811667">
<time>2012-06-16T19:22:02Z</time>
 <fix>2d</fix>
 <sat>6</sat>
</trkpt>
<trkpt lat="48.328380000" lon="16.375800000">
<time>2012-06-16T19:22:03Z</time>
 <fix>2d</fix>
 <sat>6</sat>
</trkpt>
<trkpt lat="48.328440000" lon="16.375795000">
<time>2012-06-16T19:22:04Z</time>
 <fix>2d</fix>
 <sat>6</sat>
</trkpt>
<trkpt lat="48.328503333" lon="16.375818333">
<time>2012-06-16T19:22:05Z</time>
 <fix>2d</fix>
 <sat>6</sat>
</trkpt>
<trkpt lat="48.328573333" lon="16.375831667">
<time>2012-06-16T19:22:06Z</time>
 <fix>2d</fix>
 <sat>6</sat>
</trkpt>
<trkpt lat="48.328641667" lon="16.375811667">
<time>2012-06-16T19:22:07Z</time>
 <fix>2d</fix>
 <sat>6</sat>
</trkpt>
<trkpt lat="48.328723333" lon="16.375805000">
<time>2012-06-16T19:22:08Z</time>
 <fix>2d</fix>
 <sat>6</sat>
</trkpt>
<trkpt lat="48.328805000" lon="16.375783333">
<time>2012-06-16T19:22:09Z</time>
 <fix>2d</fix>
 <sat>6</sat>
</trkpt>
<trkpt lat="48.328885000" lon="16.375746667">
<time>2012-06-16T19:22:10Z</time>
 <fix>2d</fix>
 <sat>6</sat>
</trkpt>
<trkpt lat="48.328963333" lon="16.375708333">
<time>2012-06-16T19:22:11Z</time>
 <fix>2d</fix>
 <sat>6</sat>
</trkpt>
<trkpt lat="48.329016667" lon="16.375633333">
<time>2012-06-16T19:22:12Z</time>
 <fix>2d</fix>
 <sat>6</sat>
</trkpt>
<trkpt lat="48.329071667" lon="16.375558333">
<time>2012-06-16T19:22:13Z</time>
 <fix>2d</fix>
 <sat>6</sat>
</trkpt>
<trkpt lat="48.329136667" lon="16.375503333">
<time>2012-06-16T19:22:14Z</time>
 <fix>2d</fix>
 <sat>6</sat>
</trkpt>
<trkpt lat="48.329210000" lon="16.375460000">
<time>2012-06-16T19:22:15Z</time>
 <fix>2d</fix>
 <sat>5</sat>
</trkpt>
<trkpt lat="48.329280000" lon="16.375415000">
<time>2012-06-16T19:22:16Z</time>
 <fix>2d</fix>
 <sat>6</sat>
</trkpt>
<trkpt lat="48.329341667" lon="16.375368333">
<time>2012-06-16T19:22:17Z</time>
 <fix>2d</fix>
 <sat>6</sat>
</trkpt>
<trkpt lat="48.329423333" lon="16.375333333">
<time>2012-06-16T19:22:18Z</time>
 <fix>2d</fix>
 <sat>6</sat>
</trkpt>
<trkpt lat="48.329480000" lon="16.375285000">
<time>2012-06-16T19:22:19Z</time>
 <fix>2d</fix>
 <sat>5</sat>
</trkpt>
<trkpt lat="48.329548333" lon="16.375276667">
<time>2012-06-16T19:22:20Z</time>
 <fix>2d</fix>
 <sat>5</sat>
</trkpt>
<trkpt lat="48.329605000" lon="16.375276667">
<time>2012-06-16T19:22:21Z</time>
 <fix>2d</fix>
 <sat>6</sat>
</trkpt>
<trkpt lat="48.329650000" lon="16.375285000">
<time>2012-06-16T19:22:22Z</time>
 <fix>2d</fix>
 <sat>6</sat>
</trkpt>
<trkpt lat="48.329690000" lon="16.375276667">
<time>2012-06-16T19:22:23Z</time>
 <fix>2d</fix>
 <sat>5</sat>
</trkpt>
<trkpt lat="48.329730000" lon="16.375251667">
<time>2012-06-16T19:22:24Z</time>
 <fix>2d</fix>
 <sat>6</sat>
</trkpt>
<trkpt lat="48.329771667" lon="16.375223333">
<time>2012-06-16T19:22:25Z</time>
 <fix>2d</fix>
 <sat>5</sat>
</trkpt>
<trkpt lat="48.329823333" lon="16.375183333">
<time>2012-06-16T19:22:26Z</time>
 <fix>2d</fix>
 <sat>5</sat>
</trkpt>
<trkpt lat="48.329886667" lon="16.375146667">
<time>2012-06-16T19:22:27Z</time>
 <fix>2d</fix>
 <sat>5</sat>
</trkpt>
<trkpt lat="48.329965000" lon="16.375113333">
<time>2012-06-16T19:22:28Z</time>
 <fix>2d</fix>
 <sat>5</sat>
</trkpt>
<trkpt lat="48.330043333" lon="16.375085000">
<time>2012-06-16T19:22:29Z</time>
 <fix>2d</fix>
 <sat>5</sat>
</trkpt>
<trkpt lat="48.330123333" lon="16.375056667">
<time>2012-06-16T19:22:30Z</time>
 <fix>2d</fix>
 <sat>5</sat>
</trkpt>
<trkpt lat="48.330210000" lon="16.375023333">
<time>2012-06-16T19:22:31Z</time>
 <fix>2d</fix>
 <sat>5</sat>
</trkpt>
<trkpt lat="48.330293333" lon="16.374988333">
<time>2012-06-16T19:22:32Z</time>
 <fix>2d</fix>
 <sat>5</sat>
</trkpt>
<trkpt lat="48.330386667" lon="16.374948333">
<time>2012-06-16T19:22:33Z</time>
 <fix>2d</fix>
 <sat>6</sat>
</trkpt>
<trkpt lat="48.330478333" lon="16.374901667">
<time>2012-06-16T19:22:34Z</time>
 <fix>2d</fix>
 <sat>5</sat>
</trkpt>
<trkpt lat="48.330573333" lon="16.374855000">
<time>2012-06-16T19:22:35Z</time>
 <fix>2d</fix>
 <sat>5</sat>
</trkpt>
<trkpt lat="48.330671667" lon="16.374806667">
<time>2012-06-16T19:22:36Z</time>
 <fix>2d</fix>
 <sat>5</sat>
</trkpt>
<trkpt lat="48.330768333" lon="16.374751667">
<time>2012-06-16T19:22:37Z</time>
 <fix>2d</fix>
 <sat>5</sat>
</trkpt>
<trkpt lat="48.330866667" lon="16.374703333">
<time>2012-06-16T19:22:38Z</time>
 <fix>2d</fix>
 <sat>5</sat>
</trkpt>
<trkpt lat="48.330961667" lon="16.374656667">
<time>2012-06-16T19:22:39Z</time>
 <fix>2d</fix>
 <sat>5</sat>
</trkpt>
<trkpt lat="48.331055000" lon="16.374608333">
<time>2012-06-16T19:22:40Z</time>
 <fix>2d</fix>
 <sat>5</sat>
</trkpt>
<trkpt lat="48.331150000" lon="16.374556667">
<time>2012-06-16T19:22:41Z</time>
 <fix>2d</fix>
 <sat>5</sat>
</trkpt>
<trkpt lat="48.331245000" lon="16.374505000">
<time>2012-06-16T19:22:42Z</time>
 <fix>2d</fix>
 <sat>5</sat>
</trkpt>
<trkpt lat="48.331338333" lon="16.374455000">
<time>2012-06-16T19:22:43Z</time>
 <fix>2d</fix>
 <sat>5</sat>
</trkpt>
<trkpt lat="48.331428333" lon="16.374400000">
<time>2012-06-16T19:22:44Z</time>
 <fix>2d</fix>
 <sat>5</sat>
</trkpt>
<trkpt lat="48.331513333" lon="16.374343333">
<time>2012-06-16T19:22:45Z</time>
 <fix>2d</fix>
 <sat>5</sat>
</trkpt>
<trkpt lat="48.331588333" lon="16.374291667">
<time>2012-06-16T19:22:46Z</time>
 <fix>2d</fix>
 <sat>5</sat>
</trkpt>
<trkpt lat="48.331656667" lon="16.374248333">
<time>2012-06-16T19:22:47Z</time>
 <fix>2d</fix>
 <sat>6</sat>
</trkpt>
<trkpt lat="48.331716667" lon="16.374210000">
<time>2012-06-16T19:22:48Z</time>
 <fix>2d</fix>
 <sat>6</sat>
</trkpt>
<trkpt lat="48.331771667" lon="16.374190000">
<time>2012-06-16T19:22:49Z</time>
 <fix>2d</fix>
 <sat>6</sat>
</trkpt>
<trkpt lat="48.331820000" lon="16.374181667">
<time>2012-06-16T19:22:50Z</time>
 <fix>2d</fix>
 <sat>6</sat>
</trkpt>
<trkpt lat="48.331860000" lon="16.374196667">
<time>2012-06-16T19:22:51Z</time>
 <fix>2d</fix>
 <sat>6</sat>
</trkpt>
<trkpt lat="48.331893333" lon="16.374226667">
<time>2012-06-16T19:22:52Z</time>
 <fix>2d</fix>
 <sat>6</sat>
</trkpt>
<trkpt lat="48.331905000" lon="16.374280000">
<time>2012-06-16T19:22:53Z</time>
 <fix>2d</fix>
 <sat>6</sat>
</trkpt>
<trkpt lat="48.331881667" lon="16.374343333">
<time>2012-06-16T19:22:54Z</time>
 <fix>2d</fix>
 <sat>6</sat>
</trkpt>
<trkpt lat="48.331861667" lon="16.374403333">
<time>2012-06-16T19:22:55Z</time>
 <fix>2d</fix>
 <sat>6</sat>
</trkpt>
<trkpt lat="48.331841667" lon="16.374458333">
<time>2012-06-16T19:22:56Z</time>
 <fix>2d</fix>
 <sat>6</sat>
</trkpt>
<trkpt lat="48.331825000" lon="16.374510000">
<time>2012-06-16T19:22:57Z</time>
 <fix>2d</fix>
 <sat>6</sat>
</trkpt>
<trkpt lat="48.331816667" lon="16.374561667">
<time>2012-06-16T19:22:58Z</time>
 <fix>2d</fix>
 <sat>6</sat>
</trkpt>
<trkpt lat="48.331813333" lon="16.374595000">
<time>2012-06-16T19:22:59Z</time>
 <fix>2d</fix>
 <sat>6</sat>
</trkpt>
<trkpt lat="48.331820000" lon="16.374601667">
<time>2012-06-16T19:23:00Z</time>
 <fix>2d</fix>
 <sat>6</sat>
</trkpt>
<trkpt lat="48.331815000" lon="16.374618333">
<time>2012-06-16T19:23:01Z</time>
 <fix>2d</fix>
 <sat>6</sat>
</trkpt>
<trkpt lat="48.331810000" lon="16.374635000">
<time>2012-06-16T19:23:02Z</time>
 <fix>2d</fix>
 <sat>6</sat>
</trkpt>
<trkpt lat="48.331805000" lon="16.374653333">
<time>2012-06-16T19:23:03Z</time>
 <fix>2d</fix>
 <sat>6</sat>
</trkpt>
<trkpt lat="48.331798333" lon="16.374670000">
<time>2012-06-16T19:23:04Z</time>
 <fix>2d</fix>
 <sat>6</sat>
</trkpt>
<trkpt lat="48.331791667" lon="16.374688333">
<time>2012-06-16T19:23:05Z</time>
 <fix>2d</fix>
 <sat>6</sat>
</trkpt>
<trkpt lat="48.331783333" lon="16.374715000">
<time>2012-06-16T19:23:06Z</time>
 <fix>2d</fix>
 <sat>6</sat>
</trkpt>
<trkpt lat="48.331776667" lon="16.374751667">
<time>2012-06-16T19:23:07Z</time>
 <fix>2d</fix>
 <sat>6</sat>
</trkpt>
<trkpt lat="48.331773333" lon="16.374795000">
<time>2012-06-16T19:23:08Z</time>
 <fix>2d</fix>
 <sat>6</sat>
</trkpt>
<trkpt lat="48.331770000" lon="16.374843333">
<time>2012-06-16T19:23:09Z</time>
 <fix>2d</fix>
 <sat>6</sat>
</trkpt>
<trkpt lat="48.331765000" lon="16.374895000">
<time>2012-06-16T19:23:10Z</time>
 <fix>2d</fix>
 <sat>6</sat>
</trkpt>
<trkpt lat="48.331758333" lon="16.374948333">
<time>2012-06-16T19:23:11Z</time>
 <fix>2d</fix>
 <sat>6</sat>
</trkpt>
<trkpt lat="48.331751667" lon="16.374998333">
<time>2012-06-16T19:23:12Z</time>
 <fix>2d</fix>
 <sat>6</sat>
</trkpt>
<trkpt lat="48.331745000" lon="16.375051667">
<time>2012-06-16T19:23:13Z</time>
 <fix>2d</fix>
 <sat>6</sat>
</trkpt>
<trkpt lat="48.331740000" lon="16.375103333">
<time>2012-06-16T19:23:14Z</time>
 <fix>2d</fix>
 <sat>6</sat>
</trkpt>
<trkpt lat="48.331733333" lon="16.375153333">
<time>2012-06-16T19:23:15Z</time>
 <fix>2d</fix>
 <sat>6</sat>
</trkpt>
<trkpt lat="48.331733333" lon="16.375205000">
<time>2012-06-16T19:23:16Z</time>
 <fix>2d</fix>
 <sat>6</sat>
</trkpt>
<trkpt lat="48.331733333" lon="16.375251667">
<time>2012-06-16T19:23:17Z</time>
 <fix>2d</fix>
 <sat>6</sat>
</trkpt>
<trkpt lat="48.331730000" lon="16.375293333">
<time>2012-06-16T19:23:18Z</time>
 <fix>2d</fix>
 <sat>6</sat>
</trkpt>
<trkpt lat="48.331726667" lon="16.375331667">
<time>2012-06-16T19:23:19Z</time>
 <fix>2d</fix>
 <sat>6</sat>
</trkpt>
<trkpt lat="48.331721667" lon="16.375368333">
<time>2012-06-16T19:23:20Z</time>
 <fix>2d</fix>
 <sat>6</sat>
</trkpt>
<trkpt lat="48.331716667" lon="16.375403333">
<time>2012-06-16T19:23:21Z</time>
 <fix>2d</fix>
 <sat>6</sat>
</trkpt>
<trkpt lat="48.331713333" lon="16.375440000">
<time>2012-06-16T19:23:22Z</time>
 <fix>2d</fix>
 <sat>6</sat>
</trkpt>
<trkpt lat="48.331710000" lon="16.375476667">
<time>2012-06-16T19:23:23Z</time>
 <fix>2d</fix>
 <sat>6</sat>
</trkpt>
<trkpt lat="48.331705000" lon="16.375506667">
<time>2012-06-16T19:23:24Z</time>
 <fix>2d</fix>
 <sat>6</sat>
</trkpt>
<trkpt lat="48.331700000" lon="16.375538333">
<time>2012-06-16T19:23:25Z</time>
 <fix>2d</fix>
 <sat>6</sat>
</trkpt>
<trkpt lat="48.331698333" lon="16.375563333">
<time>2012-06-16T19:23:26Z</time>
 <fix>2d</fix>
 <sat>6</sat>
</trkpt>
<trkpt lat="48.331696667" lon="16.375573333">
<time>2012-06-16T19:23:27Z</time>
 <fix>2d</fix>
 <sat>6</sat>
</trkpt>
<trkpt lat="48.331695000" lon="16.375570000">
<time>2012-06-16T19:23:28Z</time>
 <fix>2d</fix>
 <sat>6</sat>
</trkpt>
<trkpt lat="48.331690000" lon="16.375568333">
<time>2012-06-16T19:23:29Z</time>
 <fix>2d</fix>
 <sat>6</sat>
</trkpt>
<trkpt lat="48.331686667" lon="16.375565000">
<time>2012-06-16T19:23:30Z</time>
 <fix>2d</fix>
 <sat>6</sat>
</trkpt>
<trkpt lat="48.331685000" lon="16.375563333">
<time>2012-06-16T19:23:31Z</time>
 <fix>2d</fix>
 <sat>6</sat>
</trkpt>
<trkpt lat="48.331681667" lon="16.375580000">
<time>2012-06-16T19:23:32Z</time>
 <fix>2d</fix>
 <sat>6</sat>
</trkpt>
<trkpt lat="48.331676667" lon="16.375596667">
<time>2012-06-16T19:23:33Z</time>
 <fix>2d</fix>
 <sat>6</sat>
</trkpt>
<trkpt lat="48.331670000" lon="16.375618333">
<time>2012-06-16T19:23:34Z</time>
 <fix>2d</fix>
 <sat>6</sat>
</trkpt>
<trkpt lat="48.331663333" lon="16.375645000">
<time>2012-06-16T19:23:35Z</time>
 <fix>2d</fix>
 <sat>6</sat>
</trkpt>
<trkpt lat="48.331658333" lon="16.375676667">
<time>2012-06-16T19:23:36Z</time>
 <fix>2d</fix>
 <sat>6</sat>
</trkpt>
<trkpt lat="48.331655000" lon="16.375708333">
<time>2012-06-16T19:23:37Z</time>
 <fix>2d</fix>
 <sat>6</sat>
</trkpt>
<trkpt lat="48.331646667" lon="16.375741667">
<time>2012-06-16T19:23:38Z</time>
 <fix>2d</fix>
 <sat>6</sat>
</trkpt>
<trkpt lat="48.331643333" lon="16.375775000">
<time>2012-06-16T19:23:39Z</time>
 <fix>2d</fix>
 <sat>6</sat>
</trkpt>
<trkpt lat="48.331640000" lon="16.375806667">
<time>2012-06-16T19:23:40Z</time>
 <fix>2d</fix>
 <sat>6</sat>
</trkpt>
<trkpt lat="48.331640000" lon="16.375835000">
<time>2012-06-16T19:23:41Z</time>
 <fix>2d</fix>
 <sat>6</sat>
</trkpt>
<trkpt lat="48.331640000" lon="16.375855000">
<time>2012-06-16T19:23:42Z</time>
 <fix>2d</fix>
 <sat>6</sat>
</trkpt>
<trkpt lat="48.331640000" lon="16.375858333">
<time>2012-06-16T19:23:43Z</time>
 <fix>2d</fix>
 <sat>6</sat>
</trkpt>
<trkpt lat="48.331636667" lon="16.375856667">
<time>2012-06-16T19:23:44Z</time>
 <fix>2d</fix>
 <sat>6</sat>
</trkpt>
<trkpt lat="48.331635000" lon="16.375853333">
<time>2012-06-16T19:23:45Z</time>
 <fix>2d</fix>
 <sat>6</sat>
</trkpt>
<trkpt lat="48.331633333" lon="16.375851667">
<time>2012-06-16T19:23:46Z</time>
 <fix>2d</fix>
 <sat>6</sat>
</trkpt>
<trkpt lat="48.331630000" lon="16.375870000">
<time>2012-06-16T19:23:47Z</time>
 <fix>2d</fix>
 <sat>6</sat>
</trkpt>
<trkpt lat="48.331623333" lon="16.375893333">
<time>2012-06-16T19:23:48Z</time>
 <fix>2d</fix>
 <sat>6</sat>
</trkpt>
<trkpt lat="48.331618333" lon="16.375921667">
<time>2012-06-16T19:23:49Z</time>
 <fix>2d</fix>
 <sat>6</sat>
</trkpt>
<trkpt lat="48.331615000" lon="16.375961667">
<time>2012-06-16T19:23:50Z</time>
 <fix>2d</fix>
 <sat>6</sat>
</trkpt>
<trkpt lat="48.331613333" lon="16.376001667">
<time>2012-06-16T19:23:51Z</time>
 <fix>2d</fix>
 <sat>6</sat>
</trkpt>
<trkpt lat="48.331611667" lon="16.376041667">
<time>2012-06-16T19:23:52Z</time>
 <fix>2d</fix>
 <sat>6</sat>
</trkpt>
<trkpt lat="48.331610000" lon="16.376076667">
<time>2012-06-16T19:23:53Z</time>
 <fix>2d</fix>
 <sat>6</sat>
</trkpt>
<trkpt lat="48.331606667" lon="16.376111667">
<time>2012-06-16T19:23:54Z</time>
 <fix>2d</fix>
 <sat>6</sat>
</trkpt>
<trkpt lat="48.331601667" lon="16.376150000">
<time>2012-06-16T19:23:55Z</time>
 <fix>2d</fix>
 <sat>6</sat>
</trkpt>
<trkpt lat="48.331595000" lon="16.376186667">
<time>2012-06-16T19:23:56Z</time>
 <fix>2d</fix>
 <sat>6</sat>
</trkpt>
<trkpt lat="48.331590000" lon="16.376230000">
<time>2012-06-16T19:23:57Z</time>
 <fix>2d</fix>
 <sat>6</sat>
</trkpt>
<trkpt lat="48.331583333" lon="16.376275000">
<time>2012-06-16T19:23:58Z</time>
 <fix>2d</fix>
 <sat>6</sat>
</trkpt>
<trkpt lat="48.331576667" lon="16.376321667">
<time>2012-06-16T19:23:59Z</time>
 <fix>2d</fix>
 <sat>6</sat>
</trkpt>
<trkpt lat="48.331568333" lon="16.376368333">
<time>2012-06-16T19:24:00Z</time>
 <fix>2d</fix>
 <sat>6</sat>
</trkpt>
<trkpt lat="48.331563333" lon="16.376413333">
<time>2012-06-16T19:24:01Z</time>
 <fix>2d</fix>
 <sat>6</sat>
</trkpt>
<trkpt lat="48.331555000" lon="16.376463333">
<time>2012-06-16T19:24:02Z</time>
 <fix>2d</fix>
 <sat>6</sat>
</trkpt>
<trkpt lat="48.331548333" lon="16.376513333">
<time>2012-06-16T19:24:03Z</time>
 <fix>2d</fix>
 <sat>6</sat>
</trkpt>
<trkpt lat="48.331538333" lon="16.376560000">
<time>2012-06-16T19:24:04Z</time>
 <fix>2d</fix>
 <sat>6</sat>
</trkpt>
<trkpt lat="48.331530000" lon="16.376611667">
<time>2012-06-16T19:24:05Z</time>
 <fix>2d</fix>
 <sat>6</sat>
</trkpt>
<trkpt lat="48.331520000" lon="16.376661667">
<time>2012-06-16T19:24:06Z</time>
 <fix>2d</fix>
 <sat>6</sat>
</trkpt>
<trkpt lat="48.331513333" lon="16.376710000">
<time>2012-06-16T19:24:07Z</time>
 <fix>2d</fix>
 <sat>6</sat>
</trkpt>
<trkpt lat="48.331505000" lon="16.376760000">
<time>2012-06-16T19:24:08Z</time>
 <fix>2d</fix>
 <sat>6</sat>
</trkpt>
<trkpt lat="48.331498333" lon="16.376808333">
<time>2012-06-16T19:24:09Z</time>
 <fix>2d</fix>
 <sat>6</sat>
</trkpt>
<trkpt lat="48.331495000" lon="16.376855000">
<time>2012-06-16T19:24:10Z</time>
 <fix>2d</fix>
 <sat>6</sat>
</trkpt>
<trkpt lat="48.331490000" lon="16.376900000">
<time>2012-06-16T19:24:11Z</time>
 <fix>2d</fix>
 <sat>6</sat>
</trkpt>
<trkpt lat="48.331481667" lon="16.376943333">
<time>2012-06-16T19:24:12Z</time>
 <fix>2d</fix>
 <sat>6</sat>
</trkpt>
<trkpt lat="48.331475000" lon="16.376986667">
<time>2012-06-16T19:24:13Z</time>
 <fix>2d</fix>
 <sat>6</sat>
</trkpt>
<trkpt lat="48.331466667" lon="16.377026667">
<time>2012-06-16T19:24:14Z</time>
 <fix>2d</fix>
 <sat>6</sat>
</trkpt>
<trkpt lat="48.331461667" lon="16.377070000">
<time>2012-06-16T19:24:15Z</time>
 <fix>2d</fix>
 <sat>6</sat>
</trkpt>
<trkpt lat="48.331456667" lon="16.377113333">
<time>2012-06-16T19:24:16Z</time>
 <fix>2d</fix>
 <sat>6</sat>
</trkpt>
<trkpt lat="48.331453333" lon="16.377156667">
<time>2012-06-16T19:24:17Z</time>
 <fix>2d</fix>
 <sat>6</sat>
</trkpt>
<trkpt lat="48.331450000" lon="16.377200000">
<time>2012-06-16T19:24:18Z</time>
 <fix>2d</fix>
 <sat>6</sat>
</trkpt>
<trkpt lat="48.331446667" lon="16.377245000">
<time>2012-06-16T19:24:19Z</time>
 <fix>2d</fix>
 <sat>6</sat>
</trkpt>
<trkpt lat="48.331443333" lon="16.377290000">
<time>2012-06-16T19:24:20Z</time>
 <fix>2d</fix>
 <sat>6</sat>
</trkpt>
<trkpt lat="48.331443333" lon="16.377333333">
<time>2012-06-16T19:24:21Z</time>
 <fix>2d</fix>
 <sat>6</sat>
</trkpt>
<trkpt lat="48.331443333" lon="16.377373333">
<time>2012-06-16T19:24:22Z</time>
 <fix>2d</fix>
 <sat>6</sat>
</trkpt>
<trkpt lat="48.331443333" lon="16.377413333">
<time>2012-06-16T19:24:23Z</time>
 <fix>2d</fix>
 <sat>6</sat>
</trkpt>
<trkpt lat="48.331440000" lon="16.377453333">
<time>2012-06-16T19:24:24Z</time>
 <fix>2d</fix>
 <sat>6</sat>
</trkpt>
<trkpt lat="48.331433333" lon="16.377493333">
<time>2012-06-16T19:24:25Z</time>
 <fix>2d</fix>
 <sat>6</sat>
</trkpt>
<trkpt lat="48.331428333" lon="16.377536667">
<time>2012-06-16T19:24:26Z</time>
 <fix>2d</fix>
 <sat>6</sat>
</trkpt>
<trkpt lat="48.331426667" lon="16.377580000">
<time>2012-06-16T19:24:27Z</time>
 <fix>2d</fix>
 <sat>6</sat>
</trkpt>
<trkpt lat="48.331426667" lon="16.377625000">
<time>2012-06-16T19:24:28Z</time>
 <fix>2d</fix>
 <sat>6</sat>
</trkpt>
<trkpt lat="48.331425000" lon="16.377668333">
<time>2012-06-16T19:24:29Z</time>
 <fix>2d</fix>
 <sat>6</sat>
</trkpt>
<trkpt lat="48.331425000" lon="16.377711667">
<time>2012-06-16T19:24:30Z</time>
 <fix>2d</fix>
 <sat>6</sat>
</trkpt>
<trkpt lat="48.331421667" lon="16.377753333">
<time>2012-06-16T19:24:31Z</time>
 <fix>2d</fix>
 <sat>6</sat>
</trkpt>
<trkpt lat="48.331421667" lon="16.377793333">
<time>2012-06-16T19:24:32Z</time>
 <fix>2d</fix>
 <sat>6</sat>
</trkpt>
<trkpt lat="48.331421667" lon="16.377833333">
<time>2012-06-16T19:24:33Z</time>
 <fix>2d</fix>
 <sat>6</sat>
</trkpt>
<trkpt lat="48.331418333" lon="16.377871667">
<time>2012-06-16T19:24:34Z</time>
 <fix>2d</fix>
 <sat>6</sat>
</trkpt>
<trkpt lat="48.331418333" lon="16.377906667">
<time>2012-06-16T19:24:35Z</time>
 <fix>2d</fix>
 <sat>6</sat>
</trkpt>
<trkpt lat="48.331418333" lon="16.377943333">
<time>2012-06-16T19:24:36Z</time>
 <fix>2d</fix>
 <sat>6</sat>
</trkpt>
<trkpt lat="48.331416667" lon="16.377978333">
<time>2012-06-16T19:24:37Z</time>
 <fix>2d</fix>
 <sat>6</sat>
</trkpt>
<trkpt lat="48.331415000" lon="16.378011667">
<time>2012-06-16T19:24:38Z</time>
 <fix>2d</fix>
 <sat>6</sat>
</trkpt>
<trkpt lat="48.331415000" lon="16.378046667">
<time>2012-06-16T19:24:39Z</time>
 <fix>2d</fix>
 <sat>6</sat>
</trkpt>
<trkpt lat="48.331413333" lon="16.378080000">
<time>2012-06-16T19:24:40Z</time>
 <fix>2d</fix>
 <sat>6</sat>
</trkpt>
<trkpt lat="48.331411667" lon="16.378113333">
<time>2012-06-16T19:24:41Z</time>
 <fix>2d</fix>
 <sat>6</sat>
</trkpt>
<trkpt lat="48.331408333" lon="16.378145000">
<time>2012-06-16T19:24:42Z</time>
 <fix>2d</fix>
 <sat>6</sat>
</trkpt>
<trkpt lat="48.331406667" lon="16.378180000">
<time>2012-06-16T19:24:43Z</time>
 <fix>2d</fix>
 <sat>6</sat>
</trkpt>
<trkpt lat="48.331405000" lon="16.378213333">
<time>2012-06-16T19:24:44Z</time>
 <fix>2d</fix>
 <sat>6</sat>
</trkpt>
<trkpt lat="48.331403333" lon="16.378246667">
<time>2012-06-16T19:24:45Z</time>
 <fix>2d</fix>
 <sat>6</sat>
</trkpt>
<trkpt lat="48.331403333" lon="16.378281667">
<time>2012-06-16T19:24:46Z</time>
 <fix>2d</fix>
 <sat>6</sat>
</trkpt>
<trkpt lat="48.331401667" lon="16.378315000">
<time>2012-06-16T19:24:47Z</time>
 <fix>2d</fix>
 <sat>6</sat>
</trkpt>
<trkpt lat="48.331401667" lon="16.378346667">
<time>2012-06-16T19:24:48Z</time>
 <fix>2d</fix>
 <sat>6</sat>
</trkpt>
<trkpt lat="48.331400000" lon="16.378383333">
<time>2012-06-16T19:24:49Z</time>
 <fix>2d</fix>
 <sat>6</sat>
</trkpt>
<trkpt lat="48.331401667" lon="16.378415000">
<time>2012-06-16T19:24:50Z</time>
 <fix>2d</fix>
 <sat>6</sat>
</trkpt>
<trkpt lat="48.331401667" lon="16.378453333">
<time>2012-06-16T19:24:51Z</time>
 <fix>2d</fix>
 <sat>6</sat>
</trkpt>
<trkpt lat="48.331403333" lon="16.378488333">
<time>2012-06-16T19:24:52Z</time>
 <fix>2d</fix>
 <sat>6</sat>
</trkpt>
<trkpt lat="48.331406667" lon="16.378523333">
<time>2012-06-16T19:24:53Z</time>
 <fix>2d</fix>
 <sat>6</sat>
</trkpt>
<trkpt lat="48.331410000" lon="16.378558333">
<time>2012-06-16T19:24:54Z</time>
 <fix>2d</fix>
 <sat>6</sat>
</trkpt>
<trkpt lat="48.331415000" lon="16.378593333">
<time>2012-06-16T19:24:55Z</time>
 <fix>2d</fix>
 <sat>6</sat>
</trkpt>
<trkpt lat="48.331418333" lon="16.378631667">
<time>2012-06-16T19:24:56Z</time>
 <fix>2d</fix>
 <sat>6</sat>
</trkpt>
<trkpt lat="48.331421667" lon="16.378668333">
<time>2012-06-16T19:24:57Z</time>
 <fix>2d</fix>
 <sat>6</sat>
</trkpt>
<trkpt lat="48.331426667" lon="16.378708333">
<time>2012-06-16T19:24:58Z</time>
 <fix>2d</fix>
 <sat>6</sat>
</trkpt>
<trkpt lat="48.331431667" lon="16.378743333">
<time>2012-06-16T19:24:59Z</time>
 <fix>2d</fix>
 <sat>6</sat>
</trkpt>
<trkpt lat="48.331433333" lon="16.378781667">
<time>2012-06-16T19:25:00Z</time>
 <fix>2d</fix>
 <sat>6</sat>
</trkpt>
<trkpt lat="48.331438333" lon="16.378818333">
<time>2012-06-16T19:25:01Z</time>
 <fix>2d</fix>
 <sat>6</sat>
</trkpt>
<trkpt lat="48.331441667" lon="16.378853333">
<time>2012-06-16T19:25:02Z</time>
 <fix>2d</fix>
 <sat>6</sat>
</trkpt>
<trkpt lat="48.331445000" lon="16.378891667">
<time>2012-06-16T19:25:03Z</time>
 <fix>2d</fix>
 <sat>6</sat>
</trkpt>
<trkpt lat="48.331448333" lon="16.378926667">
<time>2012-06-16T19:25:04Z</time>
 <fix>2d</fix>
 <sat>6</sat>
</trkpt>
<trkpt lat="48.331451667" lon="16.378963333">
<time>2012-06-16T19:25:05Z</time>
 <fix>2d</fix>
 <sat>6</sat>
</trkpt>
<trkpt lat="48.331456667" lon="16.379000000">
<time>2012-06-16T19:25:06Z</time>
 <fix>2d</fix>
 <sat>6</sat>
</trkpt>
<trkpt lat="48.331461667" lon="16.379031667">
<time>2012-06-16T19:25:07Z</time>
 <fix>2d</fix>
 <sat>6</sat>
</trkpt>
<trkpt lat="48.331466667" lon="16.379070000">
<time>2012-06-16T19:25:08Z</time>
 <fix>2d</fix>
 <sat>6</sat>
</trkpt>
<trkpt lat="48.331470000" lon="16.379105000">
<time>2012-06-16T19:25:09Z</time>
 <fix>2d</fix>
 <sat>6</sat>
</trkpt>
<trkpt lat="48.331471667" lon="16.379138333">
<time>2012-06-16T19:25:10Z</time>
 <fix>2d</fix>
 <sat>6</sat>
</trkpt>
<trkpt lat="48.331473333" lon="16.379166667">
<time>2012-06-16T19:25:11Z</time>
 <fix>2d</fix>
 <sat>6</sat>
</trkpt>
<trkpt lat="48.331476667" lon="16.379191667">
<time>2012-06-16T19:25:12Z</time>
 <fix>2d</fix>
 <sat>6</sat>
</trkpt>
<trkpt lat="48.331481667" lon="16.379215000">
<time>2012-06-16T19:25:13Z</time>
 <fix>2d</fix>
 <sat>6</sat>
</trkpt>
<trkpt lat="48.331485000" lon="16.379243333">
<time>2012-06-16T19:25:14Z</time>
 <fix>2d</fix>
 <sat>6</sat>
</trkpt>
<trkpt lat="48.331488333" lon="16.379271667">
<time>2012-06-16T19:25:15Z</time>
 <fix>2d</fix>
 <sat>6</sat>
</trkpt>
<trkpt lat="48.331493333" lon="16.379305000">
<time>2012-06-16T19:25:16Z</time>
 <fix>2d</fix>
 <sat>6</sat>
</trkpt>
<trkpt lat="48.331498333" lon="16.379336667">
<time>2012-06-16T19:25:17Z</time>
 <fix>2d</fix>
 <sat>6</sat>
</trkpt>
<trkpt lat="48.331503333" lon="16.379370000">
<time>2012-06-16T19:25:18Z</time>
 <fix>2d</fix>
 <sat>6</sat>
</trkpt>
<trkpt lat="48.331508333" lon="16.379405000">
<time>2012-06-16T19:25:19Z</time>
 <fix>2d</fix>
 <sat>6</sat>
</trkpt>
<trkpt lat="48.331515000" lon="16.379440000">
<time>2012-06-16T19:25:20Z</time>
 <fix>2d</fix>
 <sat>6</sat>
</trkpt>
<trkpt lat="48.331520000" lon="16.379475000">
<time>2012-06-16T19:25:21Z</time>
 <fix>2d</fix>
 <sat>6</sat>
</trkpt>
<trkpt lat="48.331528333" lon="16.379508333">
<time>2012-06-16T19:25:22Z</time>
 <fix>2d</fix>
 <sat>6</sat>
</trkpt>
<trkpt lat="48.331536667" lon="16.379541667">
<time>2012-06-16T19:25:23Z</time>
 <fix>2d</fix>
 <sat>6</sat>
</trkpt>
<trkpt lat="48.331543333" lon="16.379576667">
<time>2012-06-16T19:25:24Z</time>
 <fix>2d</fix>
 <sat>6</sat>
</trkpt>
<trkpt lat="48.331551667" lon="16.379613333">
<time>2012-06-16T19:25:25Z</time>
 <fix>2d</fix>
 <sat>6</sat>
</trkpt>
<trkpt lat="48.331563333" lon="16.379645000">
<time>2012-06-16T19:25:26Z</time>
 <fix>2d</fix>
 <sat>6</sat>
</trkpt>
<trkpt lat="48.331573333" lon="16.379681667">
<time>2012-06-16T19:25:27Z</time>
 <fix>2d</fix>
 <sat>6</sat>
</trkpt>
<trkpt lat="48.331580000" lon="16.379723333">
<time>2012-06-16T19:25:28Z</time>
 <fix>2d</fix>
 <sat>6</sat>
</trkpt>
<trkpt lat="48.331590000" lon="16.379771667">
<time>2012-06-16T19:25:29Z</time>
 <fix>2d</fix>
 <sat>6</sat>
</trkpt>
<trkpt lat="48.331603333" lon="16.379815000">
<time>2012-06-16T19:25:30Z</time>
 <fix>2d</fix>
 <sat>6</sat>
</trkpt>
<trkpt lat="48.331615000" lon="16.379866667">
<time>2012-06-16T19:25:31Z</time>
 <fix>2d</fix>
 <sat>6</sat>
</trkpt>
<trkpt lat="48.331625000" lon="16.379916667">
<time>2012-06-16T19:25:32Z</time>
 <fix>2d</fix>
 <sat>6</sat>
</trkpt>
<trkpt lat="48.331646667" lon="16.379970000">
<time>2012-06-16T19:25:33Z</time>
 <fix>2d</fix>
 <sat>6</sat>
</trkpt>
<trkpt lat="48.331670000" lon="16.380028333">
<time>2012-06-16T19:25:34Z</time>
 <fix>2d</fix>
 <sat>6</sat>
</trkpt>
<trkpt lat="48.331696667" lon="16.380076667">
<time>2012-06-16T19:25:35Z</time>
 <fix>2d</fix>
 <sat>6</sat>
</trkpt>
<trkpt lat="48.331720000" lon="16.380125000">
<time>2012-06-16T19:25:36Z</time>
 <fix>2d</fix>
 <sat>6</sat>
</trkpt>
<trkpt lat="48.331741667" lon="16.380171667">
<time>2012-06-16T19:25:37Z</time>
 <fix>2d</fix>
 <sat>6</sat>
</trkpt>
<trkpt lat="48.331763333" lon="16.380223333">
<time>2012-06-16T19:25:38Z</time>
 <fix>2d</fix>
 <sat>6</sat>
</trkpt>
<trkpt lat="48.331783333" lon="16.380270000">
<time>2012-06-16T19:25:39Z</time>
 <fix>2d</fix>
 <sat>6</sat>
</trkpt>
<trkpt lat="48.331805000" lon="16.380313333">
<time>2012-06-16T19:25:40Z</time>
 <fix>2d</fix>
 <sat>6</sat>
</trkpt>
<trkpt lat="48.331826667" lon="16.380356667">
<time>2012-06-16T19:25:41Z</time>
 <fix>2d</fix>
 <sat>6</sat>
</trkpt>
<trkpt lat="48.331850000" lon="16.380396667">
<time>2012-06-16T19:25:42Z</time>
 <fix>2d</fix>
 <sat>6</sat>
</trkpt>
<trkpt lat="48.331871667" lon="16.380435000">
<time>2012-06-16T19:25:43Z</time>
 <fix>2d</fix>
 <sat>6</sat>
</trkpt>
<trkpt lat="48.331896667" lon="16.380471667">
<time>2012-06-16T19:25:44Z</time>
 <fix>2d</fix>
 <sat>6</sat>
</trkpt>
<trkpt lat="48.331916667" lon="16.380511667">
<time>2012-06-16T19:25:45Z</time>
 <fix>2d</fix>
 <sat>6</sat>
</trkpt>
<trkpt lat="48.331936667" lon="16.380550000">
<time>2012-06-16T19:25:46Z</time>
 <fix>2d</fix>
 <sat>6</sat>
</trkpt>
<trkpt lat="48.331955000" lon="16.380585000">
<time>2012-06-16T19:25:47Z</time>
 <fix>2d</fix>
 <sat>6</sat>
</trkpt>
<trkpt lat="48.331970000" lon="16.380620000">
<time>2012-06-16T19:25:48Z</time>
 <fix>2d</fix>
 <sat>6</sat>
</trkpt>
<trkpt lat="48.331985000" lon="16.380655000">
<time>2012-06-16T19:25:49Z</time>
 <fix>2d</fix>
 <sat>6</sat>
</trkpt>
<trkpt lat="48.332000000" lon="16.380690000">
<time>2012-06-16T19:25:50Z</time>
 <fix>2d</fix>
 <sat>6</sat>
</trkpt>
<trkpt lat="48.332010000" lon="16.380728333">
<time>2012-06-16T19:25:51Z</time>
 <fix>2d</fix>
 <sat>6</sat>
</trkpt>
<trkpt lat="48.332025000" lon="16.380765000">
<time>2012-06-16T19:25:52Z</time>
 <fix>2d</fix>
 <sat>6</sat>
</trkpt>
<trkpt lat="48.332035000" lon="16.380805000">
<time>2012-06-16T19:25:53Z</time>
 <fix>2d</fix>
 <sat>6</sat>
</trkpt>
<trkpt lat="48.332045000" lon="16.380845000">
<time>2012-06-16T19:25:54Z</time>
 <fix>2d</fix>
 <sat>6</sat>
</trkpt>
<trkpt lat="48.332051667" lon="16.380886667">
<time>2012-06-16T19:25:55Z</time>
 <fix>2d</fix>
 <sat>6</sat>
</trkpt>
<trkpt lat="48.332058333" lon="16.380931667">
<time>2012-06-16T19:25:56Z</time>
 <fix>2d</fix>
 <sat>6</sat>
</trkpt>
<trkpt lat="48.332065000" lon="16.380976667">
<time>2012-06-16T19:25:57Z</time>
 <fix>2d</fix>
 <sat>6</sat>
</trkpt>
<trkpt lat="48.332071667" lon="16.381018333">
<time>2012-06-16T19:25:58Z</time>
 <fix>2d</fix>
 <sat>6</sat>
</trkpt>
<trkpt lat="48.332071667" lon="16.381058333">
<time>2012-06-16T19:25:59Z</time>
 <fix>2d</fix>
 <sat>6</sat>
</trkpt>
<trkpt lat="48.332071667" lon="16.381100000">
<time>2012-06-16T19:26:00Z</time>
 <fix>2d</fix>
 <sat>6</sat>
</trkpt>
<trkpt lat="48.332070000" lon="16.381138333">
<time>2012-06-16T19:26:01Z</time>
 <fix>2d</fix>
 <sat>6</sat>
</trkpt>
<trkpt lat="48.332066667" lon="16.381175000">
<time>2012-06-16T19:26:02Z</time>
 <fix>2d</fix>
 <sat>5</sat>
</trkpt>
<trkpt lat="48.332065000" lon="16.381210000">
<time>2012-06-16T19:26:03Z</time>
 <fix>2d</fix>
 <sat>6</sat>
</trkpt>
<trkpt lat="48.332065000" lon="16.381246667">
<time>2012-06-16T19:26:04Z</time>
 <fix>2d</fix>
 <sat>6</sat>
</trkpt>
<trkpt lat="48.332066667" lon="16.381286667">
<time>2012-06-16T19:26:05Z</time>
 <fix>2d</fix>
 <sat>6</sat>
</trkpt>
<trkpt lat="48.332073333" lon="16.381328333">
<time>2012-06-16T19:26:06Z</time>
 <fix>2d</fix>
 <sat>6</sat>
</trkpt>
<trkpt lat="48.332075000" lon="16.381368333">
<time>2012-06-16T19:26:07Z</time>
 <fix>2d</fix>
 <sat>6</sat>
</trkpt>
<trkpt lat="48.332075000" lon="16.381410000">
<time>2012-06-16T19:26:08Z</time>
 <fix>2d</fix>
 <sat>6</sat>
</trkpt>
<trkpt lat="48.332075000" lon="16.381453333">
<time>2012-06-16T19:26:09Z</time>
 <fix>2d</fix>
 <sat>6</sat>
</trkpt>
<trkpt lat="48.332076667" lon="16.381491667">
<time>2012-06-16T19:26:10Z</time>
 <fix>2d</fix>
 <sat>6</sat>
</trkpt>
<trkpt lat="48.332071667" lon="16.381535000">
<time>2012-06-16T19:26:11Z</time>
 <fix>2d</fix>
 <sat>6</sat>
</trkpt>
<trkpt lat="48.332066667" lon="16.381581667">
<time>2012-06-16T19:26:12Z</time>
 <fix>2d</fix>
 <sat>6</sat>
</trkpt>
<trkpt lat="48.332061667" lon="16.381618333">
<time>2012-06-16T19:26:13Z</time>
 <fix>2d</fix>
 <sat>6</sat>
</trkpt>
<trkpt lat="48.332060000" lon="16.381656667">
<time>2012-06-16T19:26:14Z</time>
 <fix>2d</fix>
 <sat>6</sat>
</trkpt>
<trkpt lat="48.332053333" lon="16.381696667">
<time>2012-06-16T19:26:15Z</time>
 <fix>2d</fix>
 <sat>6</sat>
</trkpt>
<trkpt lat="48.332046667" lon="16.381738333">
<time>2012-06-16T19:26:16Z</time>
 <fix>2d</fix>
 <sat>6</sat>
</trkpt>
<trkpt lat="48.332040000" lon="16.381781667">
<time>2012-06-16T19:26:17Z</time>
 <fix>2d</fix>
 <sat>6</sat>
</trkpt>
<trkpt lat="48.332033333" lon="16.381828333">
<time>2012-06-16T19:26:18Z</time>
 <fix>2d</fix>
 <sat>6</sat>
</trkpt>
<trkpt lat="48.332026667" lon="16.381876667">
<time>2012-06-16T19:26:19Z</time>
 <fix>2d</fix>
 <sat>6</sat>
</trkpt>
<trkpt lat="48.332020000" lon="16.381928333">
<time>2012-06-16T19:26:20Z</time>
 <fix>2d</fix>
 <sat>6</sat>
</trkpt>
<trkpt lat="48.332018333" lon="16.381985000">
<time>2012-06-16T19:26:21Z</time>
 <fix>2d</fix>
 <sat>6</sat>
</trkpt>
<trkpt lat="48.332016667" lon="16.382041667">
<time>2012-06-16T19:26:22Z</time>
 <fix>2d</fix>
 <sat>6</sat>
</trkpt>
<trkpt lat="48.332013333" lon="16.382100000">
<time>2012-06-16T19:26:23Z</time>
 <fix>2d</fix>
 <sat>6</sat>
</trkpt>
<trkpt lat="48.332008333" lon="16.382160000">
<time>2012-06-16T19:26:24Z</time>
 <fix>2d</fix>
 <sat>6</sat>
</trkpt>
<trkpt lat="48.332008333" lon="16.382208333">
<time>2012-06-16T19:26:25Z</time>
 <fix>2d</fix>
 <sat>6</sat>
</trkpt>
<trkpt lat="48.332005000" lon="16.382260000">
<time>2012-06-16T19:26:26Z</time>
 <fix>2d</fix>
 <sat>6</sat>
</trkpt>
<trkpt lat="48.332001667" lon="16.382315000">
<time>2012-06-16T19:26:27Z</time>
 <fix>2d</fix>
 <sat>6</sat>
</trkpt>
<trkpt lat="48.331995000" lon="16.382375000">
<time>2012-06-16T19:26:28Z</time>
 <fix>2d</fix>
 <sat>6</sat>
</trkpt>
<trkpt lat="48.331990000" lon="16.382430000">
<time>2012-06-16T19:26:29Z</time>
 <fix>2d</fix>
 <sat>6</sat>
</trkpt>
<trkpt lat="48.331983333" lon="16.382485000">
<time>2012-06-16T19:26:30Z</time>
 <fix>2d</fix>
 <sat>6</sat>
</trkpt>
<trkpt lat="48.331978333" lon="16.382538333">
<time>2012-06-16T19:26:31Z</time>
 <fix>2d</fix>
 <sat>6</sat>
</trkpt>
<trkpt lat="48.331973333" lon="16.382591667">
<time>2012-06-16T19:26:32Z</time>
 <fix>2d</fix>
 <sat>6</sat>
</trkpt>
<trkpt lat="48.331970000" lon="16.382650000">
<time>2012-06-16T19:26:33Z</time>
 <fix>2d</fix>
 <sat>6</sat>
</trkpt>
<trkpt lat="48.331966667" lon="16.382701667">
<time>2012-06-16T19:26:34Z</time>
 <fix>2d</fix>
 <sat>6</sat>
</trkpt>
<trkpt lat="48.331963333" lon="16.382753333">
<time>2012-06-16T19:26:35Z</time>
 <fix>2d</fix>
 <sat>6</sat>
</trkpt>
<trkpt lat="48.331958333" lon="16.382803333">
<time>2012-06-16T19:26:36Z</time>
 <fix>2d</fix>
 <sat>6</sat>
</trkpt>
<trkpt lat="48.331951667" lon="16.382853333">
<time>2012-06-16T19:26:37Z</time>
 <fix>2d</fix>
 <sat>6</sat>
</trkpt>
<trkpt lat="48.331946667" lon="16.382901667">
<time>2012-06-16T19:26:38Z</time>
 <fix>2d</fix>
 <sat>6</sat>
</trkpt>
<trkpt lat="48.331941667" lon="16.382948333">
<time>2012-06-16T19:26:39Z</time>
 <fix>2d</fix>
 <sat>6</sat>
</trkpt>
<trkpt lat="48.331940000" lon="16.383000000">
<time>2012-06-16T19:26:40Z</time>
 <fix>2d</fix>
 <sat>6</sat>
</trkpt>
<trkpt lat="48.331940000" lon="16.383055000">
<time>2012-06-16T19:26:41Z</time>
 <fix>2d</fix>
 <sat>6</sat>
</trkpt>
<trkpt lat="48.331935000" lon="16.383108333">
<time>2012-06-16T19:26:42Z</time>
 <fix>2d</fix>
 <sat>6</sat>
</trkpt>
<trkpt lat="48.331933333" lon="16.383161667">
<time>2012-06-16T19:26:43Z</time>
 <fix>2d</fix>
 <sat>6</sat>
</trkpt>
<trkpt lat="48.331926667" lon="16.383211667">
<time>2012-06-16T19:26:44Z</time>
 <fix>2d</fix>
 <sat>6</sat>
</trkpt>
<trkpt lat="48.331925000" lon="16.383260000">
<time>2012-06-16T19:26:45Z</time>
 <fix>2d</fix>
 <sat>6</sat>
</trkpt>
<trkpt lat="48.331918333" lon="16.383311667">
<time>2012-06-16T19:26:46Z</time>
 <fix>2d</fix>
 <sat>6</sat>
</trkpt>
<trkpt lat="48.331911667" lon="16.383361667">
<time>2012-06-16T19:26:47Z</time>
 <fix>2d</fix>
 <sat>5</sat>
</trkpt>
<trkpt lat="48.331905000" lon="16.383410000">
<time>2012-06-16T19:26:48Z</time>
 <fix>2d</fix>
 <sat>6</sat>
</trkpt>
<trkpt lat="48.331898333" lon="16.383458333">
<time>2012-06-16T19:26:49Z</time>
 <fix>2d</fix>
 <sat>6</sat>
</trkpt>
<trkpt lat="48.331890000" lon="16.383505000">
<time>2012-06-16T19:26:50Z</time>
 <fix>2d</fix>
 <sat>6</sat>
</trkpt>
<trkpt lat="48.331888333" lon="16.383551667">
<time>2012-06-16T19:26:51Z</time>
 <fix>2d</fix>
 <sat>6</sat>
</trkpt>
<trkpt lat="48.331880000" lon="16.383596667">
<time>2012-06-16T19:26:52Z</time>
 <fix>2d</fix>
 <sat>6</sat>
</trkpt>
<trkpt lat="48.331875000" lon="16.383640000">
<time>2012-06-16T19:26:53Z</time>
 <fix>2d</fix>
 <sat>6</sat>
</trkpt>
<trkpt lat="48.331868333" lon="16.383690000">
<time>2012-06-16T19:26:54Z</time>
 <fix>2d</fix>
 <sat>6</sat>
</trkpt>
<trkpt lat="48.331865000" lon="16.383736667">
<time>2012-06-16T19:26:55Z</time>
 <fix>2d</fix>
 <sat>6</sat>
</trkpt>
<trkpt lat="48.331860000" lon="16.383783333">
<time>2012-06-16T19:26:56Z</time>
 <fix>2d</fix>
 <sat>6</sat>
</trkpt>
<trkpt lat="48.331855000" lon="16.383830000">
<time>2012-06-16T19:26:57Z</time>
 <fix>2d</fix>
 <sat>6</sat>
</trkpt>
<trkpt lat="48.331850000" lon="16.383875000">
<time>2012-06-16T19:26:58Z</time>
 <fix>2d</fix>
 <sat>6</sat>
</trkpt>
<trkpt lat="48.331848333" lon="16.383921667">
<time>2012-06-16T19:26:59Z</time>
 <fix>2d</fix>
 <sat>6</sat>
</trkpt>
<trkpt lat="48.331848333" lon="16.383968333">
<time>2012-06-16T19:27:00Z</time>
 <fix>2d</fix>
 <sat>6</sat>
</trkpt>
<trkpt lat="48.331846667" lon="16.384013333">
<time>2012-06-16T19:27:01Z</time>
 <fix>2d</fix>
 <sat>6</sat>
</trkpt>
<trkpt lat="48.331848333" lon="16.384055000">
<time>2012-06-16T19:27:02Z</time>
 <fix>2d</fix>
 <sat>6</sat>
</trkpt>
<trkpt lat="48.331850000" lon="16.384100000">
<time>2012-06-16T19:27:03Z</time>
 <fix>2d</fix>
 <sat>6</sat>
</trkpt>
<trkpt lat="48.331855000" lon="16.384145000">
<time>2012-06-16T19:27:04Z</time>
 <fix>2d</fix>
 <sat>6</sat>
</trkpt>
<trkpt lat="48.331861667" lon="16.384186667">
<time>2012-06-16T19:27:05Z</time>
 <fix>2d</fix>
 <sat>6</sat>
</trkpt>
<trkpt lat="48.331866667" lon="16.384228333">
<time>2012-06-16T19:27:06Z</time>
 <fix>2d</fix>
 <sat>6</sat>
</trkpt>
<trkpt lat="48.331866667" lon="16.384266667">
<time>2012-06-16T19:27:07Z</time>
 <fix>2d</fix>
 <sat>6</sat>
</trkpt>
<trkpt lat="48.331866667" lon="16.384291667">
<time>2012-06-16T19:27:08Z</time>
 <fix>2d</fix>
 <sat>6</sat>
</trkpt>
<trkpt lat="48.331860000" lon="16.384308333">
<time>2012-06-16T19:27:09Z</time>
 <fix>2d</fix>
 <sat>6</sat>
</trkpt>
<trkpt lat="48.331855000" lon="16.384328333">
<time>2012-06-16T19:27:10Z</time>
 <fix>2d</fix>
 <sat>6</sat>
</trkpt>
<trkpt lat="48.331843333" lon="16.384343333">
<time>2012-06-16T19:27:11Z</time>
 <fix>2d</fix>
 <sat>6</sat>
</trkpt>
<trkpt lat="48.331828333" lon="16.384351667">
<time>2012-06-16T19:27:12Z</time>
 <fix>2d</fix>
 <sat>6</sat>
</trkpt>
<trkpt lat="48.331815000" lon="16.384356667">
<time>2012-06-16T19:27:13Z</time>
 <fix>2d</fix>
 <sat>6</sat>
</trkpt>
<trkpt lat="48.331798333" lon="16.384356667">
<time>2012-06-16T19:27:14Z</time>
 <fix>2d</fix>
 <sat>6</sat>
</trkpt>
<trkpt lat="48.331785000" lon="16.384341667">
<time>2012-06-16T19:27:15Z</time>
 <fix>2d</fix>
 <sat>6</sat>
</trkpt>
<trkpt lat="48.331773333" lon="16.384320000">
<time>2012-06-16T19:27:16Z</time>
 <fix>2d</fix>
 <sat>6</sat>
</trkpt>
<trkpt lat="48.331760000" lon="16.384296667">
<time>2012-06-16T19:27:17Z</time>
 <fix>2d</fix>
 <sat>6</sat>
</trkpt>
<trkpt lat="48.331745000" lon="16.384281667">
<time>2012-06-16T19:27:18Z</time>
 <fix>2d</fix>
 <sat>6</sat>
</trkpt>
<trkpt lat="48.331733333" lon="16.384273333">
<time>2012-06-16T19:27:19Z</time>
 <fix>2d</fix>
 <sat>6</sat>
</trkpt>
<trkpt lat="48.331720000" lon="16.384273333">
<time>2012-06-16T19:27:20Z</time>
 <fix>2d</fix>
 <sat>6</sat>
</trkpt>
<trkpt lat="48.331701667" lon="16.384273333">
<time>2012-06-16T19:27:21Z</time>
 <fix>2d</fix>
 <sat>6</sat>
</trkpt>
<trkpt lat="48.331690000" lon="16.384278333">
<time>2012-06-16T19:27:22Z</time>
 <fix>2d</fix>
 <sat>6</sat>
</trkpt>
<trkpt lat="48.331671667" lon="16.384283333">
<time>2012-06-16T19:27:23Z</time>
 <fix>2d</fix>
 <sat>6</sat>
</trkpt>
<trkpt lat="48.331653333" lon="16.384285000">
<time>2012-06-16T19:27:24Z</time>
 <fix>2d</fix>
 <sat>6</sat>
</trkpt>
<trkpt lat="48.331630000" lon="16.384300000">
<time>2012-06-16T19:27:25Z</time>
 <fix>2d</fix>
 <sat>6</sat>
</trkpt>
<trkpt lat="48.331613333" lon="16.384305000">
<time>2012-06-16T19:27:26Z</time>
 <fix>2d</fix>
 <sat>6</sat>
</trkpt>
<trkpt lat="48.331598333" lon="16.384308333">
<time>2012-06-16T19:27:27Z</time>
 <fix>2d</fix>
 <sat>6</sat>
</trkpt>
<trkpt lat="48.331583333" lon="16.384313333">
<time>2012-06-16T19:27:28Z</time>
 <fix>2d</fix>
 <sat>6</sat>
</trkpt>
<trkpt lat="48.331568333" lon="16.384318333">
<time>2012-06-16T19:27:29Z</time>
 <fix>2d</fix>
 <sat>6</sat>
</trkpt>
<trkpt lat="48.331551667" lon="16.384325000">
<time>2012-06-16T19:27:30Z</time>
 <fix>2d</fix>
 <sat>6</sat>
</trkpt>
<trkpt lat="48.331538333" lon="16.384331667">
<time>2012-06-16T19:27:31Z</time>
 <fix>2d</fix>
 <sat>6</sat>
</trkpt>
<trkpt lat="48.331523333" lon="16.384331667">
<time>2012-06-16T19:27:32Z</time>
 <fix>2d</fix>
 <sat>6</sat>
</trkpt>
<trkpt lat="48.331505000" lon="16.384340000">
<time>2012-06-16T19:27:33Z</time>
 <fix>2d</fix>
 <sat>6</sat>
</trkpt>
<trkpt lat="48.331486667" lon="16.384341667">
<time>2012-06-16T19:27:34Z</time>
 <fix>2d</fix>
 <sat>6</sat>
</trkpt>
<trkpt lat="48.331468333" lon="16.384346667">
<time>2012-06-16T19:27:35Z</time>
 <fix>2d</fix>
 <sat>6</sat>
</trkpt>
<trkpt lat="48.331450000" lon="16.384343333">
<time>2012-06-16T19:27:36Z</time>
 <fix>2d</fix>
 <sat>6</sat>
</trkpt>
<trkpt lat="48.331433333" lon="16.384341667">
<time>2012-06-16T19:27:37Z</time>
 <fix>2d</fix>
 <sat>6</sat>
</trkpt>
<trkpt lat="48.331416667" lon="16.384340000">
<time>2012-06-16T19:27:38Z</time>
 <fix>2d</fix>
 <sat>6</sat>
</trkpt>
<trkpt lat="48.331398333" lon="16.384336667">
<time>2012-06-16T19:27:39Z</time>
 <fix>2d</fix>
 <sat>6</sat>
</trkpt>
<trkpt lat="48.331378333" lon="16.384335000">
<time>2012-06-16T19:27:40Z</time>
 <fix>2d</fix>
 <sat>6</sat>
</trkpt>
<trkpt lat="48.331360000" lon="16.384325000">
<time>2012-06-16T19:27:41Z</time>
 <fix>2d</fix>
 <sat>6</sat>
</trkpt>
<trkpt lat="48.331335000" lon="16.384330000">
<time>2012-06-16T19:27:42Z</time>
 <fix>2d</fix>
 <sat>6</sat>
</trkpt>
<trkpt lat="48.331311667" lon="16.384336667">
<time>2012-06-16T19:27:43Z</time>
 <fix>2d</fix>
 <sat>6</sat>
</trkpt>
<trkpt lat="48.331286667" lon="16.384345000">
<time>2012-06-16T19:27:44Z</time>
 <fix>2d</fix>
 <sat>6</sat>
</trkpt>
<trkpt lat="48.331266667" lon="16.384348333">
<time>2012-06-16T19:27:45Z</time>
 <fix>2d</fix>
 <sat>6</sat>
</trkpt>
<trkpt lat="48.331246667" lon="16.384355000">
<time>2012-06-16T19:27:46Z</time>
 <fix>2d</fix>
 <sat>6</sat>
</trkpt>
<trkpt lat="48.331235000" lon="16.384348333">
<time>2012-06-16T19:27:47Z</time>
 <fix>2d</fix>
 <sat>6</sat>
</trkpt>
<trkpt lat="48.331218333" lon="16.384348333">
<time>2012-06-16T19:27:48Z</time>
 <fix>2d</fix>
 <sat>6</sat>
</trkpt>
<trkpt lat="48.331203333" lon="16.384343333">
<time>2012-06-16T19:27:49Z</time>
 <fix>2d</fix>
 <sat>6</sat>
</trkpt>
<trkpt lat="48.331185000" lon="16.384331667">
<time>2012-06-16T19:27:50Z</time>
 <fix>2d</fix>
 <sat>6</sat>
</trkpt>
<trkpt lat="48.331171667" lon="16.384325000">
<time>2012-06-16T19:27:51Z</time>
 <fix>2d</fix>
 <sat>6</sat>
</trkpt>
<trkpt lat="48.331158333" lon="16.384325000">
<time>2012-06-16T19:27:52Z</time>
 <fix>2d</fix>
 <sat>6</sat>
</trkpt>
<trkpt lat="48.331145000" lon="16.384325000">
<time>2012-06-16T19:27:53Z</time>
 <fix>2d</fix>
 <sat>6</sat>
</trkpt>
<trkpt lat="48.331123333" lon="16.384330000">
<time>2012-06-16T19:27:54Z</time>
 <fix>2d</fix>
 <sat>6</sat>
</trkpt>
<trkpt lat="48.331106667" lon="16.384325000">
<time>2012-06-16T19:27:55Z</time>
 <fix>2d</fix>
 <sat>6</sat>
</trkpt>
<trkpt lat="48.331088333" lon="16.384323333">
<time>2012-06-16T19:27:56Z</time>
 <fix>2d</fix>
 <sat>6</sat>
</trkpt>
<trkpt lat="48.331066667" lon="16.384331667">
<time>2012-06-16T19:27:57Z</time>
 <fix>2d</fix>
 <sat>6</sat>
</trkpt>
<trkpt lat="48.331048333" lon="16.384335000">
<time>2012-06-16T19:27:58Z</time>
 <fix>2d</fix>
 <sat>6</sat>
</trkpt>
<trkpt lat="48.331035000" lon="16.384328333">
<time>2012-06-16T19:27:59Z</time>
 <fix>2d</fix>
 <sat>6</sat>
</trkpt>
<trkpt lat="48.331021667" lon="16.384323333">
<time>2012-06-16T19:28:00Z</time>
 <fix>2d</fix>
 <sat>6</sat>
</trkpt>
<trkpt lat="48.331008333" lon="16.384320000">
<time>2012-06-16T19:28:01Z</time>
 <fix>2d</fix>
 <sat>6</sat>
</trkpt>
<trkpt lat="48.330990000" lon="16.384320000">
<time>2012-06-16T19:28:02Z</time>
 <fix>2d</fix>
 <sat>6</sat>
</trkpt>
<trkpt lat="48.330971667" lon="16.384320000">
<time>2012-06-16T19:28:03Z</time>
 <fix>2d</fix>
 <sat>6</sat>
</trkpt>
<trkpt lat="48.330960000" lon="16.384316667">
<time>2012-06-16T19:28:04Z</time>
 <fix>2d</fix>
 <sat>6</sat>
</trkpt>
<trkpt lat="48.330950000" lon="16.384313333">
<time>2012-06-16T19:28:05Z</time>
 <fix>2d</fix>
 <sat>6</sat>
</trkpt>
<trkpt lat="48.330936667" lon="16.384318333">
<time>2012-06-16T19:28:06Z</time>
 <fix>2d</fix>
 <sat>6</sat>
</trkpt>
<trkpt lat="48.330916667" lon="16.384323333">
<time>2012-06-16T19:28:07Z</time>
 <fix>2d</fix>
 <sat>6</sat>
</trkpt>
<trkpt lat="48.330901667" lon="16.384330000">
<time>2012-06-16T19:28:08Z</time>
 <fix>2d</fix>
 <sat>6</sat>
</trkpt>
<trkpt lat="48.330885000" lon="16.384336667">
<time>2012-06-16T19:28:09Z</time>
 <fix>2d</fix>
 <sat>6</sat>
</trkpt>
<trkpt lat="48.330871667" lon="16.384340000">
<time>2012-06-16T19:28:10Z</time>
 <fix>2d</fix>
 <sat>6</sat>
</trkpt>
<trkpt lat="48.330858333" lon="16.384340000">
<time>2012-06-16T19:28:11Z</time>
 <fix>2d</fix>
 <sat>6</sat>
</trkpt>
<trkpt lat="48.330841667" lon="16.384341667">
<time>2012-06-16T19:28:12Z</time>
 <fix>2d</fix>
 <sat>6</sat>
</trkpt>
<trkpt lat="48.330818333" lon="16.384356667">
<time>2012-06-16T19:28:13Z</time>
 <fix>2d</fix>
 <sat>5</sat>
</trkpt>
<trkpt lat="48.330796667" lon="16.384371667">
<time>2012-06-16T19:28:14Z</time>
 <fix>2d</fix>
 <sat>5</sat>
</trkpt>
<trkpt lat="48.330783333" lon="16.384388333">
<time>2012-06-16T19:28:15Z</time>
 <fix>2d</fix>
 <sat>6</sat>
</trkpt>
<trkpt lat="48.330768333" lon="16.384400000">
<time>2012-06-16T19:28:16Z</time>
 <fix>2d</fix>
 <sat>6</sat>
</trkpt>
<trkpt lat="48.330753333" lon="16.384411667">
<time>2012-06-16T19:28:17Z</time>
 <fix>2d</fix>
 <sat>6</sat>
</trkpt>
<trkpt lat="48.330735000" lon="16.384426667">
<time>2012-06-16T19:28:18Z</time>
 <fix>2d</fix>
 <sat>6</sat>
</trkpt>
<trkpt lat="48.330718333" lon="16.384443333">
<time>2012-06-16T19:28:19Z</time>
 <fix>2d</fix>
 <sat>6</sat>
</trkpt>
<trkpt lat="48.330700000" lon="16.384461667">
<time>2012-06-16T19:28:20Z</time>
 <fix>2d</fix>
 <sat>6</sat>
</trkpt>
<trkpt lat="48.330686667" lon="16.384471667">
<time>2012-06-16T19:28:21Z</time>
 <fix>2d</fix>
 <sat>6</sat>
</trkpt>
<trkpt lat="48.330675000" lon="16.384475000">
<time>2012-06-16T19:28:22Z</time>
 <fix>2d</fix>
 <sat>6</sat>
</trkpt>
<trkpt lat="48.330660000" lon="16.384480000">
<time>2012-06-16T19:28:23Z</time>
 <fix>2d</fix>
 <sat>6</sat>
</trkpt>
<trkpt lat="48.330643333" lon="16.384481667">
<time>2012-06-16T19:28:24Z</time>
 <fix>2d</fix>
 <sat>6</sat>
</trkpt>
<trkpt lat="48.330628333" lon="16.384481667">
<time>2012-06-16T19:28:25Z</time>
 <fix>2d</fix>
 <sat>6</sat>
</trkpt>
<trkpt lat="48.330616667" lon="16.384480000">
<time>2012-06-16T19:28:26Z</time>
 <fix>2d</fix>
 <sat>6</sat>
</trkpt>
<trkpt lat="48.330596667" lon="16.384486667">
<time>2012-06-16T19:28:27Z</time>
 <fix>2d</fix>
 <sat>6</sat>
</trkpt>
<trkpt lat="48.330576667" lon="16.384486667">
<time>2012-06-16T19:28:28Z</time>
 <fix>2d</fix>
 <sat>6</sat>
</trkpt>
<trkpt lat="48.330566667" lon="16.384483333">
<time>2012-06-16T19:28:29Z</time>
 <fix>2d</fix>
 <sat>6</sat>
</trkpt>
<trkpt lat="48.330555000" lon="16.384480000">
<time>2012-06-16T19:28:30Z</time>
 <fix>2d</fix>
 <sat>6</sat>
</trkpt>
<trkpt lat="48.330543333" lon="16.384473333">
<time>2012-06-16T19:28:31Z</time>
 <fix>2d</fix>
 <sat>6</sat>
</trkpt>
<trkpt lat="48.330530000" lon="16.384471667">
<time>2012-06-16T19:28:32Z</time>
 <fix>2d</fix>
 <sat>6</sat>
</trkpt>
<trkpt lat="48.330505000" lon="16.384470000">
<time>2012-06-16T19:28:33Z</time>
 <fix>2d</fix>
 <sat>6</sat>
</trkpt>
<trkpt lat="48.330488333" lon="16.384458333">
<time>2012-06-16T19:28:34Z</time>
 <fix>2d</fix>
 <sat>6</sat>
</trkpt>
<trkpt lat="48.330473333" lon="16.384451667">
<time>2012-06-16T19:28:35Z</time>
 <fix>2d</fix>
 <sat>6</sat>
</trkpt>
<trkpt lat="48.330455000" lon="16.384443333">
<time>2012-06-16T19:28:36Z</time>
 <fix>2d</fix>
 <sat>6</sat>
</trkpt>
<trkpt lat="48.330435000" lon="16.384443333">
<time>2012-06-16T19:28:37Z</time>
 <fix>2d</fix>
 <sat>6</sat>
</trkpt>
<trkpt lat="48.330416667" lon="16.384435000">
<time>2012-06-16T19:28:38Z</time>
 <fix>2d</fix>
 <sat>6</sat>
</trkpt>
<trkpt lat="48.330403333" lon="16.384435000">
<time>2012-06-16T19:28:39Z</time>
 <fix>2d</fix>
 <sat>6</sat>
</trkpt>
<trkpt lat="48.330391667" lon="16.384440000">
<time>2012-06-16T19:28:40Z</time>
 <fix>2d</fix>
 <sat>6</sat>
</trkpt>
<trkpt lat="48.330375000" lon="16.384443333">
<time>2012-06-16T19:28:41Z</time>
 <fix>2d</fix>
 <sat>6</sat>
</trkpt>
<trkpt lat="48.330358333" lon="16.384440000">
<time>2012-06-16T19:28:42Z</time>
 <fix>2d</fix>
 <sat>6</sat>
</trkpt>
<trkpt lat="48.330335000" lon="16.384443333">
<time>2012-06-16T19:28:43Z</time>
 <fix>2d</fix>
 <sat>6</sat>
</trkpt>
<trkpt lat="48.330320000" lon="16.384450000">
<time>2012-06-16T19:28:44Z</time>
 <fix>2d</fix>
 <sat>6</sat>
</trkpt>
<trkpt lat="48.330300000" lon="16.384455000">
<time>2012-06-16T19:28:45Z</time>
 <fix>2d</fix>
 <sat>6</sat>
</trkpt>
<trkpt lat="48.330280000" lon="16.384458333">
<time>2012-06-16T19:28:46Z</time>
 <fix>2d</fix>
 <sat>6</sat>
</trkpt>
<trkpt lat="48.330260000" lon="16.384456667">
<time>2012-06-16T19:28:47Z</time>
 <fix>2d</fix>
 <sat>6</sat>
</trkpt>
<trkpt lat="48.330240000" lon="16.384458333">
<time>2012-06-16T19:28:48Z</time>
 <fix>2d</fix>
 <sat>6</sat>
</trkpt>
<trkpt lat="48.330225000" lon="16.384458333">
<time>2012-06-16T19:28:49Z</time>
 <fix>2d</fix>
 <sat>6</sat>
</trkpt>
<trkpt lat="48.330206667" lon="16.384458333">
<time>2012-06-16T19:28:50Z</time>
 <fix>2d</fix>
 <sat>6</sat>
</trkpt>
<trkpt lat="48.330193333" lon="16.384471667">
<time>2012-06-16T19:28:51Z</time>
 <fix>2d</fix>
 <sat>6</sat>
</trkpt>
<trkpt lat="48.330176667" lon="16.384491667">
<time>2012-06-16T19:28:52Z</time>
 <fix>2d</fix>
 <sat>6</sat>
</trkpt>
<trkpt lat="48.330161667" lon="16.384496667">
<time>2012-06-16T19:28:53Z</time>
 <fix>2d</fix>
 <sat>6</sat>
</trkpt>
<trkpt lat="48.330151667" lon="16.384498333">
<time>2012-06-16T19:28:54Z</time>
 <fix>2d</fix>
 <sat>6</sat>
</trkpt>
<trkpt lat="48.330148333" lon="16.384503333">
<time>2012-06-16T19:28:55Z</time>
 <fix>2d</fix>
 <sat>6</sat>
</trkpt>
<trkpt lat="48.330145000" lon="16.384508333">
<time>2012-06-16T19:28:56Z</time>
 <fix>2d</fix>
 <sat>6</sat>
</trkpt>
<trkpt lat="48.330126667" lon="16.384515000">
<time>2012-06-16T19:28:57Z</time>
 <fix>2d</fix>
 <sat>6</sat>
</trkpt>
<trkpt lat="48.330110000" lon="16.384510000">
<time>2012-06-16T19:28:58Z</time>
 <fix>2d</fix>
 <sat>6</sat>
</trkpt>
<trkpt lat="48.330091667" lon="16.384510000">
<time>2012-06-16T19:28:59Z</time>
 <fix>2d</fix>
 <sat>6</sat>
</trkpt>
<trkpt lat="48.330075000" lon="16.384518333">
<time>2012-06-16T19:29:00Z</time>
 <fix>2d</fix>
 <sat>6</sat>
</trkpt>
<trkpt lat="48.330063333" lon="16.384518333">
<time>2012-06-16T19:29:01Z</time>
 <fix>2d</fix>
 <sat>6</sat>
</trkpt>
<trkpt lat="48.330045000" lon="16.384518333">
<time>2012-06-16T19:29:02Z</time>
 <fix>2d</fix>
 <sat>6</sat>
</trkpt>
<trkpt lat="48.330028333" lon="16.384515000">
<time>2012-06-16T19:29:03Z</time>
 <fix>2d</fix>
 <sat>6</sat>
</trkpt>
<trkpt lat="48.330010000" lon="16.384521667">
<time>2012-06-16T19:29:04Z</time>
 <fix>2d</fix>
 <sat>6</sat>
</trkpt>
<trkpt lat="48.329995000" lon="16.384526667">
<time>2012-06-16T19:29:05Z</time>
 <fix>2d</fix>
 <sat>6</sat>
</trkpt>
<trkpt lat="48.329973333" lon="16.384533333">
<time>2012-06-16T19:29:06Z</time>
 <fix>2d</fix>
 <sat>6</sat>
</trkpt>
<trkpt lat="48.329953333" lon="16.384543333">
<time>2012-06-16T19:29:07Z</time>
 <fix>2d</fix>
 <sat>6</sat>
</trkpt>
<trkpt lat="48.329936667" lon="16.384558333">
<time>2012-06-16T19:29:08Z</time>
 <fix>2d</fix>
 <sat>6</sat>
</trkpt>
<trkpt lat="48.329923333" lon="16.384561667">
<time>2012-06-16T19:29:09Z</time>
 <fix>2d</fix>
 <sat>6</sat>
</trkpt>
<trkpt lat="48.329913333" lon="16.384561667">
<time>2012-06-16T19:29:10Z</time>
 <fix>2d</fix>
 <sat>6</sat>
</trkpt>
<trkpt lat="48.329895000" lon="16.384565000">
<time>2012-06-16T19:29:11Z</time>
 <fix>2d</fix>
 <sat>6</sat>
</trkpt>
<trkpt lat="48.329878333" lon="16.384566667">
<time>2012-06-16T19:29:12Z</time>
 <fix>2d</fix>
 <sat>6</sat>
</trkpt>
<trkpt lat="48.329870000" lon="16.384573333">
<time>2012-06-16T19:29:13Z</time>
 <fix>2d</fix>
 <sat>6</sat>
</trkpt>
<trkpt lat="48.329861667" lon="16.384573333">
<time>2012-06-16T19:29:14Z</time>
 <fix>2d</fix>
 <sat>6</sat>
</trkpt>
<trkpt lat="48.329850000" lon="16.384578333">
<time>2012-06-16T19:29:15Z</time>
 <fix>2d</fix>
 <sat>6</sat>
</trkpt>
<trkpt lat="48.329838333" lon="16.384595000">
<time>2012-06-16T19:29:16Z</time>
 <fix>2d</fix>
 <sat>6</sat>
</trkpt>
<trkpt lat="48.329828333" lon="16.384601667">
<time>2012-06-16T19:29:17Z</time>
 <fix>2d</fix>
 <sat>6</sat>
</trkpt>
<trkpt lat="48.329816667" lon="16.384600000">
<time>2012-06-16T19:29:18Z</time>
 <fix>2d</fix>
 <sat>6</sat>
</trkpt>
<trkpt lat="48.329803333" lon="16.384605000">
<time>2012-06-16T19:29:19Z</time>
 <fix>2d</fix>
 <sat>6</sat>
</trkpt>
<trkpt lat="48.329790000" lon="16.384611667">
<time>2012-06-16T19:29:20Z</time>
 <fix>2d</fix>
 <sat>6</sat>
</trkpt>
<trkpt lat="48.329775000" lon="16.384611667">
<time>2012-06-16T19:29:21Z</time>
 <fix>2d</fix>
 <sat>6</sat>
</trkpt>
<trkpt lat="48.329760000" lon="16.384616667">
<time>2012-06-16T19:29:22Z</time>
 <fix>2d</fix>
 <sat>6</sat>
</trkpt>
<trkpt lat="48.329755000" lon="16.384628333">
<time>2012-06-16T19:29:23Z</time>
 <fix>2d</fix>
 <sat>6</sat>
</trkpt>
<trkpt lat="48.329748333" lon="16.384640000">
<time>2012-06-16T19:29:24Z</time>
 <fix>2d</fix>
 <sat>6</sat>
</trkpt>
<trkpt lat="48.329741667" lon="16.384645000">
<time>2012-06-16T19:29:25Z</time>
 <fix>2d</fix>
 <sat>6</sat>
</trkpt>
<trkpt lat="48.329733333" lon="16.384660000">
<time>2012-06-16T19:29:26Z</time>
 <fix>2d</fix>
 <sat>6</sat>
</trkpt>
<trkpt lat="48.329723333" lon="16.384663333">
<time>2012-06-16T19:29:27Z</time>
 <fix>2d</fix>
 <sat>6</sat>
</trkpt>
<trkpt lat="48.329715000" lon="16.384658333">
<time>2012-06-16T19:29:28Z</time>
 <fix>2d</fix>
 <sat>6</sat>
</trkpt>
<trkpt lat="48.329701667" lon="16.384656667">
<time>2012-06-16T19:29:29Z</time>
 <fix>2d</fix>
 <sat>6</sat>
</trkpt>
<trkpt lat="48.329683333" lon="16.384646667">
<time>2012-06-16T19:29:30Z</time>
 <fix>2d</fix>
 <sat>6</sat>
</trkpt>
<trkpt lat="48.329670000" lon="16.384645000">
<time>2012-06-16T19:29:31Z</time>
 <fix>2d</fix>
 <sat>6</sat>
</trkpt>
<trkpt lat="48.329643333" lon="16.384665000">
<time>2012-06-16T19:29:32Z</time>
 <fix>2d</fix>
 <sat>6</sat>
</trkpt>
<trkpt lat="48.329630000" lon="16.384673333">
<time>2012-06-16T19:29:33Z</time>
 <fix>2d</fix>
 <sat>6</sat>
</trkpt>
<trkpt lat="48.329613333" lon="16.384673333">
<time>2012-06-16T19:29:34Z</time>
 <fix>2d</fix>
 <sat>6</sat>
</trkpt>
<trkpt lat="48.329603333" lon="16.384668333">
<time>2012-06-16T19:29:35Z</time>
 <fix>2d</fix>
 <sat>6</sat>
</trkpt>
<trkpt lat="48.329591667" lon="16.384663333">
<time>2012-06-16T19:29:36Z</time>
 <fix>2d</fix>
 <sat>6</sat>
</trkpt>
<trkpt lat="48.329575000" lon="16.384663333">
<time>2012-06-16T19:29:37Z</time>
 <fix>2d</fix>
 <sat>6</sat>
</trkpt>
<trkpt lat="48.329566667" lon="16.384665000">
<time>2012-06-16T19:29:38Z</time>
 <fix>2d</fix>
 <sat>6</sat>
</trkpt>
<trkpt lat="48.329565000" lon="16.384676667">
<time>2012-06-16T19:29:39Z</time>
 <fix>2d</fix>
 <sat>6</sat>
</trkpt>
<trkpt lat="48.329561667" lon="16.384688333">
<time>2012-06-16T19:29:40Z</time>
 <fix>2d</fix>
 <sat>6</sat>
</trkpt>
<trkpt lat="48.329548333" lon="16.384688333">
<time>2012-06-16T19:29:41Z</time>
 <fix>2d</fix>
 <sat>6</sat>
</trkpt>
<trkpt lat="48.329533333" lon="16.384688333">
<time>2012-06-16T19:29:42Z</time>
 <fix>2d</fix>
 <sat>6</sat>
</trkpt>
<trkpt lat="48.329521667" lon="16.384688333">
<time>2012-06-16T19:29:43Z</time>
 <fix>2d</fix>
 <sat>6</sat>
</trkpt>
<trkpt lat="48.329515000" lon="16.384683333">
<time>2012-06-16T19:29:44Z</time>
 <fix>2d</fix>
 <sat>6</sat>
</trkpt>
<trkpt lat="48.329503333" lon="16.384676667">
<time>2012-06-16T19:29:45Z</time>
 <fix>2d</fix>
 <sat>6</sat>
</trkpt>
<trkpt lat="48.329491667" lon="16.384676667">
<time>2012-06-16T19:29:46Z</time>
 <fix>2d</fix>
 <sat>6</sat>
</trkpt>
<trkpt lat="48.329483333" lon="16.384683333">
<time>2012-06-16T19:29:47Z</time>
 <fix>2d</fix>
 <sat>6</sat>
</trkpt>
<trkpt lat="48.329473333" lon="16.384685000">
<time>2012-06-16T19:29:48Z</time>
 <fix>2d</fix>
 <sat>6</sat>
</trkpt>
<trkpt lat="48.329465000" lon="16.384688333">
<time>2012-06-16T19:29:49Z</time>
 <fix>2d</fix>
 <sat>6</sat>
</trkpt>
<trkpt lat="48.329460000" lon="16.384691667">
<time>2012-06-16T19:29:50Z</time>
 <fix>2d</fix>
 <sat>6</sat>
</trkpt>
<trkpt lat="48.329451667" lon="16.384693333">
<time>2012-06-16T19:29:51Z</time>
 <fix>2d</fix>
 <sat>6</sat>
</trkpt>
<trkpt lat="48.329448333" lon="16.384693333">
<time>2012-06-16T19:29:52Z</time>
 <fix>2d</fix>
 <sat>6</sat>
</trkpt>
<trkpt lat="48.329443333" lon="16.384711667">
<time>2012-06-16T19:29:53Z</time>
 <fix>2d</fix>
 <sat>6</sat>
</trkpt>
<trkpt lat="48.329435000" lon="16.384723333">
<time>2012-06-16T19:29:54Z</time>
 <fix>2d</fix>
 <sat>6</sat>
</trkpt>
<trkpt lat="48.329425000" lon="16.384728333">
<time>2012-06-16T19:29:55Z</time>
 <fix>2d</fix>
 <sat>6</sat>
</trkpt>
<trkpt lat="48.329408333" lon="16.384731667">
<time>2012-06-16T19:29:56Z</time>
 <fix>2d</fix>
 <sat>6</sat>
</trkpt>
<trkpt lat="48.329398333" lon="16.384735000">
<time>2012-06-16T19:29:57Z</time>
 <fix>2d</fix>
 <sat>6</sat>
</trkpt>
<trkpt lat="48.329388333" lon="16.384735000">
<time>2012-06-16T19:29:58Z</time>
 <fix>2d</fix>
 <sat>6</sat>
</trkpt>
<trkpt lat="48.329383333" lon="16.384731667">
<time>2012-06-16T19:29:59Z</time>
 <fix>2d</fix>
 <sat>6</sat>
</trkpt>
<trkpt lat="48.329385000" lon="16.384726667">
<time>2012-06-16T19:30:00Z</time>
 <fix>2d</fix>
 <sat>6</sat>
</trkpt>
<trkpt lat="48.329385000" lon="16.384721667">
<time>2012-06-16T19:30:01Z</time>
 <fix>2d</fix>
 <sat>6</sat>
</trkpt>
<trkpt lat="48.329388333" lon="16.384716667">
<time>2012-06-16T19:30:02Z</time>
 <fix>2d</fix>
 <sat>6</sat>
</trkpt>
<trkpt lat="48.329373333" lon="16.384720000">
<time>2012-06-16T19:30:03Z</time>
 <fix>2d</fix>
 <sat>6</sat>
</trkpt>
<trkpt lat="48.329360000" lon="16.384728333">
<time>2012-06-16T19:30:04Z</time>
 <fix>2d</fix>
 <sat>6</sat>
</trkpt>
<trkpt lat="48.329340000" lon="16.384735000">
<time>2012-06-16T19:30:05Z</time>
 <fix>2d</fix>
 <sat>6</sat>
</trkpt>
<trkpt lat="48.329315000" lon="16.384748333">
<time>2012-06-16T19:30:06Z</time>
 <fix>2d</fix>
 <sat>6</sat>
</trkpt>
<trkpt lat="48.329301667" lon="16.384756667">
<time>2012-06-16T19:30:07Z</time>
 <fix>2d</fix>
 <sat>6</sat>
</trkpt>
<trkpt lat="48.329298333" lon="16.384766667">
<time>2012-06-16T19:30:08Z</time>
 <fix>2d</fix>
 <sat>6</sat>
</trkpt>
<trkpt lat="48.329290000" lon="16.384768333">
<time>2012-06-16T19:30:09Z</time>
 <fix>2d</fix>
 <sat>6</sat>
</trkpt>
<trkpt lat="48.329281667" lon="16.384780000">
<time>2012-06-16T19:30:10Z</time>
 <fix>2d</fix>
 <sat>6</sat>
</trkpt>
<trkpt lat="48.329273333" lon="16.384791667">
<time>2012-06-16T19:30:11Z</time>
 <fix>2d</fix>
 <sat>6</sat>
</trkpt>
<trkpt lat="48.329270000" lon="16.384796667">
<time>2012-06-16T19:30:12Z</time>
 <fix>2d</fix>
 <sat>6</sat>
</trkpt>
<trkpt lat="48.329260000" lon="16.384806667">
<time>2012-06-16T19:30:13Z</time>
 <fix>2d</fix>
 <sat>6</sat>
</trkpt>
<trkpt lat="48.329251667" lon="16.384815000">
<time>2012-06-16T19:30:14Z</time>
 <fix>2d</fix>
 <sat>6</sat>
</trkpt>
<trkpt lat="48.329250000" lon="16.384820000">
<time>2012-06-16T19:30:15Z</time>
 <fix>2d</fix>
 <sat>6</sat>
</trkpt>
<trkpt lat="48.329240000" lon="16.384838333">
<time>2012-06-16T19:30:16Z</time>
 <fix>2d</fix>
 <sat>6</sat>
</trkpt>
<trkpt lat="48.329226667" lon="16.384846667">
<time>2012-06-16T19:30:17Z</time>
 <fix>2d</fix>
 <sat>6</sat>
</trkpt>
<trkpt lat="48.329215000" lon="16.384853333">
<time>2012-06-16T19:30:18Z</time>
 <fix>2d</fix>
 <sat>6</sat>
</trkpt>
<trkpt lat="48.329210000" lon="16.384861667">
<time>2012-06-16T19:30:19Z</time>
 <fix>2d</fix>
 <sat>6</sat>
</trkpt>
<trkpt lat="48.329200000" lon="16.384870000">
<time>2012-06-16T19:30:20Z</time>
 <fix>2d</fix>
 <sat>6</sat>
</trkpt>
<trkpt lat="48.329190000" lon="16.384881667">
<time>2012-06-16T19:30:21Z</time>
 <fix>2d</fix>
 <sat>6</sat>
</trkpt>
<trkpt lat="48.329180000" lon="16.384895000">
<time>2012-06-16T19:30:22Z</time>
 <fix>2d</fix>
 <sat>6</sat>
</trkpt>
<trkpt lat="48.329171667" lon="16.384901667">
<time>2012-06-16T19:30:23Z</time>
 <fix>2d</fix>
 <sat>6</sat>
</trkpt>
<trkpt lat="48.329165000" lon="16.384913333">
<time>2012-06-16T19:30:24Z</time>
 <fix>2d</fix>
 <sat>6</sat>
</trkpt>
<trkpt lat="48.329158333" lon="16.384923333">
<time>2012-06-16T19:30:25Z</time>
 <fix>2d</fix>
 <sat>6</sat>
</trkpt>
<trkpt lat="48.329153333" lon="16.384930000">
<time>2012-06-16T19:30:26Z</time>
 <fix>2d</fix>
 <sat>6</sat>
</trkpt>
<trkpt lat="48.329141667" lon="16.384941667">
<time>2012-06-16T19:30:27Z</time>
 <fix>2d</fix>
 <sat>6</sat>
</trkpt>
<trkpt lat="48.329133333" lon="16.384958333">
<time>2012-06-16T19:30:28Z</time>
 <fix>2d</fix>
 <sat>6</sat>
</trkpt>
<trkpt lat="48.329121667" lon="16.384965000">
<time>2012-06-16T19:30:29Z</time>
 <fix>2d</fix>
 <sat>6</sat>
</trkpt>
<trkpt lat="48.329116667" lon="16.384976667">
<time>2012-06-16T19:30:30Z</time>
 <fix>2d</fix>
 <sat>6</sat>
</trkpt>
<trkpt lat="48.329100000" lon="16.385000000">
<time>2012-06-16T19:30:31Z</time>
 <fix>2d</fix>
 <sat>6</sat>
</trkpt>
<trkpt lat="48.329090000" lon="16.385005000">
<time>2012-06-16T19:30:32Z</time>
 <fix>2d</fix>
 <sat>6</sat>
</trkpt>
<trkpt lat="48.329085000" lon="16.385011667">
<time>2012-06-16T19:30:33Z</time>
 <fix>2d</fix>
 <sat>6</sat>
</trkpt>
<trkpt lat="48.329080000" lon="16.385028333">
<time>2012-06-16T19:30:34Z</time>
 <fix>2d</fix>
 <sat>6</sat>
</trkpt>
<trkpt lat="48.329073333" lon="16.385045000">
<time>2012-06-16T19:30:35Z</time>
 <fix>2d</fix>
 <sat>6</sat>
</trkpt>
<trkpt lat="48.329066667" lon="16.385055000">
<time>2012-06-16T19:30:36Z</time>
 <fix>2d</fix>
 <sat>6</sat>
</trkpt>
<trkpt lat="48.329058333" lon="16.385055000">
<time>2012-06-16T19:30:37Z</time>
 <fix>2d</fix>
 <sat>6</sat>
</trkpt>
<trkpt lat="48.329046667" lon="16.385051667">
<time>2012-06-16T19:30:38Z</time>
 <fix>2d</fix>
 <sat>6</sat>
</trkpt>
<trkpt lat="48.329038333" lon="16.385045000">
<time>2012-06-16T19:30:39Z</time>
 <fix>2d</fix>
 <sat>6</sat>
</trkpt>
<trkpt lat="48.329030000" lon="16.385038333">
<time>2012-06-16T19:30:40Z</time>
 <fix>2d</fix>
 <sat>6</sat>
</trkpt>
<trkpt lat="48.329021667" lon="16.385036667">
<time>2012-06-16T19:30:41Z</time>
 <fix>2d</fix>
 <sat>6</sat>
</trkpt>
<trkpt lat="48.329011667" lon="16.385035000">
<time>2012-06-16T19:30:42Z</time>
 <fix>2d</fix>
 <sat>6</sat>
</trkpt>
<trkpt lat="48.329001667" lon="16.385033333">
<time>2012-06-16T19:30:43Z</time>
 <fix>2d</fix>
 <sat>6</sat>
</trkpt>
<trkpt lat="48.328993333" lon="16.385033333">
<time>2012-06-16T19:30:44Z</time>
 <fix>2d</fix>
 <sat>6</sat>
</trkpt>
<trkpt lat="48.328990000" lon="16.385028333">
<time>2012-06-16T19:30:45Z</time>
 <fix>2d</fix>
 <sat>6</sat>
</trkpt>
<trkpt lat="48.328983333" lon="16.385031667">
<time>2012-06-16T19:30:46Z</time>
 <fix>2d</fix>
 <sat>6</sat>
</trkpt>
<trkpt lat="48.328970000" lon="16.385045000">
<time>2012-06-16T19:30:47Z</time>
 <fix>2d</fix>
 <sat>6</sat>
</trkpt>
<trkpt lat="48.328965000" lon="16.385051667">
<time>2012-06-16T19:30:48Z</time>
 <fix>2d</fix>
 <sat>6</sat>
</trkpt>
<trkpt lat="48.328965000" lon="16.385060000">
<time>2012-06-16T19:30:49Z</time>
 <fix>2d</fix>
 <sat>6</sat>
</trkpt>
<trkpt lat="48.328956667" lon="16.385068333">
<time>2012-06-16T19:30:50Z</time>
 <fix>2d</fix>
 <sat>6</sat>
</trkpt>
<trkpt lat="48.328946667" lon="16.385073333">
<time>2012-06-16T19:30:51Z</time>
 <fix>2d</fix>
 <sat>6</sat>
</trkpt>
<trkpt lat="48.328926667" lon="16.385073333">
<time>2012-06-16T19:30:52Z</time>
 <fix>2d</fix>
 <sat>6</sat>
</trkpt>
<trkpt lat="48.328903333" lon="16.385083333">
<time>2012-06-16T19:30:53Z</time>
 <fix>2d</fix>
 <sat>6</sat>
</trkpt>
<trkpt lat="48.328891667" lon="16.385095000">
<time>2012-06-16T19:30:54Z</time>
 <fix>2d</fix>
 <sat>6</sat>
</trkpt>
<trkpt lat="48.328890000" lon="16.385098333">
<time>2012-06-16T19:30:55Z</time>
 <fix>2d</fix>
 <sat>6</sat>
</trkpt>
<trkpt lat="48.328881667" lon="16.385095000">
<time>2012-06-16T19:30:56Z</time>
 <fix>2d</fix>
 <sat>6</sat>
</trkpt>
<trkpt lat="48.328870000" lon="16.385095000">
<time>2012-06-16T19:30:57Z</time>
 <fix>2d</fix>
 <sat>6</sat>
</trkpt>
<trkpt lat="48.328856667" lon="16.385095000">
<time>2012-06-16T19:30:58Z</time>
 <fix>2d</fix>
 <sat>6</sat>
</trkpt>
<trkpt lat="48.328838333" lon="16.385100000">
<time>2012-06-16T19:30:59Z</time>
 <fix>2d</fix>
 <sat>6</sat>
</trkpt>
<trkpt lat="48.328826667" lon="16.385098333">
<time>2012-06-16T19:31:00Z</time>
 <fix>2d</fix>
 <sat>6</sat>
</trkpt>
<trkpt lat="48.328825000" lon="16.385088333">
<time>2012-06-16T19:31:01Z</time>
 <fix>2d</fix>
 <sat>6</sat>
</trkpt>
<trkpt lat="48.328813333" lon="16.385095000">
<time>2012-06-16T19:31:02Z</time>
 <fix>2d</fix>
 <sat>6</sat>
</trkpt>
<trkpt lat="48.328805000" lon="16.385096667">
<time>2012-06-16T19:31:03Z</time>
 <fix>2d</fix>
 <sat>6</sat>
</trkpt>
<trkpt lat="48.328795000" lon="16.385091667">
<time>2012-06-16T19:31:04Z</time>
 <fix>2d</fix>
 <sat>6</sat>
</trkpt>
<trkpt lat="48.328785000" lon="16.385085000">
<time>2012-06-16T19:31:05Z</time>
 <fix>2d</fix>
 <sat>6</sat>
</trkpt>
<trkpt lat="48.328770000" lon="16.385080000">
<time>2012-06-16T19:31:06Z</time>
 <fix>2d</fix>
 <sat>6</sat>
</trkpt>
<trkpt lat="48.328756667" lon="16.385075000">
<time>2012-06-16T19:31:07Z</time>
 <fix>2d</fix>
 <sat>6</sat>
</trkpt>
<trkpt lat="48.328745000" lon="16.385068333">
<time>2012-06-16T19:31:08Z</time>
 <fix>2d</fix>
 <sat>6</sat>
</trkpt>
<trkpt lat="48.328733333" lon="16.385056667">
<time>2012-06-16T19:31:09Z</time>
 <fix>2d</fix>
 <sat>6</sat>
</trkpt>
<trkpt lat="48.328725000" lon="16.385051667">
<time>2012-06-16T19:31:10Z</time>
 <fix>2d</fix>
 <sat>6</sat>
</trkpt>
<trkpt lat="48.328715000" lon="16.385051667">
<time>2012-06-16T19:31:11Z</time>
 <fix>2d</fix>
 <sat>6</sat>
</trkpt>
<trkpt lat="48.328706667" lon="16.385045000">
<time>2012-06-16T19:31:12Z</time>
 <fix>2d</fix>
 <sat>6</sat>
</trkpt>
<trkpt lat="48.328698333" lon="16.385051667">
<time>2012-06-16T19:31:13Z</time>
 <fix>2d</fix>
 <sat>6</sat>
</trkpt>
<trkpt lat="48.328691667" lon="16.385051667">
<time>2012-06-16T19:31:14Z</time>
 <fix>2d</fix>
 <sat>6</sat>
</trkpt>
<trkpt lat="48.328678333" lon="16.385051667">
<time>2012-06-16T19:31:15Z</time>
 <fix>2d</fix>
 <sat>6</sat>
</trkpt>
<trkpt lat="48.328663333" lon="16.385050000">
<time>2012-06-16T19:31:16Z</time>
 <fix>2d</fix>
 <sat>6</sat>
</trkpt>
<trkpt lat="48.328651667" lon="16.385040000">
<time>2012-06-16T19:31:17Z</time>
 <fix>2d</fix>
 <sat>6</sat>
</trkpt>
<trkpt lat="48.328643333" lon="16.385028333">
<time>2012-06-16T19:31:18Z</time>
 <fix>2d</fix>
 <sat>6</sat>
</trkpt>
<trkpt lat="48.328631667" lon="16.385020000">
<time>2012-06-16T19:31:19Z</time>
 <fix>2d</fix>
 <sat>6</sat>
</trkpt>
<trkpt lat="48.328623333" lon="16.385013333">
<time>2012-06-16T19:31:20Z</time>
 <fix>2d</fix>
 <sat>6</sat>
</trkpt>
<trkpt lat="48.328615000" lon="16.385011667">
<time>2012-06-16T19:31:21Z</time>
 <fix>2d</fix>
 <sat>6</sat>
</trkpt>
<trkpt lat="48.328606667" lon="16.385016667">
<time>2012-06-16T19:31:22Z</time>
 <fix>2d</fix>
 <sat>6</sat>
</trkpt>
<trkpt lat="48.328596667" lon="16.385021667">
<time>2012-06-16T19:31:23Z</time>
 <fix>2d</fix>
 <sat>6</sat>
</trkpt>
<trkpt lat="48.328588333" lon="16.385025000">
<time>2012-06-16T19:31:24Z</time>
 <fix>2d</fix>
 <sat>6</sat>
</trkpt>
<trkpt lat="48.328580000" lon="16.385021667">
<time>2012-06-16T19:31:25Z</time>
 <fix>2d</fix>
 <sat>6</sat>
</trkpt>
<trkpt lat="48.328571667" lon="16.385020000">
<time>2012-06-16T19:31:26Z</time>
 <fix>2d</fix>
 <sat>6</sat>
</trkpt>
<trkpt lat="48.328560000" lon="16.385025000">
<time>2012-06-16T19:31:27Z</time>
 <fix>2d</fix>
 <sat>6</sat>
</trkpt>
<trkpt lat="48.328551667" lon="16.385028333">
<time>2012-06-16T19:31:28Z</time>
 <fix>2d</fix>
 <sat>6</sat>
</trkpt>
<trkpt lat="48.328543333" lon="16.385025000">
<time>2012-06-16T19:31:29Z</time>
 <fix>2d</fix>
 <sat>6</sat>
</trkpt>
<trkpt lat="48.328536667" lon="16.385016667">
<time>2012-06-16T19:31:30Z</time>
 <fix>2d</fix>
 <sat>6</sat>
</trkpt>
<trkpt lat="48.328525000" lon="16.385010000">
<time>2012-06-16T19:31:31Z</time>
 <fix>2d</fix>
 <sat>6</sat>
</trkpt>
<trkpt lat="48.328515000" lon="16.385005000">
<time>2012-06-16T19:31:32Z</time>
 <fix>2d</fix>
 <sat>6</sat>
</trkpt>
<trkpt lat="48.328505000" lon="16.385003333">
<time>2012-06-16T19:31:33Z</time>
 <fix>2d</fix>
 <sat>6</sat>
</trkpt>
<trkpt lat="48.328493333" lon="16.385001667">
<time>2012-06-16T19:31:34Z</time>
 <fix>2d</fix>
 <sat>6</sat>
</trkpt>
<trkpt lat="48.328483333" lon="16.384993333">
<time>2012-06-16T19:31:35Z</time>
 <fix>2d</fix>
 <sat>6</sat>
</trkpt>
<trkpt lat="48.328481667" lon="16.384993333">
<time>2012-06-16T19:31:36Z</time>
 <fix>2d</fix>
 <sat>6</sat>
</trkpt>
<trkpt lat="48.328475000" lon="16.384991667">
<time>2012-06-16T19:31:37Z</time>
 <fix>2d</fix>
 <sat>6</sat>
</trkpt>
<trkpt lat="48.328466667" lon="16.384988333">
<time>2012-06-16T19:31:38Z</time>
 <fix>2d</fix>
 <sat>6</sat>
</trkpt>
<trkpt lat="48.328456667" lon="16.384985000">
<time>2012-06-16T19:31:39Z</time>
 <fix>2d</fix>
 <sat>6</sat>
</trkpt>
<trkpt lat="48.328441667" lon="16.384993333">
<time>2012-06-16T19:31:40Z</time>
 <fix>2d</fix>
 <sat>6</sat>
</trkpt>
<trkpt lat="48.328431667" lon="16.385003333">
<time>2012-06-16T19:31:41Z</time>
 <fix>2d</fix>
 <sat>6</sat>
</trkpt>
<trkpt lat="48.328421667" lon="16.385010000">
<time>2012-06-16T19:31:42Z</time>
 <fix>2d</fix>
 <sat>6</sat>
</trkpt>
<trkpt lat="48.328401667" lon="16.385021667">
<time>2012-06-16T19:31:43Z</time>
 <fix>2d</fix>
 <sat>6</sat>
</trkpt>
<trkpt lat="48.328388333" lon="16.385028333">
<time>2012-06-16T19:31:44Z</time>
 <fix>2d</fix>
 <sat>6</sat>
</trkpt>
<trkpt lat="48.328378333" lon="16.385028333">
<time>2012-06-16T19:31:45Z</time>
 <fix>2d</fix>
 <sat>6</sat>
</trkpt>
<trkpt lat="48.328373333" lon="16.385033333">
<time>2012-06-16T19:31:46Z</time>
 <fix>2d</fix>
 <sat>6</sat>
</trkpt>
<trkpt lat="48.328366667" lon="16.385033333">
<time>2012-06-16T19:31:47Z</time>
 <fix>2d</fix>
 <sat>6</sat>
</trkpt>
<trkpt lat="48.328358333" lon="16.385033333">
<time>2012-06-16T19:31:48Z</time>
 <fix>2d</fix>
 <sat>6</sat>
</trkpt>
<trkpt lat="48.328351667" lon="16.385026667">
<time>2012-06-16T19:31:49Z</time>
 <fix>2d</fix>
 <sat>6</sat>
</trkpt>
<trkpt lat="48.328346667" lon="16.385021667">
<time>2012-06-16T19:31:50Z</time>
 <fix>2d</fix>
 <sat>6</sat>
</trkpt>
<trkpt lat="48.328336667" lon="16.385016667">
<time>2012-06-16T19:31:51Z</time>
 <fix>2d</fix>
 <sat>6</sat>
</trkpt>
<trkpt lat="48.328321667" lon="16.385021667">
<time>2012-06-16T19:31:52Z</time>
 <fix>2d</fix>
 <sat>6</sat>
</trkpt>
<trkpt lat="48.328306667" lon="16.385021667">
<time>2012-06-16T19:31:53Z</time>
 <fix>2d</fix>
 <sat>6</sat>
</trkpt>
<trkpt lat="48.328295000" lon="16.385016667">
<time>2012-06-16T19:31:54Z</time>
 <fix>2d</fix>
 <sat>6</sat>
</trkpt>
<trkpt lat="48.328286667" lon="16.385013333">
<time>2012-06-16T19:31:55Z</time>
 <fix>2d</fix>
 <sat>6</sat>
</trkpt>
<trkpt lat="48.328276667" lon="16.384998333">
<time>2012-06-16T19:31:56Z</time>
 <fix>2d</fix>
 <sat>6</sat>
</trkpt>
<trkpt lat="48.328271667" lon="16.384988333">
<time>2012-06-16T19:31:57Z</time>
 <fix>2d</fix>
 <sat>6</sat>
</trkpt>
<trkpt lat="48.328265000" lon="16.384983333">
<time>2012-06-16T19:31:58Z</time>
 <fix>2d</fix>
 <sat>6</sat>
</trkpt>
<trkpt lat="48.328260000" lon="16.384976667">
<time>2012-06-16T19:31:59Z</time>
 <fix>2d</fix>
 <sat>6</sat>
</trkpt>
<trkpt lat="48.328255000" lon="16.384981667">
<time>2012-06-16T19:32:00Z</time>
 <fix>2d</fix>
 <sat>6</sat>
</trkpt>
<trkpt lat="48.328250000" lon="16.384975000">
<time>2012-06-16T19:32:01Z</time>
 <fix>2d</fix>
 <sat>6</sat>
</trkpt>
<trkpt lat="48.328243333" lon="16.384970000">
<time>2012-06-16T19:32:02Z</time>
 <fix>2d</fix>
 <sat>6</sat>
</trkpt>
<trkpt lat="48.328243333" lon="16.384958333">
<time>2012-06-16T19:32:03Z</time>
 <fix>2d</fix>
 <sat>6</sat>
</trkpt>
<trkpt lat="48.328240000" lon="16.384951667">
<time>2012-06-16T19:32:04Z</time>
 <fix>2d</fix>
 <sat>6</sat>
</trkpt>
<trkpt lat="48.328233333" lon="16.384948333">
<time>2012-06-16T19:32:05Z</time>
 <fix>2d</fix>
 <sat>6</sat>
</trkpt>
<trkpt lat="48.328225000" lon="16.384956667">
<time>2012-06-16T19:32:06Z</time>
 <fix>2d</fix>
 <sat>6</sat>
</trkpt>
<trkpt lat="48.328216667" lon="16.384963333">
<time>2012-06-16T19:32:07Z</time>
 <fix>2d</fix>
 <sat>6</sat>
</trkpt>
<trkpt lat="48.328206667" lon="16.384968333">
<time>2012-06-16T19:32:08Z</time>
 <fix>2d</fix>
 <sat>6</sat>
</trkpt>
<trkpt lat="48.328198333" lon="16.384976667">
<time>2012-06-16T19:32:09Z</time>
 <fix>2d</fix>
 <sat>6</sat>
</trkpt>
<trkpt lat="48.328185000" lon="16.384985000">
<time>2012-06-16T19:32:10Z</time>
 <fix>2d</fix>
 <sat>6</sat>
</trkpt>
<trkpt lat="48.328173333" lon="16.384976667">
<time>2012-06-16T19:32:11Z</time>
 <fix>2d</fix>
 <sat>6</sat>
</trkpt>
<trkpt lat="48.328165000" lon="16.384970000">
<time>2012-06-16T19:32:12Z</time>
 <fix>2d</fix>
 <sat>6</sat>
</trkpt>
<trkpt lat="48.328155000" lon="16.384961667">
<time>2012-06-16T19:32:13Z</time>
 <fix>2d</fix>
 <sat>6</sat>
</trkpt>
<trkpt lat="48.328150000" lon="16.384956667">
<time>2012-06-16T19:32:14Z</time>
 <fix>2d</fix>
 <sat>6</sat>
</trkpt>
<trkpt lat="48.328140000" lon="16.384956667">
<time>2012-06-16T19:32:15Z</time>
 <fix>2d</fix>
 <sat>6</sat>
</trkpt>
<trkpt lat="48.328131667" lon="16.384950000">
<time>2012-06-16T19:32:16Z</time>
 <fix>2d</fix>
 <sat>6</sat>
</trkpt>
<trkpt lat="48.328125000" lon="16.384943333">
<time>2012-06-16T19:32:17Z</time>
 <fix>2d</fix>
 <sat>6</sat>
</trkpt>
<trkpt lat="48.328120000" lon="16.384938333">
<time>2012-06-16T19:32:18Z</time>
 <fix>2d</fix>
 <sat>6</sat>
</trkpt>
<trkpt lat="48.328111667" lon="16.384928333">
<time>2012-06-16T19:32:19Z</time>
 <fix>2d</fix>
 <sat>6</sat>
</trkpt>
<trkpt lat="48.328105000" lon="16.384921667">
<time>2012-06-16T19:32:20Z</time>
 <fix>2d</fix>
 <sat>6</sat>
</trkpt>
<trkpt lat="48.328096667" lon="16.384906667">
<time>2012-06-16T19:32:21Z</time>
 <fix>2d</fix>
 <sat>6</sat>
</trkpt>
<trkpt lat="48.328093333" lon="16.384898333">
<time>2012-06-16T19:32:22Z</time>
 <fix>2d</fix>
 <sat>6</sat>
</trkpt>
<trkpt lat="48.328083333" lon="16.384893333">
<time>2012-06-16T19:32:23Z</time>
 <fix>2d</fix>
 <sat>6</sat>
</trkpt>
<trkpt lat="48.328080000" lon="16.384888333">
<time>2012-06-16T19:32:24Z</time>
 <fix>2d</fix>
 <sat>6</sat>
</trkpt>
<trkpt lat="48.328073333" lon="16.384881667">
<time>2012-06-16T19:32:25Z</time>
 <fix>2d</fix>
 <sat>6</sat>
</trkpt>
<trkpt lat="48.328066667" lon="16.384878333">
<time>2012-06-16T19:32:26Z</time>
 <fix>2d</fix>
 <sat>6</sat>
</trkpt>
<trkpt lat="48.328061667" lon="16.384878333">
<time>2012-06-16T19:32:27Z</time>
 <fix>2d</fix>
 <sat>6</sat>
</trkpt>
<trkpt lat="48.328053333" lon="16.384881667">
<time>2012-06-16T19:32:28Z</time>
 <fix>2d</fix>
 <sat>6</sat>
</trkpt>
<trkpt lat="48.328041667" lon="16.384878333">
<time>2012-06-16T19:32:29Z</time>
 <fix>2d</fix>
 <sat>6</sat>
</trkpt>
<trkpt lat="48.328031667" lon="16.384870000">
<time>2012-06-16T19:32:30Z</time>
 <fix>2d</fix>
 <sat>6</sat>
</trkpt>
<trkpt lat="48.328020000" lon="16.384871667">
<time>2012-06-16T19:32:31Z</time>
 <fix>2d</fix>
 <sat>6</sat>
</trkpt>
<trkpt lat="48.328008333" lon="16.384876667">
<time>2012-06-16T19:32:32Z</time>
 <fix>2d</fix>
 <sat>6</sat>
</trkpt>
<trkpt lat="48.328003333" lon="16.384866667">
<time>2012-06-16T19:32:33Z</time>
 <fix>2d</fix>
 <sat>6</sat>
</trkpt>
<trkpt lat="48.327991667" lon="16.384865000">
<time>2012-06-16T19:32:34Z</time>
 <fix>2d</fix>
 <sat>6</sat>
</trkpt>
<trkpt lat="48.327983333" lon="16.384861667">
<time>2012-06-16T19:32:35Z</time>
 <fix>2d</fix>
 <sat>6</sat>
</trkpt>
<trkpt lat="48.327976667" lon="16.384858333">
<time>2012-06-16T19:32:36Z</time>
 <fix>2d</fix>
 <sat>6</sat>
</trkpt>
<trkpt lat="48.327971667" lon="16.384851667">
<time>2012-06-16T19:32:37Z</time>
 <fix>2d</fix>
 <sat>6</sat>
</trkpt>
<trkpt lat="48.327966667" lon="16.384846667">
<time>2012-06-16T19:32:38Z</time>
 <fix>2d</fix>
 <sat>6</sat>
</trkpt>
<trkpt lat="48.327965000" lon="16.384835000">
<time>2012-06-16T19:32:39Z</time>
 <fix>2d</fix>
 <sat>6</sat>
</trkpt>
<trkpt lat="48.327960000" lon="16.384826667">
<time>2012-06-16T19:32:40Z</time>
 <fix>2d</fix>
 <sat>6</sat>
</trkpt>
<trkpt lat="48.327951667" lon="16.384820000">
<time>2012-06-16T19:32:41Z</time>
 <fix>2d</fix>
 <sat>6</sat>
</trkpt>
<trkpt lat="48.327945000" lon="16.384813333">
<time>2012-06-16T19:32:42Z</time>
 <fix>2d</fix>
 <sat>6</sat>
</trkpt>
<trkpt lat="48.327941667" lon="16.384811667">
<time>2012-06-16T19:32:43Z</time>
 <fix>2d</fix>
 <sat>6</sat>
</trkpt>
<trkpt lat="48.327940000" lon="16.384803333">
<time>2012-06-16T19:32:44Z</time>
 <fix>2d</fix>
 <sat>6</sat>
</trkpt>
<trkpt lat="48.327933333" lon="16.384800000">
<time>2012-06-16T19:32:45Z</time>
 <fix>2d</fix>
 <sat>6</sat>
</trkpt>
<trkpt lat="48.327928333" lon="16.384798333">
<time>2012-06-16T19:32:46Z</time>
 <fix>2d</fix>
 <sat>6</sat>
</trkpt>
<trkpt lat="48.327925000" lon="16.384791667">
<time>2012-06-16T19:32:47Z</time>
 <fix>2d</fix>
 <sat>6</sat>
</trkpt>
<trkpt lat="48.327911667" lon="16.384775000">
<time>2012-06-16T19:32:48Z</time>
 <fix>2d</fix>
 <sat>6</sat>
</trkpt>
<trkpt lat="48.327900000" lon="16.384766667">
<time>2012-06-16T19:32:49Z</time>
 <fix>2d</fix>
 <sat>6</sat>
</trkpt>
<trkpt lat="48.327891667" lon="16.384756667">
<time>2012-06-16T19:32:50Z</time>
 <fix>2d</fix>
 <sat>6</sat>
</trkpt>
<trkpt lat="48.327881667" lon="16.384746667">
<time>2012-06-16T19:32:51Z</time>
 <fix>2d</fix>
 <sat>6</sat>
</trkpt>
<trkpt lat="48.327871667" lon="16.384736667">
<time>2012-06-16T19:32:52Z</time>
 <fix>2d</fix>
 <sat>6</sat>
</trkpt>
<trkpt lat="48.327866667" lon="16.384731667">
<time>2012-06-16T19:32:53Z</time>
 <fix>2d</fix>
 <sat>6</sat>
</trkpt>
<trkpt lat="48.327865000" lon="16.384723333">
<time>2012-06-16T19:32:54Z</time>
 <fix>2d</fix>
 <sat>6</sat>
</trkpt>
<trkpt lat="48.327861667" lon="16.384720000">
<time>2012-06-16T19:32:55Z</time>
 <fix>2d</fix>
 <sat>6</sat>
</trkpt>
<trkpt lat="48.327858333" lon="16.384720000">
<time>2012-06-16T19:32:56Z</time>
 <fix>2d</fix>
 <sat>6</sat>
</trkpt>
<trkpt lat="48.327850000" lon="16.384721667">
<time>2012-06-16T19:32:57Z</time>
 <fix>2d</fix>
 <sat>6</sat>
</trkpt>
<trkpt lat="48.327840000" lon="16.384721667">
<time>2012-06-16T19:32:58Z</time>
 <fix>2d</fix>
 <sat>6</sat>
</trkpt>
<trkpt lat="48.327828333" lon="16.384733333">
<time>2012-06-16T19:32:59Z</time>
 <fix>2d</fix>
 <sat>6</sat>
</trkpt>
<trkpt lat="48.327818333" lon="16.384740000">
<time>2012-06-16T19:33:00Z</time>
 <fix>2d</fix>
 <sat>6</sat>
</trkpt>
<trkpt lat="48.327816667" lon="16.384740000">
<time>2012-06-16T19:33:01Z</time>
 <fix>2d</fix>
 <sat>6</sat>
</trkpt>
<trkpt lat="48.327813333" lon="16.384736667">
<time>2012-06-16T19:33:02Z</time>
 <fix>2d</fix>
 <sat>6</sat>
</trkpt>
<trkpt lat="48.327806667" lon="16.384728333">
<time>2012-06-16T19:33:03Z</time>
 <fix>2d</fix>
 <sat>6</sat>
</trkpt>
<trkpt lat="48.327800000" lon="16.384721667">
<time>2012-06-16T19:33:04Z</time>
 <fix>2d</fix>
 <sat>6</sat>
</trkpt>
<trkpt lat="48.327791667" lon="16.384716667">
<time>2012-06-16T19:33:05Z</time>
 <fix>2d</fix>
 <sat>6</sat>
</trkpt>
<trkpt lat="48.327783333" lon="16.384711667">
<time>2012-06-16T19:33:06Z</time>
 <fix>2d</fix>
 <sat>6</sat>
</trkpt>
<trkpt lat="48.327775000" lon="16.384698333">
<time>2012-06-16T19:33:07Z</time>
 <fix>2d</fix>
 <sat>6</sat>
</trkpt>
<trkpt lat="48.327770000" lon="16.384693333">
<time>2012-06-16T19:33:08Z</time>
 <fix>2d</fix>
 <sat>6</sat>
</trkpt>
<trkpt lat="48.327765000" lon="16.384693333">
<time>2012-06-16T19:33:09Z</time>
 <fix>2d</fix>
 <sat>6</sat>
</trkpt>
<trkpt lat="48.327760000" lon="16.384693333">
<time>2012-06-16T19:33:10Z</time>
 <fix>2d</fix>
 <sat>6</sat>
</trkpt>
<trkpt lat="48.327756667" lon="16.384688333">
<time>2012-06-16T19:33:11Z</time>
 <fix>2d</fix>
 <sat>5</sat>
</trkpt>
<trkpt lat="48.327756667" lon="16.384681667">
<time>2012-06-16T19:33:12Z</time>
 <fix>2d</fix>
 <sat>5</sat>
</trkpt>
<trkpt lat="48.327753333" lon="16.384676667">
<time>2012-06-16T19:33:13Z</time>
 <fix>2d</fix>
 <sat>5</sat>
</trkpt>
<trkpt lat="48.327746667" lon="16.384673333">
<time>2012-06-16T19:33:14Z</time>
 <fix>2d</fix>
 <sat>6</sat>
</trkpt>
<trkpt lat="48.327741667" lon="16.384668333">
<time>2012-06-16T19:33:15Z</time>
 <fix>2d</fix>
 <sat>6</sat>
</trkpt>
<trkpt lat="48.327731667" lon="16.384668333">
<time>2012-06-16T19:33:16Z</time>
 <fix>2d</fix>
 <sat>6</sat>
</trkpt>
<trkpt lat="48.327723333" lon="16.384665000">
<time>2012-06-16T19:33:17Z</time>
 <fix>2d</fix>
 <sat>6</sat>
</trkpt>
<trkpt lat="48.327718333" lon="16.384660000">
<time>2012-06-16T19:33:18Z</time>
 <fix>2d</fix>
 <sat>6</sat>
</trkpt>
<trkpt lat="48.327710000" lon="16.384660000">
<time>2012-06-16T19:33:19Z</time>
 <fix>2d</fix>
 <sat>6</sat>
</trkpt>
<trkpt lat="48.327701667" lon="16.384665000">
<time>2012-06-16T19:33:20Z</time>
 <fix>2d</fix>
 <sat>6</sat>
</trkpt>
<trkpt lat="48.327691667" lon="16.384660000">
<time>2012-06-16T19:33:21Z</time>
 <fix>2d</fix>
 <sat>6</sat>
</trkpt>
<trkpt lat="48.327691667" lon="16.384660000">
<time>2012-06-16T19:33:22Z</time>
 <fix>2d</fix>
 <sat>6</sat>
</trkpt>
<trkpt lat="48.327691667" lon="16.384660000">
<time>2012-06-16T19:33:23Z</time>
 <fix>2d</fix>
 <sat>6</sat>
</trkpt>
<trkpt lat="48.327690000" lon="16.384665000">
<time>2012-06-16T19:33:24Z</time>
 <fix>2d</fix>
 <sat>6</sat>
</trkpt>
<trkpt lat="48.327691667" lon="16.384665000">
<time>2012-06-16T19:33:25Z</time>
 <fix>2d</fix>
 <sat>6</sat>
</trkpt>
<trkpt lat="48.327688333" lon="16.384660000">
<time>2012-06-16T19:33:26Z</time>
 <fix>2d</fix>
 <sat>6</sat>
</trkpt>
<trkpt lat="48.327686667" lon="16.384663333">
<time>2012-06-16T19:33:27Z</time>
 <fix>2d</fix>
 <sat>6</sat>
</trkpt>
<trkpt lat="48.327686667" lon="16.384665000">
<time>2012-06-16T19:33:28Z</time>
 <fix>2d</fix>
 <sat>6</sat>
</trkpt>
<trkpt lat="48.327675000" lon="16.384666667">
<time>2012-06-16T19:33:29Z</time>
 <fix>2d</fix>
 <sat>6</sat>
</trkpt>
<trkpt lat="48.327663333" lon="16.384668333">
<time>2012-06-16T19:33:30Z</time>
 <fix>2d</fix>
 <sat>6</sat>
</trkpt>
<trkpt lat="48.327653333" lon="16.384666667">
<time>2012-06-16T19:33:31Z</time>
 <fix>2d</fix>
 <sat>6</sat>
</trkpt>
<trkpt lat="48.327643333" lon="16.384665000">
<time>2012-06-16T19:33:32Z</time>
 <fix>2d</fix>
 <sat>6</sat>
</trkpt>
<trkpt lat="48.327640000" lon="16.384665000">
<time>2012-06-16T19:33:33Z</time>
 <fix>2d</fix>
 <sat>6</sat>
</trkpt>
<trkpt lat="48.327633333" lon="16.384663333">
<time>2012-06-16T19:33:34Z</time>
 <fix>2d</fix>
 <sat>6</sat>
</trkpt>
<trkpt lat="48.327626667" lon="16.384660000">
<time>2012-06-16T19:33:35Z</time>
 <fix>2d</fix>
 <sat>6</sat>
</trkpt>
<trkpt lat="48.327618333" lon="16.384658333">
<time>2012-06-16T19:33:36Z</time>
 <fix>2d</fix>
 <sat>6</sat>
</trkpt>
<trkpt lat="48.327611667" lon="16.384653333">
<time>2012-06-16T19:33:37Z</time>
 <fix>2d</fix>
 <sat>6</sat>
</trkpt>
<trkpt lat="48.327603333" lon="16.384646667">
<time>2012-06-16T19:33:38Z</time>
 <fix>2d</fix>
 <sat>6</sat>
</trkpt>
<trkpt lat="48.327585000" lon="16.384653333">
<time>2012-06-16T19:33:39Z</time>
 <fix>2d</fix>
 <sat>6</sat>
</trkpt>
<trkpt lat="48.327575000" lon="16.384651667">
<time>2012-06-16T19:33:40Z</time>
 <fix>2d</fix>
 <sat>6</sat>
</trkpt>
<trkpt lat="48.327563333" lon="16.384653333">
<time>2012-06-16T19:33:41Z</time>
 <fix>2d</fix>
 <sat>6</sat>
</trkpt>
<trkpt lat="48.327550000" lon="16.384645000">
<time>2012-06-16T19:33:42Z</time>
 <fix>2d</fix>
 <sat>6</sat>
</trkpt>
<trkpt lat="48.327541667" lon="16.384635000">
<time>2012-06-16T19:33:43Z</time>
 <fix>2d</fix>
 <sat>6</sat>
</trkpt>
<trkpt lat="48.327533333" lon="16.384625000">
<time>2012-06-16T19:33:44Z</time>
 <fix>2d</fix>
 <sat>6</sat>
</trkpt>
<trkpt lat="48.327525000" lon="16.384623333">
<time>2012-06-16T19:33:45Z</time>
 <fix>2d</fix>
 <sat>6</sat>
</trkpt>
<trkpt lat="48.327513333" lon="16.384621667">
<time>2012-06-16T19:33:46Z</time>
 <fix>2d</fix>
 <sat>6</sat>
</trkpt>
<trkpt lat="48.327503333" lon="16.384618333">
<time>2012-06-16T19:33:47Z</time>
 <fix>2d</fix>
 <sat>6</sat>
</trkpt>
<trkpt lat="48.327493333" lon="16.384613333">
<time>2012-06-16T19:33:48Z</time>
 <fix>2d</fix>
 <sat>6</sat>
</trkpt>
<trkpt lat="48.327481667" lon="16.384616667">
<time>2012-06-16T19:33:49Z</time>
 <fix>2d</fix>
 <sat>6</sat>
</trkpt>
<trkpt lat="48.327476667" lon="16.384621667">
<time>2012-06-16T19:33:50Z</time>
 <fix>2d</fix>
 <sat>6</sat>
</trkpt>
<trkpt lat="48.327471667" lon="16.384625000">
<time>2012-06-16T19:33:51Z</time>
 <fix>2d</fix>
 <sat>6</sat>
</trkpt>
<trkpt lat="48.327455000" lon="16.384628333">
<time>2012-06-16T19:33:52Z</time>
 <fix>2d</fix>
 <sat>6</sat>
</trkpt>
<trkpt lat="48.327441667" lon="16.384623333">
<time>2012-06-16T19:33:53Z</time>
 <fix>2d</fix>
 <sat>6</sat>
</trkpt>
<trkpt lat="48.327428333" lon="16.384621667">
<time>2012-06-16T19:33:54Z</time>
 <fix>2d</fix>
 <sat>6</sat>
</trkpt>
<trkpt lat="48.327420000" lon="16.384620000">
<time>2012-06-16T19:33:55Z</time>
 <fix>2d</fix>
 <sat>6</sat>
</trkpt>
<trkpt lat="48.327411667" lon="16.384620000">
<time>2012-06-16T19:33:56Z</time>
 <fix>2d</fix>
 <sat>6</sat>
</trkpt>
<trkpt lat="48.327408333" lon="16.384616667">
<time>2012-06-16T19:33:57Z</time>
 <fix>2d</fix>
 <sat>6</sat>
</trkpt>
<trkpt lat="48.327400000" lon="16.384618333">
<time>2012-06-16T19:33:58Z</time>
 <fix>2d</fix>
 <sat>5</sat>
</trkpt>
<trkpt lat="48.327395000" lon="16.384613333">
<time>2012-06-16T19:33:59Z</time>
 <fix>2d</fix>
 <sat>5</sat>
</trkpt>
<trkpt lat="48.327390000" lon="16.384608333">
<time>2012-06-16T19:34:00Z</time>
 <fix>2d</fix>
 <sat>5</sat>
</trkpt>
<trkpt lat="48.327380000" lon="16.384613333">
<time>2012-06-16T19:34:01Z</time>
 <fix>2d</fix>
 <sat>5</sat>
</trkpt>
<trkpt lat="48.327373333" lon="16.384611667">
<time>2012-06-16T19:34:02Z</time>
 <fix>2d</fix>
 <sat>5</sat>
</trkpt>
<trkpt lat="48.327368333" lon="16.384611667">
<time>2012-06-16T19:34:03Z</time>
 <fix>2d</fix>
 <sat>5</sat>
</trkpt>
<trkpt lat="48.327361667" lon="16.384613333">
<time>2012-06-16T19:34:04Z</time>
 <fix>2d</fix>
 <sat>5</sat>
</trkpt>
<trkpt lat="48.327353333" lon="16.384620000">
<time>2012-06-16T19:34:05Z</time>
 <fix>2d</fix>
 <sat>5</sat>
</trkpt>
<trkpt lat="48.327343333" lon="16.384630000">
<time>2012-06-16T19:34:06Z</time>
 <fix>2d</fix>
 <sat>5</sat>
</trkpt>
<trkpt lat="48.327335000" lon="16.384635000">
<time>2012-06-16T19:34:07Z</time>
 <fix>2d</fix>
 <sat>5</sat>
</trkpt>
<trkpt lat="48.327328333" lon="16.384630000">
<time>2012-06-16T19:34:08Z</time>
 <fix>2d</fix>
 <sat>5</sat>
</trkpt>
<trkpt lat="48.327320000" lon="16.384633333">
<time>2012-06-16T19:34:09Z</time>
 <fix>2d</fix>
 <sat>5</sat>
</trkpt>
<trkpt lat="48.327313333" lon="16.384641667">
<time>2012-06-16T19:34:10Z</time>
 <fix>2d</fix>
 <sat>5</sat>
</trkpt>
<trkpt lat="48.327305000" lon="16.384653333">
<time>2012-06-16T19:34:11Z</time>
 <fix>2d</fix>
 <sat>5</sat>
</trkpt>
<trkpt lat="48.327295000" lon="16.384660000">
<time>2012-06-16T19:34:12Z</time>
 <fix>2d</fix>
 <sat>5</sat>
</trkpt>
<trkpt lat="48.327276667" lon="16.384676667">
<time>2012-06-16T19:34:13Z</time>
 <fix>2d</fix>
 <sat>5</sat>
</trkpt>
<trkpt lat="48.327271667" lon="16.384686667">
<time>2012-06-16T19:34:14Z</time>
 <fix>2d</fix>
 <sat>5</sat>
</trkpt>
<trkpt lat="48.327266667" lon="16.384686667">
<time>2012-06-16T19:34:15Z</time>
 <fix>2d</fix>
 <sat>5</sat>
</trkpt>
<trkpt lat="48.327260000" lon="16.384683333">
<time>2012-06-16T19:34:16Z</time>
 <fix>2d</fix>
 <sat>5</sat>
</trkpt>
<trkpt lat="48.327246667" lon="16.384688333">
<time>2012-06-16T19:34:17Z</time>
 <fix>2d</fix>
 <sat>5</sat>
</trkpt>
<trkpt lat="48.327233333" lon="16.384696667">
<time>2012-06-16T19:34:18Z</time>
 <fix>2d</fix>
 <sat>5</sat>
</trkpt>
<trkpt lat="48.327220000" lon="16.384705000">
<time>2012-06-16T19:34:19Z</time>
 <fix>2d</fix>
 <sat>5</sat>
</trkpt>
<trkpt lat="48.327208333" lon="16.384710000">
<time>2012-06-16T19:34:20Z</time>
 <fix>2d</fix>
 <sat>5</sat>
</trkpt>
<trkpt lat="48.327195000" lon="16.384716667">
<time>2012-06-16T19:34:21Z</time>
 <fix>2d</fix>
 <sat>5</sat>
</trkpt>
<trkpt lat="48.327183333" lon="16.384716667">
<time>2012-06-16T19:34:22Z</time>
 <fix>2d</fix>
 <sat>5</sat>
</trkpt>
<trkpt lat="48.327175000" lon="16.384720000">
<time>2012-06-16T19:34:23Z</time>
 <fix>2d</fix>
 <sat>5</sat>
</trkpt>
<trkpt lat="48.327170000" lon="16.384721667">
<time>2012-06-16T19:34:24Z</time>
 <fix>2d</fix>
 <sat>5</sat>
</trkpt>
<trkpt lat="48.327158333" lon="16.384723333">
<time>2012-06-16T19:34:25Z</time>
 <fix>2d</fix>
 <sat>5</sat>
</trkpt>
<trkpt lat="48.327155000" lon="16.384723333">
<time>2012-06-16T19:34:26Z</time>
 <fix>2d</fix>
 <sat>5</sat>
</trkpt>
<trkpt lat="48.327146667" lon="16.384723333">
<time>2012-06-16T19:34:27Z</time>
 <fix>2d</fix>
 <sat>5</sat>
</trkpt>
<trkpt lat="48.327138333" lon="16.384723333">
<time>2012-06-16T19:34:28Z</time>
 <fix>2d</fix>
 <sat>5</sat>
</trkpt>
<trkpt lat="48.327130000" lon="16.384728333">
<time>2012-06-16T19:34:29Z</time>
 <fix>2d</fix>
 <sat>5</sat>
</trkpt>
<trkpt lat="48.327126667" lon="16.384723333">
<time>2012-06-16T19:34:30Z</time>
 <fix>2d</fix>
 <sat>5</sat>
</trkpt>
<trkpt lat="48.327125000" lon="16.384723333">
<time>2012-06-16T19:34:31Z</time>
 <fix>2d</fix>
 <sat>5</sat>
</trkpt>
<trkpt lat="48.327120000" lon="16.384721667">
<time>2012-06-16T19:34:32Z</time>
 <fix>2d</fix>
 <sat>5</sat>
</trkpt>
<trkpt lat="48.327120000" lon="16.384723333">
<time>2012-06-16T19:34:33Z</time>
 <fix>2d</fix>
 <sat>5</sat>
</trkpt>
<trkpt lat="48.327120000" lon="16.384723333">
<time>2012-06-16T19:34:34Z</time>
 <fix>2d</fix>
 <sat>5</sat>
</trkpt>
<trkpt lat="48.327110000" lon="16.384728333">
<time>2012-06-16T19:34:35Z</time>
 <fix>2d</fix>
 <sat>5</sat>
</trkpt>
<trkpt lat="48.327098333" lon="16.384731667">
<time>2012-06-16T19:34:36Z</time>
 <fix>2d</fix>
 <sat>5</sat>
</trkpt>
<trkpt lat="48.327088333" lon="16.384736667">
<time>2012-06-16T19:34:37Z</time>
 <fix>2d</fix>
 <sat>5</sat>
</trkpt>
<trkpt lat="48.327078333" lon="16.384733333">
<time>2012-06-16T19:34:38Z</time>
 <fix>2d</fix>
 <sat>5</sat>
</trkpt>
<trkpt lat="48.327073333" lon="16.384728333">
<time>2012-06-16T19:34:39Z</time>
 <fix>2d</fix>
 <sat>5</sat>
</trkpt>
<trkpt lat="48.327068333" lon="16.384728333">
<time>2012-06-16T19:34:40Z</time>
 <fix>2d</fix>
 <sat>5</sat>
</trkpt>
<trkpt lat="48.327056667" lon="16.384738333">
<time>2012-06-16T19:34:41Z</time>
 <fix>2d</fix>
 <sat>5</sat>
</trkpt>
<trkpt lat="48.327048333" lon="16.384743333">
<time>2012-06-16T19:34:42Z</time>
 <fix>2d</fix>
 <sat>5</sat>
</trkpt>
<trkpt lat="48.327040000" lon="16.384748333">
<time>2012-06-16T19:34:43Z</time>
 <fix>2d</fix>
 <sat>5</sat>
</trkpt>
<trkpt lat="48.327026667" lon="16.384746667">
<time>2012-06-16T19:34:44Z</time>
 <fix>2d</fix>
 <sat>5</sat>
</trkpt>
<trkpt lat="48.327016667" lon="16.384748333">
<time>2012-06-16T19:34:45Z</time>
 <fix>2d</fix>
 <sat>5</sat>
</trkpt>
<trkpt lat="48.327008333" lon="16.384740000">
<time>2012-06-16T19:34:46Z</time>
 <fix>2d</fix>
 <sat>5</sat>
</trkpt>
<trkpt lat="48.327001667" lon="16.384740000">
<time>2012-06-16T19:34:47Z</time>
 <fix>2d</fix>
 <sat>6</sat>
</trkpt>
<trkpt lat="48.326996667" lon="16.384746667">
<time>2012-06-16T19:34:48Z</time>
 <fix>2d</fix>
 <sat>6</sat>
</trkpt>
<trkpt lat="48.326986667" lon="16.384756667">
<time>2012-06-16T19:34:49Z</time>
 <fix>2d</fix>
 <sat>6</sat>
</trkpt>
<trkpt lat="48.326978333" lon="16.384768333">
<time>2012-06-16T19:34:50Z</time>
 <fix>2d</fix>
 <sat>6</sat>
</trkpt>
<trkpt lat="48.326958333" lon="16.384778333">
<time>2012-06-16T19:34:51Z</time>
 <fix>2d</fix>
 <sat>6</sat>
</trkpt>
<trkpt lat="48.326946667" lon="16.384780000">
<time>2012-06-16T19:34:52Z</time>
 <fix>2d</fix>
 <sat>6</sat>
</trkpt>
<trkpt lat="48.326936667" lon="16.384785000">
<time>2012-06-16T19:34:53Z</time>
 <fix>2d</fix>
 <sat>5</sat>
</trkpt>
<trkpt lat="48.326925000" lon="16.384786667">
<time>2012-06-16T19:34:54Z</time>
 <fix>2d</fix>
 <sat>5</sat>
</trkpt>
<trkpt lat="48.326913333" lon="16.384791667">
<time>2012-06-16T19:34:55Z</time>
 <fix>2d</fix>
 <sat>5</sat>
</trkpt>
<trkpt lat="48.326898333" lon="16.384791667">
<time>2012-06-16T19:34:56Z</time>
 <fix>2d</fix>
 <sat>5</sat>
</trkpt>
<trkpt lat="48.326886667" lon="16.384785000">
<time>2012-06-16T19:34:57Z</time>
 <fix>2d</fix>
 <sat>5</sat>
</trkpt>
<trkpt lat="48.326878333" lon="16.384791667">
<time>2012-06-16T19:34:58Z</time>
 <fix>2d</fix>
 <sat>5</sat>
</trkpt>
<trkpt lat="48.326866667" lon="16.384800000">
<time>2012-06-16T19:34:59Z</time>
 <fix>2d</fix>
 <sat>5</sat>
</trkpt>
<trkpt lat="48.326860000" lon="16.384803333">
<time>2012-06-16T19:35:00Z</time>
 <fix>2d</fix>
 <sat>5</sat>
</trkpt>
<trkpt lat="48.326850000" lon="16.384813333">
<time>2012-06-16T19:35:01Z</time>
 <fix>2d</fix>
 <sat>6</sat>
</trkpt>
<trkpt lat="48.326843333" lon="16.384820000">
<time>2012-06-16T19:35:02Z</time>
 <fix>2d</fix>
 <sat>6</sat>
</trkpt>
<trkpt lat="48.326835000" lon="16.384836667">
<time>2012-06-16T19:35:03Z</time>
 <fix>2d</fix>
 <sat>6</sat>
</trkpt>
<trkpt lat="48.326830000" lon="16.384850000">
<time>2012-06-16T19:35:04Z</time>
 <fix>2d</fix>
 <sat>6</sat>
</trkpt>
<trkpt lat="48.326815000" lon="16.384855000">
<time>2012-06-16T19:35:05Z</time>
 <fix>2d</fix>
 <sat>6</sat>
</trkpt>
<trkpt lat="48.326801667" lon="16.384865000">
<time>2012-06-16T19:35:06Z</time>
 <fix>2d</fix>
 <sat>6</sat>
</trkpt>
<trkpt lat="48.326788333" lon="16.384861667">
<time>2012-06-16T19:35:07Z</time>
 <fix>2d</fix>
 <sat>6</sat>
</trkpt>
<trkpt lat="48.326780000" lon="16.384861667">
<time>2012-06-16T19:35:08Z</time>
 <fix>2d</fix>
 <sat>6</sat>
</trkpt>
<trkpt lat="48.326766667" lon="16.384855000">
<time>2012-06-16T19:35:09Z</time>
 <fix>2d</fix>
 <sat>6</sat>
</trkpt>
<trkpt lat="48.326758333" lon="16.384846667">
<time>2012-06-16T19:35:10Z</time>
 <fix>2d</fix>
 <sat>6</sat>
</trkpt>
<trkpt lat="48.326751667" lon="16.384841667">
<time>2012-06-16T19:35:11Z</time>
 <fix>2d</fix>
 <sat>6</sat>
</trkpt>
<trkpt lat="48.326746667" lon="16.384841667">
<time>2012-06-16T19:35:12Z</time>
 <fix>2d</fix>
 <sat>6</sat>
</trkpt>
<trkpt lat="48.326740000" lon="16.384841667">
<time>2012-06-16T19:35:13Z</time>
 <fix>2d</fix>
 <sat>6</sat>
</trkpt>
<trkpt lat="48.326728333" lon="16.384850000">
<time>2012-06-16T19:35:14Z</time>
 <fix>2d</fix>
 <sat>6</sat>
</trkpt>
<trkpt lat="48.326725000" lon="16.384855000">
<time>2012-06-16T19:35:15Z</time>
 <fix>2d</fix>
 <sat>6</sat>
</trkpt>
<trkpt lat="48.326725000" lon="16.384860000">
<time>2012-06-16T19:35:16Z</time>
 <fix>2d</fix>
 <sat>6</sat>
</trkpt>
<trkpt lat="48.326725000" lon="16.384856667">
<time>2012-06-16T19:35:17Z</time>
 <fix>2d</fix>
 <sat>6</sat>
</trkpt>
<trkpt lat="48.326725000" lon="16.384855000">
<time>2012-06-16T19:35:18Z</time>
 <fix>2d</fix>
 <sat>6</sat>
</trkpt>
<trkpt lat="48.326721667" lon="16.384853333">
<time>2012-06-16T19:35:19Z</time>
 <fix>2d</fix>
 <sat>6</sat>
</trkpt>
<trkpt lat="48.326713333" lon="16.384855000">
<time>2012-06-16T19:35:20Z</time>
 <fix>2d</fix>
 <sat>6</sat>
</trkpt>
<trkpt lat="48.326696667" lon="16.384861667">
<time>2012-06-16T19:35:21Z</time>
 <fix>2d</fix>
 <sat>6</sat>
</trkpt>
<trkpt lat="48.326678333" lon="16.384866667">
<time>2012-06-16T19:35:22Z</time>
 <fix>2d</fix>
 <sat>6</sat>
</trkpt>
<trkpt lat="48.326663333" lon="16.384875000">
<time>2012-06-16T19:35:23Z</time>
 <fix>2d</fix>
 <sat>6</sat>
</trkpt>
<trkpt lat="48.326650000" lon="16.384883333">
<time>2012-06-16T19:35:24Z</time>
 <fix>2d</fix>
 <sat>6</sat>
</trkpt>
<trkpt lat="48.326641667" lon="16.384888333">
<time>2012-06-16T19:35:25Z</time>
 <fix>2d</fix>
 <sat>6</sat>
</trkpt>
<trkpt lat="48.326635000" lon="16.384888333">
<time>2012-06-16T19:35:26Z</time>
 <fix>2d</fix>
 <sat>6</sat>
</trkpt>
<trkpt lat="48.326623333" lon="16.384895000">
<time>2012-06-16T19:35:27Z</time>
 <fix>2d</fix>
 <sat>6</sat>
</trkpt>
<trkpt lat="48.326611667" lon="16.384906667">
<time>2012-06-16T19:35:28Z</time>
 <fix>2d</fix>
 <sat>6</sat>
</trkpt>
<trkpt lat="48.326598333" lon="16.384913333">
<time>2012-06-16T19:35:29Z</time>
 <fix>2d</fix>
 <sat>5</sat>
</trkpt>
<trkpt lat="48.326580000" lon="16.384901667">
<time>2012-06-16T19:35:30Z</time>
 <fix>2d</fix>
 <sat>6</sat>
</trkpt>
<trkpt lat="48.326573333" lon="16.384900000">
<time>2012-06-16T19:35:31Z</time>
 <fix>2d</fix>
 <sat>6</sat>
</trkpt>
<trkpt lat="48.326563333" lon="16.384893333">
<time>2012-06-16T19:35:32Z</time>
 <fix>2d</fix>
 <sat>7</sat>
</trkpt>
<trkpt lat="48.326558333" lon="16.384883333">
<time>2012-06-16T19:35:33Z</time>
 <fix>2d</fix>
 <sat>7</sat>
</trkpt>
<trkpt lat="48.326548333" lon="16.384875000">
<time>2012-06-16T19:35:34Z</time>
 <fix>2d</fix>
 <sat>7</sat>
</trkpt>
<trkpt lat="48.326540000" lon="16.384861667">
<time>2012-06-16T19:35:35Z</time>
 <fix>2d</fix>
 <sat>7</sat>
</trkpt>
<trkpt lat="48.326535000" lon="16.384850000">
<time>2012-06-16T19:35:36Z</time>
 <fix>2d</fix>
 <sat>7</sat>
</trkpt>
<trkpt lat="48.326526667" lon="16.384843333">
<time>2012-06-16T19:35:37Z</time>
 <fix>2d</fix>
 <sat>7</sat>
</trkpt>
<trkpt lat="48.326520000" lon="16.384836667">
<time>2012-06-16T19:35:38Z</time>
 <fix>2d</fix>
 <sat>7</sat>
</trkpt>
<trkpt lat="48.326515000" lon="16.384830000">
<time>2012-06-16T19:35:39Z</time>
 <fix>2d</fix>
 <sat>7</sat>
</trkpt>
<trkpt lat="48.326505000" lon="16.384820000">
<time>2012-06-16T19:35:40Z</time>
 <fix>2d</fix>
 <sat>7</sat>
</trkpt>
<trkpt lat="48.326500000" lon="16.384801667">
<time>2012-06-16T19:35:41Z</time>
 <fix>2d</fix>
 <sat>7</sat>
</trkpt>
<trkpt lat="48.326493333" lon="16.384790000">
<time>2012-06-16T19:35:42Z</time>
 <fix>2d</fix>
 <sat>7</sat>
</trkpt>
<trkpt lat="48.326480000" lon="16.384783333">
<time>2012-06-16T19:35:43Z</time>
 <fix>2d</fix>
 <sat>7</sat>
</trkpt>
<trkpt lat="48.326468333" lon="16.384773333">
<time>2012-06-16T19:35:44Z</time>
 <fix>2d</fix>
 <sat>7</sat>
</trkpt>
<trkpt lat="48.326458333" lon="16.384765000">
<time>2012-06-16T19:35:45Z</time>
 <fix>2d</fix>
 <sat>7</sat>
</trkpt>
<trkpt lat="48.326448333" lon="16.384756667">
<time>2012-06-16T19:35:46Z</time>
 <fix>2d</fix>
 <sat>8</sat>
</trkpt>
<trkpt lat="48.326436667" lon="16.384751667">
<time>2012-06-16T19:35:47Z</time>
 <fix>2d</fix>
 <sat>8</sat>
</trkpt>
<trkpt lat="48.326428333" lon="16.384743333">
<time>2012-06-16T19:35:48Z</time>
 <fix>2d</fix>
 <sat>8</sat>
</trkpt>
<trkpt lat="48.326421667" lon="16.384735000">
<time>2012-06-16T19:35:49Z</time>
 <fix>2d</fix>
 <sat>8</sat>
</trkpt>
<trkpt lat="48.326416667" lon="16.384728333">
<time>2012-06-16T19:35:50Z</time>
 <fix>2d</fix>
 <sat>8</sat>
</trkpt>
<trkpt lat="48.326406667" lon="16.384726667">
<time>2012-06-16T19:35:51Z</time>
 <fix>2d</fix>
 <sat>8</sat>
</trkpt>
<trkpt lat="48.326396667" lon="16.384723333">
<time>2012-06-16T19:35:52Z</time>
 <fix>2d</fix>
 <sat>8</sat>
</trkpt>
<trkpt lat="48.326390000" lon="16.384716667">
<time>2012-06-16T19:35:53Z</time>
 <fix>2d</fix>
 <sat>8</sat>
</trkpt>
<trkpt lat="48.326381667" lon="16.384715000">
<time>2012-06-16T19:35:54Z</time>
 <fix>2d</fix>
 <sat>8</sat>
</trkpt>
<trkpt lat="48.326373333" lon="16.384705000">
<time>2012-06-16T19:35:55Z</time>
 <fix>2d</fix>
 <sat>8</sat>
</trkpt>
<trkpt lat="48.326365000" lon="16.384696667">
<time>2012-06-16T19:35:56Z</time>
 <fix>2d</fix>
 <sat>8</sat>
</trkpt>
<trkpt lat="48.326358333" lon="16.384691667">
<time>2012-06-16T19:35:57Z</time>
 <fix>2d</fix>
 <sat>8</sat>
</trkpt>
<trkpt lat="48.326351667" lon="16.384688333">
<time>2012-06-16T19:35:58Z</time>
 <fix>2d</fix>
 <sat>8</sat>
</trkpt>
<trkpt lat="48.326338333" lon="16.384688333">
<time>2012-06-16T19:35:59Z</time>
 <fix>2d</fix>
 <sat>8</sat>
</trkpt>
<trkpt lat="48.326330000" lon="16.384676667">
<time>2012-06-16T19:36:00Z</time>
 <fix>2d</fix>
 <sat>8</sat>
</trkpt>
<trkpt lat="48.326325000" lon="16.384681667">
<time>2012-06-16T19:36:01Z</time>
 <fix>2d</fix>
 <sat>8</sat>
</trkpt>
<trkpt lat="48.326318333" lon="16.384676667">
<time>2012-06-16T19:36:02Z</time>
 <fix>2d</fix>
 <sat>7</sat>
</trkpt>
<trkpt lat="48.326301667" lon="16.384666667">
<time>2012-06-16T19:36:03Z</time>
 <fix>2d</fix>
 <sat>7</sat>
</trkpt>
<trkpt lat="48.326283333" lon="16.384656667">
<time>2012-06-16T19:36:04Z</time>
 <fix>2d</fix>
 <sat>7</sat>
</trkpt>
<trkpt lat="48.326268333" lon="16.384646667">
<time>2012-06-16T19:36:05Z</time>
 <fix>2d</fix>
 <sat>7</sat>
</trkpt>
<trkpt lat="48.326251667" lon="16.384648333">
<time>2012-06-16T19:36:06Z</time>
 <fix>2d</fix>
 <sat>7</sat>
</trkpt>
<trkpt lat="48.326236667" lon="16.384641667">
<time>2012-06-16T19:36:07Z</time>
 <fix>2d</fix>
 <sat>8</sat>
</trkpt>
<trkpt lat="48.326231667" lon="16.384640000">
<time>2012-06-16T19:36:08Z</time>
 <fix>2d</fix>
 <sat>8</sat>
</trkpt>
<trkpt lat="48.326223333" lon="16.384641667">
<time>2012-06-16T19:36:09Z</time>
 <fix>2d</fix>
 <sat>8</sat>
</trkpt>
<trkpt lat="48.326218333" lon="16.384648333">
<time>2012-06-16T19:36:10Z</time>
 <fix>2d</fix>
 <sat>8</sat>
</trkpt>
<trkpt lat="48.326213333" lon="16.384651667">
<time>2012-06-16T19:36:11Z</time>
 <fix>2d</fix>
 <sat>8</sat>
</trkpt>
<trkpt lat="48.326208333" lon="16.384653333">
<time>2012-06-16T19:36:12Z</time>
 <fix>2d</fix>
 <sat>8</sat>
</trkpt>
<trkpt lat="48.326198333" lon="16.384660000">
<time>2012-06-16T19:36:13Z</time>
 <fix>2d</fix>
 <sat>8</sat>
</trkpt>
<trkpt lat="48.326191667" lon="16.384665000">
<time>2012-06-16T19:36:14Z</time>
 <fix>2d</fix>
 <sat>8</sat>
</trkpt>
<trkpt lat="48.326188333" lon="16.384671667">
<time>2012-06-16T19:36:15Z</time>
 <fix>2d</fix>
 <sat>8</sat>
</trkpt>
<trkpt lat="48.326181667" lon="16.384668333">
<time>2012-06-16T19:36:16Z</time>
 <fix>2d</fix>
 <sat>7</sat>
</trkpt>
<trkpt lat="48.326173333" lon="16.384668333">
<time>2012-06-16T19:36:17Z</time>
 <fix>2d</fix>
 <sat>7</sat>
</trkpt>
<trkpt lat="48.326166667" lon="16.384668333">
<time>2012-06-16T19:36:18Z</time>
 <fix>2d</fix>
 <sat>7</sat>
</trkpt>
<trkpt lat="48.326160000" lon="16.384665000">
<time>2012-06-16T19:36:19Z</time>
 <fix>2d</fix>
 <sat>7</sat>
</trkpt>
<trkpt lat="48.326145000" lon="16.384668333">
<time>2012-06-16T19:36:20Z</time>
 <fix>2d</fix>
 <sat>7</sat>
</trkpt>
<trkpt lat="48.326136667" lon="16.384668333">
<time>2012-06-16T19:36:21Z</time>
 <fix>2d</fix>
 <sat>8</sat>
</trkpt>
<trkpt lat="48.326120000" lon="16.384680000">
<time>2012-06-16T19:36:22Z</time>
 <fix>2d</fix>
 <sat>8</sat>
</trkpt>
<trkpt lat="48.326110000" lon="16.384673333">
<time>2012-06-16T19:36:23Z</time>
 <fix>2d</fix>
 <sat>8</sat>
</trkpt>
<trkpt lat="48.326105000" lon="16.384668333">
<time>2012-06-16T19:36:24Z</time>
 <fix>2d</fix>
 <sat>8</sat>
</trkpt>
<trkpt lat="48.326096667" lon="16.384665000">
<time>2012-06-16T19:36:25Z</time>
 <fix>2d</fix>
 <sat>8</sat>
</trkpt>
<trkpt lat="48.326088333" lon="16.384675000">
<time>2012-06-16T19:36:26Z</time>
 <fix>2d</fix>
 <sat>8</sat>
</trkpt>
<trkpt lat="48.326080000" lon="16.384676667">
<time>2012-06-16T19:36:27Z</time>
 <fix>2d</fix>
 <sat>8</sat>
</trkpt>
<trkpt lat="48.326068333" lon="16.384676667">
<time>2012-06-16T19:36:28Z</time>
 <fix>2d</fix>
 <sat>8</sat>
</trkpt>
<trkpt lat="48.326061667" lon="16.384685000">
<time>2012-06-16T19:36:29Z</time>
 <fix>2d</fix>
 <sat>8</sat>
</trkpt>
<trkpt lat="48.326051667" lon="16.384685000">
<time>2012-06-16T19:36:30Z</time>
 <fix>2d</fix>
 <sat>8</sat>
</trkpt>
<trkpt lat="48.326045000" lon="16.384688333">
<time>2012-06-16T19:36:31Z</time>
 <fix>2d</fix>
 <sat>8</sat>
</trkpt>
<trkpt lat="48.326036667" lon="16.384688333">
<time>2012-06-16T19:36:32Z</time>
 <fix>2d</fix>
 <sat>8</sat>
</trkpt>
<trkpt lat="48.326030000" lon="16.384685000">
<time>2012-06-16T19:36:33Z</time>
 <fix>2d</fix>
 <sat>8</sat>
</trkpt>
<trkpt lat="48.326018333" lon="16.384686667">
<time>2012-06-16T19:36:34Z</time>
 <fix>2d</fix>
 <sat>8</sat>
</trkpt>
<trkpt lat="48.326013333" lon="16.384693333">
<time>2012-06-16T19:36:35Z</time>
 <fix>2d</fix>
 <sat>8</sat>
</trkpt>
<trkpt lat="48.326005000" lon="16.384693333">
<time>2012-06-16T19:36:36Z</time>
 <fix>2d</fix>
 <sat>8</sat>
</trkpt>
<trkpt lat="48.325995000" lon="16.384690000">
<time>2012-06-16T19:36:37Z</time>
 <fix>2d</fix>
 <sat>8</sat>
</trkpt>
<trkpt lat="48.325986667" lon="16.384686667">
<time>2012-06-16T19:36:38Z</time>
 <fix>2d</fix>
 <sat>8</sat>
</trkpt>
<trkpt lat="48.325975000" lon="16.384683333">
<time>2012-06-16T19:36:39Z</time>
 <fix>2d</fix>
 <sat>8</sat>
</trkpt>
<trkpt lat="48.325966667" lon="16.384681667">
<time>2012-06-16T19:36:40Z</time>
 <fix>2d</fix>
 <sat>7</sat>
</trkpt>
<trkpt lat="48.325963333" lon="16.384676667">
<time>2012-06-16T19:36:41Z</time>
 <fix>2d</fix>
 <sat>7</sat>
</trkpt>
<trkpt lat="48.325953333" lon="16.384675000">
<time>2012-06-16T19:36:42Z</time>
 <fix>2d</fix>
 <sat>7</sat>
</trkpt>
<trkpt lat="48.325945000" lon="16.384673333">
<time>2012-06-16T19:36:43Z</time>
 <fix>2d</fix>
 <sat>7</sat>
</trkpt>
<trkpt lat="48.325943333" lon="16.384668333">
<time>2012-06-16T19:36:44Z</time>
 <fix>2d</fix>
 <sat>6</sat>
</trkpt>
<trkpt lat="48.325943333" lon="16.384660000">
<time>2012-06-16T19:36:45Z</time>
 <fix>2d</fix>
 <sat>6</sat>
</trkpt>
<trkpt lat="48.325935000" lon="16.384656667">
<time>2012-06-16T19:36:46Z</time>
 <fix>2d</fix>
 <sat>6</sat>
</trkpt>
<trkpt lat="48.325920000" lon="16.384653333">
<time>2012-06-16T19:36:47Z</time>
 <fix>2d</fix>
 <sat>6</sat>
</trkpt>
<trkpt lat="48.325910000" lon="16.384656667">
<time>2012-06-16T19:36:48Z</time>
 <fix>2d</fix>
 <sat>6</sat>
</trkpt>
<trkpt lat="48.325888333" lon="16.384660000">
<time>2012-06-16T19:36:49Z</time>
 <fix>2d</fix>
 <sat>6</sat>
</trkpt>
<trkpt lat="48.325875000" lon="16.384663333">
<time>2012-06-16T19:36:50Z</time>
 <fix>2d</fix>
 <sat>6</sat>
</trkpt>
<trkpt lat="48.325860000" lon="16.384668333">
<time>2012-06-16T19:36:51Z</time>
 <fix>2d</fix>
 <sat>6</sat>
</trkpt>
<trkpt lat="48.325851667" lon="16.384668333">
<time>2012-06-16T19:36:52Z</time>
 <fix>2d</fix>
 <sat>6</sat>
</trkpt>
<trkpt lat="48.325838333" lon="16.384675000">
<time>2012-06-16T19:36:53Z</time>
 <fix>2d</fix>
 <sat>6</sat>
</trkpt>
<trkpt lat="48.325820000" lon="16.384676667">
<time>2012-06-16T19:36:54Z</time>
 <fix>2d</fix>
 <sat>6</sat>
</trkpt>
<trkpt lat="48.325808333" lon="16.384681667">
<time>2012-06-16T19:36:55Z</time>
 <fix>2d</fix>
 <sat>6</sat>
</trkpt>
<trkpt lat="48.325803333" lon="16.384668333">
<time>2012-06-16T19:36:56Z</time>
 <fix>2d</fix>
 <sat>6</sat>
</trkpt>
<trkpt lat="48.325793333" lon="16.384665000">
<time>2012-06-16T19:36:57Z</time>
 <fix>2d</fix>
 <sat>6</sat>
</trkpt>
<trkpt lat="48.325783333" lon="16.384668333">
<time>2012-06-16T19:36:58Z</time>
 <fix>2d</fix>
 <sat>6</sat>
</trkpt>
<trkpt lat="48.325768333" lon="16.384675000">
<time>2012-06-16T19:36:59Z</time>
 <fix>2d</fix>
 <sat>6</sat>
</trkpt>
<trkpt lat="48.325755000" lon="16.384676667">
<time>2012-06-16T19:37:00Z</time>
 <fix>2d</fix>
 <sat>6</sat>
</trkpt>
<trkpt lat="48.325746667" lon="16.384673333">
<time>2012-06-16T19:37:01Z</time>
 <fix>2d</fix>
 <sat>6</sat>
</trkpt>
<trkpt lat="48.325741667" lon="16.384668333">
<time>2012-06-16T19:37:02Z</time>
 <fix>2d</fix>
 <sat>6</sat>
</trkpt>
<trkpt lat="48.325736667" lon="16.384668333">
<time>2012-06-16T19:37:03Z</time>
 <fix>2d</fix>
 <sat>6</sat>
</trkpt>
<trkpt lat="48.325730000" lon="16.384666667">
<time>2012-06-16T19:37:04Z</time>
 <fix>2d</fix>
 <sat>6</sat>
</trkpt>
<trkpt lat="48.325725000" lon="16.384663333">
<time>2012-06-16T19:37:05Z</time>
 <fix>2d</fix>
 <sat>6</sat>
</trkpt>
<trkpt lat="48.325715000" lon="16.384665000">
<time>2012-06-16T19:37:06Z</time>
 <fix>2d</fix>
 <sat>6</sat>
</trkpt>
<trkpt lat="48.325706667" lon="16.384668333">
<time>2012-06-16T19:37:07Z</time>
 <fix>2d</fix>
 <sat>6</sat>
</trkpt>
<trkpt lat="48.325698333" lon="16.384675000">
<time>2012-06-16T19:37:08Z</time>
 <fix>2d</fix>
 <sat>6</sat>
</trkpt>
<trkpt lat="48.325690000" lon="16.384675000">
<time>2012-06-16T19:37:09Z</time>
 <fix>2d</fix>
 <sat>7</sat>
</trkpt>
<trkpt lat="48.325678333" lon="16.384683333">
<time>2012-06-16T19:37:10Z</time>
 <fix>2d</fix>
 <sat>7</sat>
</trkpt>
<trkpt lat="48.325661667" lon="16.384700000">
<time>2012-06-16T19:37:11Z</time>
 <fix>2d</fix>
 <sat>7</sat>
</trkpt>
<trkpt lat="48.325648333" lon="16.384715000">
<time>2012-06-16T19:37:12Z</time>
 <fix>2d</fix>
 <sat>7</sat>
</trkpt>
<trkpt lat="48.325636667" lon="16.384728333">
<time>2012-06-16T19:37:13Z</time>
 <fix>2d</fix>
 <sat>7</sat>
</trkpt>
<trkpt lat="48.325630000" lon="16.384746667">
<time>2012-06-16T19:37:14Z</time>
 <fix>2d</fix>
 <sat>7</sat>
</trkpt>
<trkpt lat="48.325623333" lon="16.384755000">
<time>2012-06-16T19:37:15Z</time>
 <fix>2d</fix>
 <sat>7</sat>
</trkpt>
<trkpt lat="48.325613333" lon="16.384763333">
<time>2012-06-16T19:37:16Z</time>
 <fix>2d</fix>
 <sat>7</sat>
</trkpt>
<trkpt lat="48.325608333" lon="16.384775000">
<time>2012-06-16T19:37:17Z</time>
 <fix>2d</fix>
 <sat>7</sat>
</trkpt>
<trkpt lat="48.325601667" lon="16.384790000">
<time>2012-06-16T19:37:18Z</time>
 <fix>2d</fix>
 <sat>7</sat>
</trkpt>
<trkpt lat="48.325591667" lon="16.384803333">
<time>2012-06-16T19:37:19Z</time>
 <fix>2d</fix>
 <sat>7</sat>
</trkpt>
<trkpt lat="48.325583333" lon="16.384813333">
<time>2012-06-16T19:37:20Z</time>
 <fix>2d</fix>
 <sat>7</sat>
</trkpt>
<trkpt lat="48.325580000" lon="16.384823333">
<time>2012-06-16T19:37:21Z</time>
 <fix>2d</fix>
 <sat>7</sat>
</trkpt>
<trkpt lat="48.325571667" lon="16.384831667">
<time>2012-06-16T19:37:22Z</time>
 <fix>2d</fix>
 <sat>7</sat>
</trkpt>
<trkpt lat="48.325561667" lon="16.384838333">
<time>2012-06-16T19:37:23Z</time>
 <fix>2d</fix>
 <sat>7</sat>
</trkpt>
<trkpt lat="48.325555000" lon="16.384843333">
<time>2012-06-16T19:37:24Z</time>
 <fix>2d</fix>
 <sat>7</sat>
</trkpt>
<trkpt lat="48.325546667" lon="16.384855000">
<time>2012-06-16T19:37:25Z</time>
 <fix>2d</fix>
 <sat>7</sat>
</trkpt>
<trkpt lat="48.325538333" lon="16.384866667">
<time>2012-06-16T19:37:26Z</time>
 <fix>2d</fix>
 <sat>7</sat>
</trkpt>
<trkpt lat="48.325525000" lon="16.384878333">
<time>2012-06-16T19:37:27Z</time>
 <fix>2d</fix>
 <sat>7</sat>
</trkpt>
<trkpt lat="48.325520000" lon="16.384886667">
<time>2012-06-16T19:37:28Z</time>
 <fix>2d</fix>
 <sat>7</sat>
</trkpt>
<trkpt lat="48.325511667" lon="16.384898333">
<time>2012-06-16T19:37:29Z</time>
 <fix>2d</fix>
 <sat>7</sat>
</trkpt>
<trkpt lat="48.325501667" lon="16.384901667">
<time>2012-06-16T19:37:30Z</time>
 <fix>2d</fix>
 <sat>7</sat>
</trkpt>
<trkpt lat="48.325493333" lon="16.384906667">
<time>2012-06-16T19:37:31Z</time>
 <fix>2d</fix>
 <sat>7</sat>
</trkpt>
<trkpt lat="48.325488333" lon="16.384913333">
<time>2012-06-16T19:37:32Z</time>
 <fix>2d</fix>
 <sat>7</sat>
</trkpt>
<trkpt lat="48.325476667" lon="16.384921667">
<time>2012-06-16T19:37:33Z</time>
 <fix>2d</fix>
 <sat>7</sat>
</trkpt>
<trkpt lat="48.325466667" lon="16.384930000">
<time>2012-06-16T19:37:34Z</time>
 <fix>2d</fix>
 <sat>7</sat>
</trkpt>
<trkpt lat="48.325456667" lon="16.384938333">
<time>2012-06-16T19:37:35Z</time>
 <fix>2d</fix>
 <sat>7</sat>
</trkpt>
<trkpt lat="48.325448333" lon="16.384941667">
<time>2012-06-16T19:37:36Z</time>
 <fix>2d</fix>
 <sat>7</sat>
</trkpt>
<trkpt lat="48.325438333" lon="16.384946667">
<time>2012-06-16T19:37:37Z</time>
 <fix>2d</fix>
 <sat>7</sat>
</trkpt>
<trkpt lat="48.325426667" lon="16.384953333">
<time>2012-06-16T19:37:38Z</time>
 <fix>2d</fix>
 <sat>7</sat>
</trkpt>
<trkpt lat="48.325420000" lon="16.384968333">
<time>2012-06-16T19:37:39Z</time>
 <fix>2d</fix>
 <sat>7</sat>
</trkpt>
<trkpt lat="48.325411667" lon="16.384980000">
<time>2012-06-16T19:37:40Z</time>
 <fix>2d</fix>
 <sat>7</sat>
</trkpt>
<trkpt lat="48.325403333" lon="16.384993333">
<time>2012-06-16T19:37:41Z</time>
 <fix>2d</fix>
 <sat>7</sat>
</trkpt>
<trkpt lat="48.325395000" lon="16.385003333">
<time>2012-06-16T19:37:42Z</time>
 <fix>2d</fix>
 <sat>7</sat>
</trkpt>
<trkpt lat="48.325395000" lon="16.385013333">
<time>2012-06-16T19:37:43Z</time>
 <fix>2d</fix>
 <sat>7</sat>
</trkpt>
<trkpt lat="48.325393333" lon="16.385021667">
<time>2012-06-16T19:37:44Z</time>
 <fix>2d</fix>
 <sat>7</sat>
</trkpt>
<trkpt lat="48.325391667" lon="16.385028333">
<time>2012-06-16T19:37:45Z</time>
 <fix>2d</fix>
 <sat>7</sat>
</trkpt>
<trkpt lat="48.325383333" lon="16.385033333">
<time>2012-06-16T19:37:46Z</time>
 <fix>2d</fix>
 <sat>7</sat>
</trkpt>
<trkpt lat="48.325373333" lon="16.385040000">
<time>2012-06-16T19:37:47Z</time>
 <fix>2d</fix>
 <sat>7</sat>
</trkpt>
<trkpt lat="48.325363333" lon="16.385048333">
<time>2012-06-16T19:37:48Z</time>
 <fix>2d</fix>
 <sat>7</sat>
</trkpt>
<trkpt lat="48.325355000" lon="16.385056667">
<time>2012-06-16T19:37:49Z</time>
 <fix>2d</fix>
 <sat>7</sat>
</trkpt>
<trkpt lat="48.325336667" lon="16.385068333">
<time>2012-06-16T19:37:50Z</time>
 <fix>2d</fix>
 <sat>7</sat>
</trkpt>
<trkpt lat="48.325330000" lon="16.385068333">
<time>2012-06-16T19:37:51Z</time>
 <fix>2d</fix>
 <sat>7</sat>
</trkpt>
<trkpt lat="48.325323333" lon="16.385075000">
<time>2012-06-16T19:37:52Z</time>
 <fix>2d</fix>
 <sat>7</sat>
</trkpt>
<trkpt lat="48.325318333" lon="16.385076667">
<time>2012-06-16T19:37:53Z</time>
 <fix>2d</fix>
 <sat>7</sat>
</trkpt>
<trkpt lat="48.325313333" lon="16.385085000">
<time>2012-06-16T19:37:54Z</time>
 <fix>2d</fix>
 <sat>7</sat>
</trkpt>
<trkpt lat="48.325306667" lon="16.385100000">
<time>2012-06-16T19:37:55Z</time>
 <fix>2d</fix>
 <sat>7</sat>
</trkpt>
<trkpt lat="48.325300000" lon="16.385108333">
<time>2012-06-16T19:37:56Z</time>
 <fix>2d</fix>
 <sat>7</sat>
</trkpt>
<trkpt lat="48.325291667" lon="16.385118333">
<time>2012-06-16T19:37:57Z</time>
 <fix>2d</fix>
 <sat>7</sat>
</trkpt>
<trkpt lat="48.325286667" lon="16.385120000">
<time>2012-06-16T19:37:58Z</time>
 <fix>2d</fix>
 <sat>7</sat>
</trkpt>
<trkpt lat="48.325278333" lon="16.385128333">
<time>2012-06-16T19:37:59Z</time>
 <fix>2d</fix>
 <sat>7</sat>
</trkpt>
<trkpt lat="48.325270000" lon="16.385135000">
<time>2012-06-16T19:38:00Z</time>
 <fix>2d</fix>
 <sat>7</sat>
</trkpt>
<trkpt lat="48.325260000" lon="16.385146667">
<time>2012-06-16T19:38:01Z</time>
 <fix>2d</fix>
 <sat>7</sat>
</trkpt>
<trkpt lat="48.325251667" lon="16.385153333">
<time>2012-06-16T19:38:02Z</time>
 <fix>2d</fix>
 <sat>7</sat>
</trkpt>
<trkpt lat="48.325245000" lon="16.385163333">
<time>2012-06-16T19:38:03Z</time>
 <fix>2d</fix>
 <sat>7</sat>
</trkpt>
<trkpt lat="48.325236667" lon="16.385171667">
<time>2012-06-16T19:38:04Z</time>
 <fix>2d</fix>
 <sat>7</sat>
</trkpt>
<trkpt lat="48.325228333" lon="16.385178333">
<time>2012-06-16T19:38:05Z</time>
 <fix>2d</fix>
 <sat>7</sat>
</trkpt>
<trkpt lat="48.325221667" lon="16.385188333">
<time>2012-06-16T19:38:06Z</time>
 <fix>2d</fix>
 <sat>7</sat>
</trkpt>
<trkpt lat="48.325211667" lon="16.385195000">
<time>2012-06-16T19:38:07Z</time>
 <fix>2d</fix>
 <sat>7</sat>
</trkpt>
<trkpt lat="48.325201667" lon="16.385203333">
<time>2012-06-16T19:38:08Z</time>
 <fix>2d</fix>
 <sat>7</sat>
</trkpt>
<trkpt lat="48.325195000" lon="16.385206667">
<time>2012-06-16T19:38:09Z</time>
 <fix>2d</fix>
 <sat>7</sat>
</trkpt>
<trkpt lat="48.325186667" lon="16.385211667">
<time>2012-06-16T19:38:10Z</time>
 <fix>2d</fix>
 <sat>7</sat>
</trkpt>
<trkpt lat="48.325176667" lon="16.385216667">
<time>2012-06-16T19:38:11Z</time>
 <fix>2d</fix>
 <sat>7</sat>
</trkpt>
<trkpt lat="48.325163333" lon="16.385223333">
<time>2012-06-16T19:38:12Z</time>
 <fix>2d</fix>
 <sat>7</sat>
</trkpt>
<trkpt lat="48.325151667" lon="16.385228333">
<time>2012-06-16T19:38:13Z</time>
 <fix>2d</fix>
 <sat>7</sat>
</trkpt>
<trkpt lat="48.325140000" lon="16.385233333">
<time>2012-06-16T19:38:14Z</time>
 <fix>2d</fix>
 <sat>7</sat>
</trkpt>
<trkpt lat="48.325126667" lon="16.385241667">
<time>2012-06-16T19:38:15Z</time>
 <fix>2d</fix>
 <sat>7</sat>
</trkpt>
<trkpt lat="48.325115000" lon="16.385245000">
<time>2012-06-16T19:38:16Z</time>
 <fix>2d</fix>
 <sat>7</sat>
</trkpt>
<trkpt lat="48.325106667" lon="16.385245000">
<time>2012-06-16T19:38:17Z</time>
 <fix>2d</fix>
 <sat>7</sat>
</trkpt>
<trkpt lat="48.325100000" lon="16.385241667">
<time>2012-06-16T19:38:18Z</time>
 <fix>2d</fix>
 <sat>7</sat>
</trkpt>
<trkpt lat="48.325091667" lon="16.385241667">
<time>2012-06-16T19:38:19Z</time>
 <fix>2d</fix>
 <sat>7</sat>
</trkpt>
<trkpt lat="48.325078333" lon="16.385240000">
<time>2012-06-16T19:38:20Z</time>
 <fix>2d</fix>
 <sat>7</sat>
</trkpt>
<trkpt lat="48.325068333" lon="16.385238333">
<time>2012-06-16T19:38:21Z</time>
 <fix>2d</fix>
 <sat>7</sat>
</trkpt>
<trkpt lat="48.325060000" lon="16.385241667">
<time>2012-06-16T19:38:22Z</time>
 <fix>2d</fix>
 <sat>7</sat>
</trkpt>
<trkpt lat="48.325048333" lon="16.385241667">
<time>2012-06-16T19:38:23Z</time>
 <fix>2d</fix>
 <sat>7</sat>
</trkpt>
<trkpt lat="48.325038333" lon="16.385241667">
<time>2012-06-16T19:38:24Z</time>
 <fix>2d</fix>
 <sat>7</sat>
</trkpt>
<trkpt lat="48.325025000" lon="16.385253333">
<time>2012-06-16T19:38:25Z</time>
 <fix>2d</fix>
 <sat>7</sat>
</trkpt>
<trkpt lat="48.325015000" lon="16.385265000">
<time>2012-06-16T19:38:26Z</time>
 <fix>2d</fix>
 <sat>7</sat>
</trkpt>
<trkpt lat="48.325011667" lon="16.385268333">
<time>2012-06-16T19:38:27Z</time>
 <fix>2d</fix>
 <sat>7</sat>
</trkpt>
<trkpt lat="48.324985000" lon="16.385263333">
<time>2012-06-16T19:38:28Z</time>
 <fix>2d</fix>
 <sat>7</sat>
</trkpt>
<trkpt lat="48.324961667" lon="16.385258333">
<time>2012-06-16T19:38:29Z</time>
 <fix>2d</fix>
 <sat>7</sat>
</trkpt>
<trkpt lat="48.324936667" lon="16.385253333">
<time>2012-06-16T19:38:30Z</time>
 <fix>2d</fix>
 <sat>7</sat>
</trkpt>
<trkpt lat="48.324931667" lon="16.385256667">
<time>2012-06-16T19:38:31Z</time>
 <fix>2d</fix>
 <sat>7</sat>
</trkpt>
<trkpt lat="48.324930000" lon="16.385258333">
<time>2012-06-16T19:38:32Z</time>
 <fix>2d</fix>
 <sat>7</sat>
</trkpt>
<trkpt lat="48.324923333" lon="16.385256667">
<time>2012-06-16T19:38:33Z</time>
 <fix>2d</fix>
 <sat>7</sat>
</trkpt>
<trkpt lat="48.324915000" lon="16.385256667">
<time>2012-06-16T19:38:34Z</time>
 <fix>2d</fix>
 <sat>7</sat>
</trkpt>
<trkpt lat="48.324906667" lon="16.385265000">
<time>2012-06-16T19:38:35Z</time>
 <fix>2d</fix>
 <sat>7</sat>
</trkpt>
<trkpt lat="48.324900000" lon="16.385273333">
<time>2012-06-16T19:38:36Z</time>
 <fix>2d</fix>
 <sat>7</sat>
</trkpt>
<trkpt lat="48.324890000" lon="16.385276667">
<time>2012-06-16T19:38:37Z</time>
 <fix>2d</fix>
 <sat>7</sat>
</trkpt>
<trkpt lat="48.324883333" lon="16.385270000">
<time>2012-06-16T19:38:38Z</time>
 <fix>2d</fix>
 <sat>7</sat>
</trkpt>
<trkpt lat="48.324865000" lon="16.385280000">
<time>2012-06-16T19:38:39Z</time>
 <fix>2d</fix>
 <sat>7</sat>
</trkpt>
<trkpt lat="48.324860000" lon="16.385281667">
<time>2012-06-16T19:38:40Z</time>
 <fix>2d</fix>
 <sat>7</sat>
</trkpt>
<trkpt lat="48.324850000" lon="16.385281667">
<time>2012-06-16T19:38:41Z</time>
 <fix>2d</fix>
 <sat>7</sat>
</trkpt>
<trkpt lat="48.324838333" lon="16.385281667">
<time>2012-06-16T19:38:42Z</time>
 <fix>2d</fix>
 <sat>7</sat>
</trkpt>
<trkpt lat="48.324826667" lon="16.385281667">
<time>2012-06-16T19:38:43Z</time>
 <fix>2d</fix>
 <sat>7</sat>
</trkpt>
<trkpt lat="48.324811667" lon="16.385285000">
<time>2012-06-16T19:38:44Z</time>
 <fix>2d</fix>
 <sat>7</sat>
</trkpt>
<trkpt lat="48.324795000" lon="16.385290000">
<time>2012-06-16T19:38:45Z</time>
 <fix>2d</fix>
 <sat>7</sat>
</trkpt>
<trkpt lat="48.324781667" lon="16.385296667">
<time>2012-06-16T19:38:46Z</time>
 <fix>2d</fix>
 <sat>7</sat>
</trkpt>
<trkpt lat="48.324768333" lon="16.385305000">
<time>2012-06-16T19:38:47Z</time>
 <fix>2d</fix>
 <sat>7</sat>
</trkpt>
<trkpt lat="48.324751667" lon="16.385320000">
<time>2012-06-16T19:38:48Z</time>
 <fix>2d</fix>
 <sat>6</sat>
</trkpt>
<trkpt lat="48.324730000" lon="16.385333333">
<time>2012-06-16T19:38:49Z</time>
 <fix>2d</fix>
 <sat>6</sat>
</trkpt>
<trkpt lat="48.324708333" lon="16.385338333">
<time>2012-06-16T19:38:50Z</time>
 <fix>2d</fix>
 <sat>6</sat>
</trkpt>
<trkpt lat="48.324691667" lon="16.385333333">
<time>2012-06-16T19:38:51Z</time>
 <fix>2d</fix>
 <sat>6</sat>
</trkpt>
<trkpt lat="48.324673333" lon="16.385341667">
<time>2012-06-16T19:38:52Z</time>
 <fix>2d</fix>
 <sat>6</sat>
</trkpt>
<trkpt lat="48.324656667" lon="16.385350000">
<time>2012-06-16T19:38:53Z</time>
 <fix>2d</fix>
 <sat>6</sat>
</trkpt>
<trkpt lat="48.324640000" lon="16.385360000">
<time>2012-06-16T19:38:54Z</time>
 <fix>2d</fix>
 <sat>6</sat>
</trkpt>
<trkpt lat="48.324621667" lon="16.385365000">
<time>2012-06-16T19:38:55Z</time>
 <fix>2d</fix>
 <sat>6</sat>
</trkpt>
<trkpt lat="48.324606667" lon="16.385373333">
<time>2012-06-16T19:38:56Z</time>
 <fix>2d</fix>
 <sat>6</sat>
</trkpt>
<trkpt lat="48.324581667" lon="16.385391667">
<time>2012-06-16T19:38:57Z</time>
 <fix>2d</fix>
 <sat>6</sat>
</trkpt>
<trkpt lat="48.324570000" lon="16.385403333">
<time>2012-06-16T19:38:58Z</time>
 <fix>2d</fix>
 <sat>6</sat>
</trkpt>
<trkpt lat="48.324556667" lon="16.385395000">
<time>2012-06-16T19:38:59Z</time>
 <fix>2d</fix>
 <sat>6</sat>
</trkpt>
<trkpt lat="48.324533333" lon="16.385408333">
<time>2012-06-16T19:39:00Z</time>
 <fix>2d</fix>
 <sat>6</sat>
</trkpt>
<trkpt lat="48.324520000" lon="16.385415000">
<time>2012-06-16T19:39:01Z</time>
 <fix>2d</fix>
 <sat>6</sat>
</trkpt>
<trkpt lat="48.324508333" lon="16.385420000">
<time>2012-06-16T19:39:02Z</time>
 <fix>2d</fix>
 <sat>6</sat>
</trkpt>
<trkpt lat="48.324488333" lon="16.385425000">
<time>2012-06-16T19:39:03Z</time>
 <fix>2d</fix>
 <sat>6</sat>
</trkpt>
<trkpt lat="48.324468333" lon="16.385431667">
<time>2012-06-16T19:39:04Z</time>
 <fix>2d</fix>
 <sat>6</sat>
</trkpt>
<trkpt lat="48.324453333" lon="16.385436667">
<time>2012-06-16T19:39:05Z</time>
 <fix>2d</fix>
 <sat>6</sat>
</trkpt>
<trkpt lat="48.324438333" lon="16.385436667">
<time>2012-06-16T19:39:06Z</time>
 <fix>2d</fix>
 <sat>6</sat>
</trkpt>
<trkpt lat="48.324421667" lon="16.385443333">
<time>2012-06-16T19:39:07Z</time>
 <fix>2d</fix>
 <sat>6</sat>
</trkpt>
<trkpt lat="48.324403333" lon="16.385453333">
<time>2012-06-16T19:39:08Z</time>
 <fix>2d</fix>
 <sat>6</sat>
</trkpt>
<trkpt lat="48.324388333" lon="16.385466667">
<time>2012-06-16T19:39:09Z</time>
 <fix>2d</fix>
 <sat>6</sat>
</trkpt>
<trkpt lat="48.324371667" lon="16.385480000">
<time>2012-06-16T19:39:10Z</time>
 <fix>2d</fix>
 <sat>6</sat>
</trkpt>
<trkpt lat="48.324356667" lon="16.385493333">
<time>2012-06-16T19:39:11Z</time>
 <fix>2d</fix>
 <sat>6</sat>
</trkpt>
<trkpt lat="48.324345000" lon="16.385505000">
<time>2012-06-16T19:39:12Z</time>
 <fix>2d</fix>
 <sat>6</sat>
</trkpt>
<trkpt lat="48.324345000" lon="16.385515000">
<time>2012-06-16T19:39:13Z</time>
 <fix>2d</fix>
 <sat>6</sat>
</trkpt>
<trkpt lat="48.324336667" lon="16.385535000">
<time>2012-06-16T19:39:14Z</time>
 <fix>2d</fix>
 <sat>6</sat>
</trkpt>
<trkpt lat="48.324323333" lon="16.385561667">
<time>2012-06-16T19:39:15Z</time>
 <fix>2d</fix>
 <sat>6</sat>
</trkpt>
<trkpt lat="48.324318333" lon="16.385596667">
<time>2012-06-16T19:39:16Z</time>
 <fix>2d</fix>
 <sat>6</sat>
</trkpt>
<trkpt lat="48.324318333" lon="16.385620000">
<time>2012-06-16T19:39:17Z</time>
 <fix>2d</fix>
 <sat>6</sat>
</trkpt>
<trkpt lat="48.324311667" lon="16.385645000">
<time>2012-06-16T19:39:18Z</time>
 <fix>2d</fix>
 <sat>6</sat>
</trkpt>
<trkpt lat="48.324320000" lon="16.385676667">
<time>2012-06-16T19:39:19Z</time>
 <fix>2d</fix>
 <sat>6</sat>
</trkpt>
<trkpt lat="48.324323333" lon="16.385701667">
<time>2012-06-16T19:39:20Z</time>
 <fix>2d</fix>
 <sat>6</sat>
</trkpt>
<trkpt lat="48.324321667" lon="16.385725000">
<time>2012-06-16T19:39:21Z</time>
 <fix>2d</fix>
 <sat>6</sat>
</trkpt>
<trkpt lat="48.324313333" lon="16.385753333">
<time>2012-06-16T19:39:22Z</time>
 <fix>2d</fix>
 <sat>6</sat>
</trkpt>
<trkpt lat="48.324316667" lon="16.385773333">
<time>2012-06-16T19:39:23Z</time>
 <fix>2d</fix>
 <sat>6</sat>
</trkpt>
<trkpt lat="48.324313333" lon="16.385786667">
<time>2012-06-16T19:39:24Z</time>
 <fix>2d</fix>
 <sat>6</sat>
</trkpt>
<trkpt lat="48.324301667" lon="16.385811667">
<time>2012-06-16T19:39:25Z</time>
 <fix>2d</fix>
 <sat>6</sat>
</trkpt>
<trkpt lat="48.324295000" lon="16.385833333">
<time>2012-06-16T19:39:26Z</time>
 <fix>2d</fix>
 <sat>6</sat>
</trkpt>
<trkpt lat="48.324285000" lon="16.385846667">
<time>2012-06-16T19:39:27Z</time>
 <fix>2d</fix>
 <sat>6</sat>
</trkpt>
<trkpt lat="48.324271667" lon="16.385856667">
<time>2012-06-16T19:39:28Z</time>
 <fix>2d</fix>
 <sat>6</sat>
</trkpt>
<trkpt lat="48.324258333" lon="16.385868333">
<time>2012-06-16T19:39:29Z</time>
 <fix>2d</fix>
 <sat>6</sat>
</trkpt>
<trkpt lat="48.324245000" lon="16.385871667">
<time>2012-06-16T19:39:30Z</time>
 <fix>2d</fix>
 <sat>6</sat>
</trkpt>
<trkpt lat="48.324230000" lon="16.385871667">
<time>2012-06-16T19:39:31Z</time>
 <fix>2d</fix>
 <sat>6</sat>
</trkpt>
<trkpt lat="48.324215000" lon="16.385863333">
<time>2012-06-16T19:39:32Z</time>
 <fix>2d</fix>
 <sat>6</sat>
</trkpt>
<trkpt lat="48.324206667" lon="16.385856667">
<time>2012-06-16T19:39:33Z</time>
 <fix>2d</fix>
 <sat>6</sat>
</trkpt>
<trkpt lat="48.324193333" lon="16.385846667">
<time>2012-06-16T19:39:34Z</time>
 <fix>2d</fix>
 <sat>6</sat>
</trkpt>
<trkpt lat="48.324181667" lon="16.385840000">
<time>2012-06-16T19:39:35Z</time>
 <fix>2d</fix>
 <sat>6</sat>
</trkpt>
<trkpt lat="48.324168333" lon="16.385833333">
<time>2012-06-16T19:39:36Z</time>
 <fix>2d</fix>
 <sat>6</sat>
</trkpt>
<trkpt lat="48.324155000" lon="16.385828333">
<time>2012-06-16T19:39:37Z</time>
 <fix>2d</fix>
 <sat>6</sat>
</trkpt>
<trkpt lat="48.324141667" lon="16.385815000">
<time>2012-06-16T19:39:38Z</time>
 <fix>2d</fix>
 <sat>6</sat>
</trkpt>
<trkpt lat="48.324126667" lon="16.385803333">
<time>2012-06-16T19:39:39Z</time>
 <fix>2d</fix>
 <sat>6</sat>
</trkpt>
<trkpt lat="48.324110000" lon="16.385783333">
<time>2012-06-16T19:39:40Z</time>
 <fix>2d</fix>
 <sat>6</sat>
</trkpt>
<trkpt lat="48.324108333" lon="16.385765000">
<time>2012-06-16T19:39:41Z</time>
 <fix>2d</fix>
 <sat>6</sat>
</trkpt>
<trkpt lat="48.324106667" lon="16.385756667">
<time>2012-06-16T19:39:42Z</time>
 <fix>2d</fix>
 <sat>6</sat>
</trkpt>
<trkpt lat="48.324098333" lon="16.385735000">
<time>2012-06-16T19:39:43Z</time>
 <fix>2d</fix>
 <sat>6</sat>
</trkpt>
<trkpt lat="48.324086667" lon="16.385713333">
<time>2012-06-16T19:39:44Z</time>
 <fix>2d</fix>
 <sat>6</sat>
</trkpt>
<trkpt lat="48.324073333" lon="16.385701667">
<time>2012-06-16T19:39:45Z</time>
 <fix>2d</fix>
 <sat>6</sat>
</trkpt>
<trkpt lat="48.324060000" lon="16.385683333">
<time>2012-06-16T19:39:46Z</time>
 <fix>2d</fix>
 <sat>6</sat>
</trkpt>
<trkpt lat="48.324040000" lon="16.385670000">
<time>2012-06-16T19:39:47Z</time>
 <fix>2d</fix>
 <sat>6</sat>
</trkpt>
<trkpt lat="48.324026667" lon="16.385656667">
<time>2012-06-16T19:39:48Z</time>
 <fix>2d</fix>
 <sat>6</sat>
</trkpt>
<trkpt lat="48.324016667" lon="16.385643333">
<time>2012-06-16T19:39:49Z</time>
 <fix>2d</fix>
 <sat>6</sat>
</trkpt>
<trkpt lat="48.323998333" lon="16.385626667">
<time>2012-06-16T19:39:50Z</time>
 <fix>2d</fix>
 <sat>6</sat>
</trkpt>
<trkpt lat="48.323985000" lon="16.385603333">
<time>2012-06-16T19:39:51Z</time>
 <fix>2d</fix>
 <sat>6</sat>
</trkpt>
<trkpt lat="48.323968333" lon="16.385575000">
<time>2012-06-16T19:39:52Z</time>
 <fix>2d</fix>
 <sat>6</sat>
</trkpt>
<trkpt lat="48.323950000" lon="16.385546667">
<time>2012-06-16T19:39:53Z</time>
 <fix>2d</fix>
 <sat>6</sat>
</trkpt>
<trkpt lat="48.323936667" lon="16.385523333">
<time>2012-06-16T19:39:54Z</time>
 <fix>2d</fix>
 <sat>6</sat>
</trkpt>
<trkpt lat="48.323925000" lon="16.385500000">
<time>2012-06-16T19:39:55Z</time>
 <fix>2d</fix>
 <sat>6</sat>
</trkpt>
<trkpt lat="48.323906667" lon="16.385486667">
<time>2012-06-16T19:39:56Z</time>
 <fix>2d</fix>
 <sat>6</sat>
</trkpt>
<trkpt lat="48.323891667" lon="16.385470000">
<time>2012-06-16T19:39:57Z</time>
 <fix>2d</fix>
 <sat>6</sat>
</trkpt>
<trkpt lat="48.323890000" lon="16.385446667">
<time>2012-06-16T19:39:58Z</time>
 <fix>2d</fix>
 <sat>6</sat>
</trkpt>
<trkpt lat="48.323878333" lon="16.385430000">
<time>2012-06-16T19:39:59Z</time>
 <fix>2d</fix>
 <sat>6</sat>
</trkpt>
<trkpt lat="48.323863333" lon="16.385420000">
<time>2012-06-16T19:40:00Z</time>
 <fix>2d</fix>
 <sat>6</sat>
</trkpt>
<trkpt lat="48.323848333" lon="16.385406667">
<time>2012-06-16T19:40:01Z</time>
 <fix>2d</fix>
 <sat>6</sat>
</trkpt>
<trkpt lat="48.323833333" lon="16.385395000">
<time>2012-06-16T19:40:02Z</time>
 <fix>2d</fix>
 <sat>6</sat>
</trkpt>
<trkpt lat="48.323818333" lon="16.385388333">
<time>2012-06-16T19:40:03Z</time>
 <fix>2d</fix>
 <sat>6</sat>
</trkpt>
<trkpt lat="48.323801667" lon="16.385383333">
<time>2012-06-16T19:40:04Z</time>
 <fix>2d</fix>
 <sat>6</sat>
</trkpt>
<trkpt lat="48.323783333" lon="16.385380000">
<time>2012-06-16T19:40:05Z</time>
 <fix>2d</fix>
 <sat>6</sat>
</trkpt>
<trkpt lat="48.323771667" lon="16.385371667">
<time>2012-06-16T19:40:06Z</time>
 <fix>2d</fix>
 <sat>6</sat>
</trkpt>
<trkpt lat="48.323761667" lon="16.385360000">
<time>2012-06-16T19:40:07Z</time>
 <fix>2d</fix>
 <sat>6</sat>
</trkpt>
<trkpt lat="48.323748333" lon="16.385356667">
<time>2012-06-16T19:40:08Z</time>
 <fix>2d</fix>
 <sat>6</sat>
</trkpt>
<trkpt lat="48.323738333" lon="16.385343333">
<time>2012-06-16T19:40:09Z</time>
 <fix>2d</fix>
 <sat>6</sat>
</trkpt>
<trkpt lat="48.323725000" lon="16.385328333">
<time>2012-06-16T19:40:10Z</time>
 <fix>2d</fix>
 <sat>6</sat>
</trkpt>
<trkpt lat="48.323706667" lon="16.385310000">
<time>2012-06-16T19:40:11Z</time>
 <fix>2d</fix>
 <sat>6</sat>
</trkpt>
<trkpt lat="48.323693333" lon="16.385296667">
<time>2012-06-16T19:40:12Z</time>
 <fix>2d</fix>
 <sat>6</sat>
</trkpt>
<trkpt lat="48.323678333" lon="16.385281667">
<time>2012-06-16T19:40:13Z</time>
 <fix>2d</fix>
 <sat>6</sat>
</trkpt>
<trkpt lat="48.323670000" lon="16.385265000">
<time>2012-06-16T19:40:14Z</time>
 <fix>2d</fix>
 <sat>6</sat>
</trkpt>
<trkpt lat="48.323663333" lon="16.385250000">
<time>2012-06-16T19:40:15Z</time>
 <fix>2d</fix>
 <sat>6</sat>
</trkpt>
<trkpt lat="48.323651667" lon="16.385240000">
<time>2012-06-16T19:40:16Z</time>
 <fix>2d</fix>
 <sat>6</sat>
</trkpt>
<trkpt lat="48.323638333" lon="16.385223333">
<time>2012-06-16T19:40:17Z</time>
 <fix>2d</fix>
 <sat>6</sat>
</trkpt>
<trkpt lat="48.323626667" lon="16.385211667">
<time>2012-06-16T19:40:18Z</time>
 <fix>2d</fix>
 <sat>6</sat>
</trkpt>
<trkpt lat="48.323616667" lon="16.385195000">
<time>2012-06-16T19:40:19Z</time>
 <fix>2d</fix>
 <sat>6</sat>
</trkpt>
<trkpt lat="48.323611667" lon="16.385175000">
<time>2012-06-16T19:40:20Z</time>
 <fix>2d</fix>
 <sat>6</sat>
</trkpt>
<trkpt lat="48.323601667" lon="16.385155000">
<time>2012-06-16T19:40:21Z</time>
 <fix>2d</fix>
 <sat>6</sat>
</trkpt>
<trkpt lat="48.323593333" lon="16.385138333">
<time>2012-06-16T19:40:22Z</time>
 <fix>2d</fix>
 <sat>6</sat>
</trkpt>
<trkpt lat="48.323583333" lon="16.385118333">
<time>2012-06-16T19:40:23Z</time>
 <fix>2d</fix>
 <sat>5</sat>
</trkpt>
<trkpt lat="48.323576667" lon="16.385096667">
<time>2012-06-16T19:40:24Z</time>
 <fix>2d</fix>
 <sat>5</sat>
</trkpt>
<trkpt lat="48.323563333" lon="16.385080000">
<time>2012-06-16T19:40:25Z</time>
 <fix>2d</fix>
 <sat>6</sat>
</trkpt>
<trkpt lat="48.323555000" lon="16.385068333">
<time>2012-06-16T19:40:26Z</time>
 <fix>2d</fix>
 <sat>6</sat>
</trkpt>
<trkpt lat="48.323543333" lon="16.385048333">
<time>2012-06-16T19:40:27Z</time>
 <fix>2d</fix>
 <sat>6</sat>
</trkpt>
<trkpt lat="48.323528333" lon="16.385033333">
<time>2012-06-16T19:40:28Z</time>
 <fix>2d</fix>
 <sat>6</sat>
</trkpt>
<trkpt lat="48.323518333" lon="16.385021667">
<time>2012-06-16T19:40:29Z</time>
 <fix>2d</fix>
 <sat>6</sat>
</trkpt>
<trkpt lat="48.323513333" lon="16.385008333">
<time>2012-06-16T19:40:30Z</time>
 <fix>2d</fix>
 <sat>6</sat>
</trkpt>
<trkpt lat="48.323505000" lon="16.384991667">
<time>2012-06-16T19:40:31Z</time>
 <fix>2d</fix>
 <sat>6</sat>
</trkpt>
<trkpt lat="48.323496667" lon="16.384975000">
<time>2012-06-16T19:40:32Z</time>
 <fix>2d</fix>
 <sat>6</sat>
</trkpt>
<trkpt lat="48.323486667" lon="16.384958333">
<time>2012-06-16T19:40:33Z</time>
 <fix>2d</fix>
 <sat>6</sat>
</trkpt>
<trkpt lat="48.323473333" lon="16.384953333">
<time>2012-06-16T19:40:34Z</time>
 <fix>2d</fix>
 <sat>6</sat>
</trkpt>
<trkpt lat="48.323456667" lon="16.384941667">
<time>2012-06-16T19:40:35Z</time>
 <fix>2d</fix>
 <sat>6</sat>
</trkpt>
<trkpt lat="48.323440000" lon="16.384935000">
<time>2012-06-16T19:40:36Z</time>
 <fix>2d</fix>
 <sat>6</sat>
</trkpt>
<trkpt lat="48.323423333" lon="16.384930000">
<time>2012-06-16T19:40:37Z</time>
 <fix>2d</fix>
 <sat>6</sat>
</trkpt>
<trkpt lat="48.323408333" lon="16.384928333">
<time>2012-06-16T19:40:38Z</time>
 <fix>2d</fix>
 <sat>6</sat>
</trkpt>
<trkpt lat="48.323391667" lon="16.384925000">
<time>2012-06-16T19:40:39Z</time>
 <fix>2d</fix>
 <sat>6</sat>
</trkpt>
<trkpt lat="48.323370000" lon="16.384921667">
<time>2012-06-16T19:40:40Z</time>
 <fix>2d</fix>
 <sat>6</sat>
</trkpt>
<trkpt lat="48.323351667" lon="16.384918333">
<time>2012-06-16T19:40:41Z</time>
 <fix>2d</fix>
 <sat>6</sat>
</trkpt>
<trkpt lat="48.323336667" lon="16.384923333">
<time>2012-06-16T19:40:42Z</time>
 <fix>2d</fix>
 <sat>6</sat>
</trkpt>
<trkpt lat="48.323323333" lon="16.384925000">
<time>2012-06-16T19:40:43Z</time>
 <fix>2d</fix>
 <sat>6</sat>
</trkpt>
<trkpt lat="48.323306667" lon="16.384930000">
<time>2012-06-16T19:40:44Z</time>
 <fix>2d</fix>
 <sat>6</sat>
</trkpt>
<trkpt lat="48.323296667" lon="16.384925000">
<time>2012-06-16T19:40:45Z</time>
 <fix>2d</fix>
 <sat>6</sat>
</trkpt>
<trkpt lat="48.323278333" lon="16.384921667">
<time>2012-06-16T19:40:46Z</time>
 <fix>2d</fix>
 <sat>6</sat>
</trkpt>
<trkpt lat="48.323266667" lon="16.384910000">
<time>2012-06-16T19:40:47Z</time>
 <fix>2d</fix>
 <sat>6</sat>
</trkpt>
<trkpt lat="48.323253333" lon="16.384901667">
<time>2012-06-16T19:40:48Z</time>
 <fix>2d</fix>
 <sat>6</sat>
</trkpt>
<trkpt lat="48.323233333" lon="16.384895000">
<time>2012-06-16T19:40:49Z</time>
 <fix>2d</fix>
 <sat>6</sat>
</trkpt>
<trkpt lat="48.323213333" lon="16.384888333">
<time>2012-06-16T19:40:50Z</time>
 <fix>2d</fix>
 <sat>6</sat>
</trkpt>
<trkpt lat="48.323195000" lon="16.384875000">
<time>2012-06-16T19:40:51Z</time>
 <fix>2d</fix>
 <sat>6</sat>
</trkpt>
<trkpt lat="48.323183333" lon="16.384873333">
<time>2012-06-16T19:40:52Z</time>
 <fix>2d</fix>
 <sat>6</sat>
</trkpt>
<trkpt lat="48.323173333" lon="16.384870000">
<time>2012-06-16T19:40:53Z</time>
 <fix>2d</fix>
 <sat>6</sat>
</trkpt>
<trkpt lat="48.323158333" lon="16.384866667">
<time>2012-06-16T19:40:54Z</time>
 <fix>2d</fix>
 <sat>6</sat>
</trkpt>
<trkpt lat="48.323136667" lon="16.384866667">
<time>2012-06-16T19:40:55Z</time>
 <fix>2d</fix>
 <sat>6</sat>
</trkpt>
<trkpt lat="48.323121667" lon="16.384861667">
<time>2012-06-16T19:40:56Z</time>
 <fix>2d</fix>
 <sat>6</sat>
</trkpt>
<trkpt lat="48.323105000" lon="16.384861667">
<time>2012-06-16T19:40:57Z</time>
 <fix>2d</fix>
 <sat>6</sat>
</trkpt>
<trkpt lat="48.323090000" lon="16.384861667">
<time>2012-06-16T19:40:58Z</time>
 <fix>2d</fix>
 <sat>6</sat>
</trkpt>
<trkpt lat="48.323078333" lon="16.384855000">
<time>2012-06-16T19:40:59Z</time>
 <fix>2d</fix>
 <sat>6</sat>
</trkpt>
<trkpt lat="48.323063333" lon="16.384848333">
<time>2012-06-16T19:41:00Z</time>
 <fix>2d</fix>
 <sat>6</sat>
</trkpt>
<trkpt lat="48.323050000" lon="16.384850000">
<time>2012-06-16T19:41:01Z</time>
 <fix>2d</fix>
 <sat>6</sat>
</trkpt>
<trkpt lat="48.323038333" lon="16.384838333">
<time>2012-06-16T19:41:02Z</time>
 <fix>2d</fix>
 <sat>6</sat>
</trkpt>
<trkpt lat="48.323025000" lon="16.384835000">
<time>2012-06-16T19:41:03Z</time>
 <fix>2d</fix>
 <sat>6</sat>
</trkpt>
<trkpt lat="48.323010000" lon="16.384835000">
<time>2012-06-16T19:41:04Z</time>
 <fix>2d</fix>
 <sat>6</sat>
</trkpt>
<trkpt lat="48.322998333" lon="16.384838333">
<time>2012-06-16T19:41:05Z</time>
 <fix>2d</fix>
 <sat>6</sat>
</trkpt>
<trkpt lat="48.322990000" lon="16.384838333">
<time>2012-06-16T19:41:06Z</time>
 <fix>2d</fix>
 <sat>6</sat>
</trkpt>
<trkpt lat="48.322978333" lon="16.384835000">
<time>2012-06-16T19:41:07Z</time>
 <fix>2d</fix>
 <sat>6</sat>
</trkpt>
<trkpt lat="48.322963333" lon="16.384838333">
<time>2012-06-16T19:41:08Z</time>
 <fix>2d</fix>
 <sat>6</sat>
</trkpt>
<trkpt lat="48.322946667" lon="16.384843333">
<time>2012-06-16T19:41:09Z</time>
 <fix>2d</fix>
 <sat>6</sat>
</trkpt>
<trkpt lat="48.322933333" lon="16.384850000">
<time>2012-06-16T19:41:10Z</time>
 <fix>2d</fix>
 <sat>6</sat>
</trkpt>
<trkpt lat="48.322916667" lon="16.384866667">
<time>2012-06-16T19:41:11Z</time>
 <fix>2d</fix>
 <sat>6</sat>
</trkpt>
<trkpt lat="48.322901667" lon="16.384871667">
<time>2012-06-16T19:41:12Z</time>
 <fix>2d</fix>
 <sat>6</sat>
</trkpt>
<trkpt lat="48.322871667" lon="16.384891667">
<time>2012-06-16T19:41:13Z</time>
 <fix>2d</fix>
 <sat>6</sat>
</trkpt>
<trkpt lat="48.322843333" lon="16.384913333">
<time>2012-06-16T19:41:14Z</time>
 <fix>2d</fix>
 <sat>6</sat>
</trkpt>
<trkpt lat="48.322826667" lon="16.384923333">
<time>2012-06-16T19:41:15Z</time>
 <fix>2d</fix>
 <sat>6</sat>
</trkpt>
<trkpt lat="48.322810000" lon="16.384935000">
<time>2012-06-16T19:41:16Z</time>
 <fix>2d</fix>
 <sat>6</sat>
</trkpt>
<trkpt lat="48.322793333" lon="16.384940000">
<time>2012-06-16T19:41:17Z</time>
 <fix>2d</fix>
 <sat>6</sat>
</trkpt>
<trkpt lat="48.322776667" lon="16.384953333">
<time>2012-06-16T19:41:18Z</time>
 <fix>2d</fix>
 <sat>6</sat>
</trkpt>
<trkpt lat="48.322755000" lon="16.384961667">
<time>2012-06-16T19:41:19Z</time>
 <fix>2d</fix>
 <sat>6</sat>
</trkpt>
<trkpt lat="48.322743333" lon="16.384968333">
<time>2012-06-16T19:41:20Z</time>
 <fix>2d</fix>
 <sat>6</sat>
</trkpt>
<trkpt lat="48.322723333" lon="16.384981667">
<time>2012-06-16T19:41:21Z</time>
 <fix>2d</fix>
 <sat>6</sat>
</trkpt>
<trkpt lat="48.322706667" lon="16.384993333">
<time>2012-06-16T19:41:22Z</time>
 <fix>2d</fix>
 <sat>6</sat>
</trkpt>
<trkpt lat="48.322683333" lon="16.384996667">
<time>2012-06-16T19:41:23Z</time>
 <fix>2d</fix>
 <sat>6</sat>
</trkpt>
<trkpt lat="48.322666667" lon="16.385005000">
<time>2012-06-16T19:41:24Z</time>
 <fix>2d</fix>
 <sat>6</sat>
</trkpt>
<trkpt lat="48.322651667" lon="16.385000000">
<time>2012-06-16T19:41:25Z</time>
 <fix>2d</fix>
 <sat>6</sat>
</trkpt>
<trkpt lat="48.322631667" lon="16.385008333">
<time>2012-06-16T19:41:26Z</time>
 <fix>2d</fix>
 <sat>6</sat>
</trkpt>
<trkpt lat="48.322605000" lon="16.385010000">
<time>2012-06-16T19:41:27Z</time>
 <fix>2d</fix>
 <sat>6</sat>
</trkpt>
<trkpt lat="48.322580000" lon="16.385016667">
<time>2012-06-16T19:41:28Z</time>
 <fix>2d</fix>
 <sat>6</sat>
</trkpt>
<trkpt lat="48.322556667" lon="16.385021667">
<time>2012-06-16T19:41:29Z</time>
 <fix>2d</fix>
 <sat>6</sat>
</trkpt>
<trkpt lat="48.322525000" lon="16.385021667">
<time>2012-06-16T19:41:30Z</time>
 <fix>2d</fix>
 <sat>6</sat>
</trkpt>
<trkpt lat="48.322498333" lon="16.385021667">
<time>2012-06-16T19:41:31Z</time>
 <fix>2d</fix>
 <sat>6</sat>
</trkpt>
<trkpt lat="48.322461667" lon="16.385033333">
<time>2012-06-16T19:41:32Z</time>
 <fix>2d</fix>
 <sat>6</sat>
</trkpt>
<trkpt lat="48.322433333" lon="16.385033333">
<time>2012-06-16T19:41:33Z</time>
 <fix>2d</fix>
 <sat>6</sat>
</trkpt>
<trkpt lat="48.322410000" lon="16.385026667">
<time>2012-06-16T19:41:34Z</time>
 <fix>2d</fix>
 <sat>6</sat>
</trkpt>
<trkpt lat="48.322383333" lon="16.385013333">
<time>2012-06-16T19:41:35Z</time>
 <fix>2d</fix>
 <sat>6</sat>
</trkpt>
<trkpt lat="48.322353333" lon="16.385001667">
<time>2012-06-16T19:41:36Z</time>
 <fix>2d</fix>
 <sat>6</sat>
</trkpt>
<trkpt lat="48.322315000" lon="16.384968333">
<time>2012-06-16T19:41:37Z</time>
 <fix>2d</fix>
 <sat>6</sat>
</trkpt>
<trkpt lat="48.322280000" lon="16.384948333">
<time>2012-06-16T19:41:38Z</time>
 <fix>2d</fix>
 <sat>6</sat>
</trkpt>
<trkpt lat="48.322258333" lon="16.384930000">
<time>2012-06-16T19:41:39Z</time>
 <fix>2d</fix>
 <sat>6</sat>
</trkpt>
<trkpt lat="48.322230000" lon="16.384895000">
<time>2012-06-16T19:41:40Z</time>
 <fix>2d</fix>
 <sat>6</sat>
</trkpt>
<trkpt lat="48.322205000" lon="16.384860000">
<time>2012-06-16T19:41:41Z</time>
 <fix>2d</fix>
 <sat>6</sat>
</trkpt>
<trkpt lat="48.322163333" lon="16.384843333">
<time>2012-06-16T19:41:42Z</time>
 <fix>2d</fix>
 <sat>6</sat>
</trkpt>
<trkpt lat="48.322128333" lon="16.384815000">
<time>2012-06-16T19:41:43Z</time>
 <fix>2d</fix>
 <sat>6</sat>
</trkpt>
<trkpt lat="48.322095000" lon="16.384763333">
<time>2012-06-16T19:41:44Z</time>
 <fix>2d</fix>
 <sat>6</sat>
</trkpt>
<trkpt lat="48.322066667" lon="16.384711667">
<time>2012-06-16T19:41:45Z</time>
 <fix>2d</fix>
 <sat>6</sat>
</trkpt>
<trkpt lat="48.322051667" lon="16.384660000">
<time>2012-06-16T19:41:46Z</time>
 <fix>2d</fix>
 <sat>6</sat>
</trkpt>
<trkpt lat="48.322038333" lon="16.384596667">
<time>2012-06-16T19:41:47Z</time>
 <fix>2d</fix>
 <sat>6</sat>
</trkpt>
<trkpt lat="48.322033333" lon="16.384531667">
<time>2012-06-16T19:41:48Z</time>
 <fix>2d</fix>
 <sat>6</sat>
</trkpt>
<trkpt lat="48.322036667" lon="16.384475000">
<time>2012-06-16T19:41:49Z</time>
 <fix>2d</fix>
 <sat>6</sat>
</trkpt>
<trkpt lat="48.322046667" lon="16.384426667">
<time>2012-06-16T19:41:50Z</time>
 <fix>2d</fix>
 <sat>6</sat>
</trkpt>
<trkpt lat="48.322061667" lon="16.384383333">
<time>2012-06-16T19:41:51Z</time>
 <fix>2d</fix>
 <sat>6</sat>
</trkpt>
<trkpt lat="48.322076667" lon="16.384345000">
<time>2012-06-16T19:41:52Z</time>
 <fix>2d</fix>
 <sat>6</sat>
</trkpt>
<trkpt lat="48.322086667" lon="16.384316667">
<time>2012-06-16T19:41:53Z</time>
 <fix>2d</fix>
 <sat>6</sat>
</trkpt>
<trkpt lat="48.322101667" lon="16.384295000">
<time>2012-06-16T19:41:54Z</time>
 <fix>2d</fix>
 <sat>6</sat>
</trkpt>
<trkpt lat="48.322118333" lon="16.384268333">
<time>2012-06-16T19:41:55Z</time>
 <fix>2d</fix>
 <sat>6</sat>
</trkpt>
<trkpt lat="48.322133333" lon="16.384245000">
<time>2012-06-16T19:41:56Z</time>
 <fix>2d</fix>
 <sat>6</sat>
</trkpt>
<trkpt lat="48.322150000" lon="16.384191667">
<time>2012-06-16T19:41:57Z</time>
 <fix>2d</fix>
 <sat>6</sat>
</trkpt>
<trkpt lat="48.322170000" lon="16.384141667">
<time>2012-06-16T19:41:58Z</time>
 <fix>2d</fix>
 <sat>6</sat>
</trkpt>
<trkpt lat="48.322181667" lon="16.384098333">
<time>2012-06-16T19:41:59Z</time>
 <fix>2d</fix>
 <sat>6</sat>
</trkpt>
<trkpt lat="48.322193333" lon="16.384060000">
<time>2012-06-16T19:42:00Z</time>
 <fix>2d</fix>
 <sat>6</sat>
</trkpt>
<trkpt lat="48.322201667" lon="16.384031667">
<time>2012-06-16T19:42:01Z</time>
 <fix>2d</fix>
 <sat>6</sat>
</trkpt>
<trkpt lat="48.322208333" lon="16.383991667">
<time>2012-06-16T19:42:02Z</time>
 <fix>2d</fix>
 <sat>6</sat>
</trkpt>
<trkpt lat="48.322201667" lon="16.383948333">
<time>2012-06-16T19:42:03Z</time>
 <fix>2d</fix>
 <sat>6</sat>
</trkpt>
<trkpt lat="48.322196667" lon="16.383910000">
<time>2012-06-16T19:42:04Z</time>
 <fix>2d</fix>
 <sat>6</sat>
</trkpt>
<trkpt lat="48.322186667" lon="16.383865000">
<time>2012-06-16T19:42:05Z</time>
 <fix>2d</fix>
 <sat>6</sat>
</trkpt>
<trkpt lat="48.322166667" lon="16.383823333">
<time>2012-06-16T19:42:06Z</time>
 <fix>2d</fix>
 <sat>6</sat>
</trkpt>
<trkpt lat="48.322136667" lon="16.383780000">
<time>2012-06-16T19:42:07Z</time>
 <fix>2d</fix>
 <sat>6</sat>
</trkpt>
<trkpt lat="48.322106667" lon="16.383738333">
<time>2012-06-16T19:42:08Z</time>
 <fix>2d</fix>
 <sat>6</sat>
</trkpt>
<trkpt lat="48.322068333" lon="16.383703333">
<time>2012-06-16T19:42:09Z</time>
 <fix>2d</fix>
 <sat>6</sat>
</trkpt>
<trkpt lat="48.322031667" lon="16.383671667">
<time>2012-06-16T19:42:10Z</time>
 <fix>2d</fix>
 <sat>6</sat>
</trkpt>
<trkpt lat="48.321996667" lon="16.383628333">
<time>2012-06-16T19:42:11Z</time>
 <fix>2d</fix>
 <sat>6</sat>
</trkpt>
<trkpt lat="48.321953333" lon="16.383603333">
<time>2012-06-16T19:42:12Z</time>
 <fix>2d</fix>
 <sat>6</sat>
</trkpt>
<trkpt lat="48.321908333" lon="16.383565000">
<time>2012-06-16T19:42:13Z</time>
 <fix>2d</fix>
 <sat>6</sat>
</trkpt>
<trkpt lat="48.321846667" lon="16.383536667">
<time>2012-06-16T19:42:14Z</time>
 <fix>2d</fix>
 <sat>6</sat>
</trkpt>
<trkpt lat="48.321793333" lon="16.383500000">
<time>2012-06-16T19:42:15Z</time>
 <fix>2d</fix>
 <sat>6</sat>
</trkpt>
<trkpt lat="48.321731667" lon="16.383433333">
<time>2012-06-16T19:42:16Z</time>
 <fix>2d</fix>
 <sat>6</sat>
</trkpt>
<trkpt lat="48.321670000" lon="16.383363333">
<time>2012-06-16T19:42:17Z</time>
 <fix>2d</fix>
 <sat>6</sat>
</trkpt>
<trkpt lat="48.321601667" lon="16.383308333">
<time>2012-06-16T19:42:18Z</time>
 <fix>2d</fix>
 <sat>6</sat>
</trkpt>
<trkpt lat="48.321521667" lon="16.383260000">
<time>2012-06-16T19:42:19Z</time>
 <fix>2d</fix>
 <sat>6</sat>
</trkpt>
<trkpt lat="48.321450000" lon="16.383218333">
<time>2012-06-16T19:42:20Z</time>
 <fix>2d</fix>
 <sat>6</sat>
</trkpt>
<trkpt lat="48.321380000" lon="16.383165000">
<time>2012-06-16T19:42:21Z</time>
 <fix>2d</fix>
 <sat>6</sat>
</trkpt>
<trkpt lat="48.321301667" lon="16.383115000">
<time>2012-06-16T19:42:22Z</time>
 <fix>2d</fix>
 <sat>6</sat>
</trkpt>
<trkpt lat="48.321213333" lon="16.383066667">
<time>2012-06-16T19:42:23Z</time>
 <fix>2d</fix>
 <sat>6</sat>
</trkpt>
<trkpt lat="48.321111667" lon="16.383018333">
<time>2012-06-16T19:42:24Z</time>
 <fix>2d</fix>
 <sat>6</sat>
</trkpt>
<trkpt lat="48.321036667" lon="16.382958333">
<time>2012-06-16T19:42:25Z</time>
 <fix>2d</fix>
 <sat>5</sat>
</trkpt>
<trkpt lat="48.320973333" lon="16.382925000">
<time>2012-06-16T19:42:26Z</time>
 <fix>2d</fix>
 <sat>6</sat>
</trkpt>
<trkpt lat="48.320906667" lon="16.382871667">
<time>2012-06-16T19:42:27Z</time>
 <fix>2d</fix>
 <sat>6</sat>
</trkpt>
<trkpt lat="48.320850000" lon="16.382816667">
<time>2012-06-16T19:42:28Z</time>
 <fix>2d</fix>
 <sat>6</sat>
</trkpt>
<trkpt lat="48.320796667" lon="16.382753333">
<time>2012-06-16T19:42:29Z</time>
 <fix>2d</fix>
 <sat>6</sat>
</trkpt>
<trkpt lat="48.320723333" lon="16.382683333">
<time>2012-06-16T19:42:30Z</time>
 <fix>2d</fix>
 <sat>6</sat>
</trkpt>
<trkpt lat="48.320651667" lon="16.382666667">
<time>2012-06-16T19:42:31Z</time>
 <fix>2d</fix>
 <sat>6</sat>
</trkpt>
<trkpt lat="48.320583333" lon="16.382648333">
<time>2012-06-16T19:42:32Z</time>
 <fix>2d</fix>
 <sat>6</sat>
</trkpt>
<trkpt lat="48.320541667" lon="16.382626667">
<time>2012-06-16T19:42:33Z</time>
 <fix>2d</fix>
 <sat>6</sat>
</trkpt>
<trkpt lat="48.320520000" lon="16.382611667">
<time>2012-06-16T19:42:34Z</time>
 <fix>2d</fix>
 <sat>6</sat>
</trkpt>
<trkpt lat="48.320473333" lon="16.382590000">
<time>2012-06-16T19:42:35Z</time>
 <fix>2d</fix>
 <sat>6</sat>
</trkpt>
<trkpt lat="48.320425000" lon="16.382578333">
<time>2012-06-16T19:42:36Z</time>
 <fix>2d</fix>
 <sat>6</sat>
</trkpt>
<trkpt lat="48.320376667" lon="16.382568333">
<time>2012-06-16T19:42:37Z</time>
 <fix>2d</fix>
 <sat>6</sat>
</trkpt>
<trkpt lat="48.320338333" lon="16.382556667">
<time>2012-06-16T19:42:38Z</time>
 <fix>2d</fix>
 <sat>6</sat>
</trkpt>
<trkpt lat="48.320301667" lon="16.382543333">
<time>2012-06-16T19:42:39Z</time>
 <fix>2d</fix>
 <sat>6</sat>
</trkpt>
<trkpt lat="48.320263333" lon="16.382531667">
<time>2012-06-16T19:42:40Z</time>
 <fix>2d</fix>
 <sat>6</sat>
</trkpt>
<trkpt lat="48.320233333" lon="16.382520000">
<time>2012-06-16T19:42:41Z</time>
 <fix>2d</fix>
 <sat>6</sat>
</trkpt>
<trkpt lat="48.320201667" lon="16.382511667">
<time>2012-06-16T19:42:42Z</time>
 <fix>2d</fix>
 <sat>6</sat>
</trkpt>
<trkpt lat="48.320166667" lon="16.382505000">
<time>2012-06-16T19:42:43Z</time>
 <fix>2d</fix>
 <sat>6</sat>
</trkpt>
<trkpt lat="48.320138333" lon="16.382513333">
<time>2012-06-16T19:42:44Z</time>
 <fix>2d</fix>
 <sat>6</sat>
</trkpt>
<trkpt lat="48.320110000" lon="16.382510000">
<time>2012-06-16T19:42:45Z</time>
 <fix>2d</fix>
 <sat>6</sat>
</trkpt>
<trkpt lat="48.320083333" lon="16.382505000">
<time>2012-06-16T19:42:46Z</time>
 <fix>2d</fix>
 <sat>6</sat>
</trkpt>
<trkpt lat="48.320060000" lon="16.382498333">
<time>2012-06-16T19:42:47Z</time>
 <fix>2d</fix>
 <sat>6</sat>
</trkpt>
<trkpt lat="48.320038333" lon="16.382486667">
<time>2012-06-16T19:42:48Z</time>
 <fix>2d</fix>
 <sat>6</sat>
</trkpt>
<trkpt lat="48.320020000" lon="16.382473333">
<time>2012-06-16T19:42:49Z</time>
 <fix>2d</fix>
 <sat>6</sat>
</trkpt>
<trkpt lat="48.320000000" lon="16.382470000">
<time>2012-06-16T19:42:50Z</time>
 <fix>2d</fix>
 <sat>6</sat>
</trkpt>
<trkpt lat="48.319973333" lon="16.382470000">
<time>2012-06-16T19:42:51Z</time>
 <fix>2d</fix>
 <sat>6</sat>
</trkpt>
<trkpt lat="48.319950000" lon="16.382470000">
<time>2012-06-16T19:42:52Z</time>
 <fix>2d</fix>
 <sat>6</sat>
</trkpt>
<trkpt lat="48.319928333" lon="16.382465000">
<time>2012-06-16T19:42:53Z</time>
 <fix>2d</fix>
 <sat>6</sat>
</trkpt>
<trkpt lat="48.319913333" lon="16.382458333">
<time>2012-06-16T19:42:54Z</time>
 <fix>2d</fix>
 <sat>6</sat>
</trkpt>
<trkpt lat="48.319891667" lon="16.382456667">
<time>2012-06-16T19:42:55Z</time>
 <fix>2d</fix>
 <sat>6</sat>
</trkpt>
<trkpt lat="48.319868333" lon="16.382453333">
<time>2012-06-16T19:42:56Z</time>
 <fix>2d</fix>
 <sat>6</sat>
</trkpt>
<trkpt lat="48.319851667" lon="16.382451667">
<time>2012-06-16T19:42:57Z</time>
 <fix>2d</fix>
 <sat>6</sat>
</trkpt>
<trkpt lat="48.319826667" lon="16.382446667">
<time>2012-06-16T19:42:58Z</time>
 <fix>2d</fix>
 <sat>6</sat>
</trkpt>
<trkpt lat="48.319798333" lon="16.382441667">
<time>2012-06-16T19:42:59Z</time>
 <fix>2d</fix>
 <sat>6</sat>
</trkpt>
<trkpt lat="48.319778333" lon="16.382438333">
<time>2012-06-16T19:43:00Z</time>
 <fix>2d</fix>
 <sat>6</sat>
</trkpt>
<trkpt lat="48.319758333" lon="16.382435000">
<time>2012-06-16T19:43:01Z</time>
 <fix>2d</fix>
 <sat>6</sat>
</trkpt>
<trkpt lat="48.319726667" lon="16.382423333">
<time>2012-06-16T19:43:02Z</time>
 <fix>2d</fix>
 <sat>6</sat>
</trkpt>
<trkpt lat="48.319700000" lon="16.382413333">
<time>2012-06-16T19:43:03Z</time>
 <fix>2d</fix>
 <sat>6</sat>
</trkpt>
<trkpt lat="48.319671667" lon="16.382401667">
<time>2012-06-16T19:43:04Z</time>
 <fix>2d</fix>
 <sat>6</sat>
</trkpt>
<trkpt lat="48.319646667" lon="16.382395000">
<time>2012-06-16T19:43:05Z</time>
 <fix>2d</fix>
 <sat>6</sat>
</trkpt>
<trkpt lat="48.319625000" lon="16.382390000">
<time>2012-06-16T19:43:06Z</time>
 <fix>2d</fix>
 <sat>6</sat>
</trkpt>
<trkpt lat="48.319603333" lon="16.382388333">
<time>2012-06-16T19:43:07Z</time>
 <fix>2d</fix>
 <sat>6</sat>
</trkpt>
<trkpt lat="48.319583333" lon="16.382378333">
<time>2012-06-16T19:43:08Z</time>
 <fix>2d</fix>
 <sat>6</sat>
</trkpt>
<trkpt lat="48.319563333" lon="16.382360000">
<time>2012-06-16T19:43:09Z</time>
 <fix>2d</fix>
 <sat>6</sat>
</trkpt>
<trkpt lat="48.319540000" lon="16.382361667">
<time>2012-06-16T19:43:10Z</time>
 <fix>2d</fix>
 <sat>6</sat>
</trkpt>
<trkpt lat="48.319511667" lon="16.382361667">
<time>2012-06-16T19:43:11Z</time>
 <fix>2d</fix>
 <sat>6</sat>
</trkpt>
<trkpt lat="48.319488333" lon="16.382353333">
<time>2012-06-16T19:43:12Z</time>
 <fix>2d</fix>
 <sat>6</sat>
</trkpt>
<trkpt lat="48.319465000" lon="16.382346667">
<time>2012-06-16T19:43:13Z</time>
 <fix>2d</fix>
 <sat>6</sat>
</trkpt>
<trkpt lat="48.319441667" lon="16.382335000">
<time>2012-06-16T19:43:14Z</time>
 <fix>2d</fix>
 <sat>6</sat>
</trkpt>
<trkpt lat="48.319423333" lon="16.382321667">
<time>2012-06-16T19:43:15Z</time>
 <fix>2d</fix>
 <sat>6</sat>
</trkpt>
<trkpt lat="48.319401667" lon="16.382311667">
<time>2012-06-16T19:43:16Z</time>
 <fix>2d</fix>
 <sat>6</sat>
</trkpt>
<trkpt lat="48.319386667" lon="16.382301667">
<time>2012-06-16T19:43:17Z</time>
 <fix>2d</fix>
 <sat>6</sat>
</trkpt>
<trkpt lat="48.319360000" lon="16.382295000">
<time>2012-06-16T19:43:18Z</time>
 <fix>2d</fix>
 <sat>6</sat>
</trkpt>
<trkpt lat="48.319341667" lon="16.382280000">
<time>2012-06-16T19:43:19Z</time>
 <fix>2d</fix>
 <sat>6</sat>
</trkpt>
<trkpt lat="48.319316667" lon="16.382263333">
<time>2012-06-16T19:43:20Z</time>
 <fix>2d</fix>
 <sat>6</sat>
</trkpt>
<trkpt lat="48.319300000" lon="16.382271667">
<time>2012-06-16T19:43:21Z</time>
 <fix>2d</fix>
 <sat>6</sat>
</trkpt>
<trkpt lat="48.319276667" lon="16.382275000">
<time>2012-06-16T19:43:22Z</time>
 <fix>2d</fix>
 <sat>6</sat>
</trkpt>
<trkpt lat="48.319258333" lon="16.382278333">
<time>2012-06-16T19:43:23Z</time>
 <fix>2d</fix>
 <sat>6</sat>
</trkpt>
<trkpt lat="48.319236667" lon="16.382271667">
<time>2012-06-16T19:43:24Z</time>
 <fix>2d</fix>
 <sat>6</sat>
</trkpt>
<trkpt lat="48.319213333" lon="16.382268333">
<time>2012-06-16T19:43:25Z</time>
 <fix>2d</fix>
 <sat>6</sat>
</trkpt>
<trkpt lat="48.319188333" lon="16.382261667">
<time>2012-06-16T19:43:26Z</time>
 <fix>2d</fix>
 <sat>6</sat>
</trkpt>
<trkpt lat="48.319165000" lon="16.382255000">
<time>2012-06-16T19:43:27Z</time>
 <fix>2d</fix>
 <sat>6</sat>
</trkpt>
<trkpt lat="48.319135000" lon="16.382246667">
<time>2012-06-16T19:43:28Z</time>
 <fix>2d</fix>
 <sat>6</sat>
</trkpt>
<trkpt lat="48.319106667" lon="16.382245000">
<time>2012-06-16T19:43:29Z</time>
 <fix>2d</fix>
 <sat>6</sat>
</trkpt>
<trkpt lat="48.319073333" lon="16.382245000">
<time>2012-06-16T19:43:30Z</time>
 <fix>2d</fix>
 <sat>6</sat>
</trkpt>
<trkpt lat="48.319046667" lon="16.382235000">
<time>2012-06-16T19:43:31Z</time>
 <fix>2d</fix>
 <sat>6</sat>
</trkpt>
<trkpt lat="48.319021667" lon="16.382231667">
<time>2012-06-16T19:43:32Z</time>
 <fix>2d</fix>
 <sat>6</sat>
</trkpt>
<trkpt lat="48.318996667" lon="16.382221667">
<time>2012-06-16T19:43:33Z</time>
 <fix>2d</fix>
 <sat>6</sat>
</trkpt>
<trkpt lat="48.318973333" lon="16.382220000">
<time>2012-06-16T19:43:34Z</time>
 <fix>2d</fix>
 <sat>6</sat>
</trkpt>
<trkpt lat="48.318941667" lon="16.382220000">
<time>2012-06-16T19:43:35Z</time>
 <fix>2d</fix>
 <sat>6</sat>
</trkpt>
<trkpt lat="48.318913333" lon="16.382216667">
<time>2012-06-16T19:43:36Z</time>
 <fix>2d</fix>
 <sat>6</sat>
</trkpt>
<trkpt lat="48.318883333" lon="16.382211667">
<time>2012-06-16T19:43:37Z</time>
 <fix>2d</fix>
 <sat>6</sat>
</trkpt>
<trkpt lat="48.318858333" lon="16.382205000">
<time>2012-06-16T19:43:38Z</time>
 <fix>2d</fix>
 <sat>6</sat>
</trkpt>
<trkpt lat="48.318838333" lon="16.382200000">
<time>2012-06-16T19:43:39Z</time>
 <fix>2d</fix>
 <sat>6</sat>
</trkpt>
<trkpt lat="48.318818333" lon="16.382191667">
<time>2012-06-16T19:43:40Z</time>
 <fix>2d</fix>
 <sat>6</sat>
</trkpt>
<trkpt lat="48.318795000" lon="16.382191667">
<time>2012-06-16T19:43:41Z</time>
 <fix>2d</fix>
 <sat>6</sat>
</trkpt>
<trkpt lat="48.318775000" lon="16.382185000">
<time>2012-06-16T19:43:42Z</time>
 <fix>2d</fix>
 <sat>6</sat>
</trkpt>
<trkpt lat="48.318755000" lon="16.382171667">
<time>2012-06-16T19:43:43Z</time>
 <fix>2d</fix>
 <sat>6</sat>
</trkpt>
<trkpt lat="48.318740000" lon="16.382165000">
<time>2012-06-16T19:43:44Z</time>
 <fix>2d</fix>
 <sat>6</sat>
</trkpt>
<trkpt lat="48.318726667" lon="16.382160000">
<time>2012-06-16T19:43:45Z</time>
 <fix>2d</fix>
 <sat>6</sat>
</trkpt>
<trkpt lat="48.318708333" lon="16.382160000">
<time>2012-06-16T19:43:46Z</time>
 <fix>2d</fix>
 <sat>6</sat>
</trkpt>
<trkpt lat="48.318691667" lon="16.382146667">
<time>2012-06-16T19:43:47Z</time>
 <fix>2d</fix>
 <sat>6</sat>
</trkpt>
<trkpt lat="48.318663333" lon="16.382125000">
<time>2012-06-16T19:43:48Z</time>
 <fix>2d</fix>
 <sat>6</sat>
</trkpt>
<trkpt lat="48.318635000" lon="16.382108333">
<time>2012-06-16T19:43:49Z</time>
 <fix>2d</fix>
 <sat>6</sat>
</trkpt>
<trkpt lat="48.318606667" lon="16.382096667">
<time>2012-06-16T19:43:50Z</time>
 <fix>2d</fix>
 <sat>6</sat>
</trkpt>
<trkpt lat="48.318578333" lon="16.382100000">
<time>2012-06-16T19:43:51Z</time>
 <fix>2d</fix>
 <sat>6</sat>
</trkpt>
<trkpt lat="48.318555000" lon="16.382108333">
<time>2012-06-16T19:43:52Z</time>
 <fix>2d</fix>
 <sat>6</sat>
</trkpt>
<trkpt lat="48.318530000" lon="16.382100000">
<time>2012-06-16T19:43:53Z</time>
 <fix>2d</fix>
 <sat>6</sat>
</trkpt>
<trkpt lat="48.318506667" lon="16.382093333">
<time>2012-06-16T19:43:54Z</time>
 <fix>2d</fix>
 <sat>6</sat>
</trkpt>
<trkpt lat="48.318485000" lon="16.382073333">
<time>2012-06-16T19:43:55Z</time>
 <fix>2d</fix>
 <sat>6</sat>
</trkpt>
<trkpt lat="48.318465000" lon="16.382070000">
<time>2012-06-16T19:43:56Z</time>
 <fix>2d</fix>
 <sat>6</sat>
</trkpt>
<trkpt lat="48.318443333" lon="16.382070000">
<time>2012-06-16T19:43:57Z</time>
 <fix>2d</fix>
 <sat>6</sat>
</trkpt>
<trkpt lat="48.318416667" lon="16.382073333">
<time>2012-06-16T19:43:58Z</time>
 <fix>2d</fix>
 <sat>6</sat>
</trkpt>
<trkpt lat="48.318396667" lon="16.382061667">
<time>2012-06-16T19:43:59Z</time>
 <fix>2d</fix>
 <sat>6</sat>
</trkpt>
<trkpt lat="48.318376667" lon="16.382050000">
<time>2012-06-16T19:44:00Z</time>
 <fix>2d</fix>
 <sat>6</sat>
</trkpt>
<trkpt lat="48.318353333" lon="16.382038333">
<time>2012-06-16T19:44:01Z</time>
 <fix>2d</fix>
 <sat>6</sat>
</trkpt>
<trkpt lat="48.318321667" lon="16.382025000">
<time>2012-06-16T19:44:02Z</time>
 <fix>2d</fix>
 <sat>6</sat>
</trkpt>
<trkpt lat="48.318293333" lon="16.382006667">
<time>2012-06-16T19:44:03Z</time>
 <fix>2d</fix>
 <sat>6</sat>
</trkpt>
<trkpt lat="48.318266667" lon="16.381996667">
<time>2012-06-16T19:44:04Z</time>
 <fix>2d</fix>
 <sat>6</sat>
</trkpt>
<trkpt lat="48.318241667" lon="16.381990000">
<time>2012-06-16T19:44:05Z</time>
 <fix>2d</fix>
 <sat>6</sat>
</trkpt>
<trkpt lat="48.318215000" lon="16.381975000">
<time>2012-06-16T19:44:06Z</time>
 <fix>2d</fix>
 <sat>6</sat>
</trkpt>
<trkpt lat="48.318186667" lon="16.381966667">
<time>2012-06-16T19:44:07Z</time>
 <fix>2d</fix>
 <sat>6</sat>
</trkpt>
<trkpt lat="48.318163333" lon="16.381966667">
<time>2012-06-16T19:44:08Z</time>
 <fix>2d</fix>
 <sat>6</sat>
</trkpt>
<trkpt lat="48.318121667" lon="16.381986667">
<time>2012-06-16T19:44:09Z</time>
 <fix>2d</fix>
 <sat>6</sat>
</trkpt>
<trkpt lat="48.318080000" lon="16.381983333">
<time>2012-06-16T19:44:10Z</time>
 <fix>2d</fix>
 <sat>6</sat>
</trkpt>
<trkpt lat="48.318045000" lon="16.381973333">
<time>2012-06-16T19:44:11Z</time>
 <fix>2d</fix>
 <sat>6</sat>
</trkpt>
<trkpt lat="48.318020000" lon="16.381961667">
<time>2012-06-16T19:44:12Z</time>
 <fix>2d</fix>
 <sat>6</sat>
</trkpt>
<trkpt lat="48.317985000" lon="16.381951667">
<time>2012-06-16T19:44:13Z</time>
 <fix>2d</fix>
 <sat>6</sat>
</trkpt>
<trkpt lat="48.317955000" lon="16.381945000">
<time>2012-06-16T19:44:14Z</time>
 <fix>2d</fix>
 <sat>6</sat>
</trkpt>
<trkpt lat="48.317930000" lon="16.381930000">
<time>2012-06-16T19:44:15Z</time>
 <fix>2d</fix>
 <sat>6</sat>
</trkpt>
<trkpt lat="48.317906667" lon="16.381906667">
<time>2012-06-16T19:44:16Z</time>
 <fix>2d</fix>
 <sat>6</sat>
</trkpt>
<trkpt lat="48.317891667" lon="16.381898333">
<time>2012-06-16T19:44:17Z</time>
 <fix>2d</fix>
 <sat>6</sat>
</trkpt>
<trkpt lat="48.317871667" lon="16.381895000">
<time>2012-06-16T19:44:18Z</time>
 <fix>2d</fix>
 <sat>6</sat>
</trkpt>
<trkpt lat="48.317846667" lon="16.381893333">
<time>2012-06-16T19:44:19Z</time>
 <fix>2d</fix>
 <sat>6</sat>
</trkpt>
<trkpt lat="48.317821667" lon="16.381888333">
<time>2012-06-16T19:44:20Z</time>
 <fix>2d</fix>
 <sat>6</sat>
</trkpt>
<trkpt lat="48.317798333" lon="16.381883333">
<time>2012-06-16T19:44:21Z</time>
 <fix>2d</fix>
 <sat>6</sat>
</trkpt>
<trkpt lat="48.317768333" lon="16.381876667">
<time>2012-06-16T19:44:22Z</time>
 <fix>2d</fix>
 <sat>6</sat>
</trkpt>
<trkpt lat="48.317740000" lon="16.381876667">
<time>2012-06-16T19:44:23Z</time>
 <fix>2d</fix>
 <sat>6</sat>
</trkpt>
<trkpt lat="48.317706667" lon="16.381881667">
<time>2012-06-16T19:44:24Z</time>
 <fix>2d</fix>
 <sat>6</sat>
</trkpt>
<trkpt lat="48.317675000" lon="16.381883333">
<time>2012-06-16T19:44:25Z</time>
 <fix>2d</fix>
 <sat>6</sat>
</trkpt>
<trkpt lat="48.317640000" lon="16.381876667">
<time>2012-06-16T19:44:26Z</time>
 <fix>2d</fix>
 <sat>6</sat>
</trkpt>
<trkpt lat="48.317610000" lon="16.381865000">
<time>2012-06-16T19:44:27Z</time>
 <fix>2d</fix>
 <sat>6</sat>
</trkpt>
<trkpt lat="48.317581667" lon="16.381860000">
<time>2012-06-16T19:44:28Z</time>
 <fix>2d</fix>
 <sat>6</sat>
</trkpt>
<trkpt lat="48.317551667" lon="16.381856667">
<time>2012-06-16T19:44:29Z</time>
 <fix>2d</fix>
 <sat>6</sat>
</trkpt>
<trkpt lat="48.317521667" lon="16.381848333">
<time>2012-06-16T19:44:30Z</time>
 <fix>2d</fix>
 <sat>6</sat>
</trkpt>
<trkpt lat="48.317485000" lon="16.381843333">
<time>2012-06-16T19:44:31Z</time>
 <fix>2d</fix>
 <sat>6</sat>
</trkpt>
<trkpt lat="48.317455000" lon="16.381825000">
<time>2012-06-16T19:44:32Z</time>
 <fix>2d</fix>
 <sat>6</sat>
</trkpt>
<trkpt lat="48.317428333" lon="16.381808333">
<time>2012-06-16T19:44:33Z</time>
 <fix>2d</fix>
 <sat>6</sat>
</trkpt>
<trkpt lat="48.317395000" lon="16.381796667">
<time>2012-06-16T19:44:34Z</time>
 <fix>2d</fix>
 <sat>6</sat>
</trkpt>
<trkpt lat="48.317363333" lon="16.381785000">
<time>2012-06-16T19:44:35Z</time>
 <fix>2d</fix>
 <sat>6</sat>
</trkpt>
<trkpt lat="48.317335000" lon="16.381776667">
<time>2012-06-16T19:44:36Z</time>
 <fix>2d</fix>
 <sat>6</sat>
</trkpt>
<trkpt lat="48.317305000" lon="16.381773333">
<time>2012-06-16T19:44:37Z</time>
 <fix>2d</fix>
 <sat>6</sat>
</trkpt>
<trkpt lat="48.317285000" lon="16.381773333">
<time>2012-06-16T19:44:38Z</time>
 <fix>2d</fix>
 <sat>6</sat>
</trkpt>
<trkpt lat="48.317251667" lon="16.381778333">
<time>2012-06-16T19:44:39Z</time>
 <fix>2d</fix>
 <sat>6</sat>
</trkpt>
<trkpt lat="48.317213333" lon="16.381785000">
<time>2012-06-16T19:44:40Z</time>
 <fix>2d</fix>
 <sat>6</sat>
</trkpt>
<trkpt lat="48.317171667" lon="16.381793333">
<time>2012-06-16T19:44:41Z</time>
 <fix>2d</fix>
 <sat>6</sat>
</trkpt>
<trkpt lat="48.317133333" lon="16.381793333">
<time>2012-06-16T19:44:42Z</time>
 <fix>2d</fix>
 <sat>6</sat>
</trkpt>
<trkpt lat="48.317088333" lon="16.381806667">
<time>2012-06-16T19:44:43Z</time>
 <fix>2d</fix>
 <sat>6</sat>
</trkpt>
<trkpt lat="48.317055000" lon="16.381813333">
<time>2012-06-16T19:44:44Z</time>
 <fix>2d</fix>
 <sat>6</sat>
</trkpt>
<trkpt lat="48.317030000" lon="16.381825000">
<time>2012-06-16T19:44:45Z</time>
 <fix>2d</fix>
 <sat>6</sat>
</trkpt>
<trkpt lat="48.317005000" lon="16.381831667">
<time>2012-06-16T19:44:46Z</time>
 <fix>2d</fix>
 <sat>6</sat>
</trkpt>
<trkpt lat="48.316978333" lon="16.381828333">
<time>2012-06-16T19:44:47Z</time>
 <fix>2d</fix>
 <sat>6</sat>
</trkpt>
<trkpt lat="48.316953333" lon="16.381825000">
<time>2012-06-16T19:44:48Z</time>
 <fix>2d</fix>
 <sat>6</sat>
</trkpt>
<trkpt lat="48.316916667" lon="16.381835000">
<time>2012-06-16T19:44:49Z</time>
 <fix>2d</fix>
 <sat>6</sat>
</trkpt>
<trkpt lat="48.316876667" lon="16.381841667">
<time>2012-06-16T19:44:50Z</time>
 <fix>2d</fix>
 <sat>6</sat>
</trkpt>
<trkpt lat="48.316838333" lon="16.381843333">
<time>2012-06-16T19:44:51Z</time>
 <fix>2d</fix>
 <sat>6</sat>
</trkpt>
<trkpt lat="48.316793333" lon="16.381843333">
<time>2012-06-16T19:44:52Z</time>
 <fix>2d</fix>
 <sat>6</sat>
</trkpt>
<trkpt lat="48.316748333" lon="16.381851667">
<time>2012-06-16T19:44:53Z</time>
 <fix>2d</fix>
 <sat>6</sat>
</trkpt>
<trkpt lat="48.316703333" lon="16.381858333">
<time>2012-06-16T19:44:54Z</time>
 <fix>2d</fix>
 <sat>6</sat>
</trkpt>
<trkpt lat="48.316656667" lon="16.381871667">
<time>2012-06-16T19:44:55Z</time>
 <fix>2d</fix>
 <sat>6</sat>
</trkpt>
<trkpt lat="48.316611667" lon="16.381883333">
<time>2012-06-16T19:44:56Z</time>
 <fix>2d</fix>
 <sat>6</sat>
</trkpt>
<trkpt lat="48.316561667" lon="16.381891667">
<time>2012-06-16T19:44:57Z</time>
 <fix>2d</fix>
 <sat>6</sat>
</trkpt>
<trkpt lat="48.316510000" lon="16.381905000">
<time>2012-06-16T19:44:58Z</time>
 <fix>2d</fix>
 <sat>6</sat>
</trkpt>
<trkpt lat="48.316445000" lon="16.381920000">
<time>2012-06-16T19:44:59Z</time>
 <fix>2d</fix>
 <sat>6</sat>
</trkpt>
<trkpt lat="48.316391667" lon="16.381926667">
<time>2012-06-16T19:45:00Z</time>
 <fix>2d</fix>
 <sat>6</sat>
</trkpt>
<trkpt lat="48.316345000" lon="16.381931667">
<time>2012-06-16T19:45:01Z</time>
 <fix>2d</fix>
 <sat>6</sat>
</trkpt>
<trkpt lat="48.316291667" lon="16.381935000">
<time>2012-06-16T19:45:02Z</time>
 <fix>2d</fix>
 <sat>6</sat>
</trkpt>
<trkpt lat="48.316225000" lon="16.381930000">
<time>2012-06-16T19:45:03Z</time>
 <fix>2d</fix>
 <sat>6</sat>
</trkpt>
<trkpt lat="48.316166667" lon="16.381940000">
<time>2012-06-16T19:45:04Z</time>
 <fix>2d</fix>
 <sat>6</sat>
</trkpt>
<trkpt lat="48.316126667" lon="16.381956667">
<time>2012-06-16T19:45:05Z</time>
 <fix>2d</fix>
 <sat>6</sat>
</trkpt>
<trkpt lat="48.316080000" lon="16.381978333">
<time>2012-06-16T19:45:06Z</time>
 <fix>2d</fix>
 <sat>6</sat>
</trkpt>
<trkpt lat="48.316043333" lon="16.381998333">
<time>2012-06-16T19:45:07Z</time>
 <fix>2d</fix>
 <sat>6</sat>
</trkpt>
<trkpt lat="48.316008333" lon="16.382015000">
<time>2012-06-16T19:45:08Z</time>
 <fix>2d</fix>
 <sat>6</sat>
</trkpt>
<trkpt lat="48.315981667" lon="16.382036667">
<time>2012-06-16T19:45:09Z</time>
 <fix>2d</fix>
 <sat>6</sat>
</trkpt>
<trkpt lat="48.315953333" lon="16.382066667">
<time>2012-06-16T19:45:10Z</time>
 <fix>2d</fix>
 <sat>6</sat>
</trkpt>
<trkpt lat="48.315930000" lon="16.382085000">
<time>2012-06-16T19:45:11Z</time>
 <fix>2d</fix>
 <sat>6</sat>
</trkpt>
<trkpt lat="48.315915000" lon="16.382111667">
<time>2012-06-16T19:45:12Z</time>
 <fix>2d</fix>
 <sat>6</sat>
</trkpt>
<trkpt lat="48.315911667" lon="16.382135000">
<time>2012-06-16T19:45:13Z</time>
 <fix>2d</fix>
 <sat>6</sat>
</trkpt>
<trkpt lat="48.315910000" lon="16.382160000">
<time>2012-06-16T19:45:14Z</time>
 <fix>2d</fix>
 <sat>6</sat>
</trkpt>
<trkpt lat="48.315906667" lon="16.382176667">
<time>2012-06-16T19:45:15Z</time>
 <fix>2d</fix>
 <sat>6</sat>
</trkpt>
<trkpt lat="48.315903333" lon="16.382191667">
<time>2012-06-16T19:45:16Z</time>
 <fix>2d</fix>
 <sat>6</sat>
</trkpt>
<trkpt lat="48.315906667" lon="16.382200000">
<time>2012-06-16T19:45:17Z</time>
 <fix>2d</fix>
 <sat>6</sat>
</trkpt>
<trkpt lat="48.315906667" lon="16.382220000">
<time>2012-06-16T19:45:18Z</time>
 <fix>2d</fix>
 <sat>6</sat>
</trkpt>
<trkpt lat="48.315908333" lon="16.382233333">
<time>2012-06-16T19:45:19Z</time>
 <fix>2d</fix>
 <sat>6</sat>
</trkpt>
<trkpt lat="48.315911667" lon="16.382246667">
<time>2012-06-16T19:45:20Z</time>
 <fix>2d</fix>
 <sat>6</sat>
</trkpt>
<trkpt lat="48.315898333" lon="16.382256667">
<time>2012-06-16T19:45:21Z</time>
 <fix>2d</fix>
 <sat>6</sat>
</trkpt>
<trkpt lat="48.315886667" lon="16.382251667">
<time>2012-06-16T19:45:22Z</time>
 <fix>2d</fix>
 <sat>6</sat>
</trkpt>
<trkpt lat="48.315873333" lon="16.382240000">
<time>2012-06-16T19:45:23Z</time>
 <fix>2d</fix>
 <sat>6</sat>
</trkpt>
<trkpt lat="48.315860000" lon="16.382226667">
<time>2012-06-16T19:45:24Z</time>
 <fix>2d</fix>
 <sat>6</sat>
</trkpt>
<trkpt lat="48.315856667" lon="16.382198333">
<time>2012-06-16T19:45:25Z</time>
 <fix>2d</fix>
 <sat>6</sat>
</trkpt>
<trkpt lat="48.315855000" lon="16.382165000">
<time>2012-06-16T19:45:26Z</time>
 <fix>2d</fix>
 <sat>6</sat>
</trkpt>
<trkpt lat="48.315848333" lon="16.382130000">
<time>2012-06-16T19:45:27Z</time>
 <fix>2d</fix>
 <sat>6</sat>
</trkpt>
<trkpt lat="48.315843333" lon="16.382096667">
<time>2012-06-16T19:45:28Z</time>
 <fix>2d</fix>
 <sat>6</sat>
</trkpt>
<trkpt lat="48.315838333" lon="16.382058333">
<time>2012-06-16T19:45:29Z</time>
 <fix>2d</fix>
 <sat>6</sat>
</trkpt>
<trkpt lat="48.315830000" lon="16.382020000">
<time>2012-06-16T19:45:30Z</time>
 <fix>2d</fix>
 <sat>6</sat>
</trkpt>
<trkpt lat="48.315816667" lon="16.381990000">
<time>2012-06-16T19:45:31Z</time>
 <fix>2d</fix>
 <sat>6</sat>
</trkpt>
<trkpt lat="48.315800000" lon="16.381963333">
<time>2012-06-16T19:45:32Z</time>
 <fix>2d</fix>
 <sat>6</sat>
</trkpt>
<trkpt lat="48.315786667" lon="16.381935000">
<time>2012-06-16T19:45:33Z</time>
 <fix>2d</fix>
 <sat>6</sat>
</trkpt>
<trkpt lat="48.315765000" lon="16.381891667">
<time>2012-06-16T19:45:34Z</time>
 <fix>2d</fix>
 <sat>6</sat>
</trkpt>
<trkpt lat="48.315743333" lon="16.381831667">
<time>2012-06-16T19:45:35Z</time>
 <fix>2d</fix>
 <sat>6</sat>
</trkpt>
<trkpt lat="48.315723333" lon="16.381785000">
<time>2012-06-16T19:45:36Z</time>
 <fix>2d</fix>
 <sat>6</sat>
</trkpt>
<trkpt lat="48.315705000" lon="16.381741667">
<time>2012-06-16T19:45:37Z</time>
 <fix>2d</fix>
 <sat>6</sat>
</trkpt>
<trkpt lat="48.315678333" lon="16.381698333">
<time>2012-06-16T19:45:38Z</time>
 <fix>2d</fix>
 <sat>6</sat>
</trkpt>
<trkpt lat="48.315646667" lon="16.381646667">
<time>2012-06-16T19:45:39Z</time>
 <fix>2d</fix>
 <sat>6</sat>
</trkpt>
<trkpt lat="48.315611667" lon="16.381596667">
<time>2012-06-16T19:45:40Z</time>
 <fix>2d</fix>
 <sat>6</sat>
</trkpt>
<trkpt lat="48.315580000" lon="16.381546667">
<time>2012-06-16T19:45:41Z</time>
 <fix>2d</fix>
 <sat>6</sat>
</trkpt>
<trkpt lat="48.315555000" lon="16.381495000">
<time>2012-06-16T19:45:42Z</time>
 <fix>2d</fix>
 <sat>6</sat>
</trkpt>
<trkpt lat="48.315531667" lon="16.381443333">
<time>2012-06-16T19:45:43Z</time>
 <fix>2d</fix>
 <sat>6</sat>
</trkpt>
<trkpt lat="48.315516667" lon="16.381375000">
<time>2012-06-16T19:45:44Z</time>
 <fix>2d</fix>
 <sat>6</sat>
</trkpt>
<trkpt lat="48.315488333" lon="16.381311667">
<time>2012-06-16T19:45:45Z</time>
 <fix>2d</fix>
 <sat>6</sat>
</trkpt>
<trkpt lat="48.315456667" lon="16.381246667">
<time>2012-06-16T19:45:46Z</time>
 <fix>2d</fix>
 <sat>6</sat>
</trkpt>
<trkpt lat="48.315428333" lon="16.381185000">
<time>2012-06-16T19:45:47Z</time>
 <fix>2d</fix>
 <sat>6</sat>
</trkpt>
<trkpt lat="48.315401667" lon="16.381111667">
<time>2012-06-16T19:45:48Z</time>
 <fix>2d</fix>
 <sat>6</sat>
</trkpt>
<trkpt lat="48.315380000" lon="16.381048333">
<time>2012-06-16T19:45:49Z</time>
 <fix>2d</fix>
 <sat>6</sat>
</trkpt>
<trkpt lat="48.315358333" lon="16.380990000">
<time>2012-06-16T19:45:50Z</time>
 <fix>2d</fix>
 <sat>6</sat>
</trkpt>
<trkpt lat="48.315341667" lon="16.380926667">
<time>2012-06-16T19:45:51Z</time>
 <fix>2d</fix>
 <sat>6</sat>
</trkpt>
<trkpt lat="48.315325000" lon="16.380870000">
<time>2012-06-16T19:45:52Z</time>
 <fix>2d</fix>
 <sat>6</sat>
</trkpt>
<trkpt lat="48.315303333" lon="16.380803333">
<time>2012-06-16T19:45:53Z</time>
 <fix>2d</fix>
 <sat>6</sat>
</trkpt>
<trkpt lat="48.315285000" lon="16.380745000">
<time>2012-06-16T19:45:54Z</time>
 <fix>2d</fix>
 <sat>6</sat>
</trkpt>
<trkpt lat="48.315258333" lon="16.380688333">
<time>2012-06-16T19:45:55Z</time>
 <fix>2d</fix>
 <sat>6</sat>
</trkpt>
<trkpt lat="48.315233333" lon="16.380630000">
<time>2012-06-16T19:45:56Z</time>
 <fix>2d</fix>
 <sat>6</sat>
</trkpt>
<trkpt lat="48.315208333" lon="16.380570000">
<time>2012-06-16T19:45:57Z</time>
 <fix>2d</fix>
 <sat>6</sat>
</trkpt>
<trkpt lat="48.315183333" lon="16.380511667">
<time>2012-06-16T19:45:58Z</time>
 <fix>2d</fix>
 <sat>6</sat>
</trkpt>
<trkpt lat="48.315156667" lon="16.380460000">
<time>2012-06-16T19:45:59Z</time>
 <fix>2d</fix>
 <sat>6</sat>
</trkpt>
<trkpt lat="48.315123333" lon="16.380418333">
<time>2012-06-16T19:46:00Z</time>
 <fix>2d</fix>
 <sat>6</sat>
</trkpt>
<trkpt lat="48.315090000" lon="16.380390000">
<time>2012-06-16T19:46:01Z</time>
 <fix>2d</fix>
 <sat>6</sat>
</trkpt>
<trkpt lat="48.315041667" lon="16.380373333">
<time>2012-06-16T19:46:02Z</time>
 <fix>2d</fix>
 <sat>6</sat>
</trkpt>
<trkpt lat="48.314983333" lon="16.380373333">
<time>2012-06-16T19:46:03Z</time>
 <fix>2d</fix>
 <sat>6</sat>
</trkpt>
<trkpt lat="48.314928333" lon="16.380385000">
<time>2012-06-16T19:46:04Z</time>
 <fix>2d</fix>
 <sat>6</sat>
</trkpt>
<trkpt lat="48.314863333" lon="16.380396667">
<time>2012-06-16T19:46:05Z</time>
 <fix>2d</fix>
 <sat>6</sat>
</trkpt>
<trkpt lat="48.314800000" lon="16.380408333">
<time>2012-06-16T19:46:06Z</time>
 <fix>2d</fix>
 <sat>6</sat>
</trkpt>
<trkpt lat="48.314725000" lon="16.380425000">
<time>2012-06-16T19:46:07Z</time>
 <fix>2d</fix>
 <sat>6</sat>
</trkpt>
<trkpt lat="48.314650000" lon="16.380441667">
<time>2012-06-16T19:46:08Z</time>
 <fix>2d</fix>
 <sat>6</sat>
</trkpt>
<trkpt lat="48.314571667" lon="16.380446667">
<time>2012-06-16T19:46:09Z</time>
 <fix>2d</fix>
 <sat>6</sat>
</trkpt>
<trkpt lat="48.314496667" lon="16.380455000">
<time>2012-06-16T19:46:10Z</time>
 <fix>2d</fix>
 <sat>6</sat>
</trkpt>
<trkpt lat="48.314411667" lon="16.380466667">
<time>2012-06-16T19:46:11Z</time>
 <fix>2d</fix>
 <sat>6</sat>
</trkpt>
<trkpt lat="48.314333333" lon="16.380480000">
<time>2012-06-16T19:46:12Z</time>
 <fix>2d</fix>
 <sat>6</sat>
</trkpt>
<trkpt lat="48.314253333" lon="16.380493333">
<time>2012-06-16T19:46:13Z</time>
 <fix>2d</fix>
 <sat>6</sat>
</trkpt>
<trkpt lat="48.314181667" lon="16.380500000">
<time>2012-06-16T19:46:14Z</time>
 <fix>2d</fix>
 <sat>6</sat>
</trkpt>
<trkpt lat="48.314108333" lon="16.380511667">
<time>2012-06-16T19:46:15Z</time>
 <fix>2d</fix>
 <sat>6</sat>
</trkpt>
<trkpt lat="48.314035000" lon="16.380518333">
<time>2012-06-16T19:46:16Z</time>
 <fix>2d</fix>
 <sat>6</sat>
</trkpt>
<trkpt lat="48.313971667" lon="16.380506667">
<time>2012-06-16T19:46:17Z</time>
 <fix>2d</fix>
 <sat>6</sat>
</trkpt>
<trkpt lat="48.313905000" lon="16.380500000">
<time>2012-06-16T19:46:18Z</time>
 <fix>2d</fix>
 <sat>6</sat>
</trkpt>
<trkpt lat="48.313830000" lon="16.380510000">
<time>2012-06-16T19:46:19Z</time>
 <fix>2d</fix>
 <sat>6</sat>
</trkpt>
<trkpt lat="48.313753333" lon="16.380516667">
<time>2012-06-16T19:46:20Z</time>
 <fix>2d</fix>
 <sat>6</sat>
</trkpt>
<trkpt lat="48.313686667" lon="16.380523333">
<time>2012-06-16T19:46:21Z</time>
 <fix>2d</fix>
 <sat>6</sat>
</trkpt>
<trkpt lat="48.313590000" lon="16.380556667">
<time>2012-06-16T19:46:22Z</time>
 <fix>2d</fix>
 <sat>6</sat>
</trkpt>
<trkpt lat="48.313518333" lon="16.380561667">
<time>2012-06-16T19:46:23Z</time>
 <fix>2d</fix>
 <sat>6</sat>
</trkpt>
<trkpt lat="48.313433333" lon="16.380575000">
<time>2012-06-16T19:46:24Z</time>
 <fix>2d</fix>
 <sat>6</sat>
</trkpt>
<trkpt lat="48.313368333" lon="16.380593333">
<time>2012-06-16T19:46:25Z</time>
 <fix>2d</fix>
 <sat>6</sat>
</trkpt>
<trkpt lat="48.313291667" lon="16.380593333">
<time>2012-06-16T19:46:26Z</time>
 <fix>2d</fix>
 <sat>6</sat>
</trkpt>
<trkpt lat="48.313210000" lon="16.380598333">
<time>2012-06-16T19:46:27Z</time>
 <fix>2d</fix>
 <sat>6</sat>
</trkpt>
<trkpt lat="48.313145000" lon="16.380605000">
<time>2012-06-16T19:46:28Z</time>
 <fix>2d</fix>
 <sat>6</sat>
</trkpt>
<trkpt lat="48.313100000" lon="16.380603333">
<time>2012-06-16T19:46:29Z</time>
 <fix>2d</fix>
 <sat>6</sat>
</trkpt>
<trkpt lat="48.313051667" lon="16.380596667">
<time>2012-06-16T19:46:30Z</time>
 <fix>2d</fix>
 <sat>6</sat>
</trkpt>
<trkpt lat="48.313005000" lon="16.380590000">
<time>2012-06-16T19:46:31Z</time>
 <fix>2d</fix>
 <sat>6</sat>
</trkpt>
<trkpt lat="48.312948333" lon="16.380575000">
<time>2012-06-16T19:46:32Z</time>
 <fix>2d</fix>
 <sat>6</sat>
</trkpt>
<trkpt lat="48.312896667" lon="16.380563333">
<time>2012-06-16T19:46:33Z</time>
 <fix>2d</fix>
 <sat>6</sat>
</trkpt>
<trkpt lat="48.312845000" lon="16.380555000">
<time>2012-06-16T19:46:34Z</time>
 <fix>2d</fix>
 <sat>6</sat>
</trkpt>
<trkpt lat="48.312800000" lon="16.380555000">
<time>2012-06-16T19:46:35Z</time>
 <fix>2d</fix>
 <sat>6</sat>
</trkpt>
<trkpt lat="48.312771667" lon="16.380545000">
<time>2012-06-16T19:46:36Z</time>
 <fix>2d</fix>
 <sat>6</sat>
</trkpt>
<trkpt lat="48.312736667" lon="16.380541667">
<time>2012-06-16T19:46:37Z</time>
 <fix>2d</fix>
 <sat>6</sat>
</trkpt>
<trkpt lat="48.312703333" lon="16.380540000">
<time>2012-06-16T19:46:38Z</time>
 <fix>2d</fix>
 <sat>6</sat>
</trkpt>
<trkpt lat="48.312678333" lon="16.380518333">
<time>2012-06-16T19:46:39Z</time>
 <fix>2d</fix>
 <sat>6</sat>
</trkpt>
<trkpt lat="48.312663333" lon="16.380486667">
<time>2012-06-16T19:46:40Z</time>
 <fix>2d</fix>
 <sat>6</sat>
</trkpt>
<trkpt lat="48.312650000" lon="16.380453333">
<time>2012-06-16T19:46:41Z</time>
 <fix>2d</fix>
 <sat>6</sat>
</trkpt>
<trkpt lat="48.312645000" lon="16.380413333">
<time>2012-06-16T19:46:42Z</time>
 <fix>2d</fix>
 <sat>6</sat>
</trkpt>
<trkpt lat="48.312641667" lon="16.380353333">
<time>2012-06-16T19:46:43Z</time>
 <fix>2d</fix>
 <sat>6</sat>
</trkpt>
<trkpt lat="48.312630000" lon="16.380281667">
<time>2012-06-16T19:46:44Z</time>
 <fix>2d</fix>
 <sat>6</sat>
</trkpt>
<trkpt lat="48.312610000" lon="16.380223333">
<time>2012-06-16T19:46:45Z</time>
 <fix>2d</fix>
 <sat>6</sat>
</trkpt>
<trkpt lat="48.312588333" lon="16.380181667">
<time>2012-06-16T19:46:46Z</time>
 <fix>2d</fix>
 <sat>6</sat>
</trkpt>
<trkpt lat="48.312551667" lon="16.380120000">
<time>2012-06-16T19:46:47Z</time>
 <fix>2d</fix>
 <sat>6</sat>
</trkpt>
<trkpt lat="48.312516667" lon="16.380096667">
<time>2012-06-16T19:46:48Z</time>
 <fix>2d</fix>
 <sat>6</sat>
</trkpt>
<trkpt lat="48.312473333" lon="16.380086667">
<time>2012-06-16T19:46:49Z</time>
 <fix>2d</fix>
 <sat>6</sat>
</trkpt>
<trkpt lat="48.312421667" lon="16.380085000">
<time>2012-06-16T19:46:50Z</time>
 <fix>2d</fix>
 <sat>6</sat>
</trkpt>
<trkpt lat="48.312346667" lon="16.380063333">
<time>2012-06-16T19:46:51Z</time>
 <fix>2d</fix>
 <sat>6</sat>
</trkpt>
<trkpt lat="48.312250000" lon="16.380043333">
<time>2012-06-16T19:46:52Z</time>
 <fix>2d</fix>
 <sat>6</sat>
</trkpt>
<trkpt lat="48.312171667" lon="16.380050000">
<time>2012-06-16T19:46:53Z</time>
 <fix>2d</fix>
 <sat>6</sat>
</trkpt>
<trkpt lat="48.312111667" lon="16.380043333">
<time>2012-06-16T19:46:54Z</time>
 <fix>2d</fix>
 <sat>6</sat>
</trkpt>
<trkpt lat="48.312055000" lon="16.380055000">
<time>2012-06-16T19:46:55Z</time>
 <fix>2d</fix>
 <sat>6</sat>
</trkpt>
<trkpt lat="48.311996667" lon="16.380068333">
<time>2012-06-16T19:46:56Z</time>
 <fix>2d</fix>
 <sat>6</sat>
</trkpt>
<trkpt lat="48.311931667" lon="16.380090000">
<time>2012-06-16T19:46:57Z</time>
 <fix>2d</fix>
 <sat>6</sat>
</trkpt>
<trkpt lat="48.311876667" lon="16.380091667">
<time>2012-06-16T19:46:58Z</time>
 <fix>2d</fix>
 <sat>6</sat>
</trkpt>
<trkpt lat="48.311811667" lon="16.380078333">
<time>2012-06-16T19:46:59Z</time>
 <fix>2d</fix>
 <sat>6</sat>
</trkpt>
<trkpt lat="48.311741667" lon="16.380070000">
<time>2012-06-16T19:47:00Z</time>
 <fix>2d</fix>
 <sat>6</sat>
</trkpt>
<trkpt lat="48.311673333" lon="16.380061667">
<time>2012-06-16T19:47:01Z</time>
 <fix>2d</fix>
 <sat>6</sat>
</trkpt>
<trkpt lat="48.311598333" lon="16.380056667">
<time>2012-06-16T19:47:02Z</time>
 <fix>2d</fix>
 <sat>6</sat>
</trkpt>
<trkpt lat="48.311536667" lon="16.380031667">
<time>2012-06-16T19:47:03Z</time>
 <fix>2d</fix>
 <sat>6</sat>
</trkpt>
<trkpt lat="48.311495000" lon="16.379993333">
<time>2012-06-16T19:47:04Z</time>
 <fix>2d</fix>
 <sat>6</sat>
</trkpt>
<trkpt lat="48.311418333" lon="16.379951667">
<time>2012-06-16T19:47:05Z</time>
 <fix>2d</fix>
 <sat>6</sat>
</trkpt>
<trkpt lat="48.311358333" lon="16.379921667">
<time>2012-06-16T19:47:06Z</time>
 <fix>2d</fix>
 <sat>6</sat>
</trkpt>
<trkpt lat="48.311315000" lon="16.379888333">
<time>2012-06-16T19:47:07Z</time>
 <fix>2d</fix>
 <sat>6</sat>
</trkpt>
<trkpt lat="48.311256667" lon="16.379861667">
<time>2012-06-16T19:47:08Z</time>
 <fix>2d</fix>
 <sat>6</sat>
</trkpt>
<trkpt lat="48.311195000" lon="16.379833333">
<time>2012-06-16T19:47:09Z</time>
 <fix>2d</fix>
 <sat>6</sat>
</trkpt>
<trkpt lat="48.311123333" lon="16.379786667">
<time>2012-06-16T19:47:10Z</time>
 <fix>2d</fix>
 <sat>6</sat>
</trkpt>
<trkpt lat="48.311056667" lon="16.379740000">
<time>2012-06-16T19:47:11Z</time>
 <fix>2d</fix>
 <sat>6</sat>
</trkpt>
<trkpt lat="48.310988333" lon="16.379691667">
<time>2012-06-16T19:47:12Z</time>
 <fix>2d</fix>
 <sat>6</sat>
</trkpt>
<trkpt lat="48.310921667" lon="16.379648333">
<time>2012-06-16T19:47:13Z</time>
 <fix>2d</fix>
 <sat>6</sat>
</trkpt>
<trkpt lat="48.310865000" lon="16.379608333">
<time>2012-06-16T19:47:14Z</time>
 <fix>2d</fix>
 <sat>6</sat>
</trkpt>
<trkpt lat="48.310806667" lon="16.379590000">
<time>2012-06-16T19:47:15Z</time>
 <fix>2d</fix>
 <sat>6</sat>
</trkpt>
<trkpt lat="48.310751667" lon="16.379568333">
<time>2012-06-16T19:47:16Z</time>
 <fix>2d</fix>
 <sat>6</sat>
</trkpt>
<trkpt lat="48.310686667" lon="16.379558333">
<time>2012-06-16T19:47:17Z</time>
 <fix>2d</fix>
 <sat>6</sat>
</trkpt>
<trkpt lat="48.310618333" lon="16.379561667">
<time>2012-06-16T19:47:18Z</time>
 <fix>2d</fix>
 <sat>6</sat>
</trkpt>
<trkpt lat="48.310556667" lon="16.379556667">
<time>2012-06-16T19:47:19Z</time>
 <fix>2d</fix>
 <sat>6</sat>
</trkpt>
<trkpt lat="48.310495000" lon="16.379550000">
<time>2012-06-16T19:47:20Z</time>
 <fix>2d</fix>
 <sat>6</sat>
</trkpt>
<trkpt lat="48.310431667" lon="16.379548333">
<time>2012-06-16T19:47:21Z</time>
 <fix>2d</fix>
 <sat>6</sat>
</trkpt>
<trkpt lat="48.310368333" lon="16.379553333">
<time>2012-06-16T19:47:22Z</time>
 <fix>2d</fix>
 <sat>6</sat>
</trkpt>
<trkpt lat="48.310308333" lon="16.379561667">
<time>2012-06-16T19:47:23Z</time>
 <fix>2d</fix>
 <sat>6</sat>
</trkpt>
<trkpt lat="48.310238333" lon="16.379545000">
<time>2012-06-16T19:47:24Z</time>
 <fix>2d</fix>
 <sat>6</sat>
</trkpt>
<trkpt lat="48.310170000" lon="16.379536667">
<time>2012-06-16T19:47:25Z</time>
 <fix>2d</fix>
 <sat>6</sat>
</trkpt>
<trkpt lat="48.310105000" lon="16.379533333">
<time>2012-06-16T19:47:26Z</time>
 <fix>2d</fix>
 <sat>6</sat>
</trkpt>
<trkpt lat="48.310046667" lon="16.379565000">
<time>2012-06-16T19:47:27Z</time>
 <fix>2d</fix>
 <sat>6</sat>
</trkpt>
<trkpt lat="48.309990000" lon="16.379596667">
<time>2012-06-16T19:47:28Z</time>
 <fix>2d</fix>
 <sat>6</sat>
</trkpt>
<trkpt lat="48.309923333" lon="16.379636667">
<time>2012-06-16T19:47:29Z</time>
 <fix>2d</fix>
 <sat>6</sat>
</trkpt>
<trkpt lat="48.309870000" lon="16.379691667">
<time>2012-06-16T19:47:30Z</time>
 <fix>2d</fix>
 <sat>6</sat>
</trkpt>
<trkpt lat="48.309818333" lon="16.379748333">
<time>2012-06-16T19:47:31Z</time>
 <fix>2d</fix>
 <sat>6</sat>
</trkpt>
<trkpt lat="48.309775000" lon="16.379796667">
<time>2012-06-16T19:47:32Z</time>
 <fix>2d</fix>
 <sat>6</sat>
</trkpt>
<trkpt lat="48.309735000" lon="16.379861667">
<time>2012-06-16T19:47:33Z</time>
 <fix>2d</fix>
 <sat>6</sat>
</trkpt>
<trkpt lat="48.309693333" lon="16.379921667">
<time>2012-06-16T19:47:34Z</time>
 <fix>2d</fix>
 <sat>6</sat>
</trkpt>
<trkpt lat="48.309660000" lon="16.379965000">
<time>2012-06-16T19:47:35Z</time>
 <fix>2d</fix>
 <sat>6</sat>
</trkpt>
<trkpt lat="48.309623333" lon="16.380016667">
<time>2012-06-16T19:47:36Z</time>
 <fix>2d</fix>
 <sat>6</sat>
</trkpt>
<trkpt lat="48.309588333" lon="16.380061667">
<time>2012-06-16T19:47:37Z</time>
 <fix>2d</fix>
 <sat>6</sat>
</trkpt>
<trkpt lat="48.309555000" lon="16.380111667">
<time>2012-06-16T19:47:38Z</time>
 <fix>2d</fix>
 <sat>6</sat>
</trkpt>
<trkpt lat="48.309535000" lon="16.380158333">
<time>2012-06-16T19:47:39Z</time>
 <fix>2d</fix>
 <sat>6</sat>
</trkpt>
<trkpt lat="48.309515000" lon="16.380195000">
<time>2012-06-16T19:47:40Z</time>
 <fix>2d</fix>
 <sat>6</sat>
</trkpt>
<trkpt lat="48.309488333" lon="16.380241667">
<time>2012-06-16T19:47:41Z</time>
 <fix>2d</fix>
 <sat>6</sat>
</trkpt>
<trkpt lat="48.309445000" lon="16.380298333">
<time>2012-06-16T19:47:42Z</time>
 <fix>2d</fix>
 <sat>6</sat>
</trkpt>
<trkpt lat="48.309393333" lon="16.380351667">
<time>2012-06-16T19:47:43Z</time>
 <fix>2d</fix>
 <sat>6</sat>
</trkpt>
<trkpt lat="48.309338333" lon="16.380408333">
<time>2012-06-16T19:47:44Z</time>
 <fix>2d</fix>
 <sat>6</sat>
</trkpt>
<trkpt lat="48.309285000" lon="16.380460000">
<time>2012-06-16T19:47:45Z</time>
 <fix>2d</fix>
 <sat>6</sat>
</trkpt>
<trkpt lat="48.309220000" lon="16.380523333">
<time>2012-06-16T19:47:46Z</time>
 <fix>2d</fix>
 <sat>6</sat>
</trkpt>
<trkpt lat="48.309145000" lon="16.380593333">
<time>2012-06-16T19:47:47Z</time>
 <fix>2d</fix>
 <sat>6</sat>
</trkpt>
<trkpt lat="48.309070000" lon="16.380661667">
<time>2012-06-16T19:47:48Z</time>
 <fix>2d</fix>
 <sat>6</sat>
</trkpt>
<trkpt lat="48.308995000" lon="16.380730000">
<time>2012-06-16T19:47:49Z</time>
 <fix>2d</fix>
 <sat>6</sat>
</trkpt>
<trkpt lat="48.308918333" lon="16.380805000">
<time>2012-06-16T19:47:50Z</time>
 <fix>2d</fix>
 <sat>6</sat>
</trkpt>
<trkpt lat="48.308836667" lon="16.380875000">
<time>2012-06-16T19:47:51Z</time>
 <fix>2d</fix>
 <sat>6</sat>
</trkpt>
<trkpt lat="48.308760000" lon="16.380943333">
<time>2012-06-16T19:47:52Z</time>
 <fix>2d</fix>
 <sat>6</sat>
</trkpt>
<trkpt lat="48.308688333" lon="16.381005000">
<time>2012-06-16T19:47:53Z</time>
 <fix>2d</fix>
 <sat>6</sat>
</trkpt>
<trkpt lat="48.308616667" lon="16.381065000">
<time>2012-06-16T19:47:54Z</time>
 <fix>2d</fix>
 <sat>6</sat>
</trkpt>
<trkpt lat="48.308545000" lon="16.381126667">
<time>2012-06-16T19:47:55Z</time>
 <fix>2d</fix>
 <sat>6</sat>
</trkpt>
<trkpt lat="48.308470000" lon="16.381191667">
<time>2012-06-16T19:47:56Z</time>
 <fix>2d</fix>
 <sat>6</sat>
</trkpt>
<trkpt lat="48.308395000" lon="16.381270000">
<time>2012-06-16T19:47:57Z</time>
 <fix>2d</fix>
 <sat>6</sat>
</trkpt>
<trkpt lat="48.308316667" lon="16.381346667">
<time>2012-06-16T19:47:58Z</time>
 <fix>2d</fix>
 <sat>6</sat>
</trkpt>
<trkpt lat="48.308238333" lon="16.381416667">
<time>2012-06-16T19:47:59Z</time>
 <fix>2d</fix>
 <sat>6</sat>
</trkpt>
<trkpt lat="48.308161667" lon="16.381490000">
<time>2012-06-16T19:48:00Z</time>
 <fix>2d</fix>
 <sat>6</sat>
</trkpt>
<trkpt lat="48.308086667" lon="16.381563333">
<time>2012-06-16T19:48:01Z</time>
 <fix>2d</fix>
 <sat>6</sat>
</trkpt>
<trkpt lat="48.308013333" lon="16.381640000">
<time>2012-06-16T19:48:02Z</time>
 <fix>2d</fix>
 <sat>6</sat>
</trkpt>
<trkpt lat="48.307936667" lon="16.381710000">
<time>2012-06-16T19:48:03Z</time>
 <fix>2d</fix>
 <sat>6</sat>
</trkpt>
<trkpt lat="48.307855000" lon="16.381785000">
<time>2012-06-16T19:48:04Z</time>
 <fix>2d</fix>
 <sat>6</sat>
</trkpt>
<trkpt lat="48.307780000" lon="16.381865000">
<time>2012-06-16T19:48:05Z</time>
 <fix>2d</fix>
 <sat>6</sat>
</trkpt>
<trkpt lat="48.307701667" lon="16.381945000">
<time>2012-06-16T19:48:06Z</time>
 <fix>2d</fix>
 <sat>6</sat>
</trkpt>
<trkpt lat="48.307630000" lon="16.382021667">
<time>2012-06-16T19:48:07Z</time>
 <fix>2d</fix>
 <sat>6</sat>
</trkpt>
<trkpt lat="48.307565000" lon="16.382096667">
<time>2012-06-16T19:48:08Z</time>
 <fix>2d</fix>
 <sat>6</sat>
</trkpt>
<trkpt lat="48.307475000" lon="16.382141667">
<time>2012-06-16T19:48:09Z</time>
 <fix>2d</fix>
 <sat>6</sat>
</trkpt>
<trkpt lat="48.307410000" lon="16.382216667">
<time>2012-06-16T19:48:10Z</time>
 <fix>2d</fix>
 <sat>6</sat>
</trkpt>
<trkpt lat="48.307333333" lon="16.382273333">
<time>2012-06-16T19:48:11Z</time>
 <fix>2d</fix>
 <sat>6</sat>
</trkpt>
<trkpt lat="48.307256667" lon="16.382326667">
<time>2012-06-16T19:48:12Z</time>
 <fix>2d</fix>
 <sat>6</sat>
</trkpt>
<trkpt lat="48.307176667" lon="16.382386667">
<time>2012-06-16T19:48:13Z</time>
 <fix>2d</fix>
 <sat>6</sat>
</trkpt>
<trkpt lat="48.307096667" lon="16.382445000">
<time>2012-06-16T19:48:14Z</time>
 <fix>2d</fix>
 <sat>6</sat>
</trkpt>
<trkpt lat="48.307021667" lon="16.382498333">
<time>2012-06-16T19:48:15Z</time>
 <fix>2d</fix>
 <sat>6</sat>
</trkpt>
<trkpt lat="48.306951667" lon="16.382531667">
<time>2012-06-16T19:48:16Z</time>
 <fix>2d</fix>
 <sat>6</sat>
</trkpt>
<trkpt lat="48.306875000" lon="16.382545000">
<time>2012-06-16T19:48:17Z</time>
 <fix>2d</fix>
 <sat>6</sat>
</trkpt>
<trkpt lat="48.306796667" lon="16.382540000">
<time>2012-06-16T19:48:18Z</time>
 <fix>2d</fix>
 <sat>6</sat>
</trkpt>
<trkpt lat="48.306718333" lon="16.382545000">
<time>2012-06-16T19:48:19Z</time>
 <fix>2d</fix>
 <sat>6</sat>
</trkpt>
<trkpt lat="48.306628333" lon="16.382545000">
<time>2012-06-16T19:48:20Z</time>
 <fix>2d</fix>
 <sat>6</sat>
</trkpt>
<trkpt lat="48.306541667" lon="16.382545000">
<time>2012-06-16T19:48:21Z</time>
 <fix>2d</fix>
 <sat>6</sat>
</trkpt>
<trkpt lat="48.306451667" lon="16.382540000">
<time>2012-06-16T19:48:22Z</time>
 <fix>2d</fix>
 <sat>6</sat>
</trkpt>
<trkpt lat="48.306350000" lon="16.382516667">
<time>2012-06-16T19:48:23Z</time>
 <fix>2d</fix>
 <sat>6</sat>
</trkpt>
<trkpt lat="48.306251667" lon="16.382508333">
<time>2012-06-16T19:48:24Z</time>
 <fix>2d</fix>
 <sat>6</sat>
</trkpt>
<trkpt lat="48.306153333" lon="16.382488333">
<time>2012-06-16T19:48:25Z</time>
 <fix>2d</fix>
 <sat>6</sat>
</trkpt>
<trkpt lat="48.306055000" lon="16.382500000">
<time>2012-06-16T19:48:26Z</time>
 <fix>2d</fix>
 <sat>6</sat>
</trkpt>
<trkpt lat="48.305971667" lon="16.382511667">
<time>2012-06-16T19:48:27Z</time>
 <fix>2d</fix>
 <sat>6</sat>
</trkpt>
<trkpt lat="48.305881667" lon="16.382503333">
<time>2012-06-16T19:48:28Z</time>
 <fix>2d</fix>
 <sat>6</sat>
</trkpt>
<trkpt lat="48.305803333" lon="16.382480000">
<time>2012-06-16T19:48:29Z</time>
 <fix>2d</fix>
 <sat>6</sat>
</trkpt>
<trkpt lat="48.305738333" lon="16.382433333">
<time>2012-06-16T19:48:30Z</time>
 <fix>2d</fix>
 <sat>6</sat>
</trkpt>
<trkpt lat="48.305676667" lon="16.382375000">
<time>2012-06-16T19:48:31Z</time>
 <fix>2d</fix>
 <sat>6</sat>
</trkpt>
<trkpt lat="48.305616667" lon="16.382311667">
<time>2012-06-16T19:48:32Z</time>
 <fix>2d</fix>
 <sat>6</sat>
</trkpt>
<trkpt lat="48.305561667" lon="16.382246667">
<time>2012-06-16T19:48:33Z</time>
 <fix>2d</fix>
 <sat>6</sat>
</trkpt>
<trkpt lat="48.305506667" lon="16.382170000">
<time>2012-06-16T19:48:34Z</time>
 <fix>2d</fix>
 <sat>6</sat>
</trkpt>
<trkpt lat="48.305453333" lon="16.382073333">
<time>2012-06-16T19:48:35Z</time>
 <fix>2d</fix>
 <sat>6</sat>
</trkpt>
<trkpt lat="48.305400000" lon="16.381975000">
<time>2012-06-16T19:48:36Z</time>
 <fix>2d</fix>
 <sat>6</sat>
</trkpt>
<trkpt lat="48.305348333" lon="16.381876667">
<time>2012-06-16T19:48:37Z</time>
 <fix>2d</fix>
 <sat>6</sat>
</trkpt>
<trkpt lat="48.305298333" lon="16.381783333">
<time>2012-06-16T19:48:38Z</time>
 <fix>2d</fix>
 <sat>6</sat>
</trkpt>
<trkpt lat="48.305248333" lon="16.381693333">
<time>2012-06-16T19:48:39Z</time>
 <fix>2d</fix>
 <sat>6</sat>
</trkpt>
<trkpt lat="48.305208333" lon="16.381615000">
<time>2012-06-16T19:48:40Z</time>
 <fix>2d</fix>
 <sat>6</sat>
</trkpt>
<trkpt lat="48.305163333" lon="16.381535000">
<time>2012-06-16T19:48:41Z</time>
 <fix>2d</fix>
 <sat>6</sat>
</trkpt>
<trkpt lat="48.305123333" lon="16.381450000">
<time>2012-06-16T19:48:42Z</time>
 <fix>2d</fix>
 <sat>6</sat>
</trkpt>
<trkpt lat="48.305085000" lon="16.381380000">
<time>2012-06-16T19:48:43Z</time>
 <fix>2d</fix>
 <sat>6</sat>
</trkpt>
<trkpt lat="48.305036667" lon="16.381330000">
<time>2012-06-16T19:48:44Z</time>
 <fix>2d</fix>
 <sat>6</sat>
</trkpt>
<trkpt lat="48.304985000" lon="16.381271667">
<time>2012-06-16T19:48:45Z</time>
 <fix>2d</fix>
 <sat>6</sat>
</trkpt>
<trkpt lat="48.304933333" lon="16.381213333">
<time>2012-06-16T19:48:46Z</time>
 <fix>2d</fix>
 <sat>6</sat>
</trkpt>
<trkpt lat="48.304878333" lon="16.381151667">
<time>2012-06-16T19:48:47Z</time>
 <fix>2d</fix>
 <sat>6</sat>
</trkpt>
<trkpt lat="48.304825000" lon="16.381091667">
<time>2012-06-16T19:48:48Z</time>
 <fix>2d</fix>
 <sat>6</sat>
</trkpt>
<trkpt lat="48.304766667" lon="16.381053333">
<time>2012-06-16T19:48:49Z</time>
 <fix>2d</fix>
 <sat>6</sat>
</trkpt>
<trkpt lat="48.304716667" lon="16.381025000">
<time>2012-06-16T19:48:50Z</time>
 <fix>2d</fix>
 <sat>6</sat>
</trkpt>
<trkpt lat="48.304665000" lon="16.380998333">
<time>2012-06-16T19:48:51Z</time>
 <fix>2d</fix>
 <sat>6</sat>
</trkpt>
<trkpt lat="48.304611667" lon="16.380955000">
<time>2012-06-16T19:48:52Z</time>
 <fix>2d</fix>
 <sat>6</sat>
</trkpt>
<trkpt lat="48.304528333" lon="16.380946667">
<time>2012-06-16T19:48:53Z</time>
 <fix>2d</fix>
 <sat>6</sat>
</trkpt>
<trkpt lat="48.304435000" lon="16.380938333">
<time>2012-06-16T19:48:54Z</time>
 <fix>2d</fix>
 <sat>6</sat>
</trkpt>
<trkpt lat="48.304350000" lon="16.380926667">
<time>2012-06-16T19:48:55Z</time>
 <fix>2d</fix>
 <sat>6</sat>
</trkpt>
<trkpt lat="48.304281667" lon="16.380915000">
<time>2012-06-16T19:48:56Z</time>
 <fix>2d</fix>
 <sat>6</sat>
</trkpt>
<trkpt lat="48.304205000" lon="16.380901667">
<time>2012-06-16T19:48:57Z</time>
 <fix>2d</fix>
 <sat>6</sat>
</trkpt>
<trkpt lat="48.304128333" lon="16.380871667">
<time>2012-06-16T19:48:58Z</time>
 <fix>2d</fix>
 <sat>6</sat>
</trkpt>
<trkpt lat="48.304050000" lon="16.380838333">
<time>2012-06-16T19:48:59Z</time>
 <fix>2d</fix>
 <sat>6</sat>
</trkpt>
<trkpt lat="48.303971667" lon="16.380816667">
<time>2012-06-16T19:49:00Z</time>
 <fix>2d</fix>
 <sat>6</sat>
</trkpt>
<trkpt lat="48.303893333" lon="16.380788333">
<time>2012-06-16T19:49:01Z</time>
 <fix>2d</fix>
 <sat>6</sat>
</trkpt>
<trkpt lat="48.303806667" lon="16.380768333">
<time>2012-06-16T19:49:02Z</time>
 <fix>2d</fix>
 <sat>6</sat>
</trkpt>
<trkpt lat="48.303725000" lon="16.380753333">
<time>2012-06-16T19:49:03Z</time>
 <fix>2d</fix>
 <sat>6</sat>
</trkpt>
<trkpt lat="48.303635000" lon="16.380783333">
<time>2012-06-16T19:49:04Z</time>
 <fix>2d</fix>
 <sat>6</sat>
</trkpt>
<trkpt lat="48.303556667" lon="16.380745000">
<time>2012-06-16T19:49:05Z</time>
 <fix>2d</fix>
 <sat>6</sat>
</trkpt>
<trkpt lat="48.303488333" lon="16.380725000">
<time>2012-06-16T19:49:06Z</time>
 <fix>2d</fix>
 <sat>6</sat>
</trkpt>
<trkpt lat="48.303406667" lon="16.380690000">
<time>2012-06-16T19:49:07Z</time>
 <fix>2d</fix>
 <sat>6</sat>
</trkpt>
<trkpt lat="48.303335000" lon="16.380638333">
<time>2012-06-16T19:49:08Z</time>
 <fix>2d</fix>
 <sat>6</sat>
</trkpt>
<trkpt lat="48.303261667" lon="16.380598333">
<time>2012-06-16T19:49:09Z</time>
 <fix>2d</fix>
 <sat>6</sat>
</trkpt>
<trkpt lat="48.303191667" lon="16.380546667">
<time>2012-06-16T19:49:10Z</time>
 <fix>2d</fix>
 <sat>6</sat>
</trkpt>
<trkpt lat="48.303125000" lon="16.380493333">
<time>2012-06-16T19:49:11Z</time>
 <fix>2d</fix>
 <sat>6</sat>
</trkpt>
<trkpt lat="48.303056667" lon="16.380446667">
<time>2012-06-16T19:49:12Z</time>
 <fix>2d</fix>
 <sat>6</sat>
</trkpt>
<trkpt lat="48.302986667" lon="16.380403333">
<time>2012-06-16T19:49:13Z</time>
 <fix>2d</fix>
 <sat>6</sat>
</trkpt>
<trkpt lat="48.302913333" lon="16.380361667">
<time>2012-06-16T19:49:14Z</time>
 <fix>2d</fix>
 <sat>6</sat>
</trkpt>
<trkpt lat="48.302835000" lon="16.380326667">
<time>2012-06-16T19:49:15Z</time>
 <fix>2d</fix>
 <sat>6</sat>
</trkpt>
<trkpt lat="48.302760000" lon="16.380291667">
<time>2012-06-16T19:49:16Z</time>
 <fix>2d</fix>
 <sat>6</sat>
</trkpt>
<trkpt lat="48.302678333" lon="16.380253333">
<time>2012-06-16T19:49:17Z</time>
 <fix>2d</fix>
 <sat>6</sat>
</trkpt>
<trkpt lat="48.302600000" lon="16.380210000">
<time>2012-06-16T19:49:18Z</time>
 <fix>2d</fix>
 <sat>6</sat>
</trkpt>
<trkpt lat="48.302523333" lon="16.380166667">
<time>2012-06-16T19:49:19Z</time>
 <fix>2d</fix>
 <sat>6</sat>
</trkpt>
<trkpt lat="48.302451667" lon="16.380126667">
<time>2012-06-16T19:49:20Z</time>
 <fix>2d</fix>
 <sat>6</sat>
</trkpt>
<trkpt lat="48.302386667" lon="16.380091667">
<time>2012-06-16T19:49:21Z</time>
 <fix>2d</fix>
 <sat>6</sat>
</trkpt>
<trkpt lat="48.302328333" lon="16.380056667">
<time>2012-06-16T19:49:22Z</time>
 <fix>2d</fix>
 <sat>6</sat>
</trkpt>
<trkpt lat="48.302270000" lon="16.380021667">
<time>2012-06-16T19:49:23Z</time>
 <fix>2d</fix>
 <sat>6</sat>
</trkpt>
<trkpt lat="48.302218333" lon="16.379988333">
<time>2012-06-16T19:49:24Z</time>
 <fix>2d</fix>
 <sat>6</sat>
</trkpt>
<trkpt lat="48.302173333" lon="16.379965000">
<time>2012-06-16T19:49:25Z</time>
 <fix>2d</fix>
 <sat>6</sat>
</trkpt>
<trkpt lat="48.302135000" lon="16.379945000">
<time>2012-06-16T19:49:26Z</time>
 <fix>2d</fix>
 <sat>6</sat>
</trkpt>
<trkpt lat="48.302105000" lon="16.379930000">
<time>2012-06-16T19:49:27Z</time>
 <fix>2d</fix>
 <sat>6</sat>
</trkpt>
<trkpt lat="48.302080000" lon="16.379913333">
<time>2012-06-16T19:49:28Z</time>
 <fix>2d</fix>
 <sat>6</sat>
</trkpt>
<trkpt lat="48.302060000" lon="16.379900000">
<time>2012-06-16T19:49:29Z</time>
 <fix>2d</fix>
 <sat>6</sat>
</trkpt>
<trkpt lat="48.302046667" lon="16.379895000">
<time>2012-06-16T19:49:30Z</time>
 <fix>2d</fix>
 <sat>6</sat>
</trkpt>
<trkpt lat="48.302045000" lon="16.379893333">
<time>2012-06-16T19:49:31Z</time>
 <fix>2d</fix>
 <sat>6</sat>
</trkpt>
<trkpt lat="48.302045000" lon="16.379893333">
<time>2012-06-16T19:49:32Z</time>
 <fix>2d</fix>
 <sat>6</sat>
</trkpt>
</trkseg>
</trk>
</gpx>